<?xml version="1.0"?>
<gpx xmlns:xsi="http://www.w3.org/2001/XMLSchema-instance" xmlns:xsd="http://www.w3.org/2001/XMLSchema" version="1.1" creator="Ski Blackbox" xmlns="http://www.topografix.com/GPX/1/1">
  <trk>
    <trkseg>
      <trkpt lat="43.03719797036" lon="-5.396003698">
        <ele>1939.78</ele>
        <time>2013-02-20T11:25:30+01:00</time>
      </trkpt>
      <trkpt lat="43.03717242358" lon="-5.39602635177">
        <ele>1938.9</ele>
        <time>2013-02-20T11:25:31+01:00</time>
      </trkpt>
      <trkpt lat="43.03715318778" lon="-5.39607027496">
        <ele>1939.71</ele>
        <time>2013-02-20T11:25:33+01:00</time>
      </trkpt>
      <trkpt lat="43.03713395145" lon="-5.39612445598">
        <ele>1939.61</ele>
        <time>2013-02-20T11:25:35+01:00</time>
      </trkpt>
      <trkpt lat="43.03711873832" lon="-5.39616137667">
        <ele>1939.66</ele>
        <time>2013-02-20T11:25:36+01:00</time>
      </trkpt>
      <trkpt lat="43.03710815198" lon="-5.39619169369">
        <ele>1939.66</ele>
        <time>2013-02-20T11:25:37+01:00</time>
      </trkpt>
      <trkpt lat="43.03709916155" lon="-5.3962227687">
        <ele>1939.83</ele>
        <time>2013-02-20T11:25:38+01:00</time>
      </trkpt>
      <trkpt lat="43.0370851442" lon="-5.39626129329">
        <ele>1939.95</ele>
        <time>2013-02-20T11:25:39+01:00</time>
      </trkpt>
      <trkpt lat="43.03706488806" lon="-5.39631118697">
        <ele>1940.3</ele>
        <time>2013-02-20T11:25:41+01:00</time>
      </trkpt>
      <trkpt lat="43.03704970566" lon="-5.39634383038">
        <ele>1940.66</ele>
        <time>2013-02-20T11:25:42+01:00</time>
      </trkpt>
      <trkpt lat="43.03703671148" lon="-5.39637282256">
        <ele>1941.17</ele>
        <time>2013-02-20T11:25:43+01:00</time>
      </trkpt>
      <trkpt lat="43.03702321617" lon="-5.39640323026">
        <ele>1941.76</ele>
        <time>2013-02-20T11:25:44+01:00</time>
      </trkpt>
      <trkpt lat="43.03700891656" lon="-5.39643157414">
        <ele>1942.39</ele>
        <time>2013-02-20T11:25:45+01:00</time>
      </trkpt>
      <trkpt lat="43.03699619951" lon="-5.39645937114">
        <ele>1943.02</ele>
        <time>2013-02-20T11:25:46+01:00</time>
      </trkpt>
      <trkpt lat="43.03698302785" lon="-5.39651220447">
        <ele>1943.67</ele>
        <time>2013-02-20T11:25:48+01:00</time>
      </trkpt>
      <trkpt lat="43.0369697988" lon="-5.39654282065">
        <ele>1944.47</ele>
        <time>2013-02-20T11:25:49+01:00</time>
      </trkpt>
      <trkpt lat="43.03696328366" lon="-5.39656860826">
        <ele>1945.08</ele>
        <time>2013-02-20T11:25:51+01:00</time>
      </trkpt>
      <trkpt lat="43.03695805634" lon="-5.39659985843">
        <ele>1945.69</ele>
        <time>2013-02-20T11:25:53+01:00</time>
      </trkpt>
      <trkpt lat="43.0369572867" lon="-5.39663145104">
        <ele>1946.19</ele>
        <time>2013-02-20T11:25:55+01:00</time>
      </trkpt>
      <trkpt lat="43.03695493214" lon="-5.39667306361">
        <ele>1946.8</ele>
        <time>2013-02-20T11:25:57+01:00</time>
      </trkpt>
      <trkpt lat="43.03695317956" lon="-5.39668251385">
        <ele>1947.35</ele>
        <time>2013-02-20T11:25:59+01:00</time>
      </trkpt>
      <trkpt lat="43.03694954448" lon="-5.39669547823">
        <ele>1947.83</ele>
        <time>2013-02-20T11:26:01+01:00</time>
      </trkpt>
      <trkpt lat="43.03694435764" lon="-5.39671120302">
        <ele>1948.37</ele>
        <time>2013-02-20T11:26:03+01:00</time>
      </trkpt>
      <trkpt lat="43.03693762335" lon="-5.39672961334">
        <ele>1948.93</ele>
        <time>2013-02-20T11:26:05+01:00</time>
      </trkpt>
      <trkpt lat="43.03689327934" lon="-5.39683278588">
        <ele>1949.36</ele>
        <time>2013-02-20T11:26:07+01:00</time>
      </trkpt>
      <trkpt lat="43.03684994304" lon="-5.39690914067">
        <ele>1949.72</ele>
        <time>2013-02-20T11:26:09+01:00</time>
      </trkpt>
      <trkpt lat="43.03680072301" lon="-5.39698725654">
        <ele>1950.22</ele>
        <time>2013-02-20T11:26:11+01:00</time>
      </trkpt>
      <trkpt lat="43.03677701278" lon="-5.39703274434">
        <ele>1952.1</ele>
        <time>2013-02-20T11:26:20+01:00</time>
      </trkpt>
      <trkpt lat="43.03674921944" lon="-5.39702446881">
        <ele>1953.18</ele>
        <time>2013-02-20T11:26:31+01:00</time>
      </trkpt>
      <trkpt lat="43.03673280144" lon="-5.39700663413">
        <ele>1953.94</ele>
        <time>2013-02-20T11:26:33+01:00</time>
      </trkpt>
      <trkpt lat="43.03670568416" lon="-5.39698677953">
        <ele>1954.61</ele>
        <time>2013-02-20T11:26:35+01:00</time>
      </trkpt>
      <trkpt lat="43.03667788959" lon="-5.39698984835">
        <ele>1955.39</ele>
        <time>2013-02-20T11:26:38+01:00</time>
      </trkpt>
      <trkpt lat="43.0366685458" lon="-5.39701821728">
        <ele>1955.98</ele>
        <time>2013-02-20T11:26:41+01:00</time>
      </trkpt>
      <trkpt lat="43.03667032846" lon="-5.39706050836">
        <ele>1956.18</ele>
        <time>2013-02-20T11:26:44+01:00</time>
      </trkpt>
      <trkpt lat="43.03667820131" lon="-5.39709476144">
        <ele>1956</ele>
        <time>2013-02-20T11:26:47+01:00</time>
      </trkpt>
      <trkpt lat="43.03669034188" lon="-5.39713251065">
        <ele>1955.77</ele>
        <time>2013-02-20T11:26:50+01:00</time>
      </trkpt>
      <trkpt lat="43.03670530148" lon="-5.39715423926">
        <ele>1954.99</ele>
        <time>2013-02-20T11:26:54+01:00</time>
      </trkpt>
      <trkpt lat="43.03672244205" lon="-5.39717407474">
        <ele>1954.89</ele>
        <time>2013-02-20T11:26:57+01:00</time>
      </trkpt>
      <trkpt lat="43.03673223311" lon="-5.39718828884">
        <ele>1954.78</ele>
        <time>2013-02-20T11:26:59+01:00</time>
      </trkpt>
      <trkpt lat="43.03673368867" lon="-5.39719014787">
        <ele>1954.78</ele>
        <time>2013-02-20T11:27:03+01:00</time>
      </trkpt>
      <trkpt lat="43.03676003777" lon="-5.3970572043">
        <ele>1955.91</ele>
        <time>2013-02-20T11:28:26+01:00</time>
      </trkpt>
      <trkpt lat="43.03676091548" lon="-5.39708258338">
        <ele>1956.06</ele>
        <time>2013-02-20T11:28:35+01:00</time>
      </trkpt>
      <trkpt lat="43.03678509679" lon="-5.39709168251">
        <ele>1955.83</ele>
        <time>2013-02-20T11:28:39+01:00</time>
      </trkpt>
      <trkpt lat="43.03681611812" lon="-5.39708612626">
        <ele>1956.1</ele>
        <time>2013-02-20T11:28:42+01:00</time>
      </trkpt>
      <trkpt lat="43.03684424944" lon="-5.39708347274">
        <ele>1956.37</ele>
        <time>2013-02-20T11:28:45+01:00</time>
      </trkpt>
      <trkpt lat="43.03687183629" lon="-5.39706959805">
        <ele>1956.42</ele>
        <time>2013-02-20T11:28:48+01:00</time>
      </trkpt>
      <trkpt lat="43.03689421805" lon="-5.39705696599">
        <ele>1956.56</ele>
        <time>2013-02-20T11:28:49+01:00</time>
      </trkpt>
      <trkpt lat="43.03693228907" lon="-5.39703687111">
        <ele>1956.73</ele>
        <time>2013-02-20T11:28:51+01:00</time>
      </trkpt>
      <trkpt lat="43.03695018658" lon="-5.39702907865">
        <ele>1956.94</ele>
        <time>2013-02-20T11:28:52+01:00</time>
      </trkpt>
      <trkpt lat="43.03694770726" lon="-5.396960081">
        <ele>1956.51</ele>
        <time>2013-02-20T11:30:40+01:00</time>
      </trkpt>
      <trkpt lat="43.03700161501" lon="-5.39679262615">
        <ele>1955.31</ele>
        <time>2013-02-20T11:30:41+01:00</time>
      </trkpt>
      <trkpt lat="43.03702685866" lon="-5.39670780267">
        <ele>1954.86</ele>
        <time>2013-02-20T11:30:42+01:00</time>
      </trkpt>
      <trkpt lat="43.03704645837" lon="-5.39660084986">
        <ele>1954.4</ele>
        <time>2013-02-20T11:30:43+01:00</time>
      </trkpt>
      <trkpt lat="43.03706086373" lon="-5.3964240253">
        <ele>1953.09</ele>
        <time>2013-02-20T11:30:44+01:00</time>
      </trkpt>
      <trkpt lat="43.03708195902" lon="-5.39629880637">
        <ele>1952.23</ele>
        <time>2013-02-20T11:30:45+01:00</time>
      </trkpt>
      <trkpt lat="43.03716376449" lon="-5.3961875004">
        <ele>1950.8</ele>
        <time>2013-02-20T11:30:46+01:00</time>
      </trkpt>
      <trkpt lat="43.03724828741" lon="-5.39609633101">
        <ele>1949.33</ele>
        <time>2013-02-20T11:30:47+01:00</time>
      </trkpt>
      <trkpt lat="43.03735537375" lon="-5.39603395546">
        <ele>1947.65</ele>
        <time>2013-02-20T11:30:48+01:00</time>
      </trkpt>
      <trkpt lat="43.03745199727" lon="-5.39597154813">
        <ele>1946.26</ele>
        <time>2013-02-20T11:30:49+01:00</time>
      </trkpt>
      <trkpt lat="43.0375700608" lon="-5.39586753629">
        <ele>1944.89</ele>
        <time>2013-02-20T11:30:50+01:00</time>
      </trkpt>
      <trkpt lat="43.03763732342" lon="-5.39565523905">
        <ele>1942.32</ele>
        <time>2013-02-20T11:30:51+01:00</time>
      </trkpt>
      <trkpt lat="43.03769979635" lon="-5.39549662509">
        <ele>1940.5</ele>
        <time>2013-02-20T11:30:52+01:00</time>
      </trkpt>
      <trkpt lat="43.03774768631" lon="-5.39526917577">
        <ele>1937.8</ele>
        <time>2013-02-20T11:30:53+01:00</time>
      </trkpt>
      <trkpt lat="43.03781044874" lon="-5.3950679466">
        <ele>1935.12</ele>
        <time>2013-02-20T11:30:54+01:00</time>
      </trkpt>
      <trkpt lat="43.03790902231" lon="-5.39490170196">
        <ele>1932.51</ele>
        <time>2013-02-20T11:30:55+01:00</time>
      </trkpt>
      <trkpt lat="43.03801062236" lon="-5.39474651102">
        <ele>1930.47</ele>
        <time>2013-02-20T11:30:56+01:00</time>
      </trkpt>
      <trkpt lat="43.03814403101" lon="-5.39459242649">
        <ele>1928.26</ele>
        <time>2013-02-20T11:30:57+01:00</time>
      </trkpt>
      <trkpt lat="43.03829610523" lon="-5.39443879312">
        <ele>1925.19</ele>
        <time>2013-02-20T11:30:58+01:00</time>
      </trkpt>
      <trkpt lat="43.0384225447" lon="-5.39426191889">
        <ele>1922.78</ele>
        <time>2013-02-20T11:30:59+01:00</time>
      </trkpt>
      <trkpt lat="43.03848248772" lon="-5.39407940134">
        <ele>1920.28</ele>
        <time>2013-02-20T11:31:00+01:00</time>
      </trkpt>
      <trkpt lat="43.03854880272" lon="-5.39391444907">
        <ele>1918.03</ele>
        <time>2013-02-20T11:31:01+01:00</time>
      </trkpt>
      <trkpt lat="43.03864045328" lon="-5.39374077675">
        <ele>1915.94</ele>
        <time>2013-02-20T11:31:02+01:00</time>
      </trkpt>
      <trkpt lat="43.03872858788" lon="-5.39367747676">
        <ele>1915.93</ele>
        <time>2013-02-20T11:31:03+01:00</time>
      </trkpt>
      <trkpt lat="43.03877166226" lon="-5.39362143203">
        <ele>1914.18</ele>
        <time>2013-02-20T11:31:04+01:00</time>
      </trkpt>
      <trkpt lat="43.03881906858" lon="-5.39356355265">
        <ele>1912.56</ele>
        <time>2013-02-20T11:31:05+01:00</time>
      </trkpt>
      <trkpt lat="43.03886878298" lon="-5.39352227131">
        <ele>1911.27</ele>
        <time>2013-02-20T11:31:06+01:00</time>
      </trkpt>
      <trkpt lat="43.03890133741" lon="-5.39350445447">
        <ele>1910.15</ele>
        <time>2013-02-20T11:31:07+01:00</time>
      </trkpt>
      <trkpt lat="43.03892913974" lon="-5.39349315721">
        <ele>1908.57</ele>
        <time>2013-02-20T11:31:08+01:00</time>
      </trkpt>
      <trkpt lat="43.03893557449" lon="-5.39349174249">
        <ele>1907.19</ele>
        <time>2013-02-20T11:31:10+01:00</time>
      </trkpt>
      <trkpt lat="43.03897251459" lon="-5.39346697802">
        <ele>1905.9</ele>
        <time>2013-02-20T11:31:12+01:00</time>
      </trkpt>
      <trkpt lat="43.039012589" lon="-5.3934366166">
        <ele>1906.31</ele>
        <time>2013-02-20T11:31:13+01:00</time>
      </trkpt>
      <trkpt lat="43.03906489921" lon="-5.39340354323">
        <ele>1903.35</ele>
        <time>2013-02-20T11:31:26+01:00</time>
      </trkpt>
      <trkpt lat="43.03911398506" lon="-5.39335059339">
        <ele>1901.54</ele>
        <time>2013-02-20T11:31:28+01:00</time>
      </trkpt>
      <trkpt lat="43.03916812573" lon="-5.39332619005">
        <ele>1900.03</ele>
        <time>2013-02-20T11:31:29+01:00</time>
      </trkpt>
      <trkpt lat="43.03921563308" lon="-5.39328107624">
        <ele>1898.3</ele>
        <time>2013-02-20T11:31:30+01:00</time>
      </trkpt>
      <trkpt lat="43.03925011262" lon="-5.3932248466">
        <ele>1896.27</ele>
        <time>2013-02-20T11:31:31+01:00</time>
      </trkpt>
      <trkpt lat="43.03928282479" lon="-5.39314453379">
        <ele>1894.56</ele>
        <time>2013-02-20T11:31:32+01:00</time>
      </trkpt>
      <trkpt lat="43.0393086858" lon="-5.3930882685">
        <ele>1892.93</ele>
        <time>2013-02-20T11:31:33+01:00</time>
      </trkpt>
      <trkpt lat="43.03934617528" lon="-5.39303582833">
        <ele>1891.21</ele>
        <time>2013-02-20T11:31:34+01:00</time>
      </trkpt>
      <trkpt lat="43.03942706179" lon="-5.3929330571">
        <ele>1888.68</ele>
        <time>2013-02-20T11:31:35+01:00</time>
      </trkpt>
      <trkpt lat="43.0394998337" lon="-5.3928270745">
        <ele>1886.52</ele>
        <time>2013-02-20T11:31:36+01:00</time>
      </trkpt>
      <trkpt lat="43.03953366646" lon="-5.39268973833">
        <ele>1883.78</ele>
        <time>2013-02-20T11:31:37+01:00</time>
      </trkpt>
      <trkpt lat="43.03960393431" lon="-5.39257731213">
        <ele>1881.04</ele>
        <time>2013-02-20T11:31:38+01:00</time>
      </trkpt>
      <trkpt lat="43.03969801829" lon="-5.39245592043">
        <ele>1877.9</ele>
        <time>2013-02-20T11:31:39+01:00</time>
      </trkpt>
      <trkpt lat="43.03979790583" lon="-5.39227403662">
        <ele>1868.94</ele>
        <time>2013-02-20T11:31:40+01:00</time>
      </trkpt>
      <trkpt lat="43.03987948442" lon="-5.39207811837">
        <ele>1869.17</ele>
        <time>2013-02-20T11:31:41+01:00</time>
      </trkpt>
      <trkpt lat="43.03995908124" lon="-5.39184986744">
        <ele>1859.26</ele>
        <time>2013-02-20T11:31:42+01:00</time>
      </trkpt>
      <trkpt lat="43.04002938959" lon="-5.39164041568">
        <ele>1854.11</ele>
        <time>2013-02-20T11:31:43+01:00</time>
      </trkpt>
      <trkpt lat="43.04012063182" lon="-5.39139434217">
        <ele>1854.3</ele>
        <time>2013-02-20T11:31:44+01:00</time>
      </trkpt>
      <trkpt lat="43.0402506278" lon="-5.39113692099">
        <ele>1851.33</ele>
        <time>2013-02-20T11:31:45+01:00</time>
      </trkpt>
      <trkpt lat="43.04038213839" lon="-5.39094079863">
        <ele>1846.5</ele>
        <time>2013-02-20T11:31:46+01:00</time>
      </trkpt>
      <trkpt lat="43.04051002918" lon="-5.39072293904">
        <ele>1843.13</ele>
        <time>2013-02-20T11:31:47+01:00</time>
      </trkpt>
      <trkpt lat="43.04062787533" lon="-5.3904884609">
        <ele>1840.43</ele>
        <time>2013-02-20T11:31:48+01:00</time>
      </trkpt>
      <trkpt lat="43.04071766159" lon="-5.39025045787">
        <ele>1836.6</ele>
        <time>2013-02-20T11:31:49+01:00</time>
      </trkpt>
      <trkpt lat="43.04082098015" lon="-5.39003320755">
        <ele>1832.98</ele>
        <time>2013-02-20T11:31:50+01:00</time>
      </trkpt>
      <trkpt lat="43.04094785933" lon="-5.3898282885">
        <ele>1829.15</ele>
        <time>2013-02-20T11:31:51+01:00</time>
      </trkpt>
      <trkpt lat="43.04106218393" lon="-5.38961423516">
        <ele>1825.61</ele>
        <time>2013-02-20T11:31:52+01:00</time>
      </trkpt>
      <trkpt lat="43.04113939711" lon="-5.38936737544">
        <ele>1821.6</ele>
        <time>2013-02-20T11:31:53+01:00</time>
      </trkpt>
      <trkpt lat="43.041221325" lon="-5.38912796898">
        <ele>1817.94</ele>
        <time>2013-02-20T11:31:54+01:00</time>
      </trkpt>
      <trkpt lat="43.04131415353" lon="-5.38888737098">
        <ele>1814.47</ele>
        <time>2013-02-20T11:31:55+01:00</time>
      </trkpt>
      <trkpt lat="43.04141633711" lon="-5.38869360742">
        <ele>1810.62</ele>
        <time>2013-02-20T11:31:56+01:00</time>
      </trkpt>
      <trkpt lat="43.0415095958" lon="-5.38849405628">
        <ele>1806.98</ele>
        <time>2013-02-20T11:31:57+01:00</time>
      </trkpt>
      <trkpt lat="43.04160616571" lon="-5.38831326303">
        <ele>1803.5</ele>
        <time>2013-02-20T11:31:58+01:00</time>
      </trkpt>
      <trkpt lat="43.04173494734" lon="-5.38815298515">
        <ele>1799.96</ele>
        <time>2013-02-20T11:31:59+01:00</time>
      </trkpt>
      <trkpt lat="43.04183211749" lon="-5.38798051594">
        <ele>1796.38</ele>
        <time>2013-02-20T11:32:00+01:00</time>
      </trkpt>
      <trkpt lat="43.04200178875" lon="-5.38768765831">
        <ele>1792.98</ele>
        <time>2013-02-20T11:32:02+01:00</time>
      </trkpt>
      <trkpt lat="43.04212222424" lon="-5.38756136101">
        <ele>1789.42</ele>
        <time>2013-02-20T11:32:03+01:00</time>
      </trkpt>
      <trkpt lat="43.0422307674" lon="-5.38746609589">
        <ele>1786.04</ele>
        <time>2013-02-20T11:32:04+01:00</time>
      </trkpt>
      <trkpt lat="43.04233495395" lon="-5.38739326458">
        <ele>1782.73</ele>
        <time>2013-02-20T11:32:05+01:00</time>
      </trkpt>
      <trkpt lat="43.04239304044" lon="-5.38729052069">
        <ele>1779.36</ele>
        <time>2013-02-20T11:32:06+01:00</time>
      </trkpt>
      <trkpt lat="43.04245595499" lon="-5.38719064558">
        <ele>1776.11</ele>
        <time>2013-02-20T11:32:07+01:00</time>
      </trkpt>
      <trkpt lat="43.04249971858" lon="-5.38708893024">
        <ele>1773.01</ele>
        <time>2013-02-20T11:32:08+01:00</time>
      </trkpt>
      <trkpt lat="43.042520486" lon="-5.3870197218">
        <ele>1769.96</ele>
        <time>2013-02-20T11:32:09+01:00</time>
      </trkpt>
      <trkpt lat="43.04253750227" lon="-5.38688932024">
        <ele>1766.84</ele>
        <time>2013-02-20T11:32:10+01:00</time>
      </trkpt>
      <trkpt lat="43.04257352789" lon="-5.38682206803">
        <ele>1763.88</ele>
        <time>2013-02-20T11:32:11+01:00</time>
      </trkpt>
      <trkpt lat="43.04262529121" lon="-5.38680573421">
        <ele>1761.02</ele>
        <time>2013-02-20T11:32:12+01:00</time>
      </trkpt>
      <trkpt lat="43.04268073851" lon="-5.38680414382">
        <ele>1758.15</ele>
        <time>2013-02-20T11:32:13+01:00</time>
      </trkpt>
      <trkpt lat="43.0427309547" lon="-5.38678954298">
        <ele>1755.35</ele>
        <time>2013-02-20T11:32:14+01:00</time>
      </trkpt>
      <trkpt lat="43.04277442496" lon="-5.38675383281">
        <ele>1752.43</ele>
        <time>2013-02-20T11:32:16+01:00</time>
      </trkpt>
      <trkpt lat="43.04277929687" lon="-5.38669981917">
        <ele>1749.7</ele>
        <time>2013-02-20T11:32:17+01:00</time>
      </trkpt>
      <trkpt lat="43.04277579873" lon="-5.38667668085">
        <ele>1747.16</ele>
        <time>2013-02-20T11:32:18+01:00</time>
      </trkpt>
      <trkpt lat="43.04275912987" lon="-5.38665844807">
        <ele>1744.68</ele>
        <time>2013-02-20T11:32:20+01:00</time>
      </trkpt>
      <trkpt lat="43.042738956" lon="-5.38664778103">
        <ele>1742.4</ele>
        <time>2013-02-20T11:32:33+01:00</time>
      </trkpt>
      <trkpt lat="43.0427191251" lon="-5.38664965595">
        <ele>1740.24</ele>
        <time>2013-02-20T11:32:46+01:00</time>
      </trkpt>
      <trkpt lat="43.04270346155" lon="-5.38661326968">
        <ele>1737.63</ele>
        <time>2013-02-20T11:33:09+01:00</time>
      </trkpt>
      <trkpt lat="43.04270789481" lon="-5.3865893592">
        <ele>1738.31</ele>
        <time>2013-02-20T11:33:12+01:00</time>
      </trkpt>
      <trkpt lat="43.04271985684" lon="-5.38654656032">
        <ele>1733.53</ele>
        <time>2013-02-20T11:33:17+01:00</time>
      </trkpt>
      <trkpt lat="43.04273583184" lon="-5.38654418604">
        <ele>1731.9</ele>
        <time>2013-02-20T11:33:22+01:00</time>
      </trkpt>
      <trkpt lat="43.04273762212" lon="-5.38654046174">
        <ele>1732.81</ele>
        <time>2013-02-20T11:33:30+01:00</time>
      </trkpt>
      <trkpt lat="43.04273947645" lon="-5.38653346374">
        <ele>1731.96</ele>
        <time>2013-02-20T11:33:34+01:00</time>
      </trkpt>
      <trkpt lat="43.04274836576" lon="-5.38648629859">
        <ele>1727.76</ele>
        <time>2013-02-20T11:33:41+01:00</time>
      </trkpt>
      <trkpt lat="43.04277284451" lon="-5.38644286678">
        <ele>1726.16</ele>
        <time>2013-02-20T11:33:58+01:00</time>
      </trkpt>
      <trkpt lat="43.04278753032" lon="-5.38645469931">
        <ele>1724.82</ele>
        <time>2013-02-20T11:34:02+01:00</time>
      </trkpt>
      <trkpt lat="43.04280414675" lon="-5.38647456723">
        <ele>1723.13</ele>
        <time>2013-02-20T11:34:05+01:00</time>
      </trkpt>
      <trkpt lat="43.04281047762" lon="-5.38649163524">
        <ele>1721.41</ele>
        <time>2013-02-20T11:34:11+01:00</time>
      </trkpt>
      <trkpt lat="43.04283636296" lon="-5.38651393976">
        <ele>1720.13</ele>
        <time>2013-02-20T11:34:17+01:00</time>
      </trkpt>
      <trkpt lat="43.04284263707" lon="-5.38653282108">
        <ele>1718.47</ele>
        <time>2013-02-20T11:34:25+01:00</time>
      </trkpt>
      <trkpt lat="43.0428469895" lon="-5.38655818736">
        <ele>1717.24</ele>
        <time>2013-02-20T11:34:28+01:00</time>
      </trkpt>
      <trkpt lat="43.04285323094" lon="-5.38658667038">
        <ele>1717.72</ele>
        <time>2013-02-20T11:34:33+01:00</time>
      </trkpt>
      <trkpt lat="43.04285465432" lon="-5.38661646032">
        <ele>1714.88</ele>
        <time>2013-02-20T11:34:35+01:00</time>
      </trkpt>
      <trkpt lat="43.04285270849" lon="-5.38667086946">
        <ele>1713.63</ele>
        <time>2013-02-20T11:34:36+01:00</time>
      </trkpt>
      <trkpt lat="43.04284960358" lon="-5.38670682994">
        <ele>1712.55</ele>
        <time>2013-02-20T11:34:37+01:00</time>
      </trkpt>
      <trkpt lat="43.04284210944" lon="-5.38676176536">
        <ele>1711.49</ele>
        <time>2013-02-20T11:34:39+01:00</time>
      </trkpt>
      <trkpt lat="43.04283863248" lon="-5.38680393312">
        <ele>1710.21</ele>
        <time>2013-02-20T11:34:40+01:00</time>
      </trkpt>
      <trkpt lat="43.04283190212" lon="-5.38685796423">
        <ele>1709.23</ele>
        <time>2013-02-20T11:34:42+01:00</time>
      </trkpt>
      <trkpt lat="43.04282851087" lon="-5.3868995488">
        <ele>1708.26</ele>
        <time>2013-02-20T11:34:43+01:00</time>
      </trkpt>
      <trkpt lat="43.04282374225" lon="-5.38695406676">
        <ele>1707.31</ele>
        <time>2013-02-20T11:34:45+01:00</time>
      </trkpt>
      <trkpt lat="43.0428205757" lon="-5.38699004901">
        <ele>1706.39</ele>
        <time>2013-02-20T11:34:46+01:00</time>
      </trkpt>
      <trkpt lat="43.04281689138" lon="-5.3870427089">
        <ele>1705.55</ele>
        <time>2013-02-20T11:34:48+01:00</time>
      </trkpt>
      <trkpt lat="43.04281233237" lon="-5.38709716205">
        <ele>1704.7</ele>
        <time>2013-02-20T11:34:50+01:00</time>
      </trkpt>
      <trkpt lat="43.04280659259" lon="-5.38715150447">
        <ele>1703.9</ele>
        <time>2013-02-20T11:34:52+01:00</time>
      </trkpt>
      <trkpt lat="43.04280111957" lon="-5.3872052883">
        <ele>1703.3</ele>
        <time>2013-02-20T11:34:54+01:00</time>
      </trkpt>
      <trkpt lat="43.04279079797" lon="-5.38726634836">
        <ele>1702.75</ele>
        <time>2013-02-20T11:34:56+01:00</time>
      </trkpt>
      <trkpt lat="43.04278572992" lon="-5.38732050781">
        <ele>1701.29</ele>
        <time>2013-02-20T11:34:58+01:00</time>
      </trkpt>
      <trkpt lat="43.04278082025" lon="-5.38736937727">
        <ele>1700.65</ele>
        <time>2013-02-20T11:35:00+01:00</time>
      </trkpt>
      <trkpt lat="43.0427750774" lon="-5.38742045718">
        <ele>1700.95</ele>
        <time>2013-02-20T11:35:02+01:00</time>
      </trkpt>
      <trkpt lat="43.04276668686" lon="-5.38746943108">
        <ele>1700.64</ele>
        <time>2013-02-20T11:35:04+01:00</time>
      </trkpt>
      <trkpt lat="43.04275783385" lon="-5.38752120243">
        <ele>1699.5</ele>
        <time>2013-02-20T11:35:06+01:00</time>
      </trkpt>
      <trkpt lat="43.04274780787" lon="-5.38758324299">
        <ele>1699.22</ele>
        <time>2013-02-20T11:35:08+01:00</time>
      </trkpt>
      <trkpt lat="43.04273813" lon="-5.38763983905">
        <ele>1699.04</ele>
        <time>2013-02-20T11:35:10+01:00</time>
      </trkpt>
      <trkpt lat="43.04273304526" lon="-5.38768731576">
        <ele>1698.31</ele>
        <time>2013-02-20T11:35:12+01:00</time>
      </trkpt>
      <trkpt lat="43.04272537589" lon="-5.38772447646">
        <ele>1698.01</ele>
        <time>2013-02-20T11:35:13+01:00</time>
      </trkpt>
      <trkpt lat="43.04271986619" lon="-5.38775205362">
        <ele>1697.8</ele>
        <time>2013-02-20T11:35:14+01:00</time>
      </trkpt>
      <trkpt lat="43.04271436431" lon="-5.38778594391">
        <ele>1697.49</ele>
        <time>2013-02-20T11:35:15+01:00</time>
      </trkpt>
      <trkpt lat="43.04270551604" lon="-5.38783897057">
        <ele>1697.26</ele>
        <time>2013-02-20T11:35:17+01:00</time>
      </trkpt>
      <trkpt lat="43.0427005721" lon="-5.38788914749">
        <ele>1697.33</ele>
        <time>2013-02-20T11:35:19+01:00</time>
      </trkpt>
      <trkpt lat="43.04269644223" lon="-5.38795180999">
        <ele>1697.15</ele>
        <time>2013-02-20T11:35:21+01:00</time>
      </trkpt>
      <trkpt lat="43.04269402994" lon="-5.38800659852">
        <ele>1697.04</ele>
        <time>2013-02-20T11:35:23+01:00</time>
      </trkpt>
      <trkpt lat="43.04268905479" lon="-5.38808172808">
        <ele>1696.55</ele>
        <time>2013-02-20T11:35:26+01:00</time>
      </trkpt>
      <trkpt lat="43.04268415812" lon="-5.38810805072">
        <ele>1696.33</ele>
        <time>2013-02-20T11:35:27+01:00</time>
      </trkpt>
      <trkpt lat="43.04268435009" lon="-5.38814815986">
        <ele>1695.38</ele>
        <time>2013-02-20T11:35:29+01:00</time>
      </trkpt>
      <trkpt lat="43.04268352406" lon="-5.38820002375">
        <ele>1694.8</ele>
        <time>2013-02-20T11:35:31+01:00</time>
      </trkpt>
      <trkpt lat="43.04268153944" lon="-5.38825470562">
        <ele>1694.42</ele>
        <time>2013-02-20T11:35:33+01:00</time>
      </trkpt>
      <trkpt lat="43.04267834688" lon="-5.38829872655">
        <ele>1694.21</ele>
        <time>2013-02-20T11:35:34+01:00</time>
      </trkpt>
      <trkpt lat="43.04267281111" lon="-5.38834567317">
        <ele>1693.88</ele>
        <time>2013-02-20T11:35:36+01:00</time>
      </trkpt>
      <trkpt lat="43.04266113745" lon="-5.38839714204">
        <ele>1693.85</ele>
        <time>2013-02-20T11:35:38+01:00</time>
      </trkpt>
      <trkpt lat="43.04264964284" lon="-5.38843658088">
        <ele>1693.47</ele>
        <time>2013-02-20T11:35:39+01:00</time>
      </trkpt>
      <trkpt lat="43.04264728638" lon="-5.38844363445">
        <ele>1693.07</ele>
        <time>2013-02-20T11:35:40+01:00</time>
      </trkpt>
      <trkpt lat="43.0426454737" lon="-5.38844996854">
        <ele>1692.53</ele>
        <time>2013-02-20T11:35:42+01:00</time>
      </trkpt>
      <trkpt lat="43.04264312511" lon="-5.38845814845">
        <ele>1692.21</ele>
        <time>2013-02-20T11:35:43+01:00</time>
      </trkpt>
      <trkpt lat="43.04263856638" lon="-5.38847694246">
        <ele>1691.97</ele>
        <time>2013-02-20T11:35:44+01:00</time>
      </trkpt>
      <trkpt lat="43.04263398996" lon="-5.38849731879">
        <ele>1691.68</ele>
        <time>2013-02-20T11:35:45+01:00</time>
      </trkpt>
      <trkpt lat="43.04262945627" lon="-5.38851879233">
        <ele>1691.43</ele>
        <time>2013-02-20T11:35:46+01:00</time>
      </trkpt>
      <trkpt lat="43.04260788121" lon="-5.38864543044">
        <ele>1691.29</ele>
        <time>2013-02-20T11:35:48+01:00</time>
      </trkpt>
      <trkpt lat="43.04258649727" lon="-5.3887938137">
        <ele>1690.68</ele>
        <time>2013-02-20T11:35:50+01:00</time>
      </trkpt>
      <trkpt lat="43.04257927005" lon="-5.38886707624">
        <ele>1690.62</ele>
        <time>2013-02-20T11:35:52+01:00</time>
      </trkpt>
      <trkpt lat="43.04257859715" lon="-5.38890033203">
        <ele>1690.5</ele>
        <time>2013-02-20T11:35:54+01:00</time>
      </trkpt>
      <trkpt lat="43.04257708653" lon="-5.38896515814">
        <ele>1690.96</ele>
        <time>2013-02-20T11:35:56+01:00</time>
      </trkpt>
      <trkpt lat="43.04257564041" lon="-5.38899748511">
        <ele>1691.21</ele>
        <time>2013-02-20T11:35:58+01:00</time>
      </trkpt>
      <trkpt lat="43.04257682433" lon="-5.38900496743">
        <ele>1691.17</ele>
        <time>2013-02-20T11:36:00+01:00</time>
      </trkpt>
      <trkpt lat="43.04257776991" lon="-5.38900975521">
        <ele>1691.29</ele>
        <time>2013-02-20T11:36:01+01:00</time>
      </trkpt>
      <trkpt lat="43.04259251541" lon="-5.3890799238">
        <ele>1691.55</ele>
        <time>2013-02-20T11:36:03+01:00</time>
      </trkpt>
      <trkpt lat="43.04260026534" lon="-5.38914107581">
        <ele>1692.32</ele>
        <time>2013-02-20T11:36:05+01:00</time>
      </trkpt>
      <trkpt lat="43.0426011344" lon="-5.38923170577">
        <ele>1692.79</ele>
        <time>2013-02-20T11:36:07+01:00</time>
      </trkpt>
      <trkpt lat="43.04259832426" lon="-5.38929234477">
        <ele>1693.24</ele>
        <time>2013-02-20T11:36:09+01:00</time>
      </trkpt>
      <trkpt lat="43.04259216312" lon="-5.38934624798">
        <ele>1693.83</ele>
        <time>2013-02-20T11:36:11+01:00</time>
      </trkpt>
      <trkpt lat="43.04259280843" lon="-5.38939692648">
        <ele>1694.5</ele>
        <time>2013-02-20T11:36:13+01:00</time>
      </trkpt>
      <trkpt lat="43.04259910658" lon="-5.38944226617">
        <ele>1695.19</ele>
        <time>2013-02-20T11:36:15+01:00</time>
      </trkpt>
      <trkpt lat="43.04260656882" lon="-5.38948928737">
        <ele>1695.77</ele>
        <time>2013-02-20T11:36:17+01:00</time>
      </trkpt>
      <trkpt lat="43.04260785783" lon="-5.3895188439">
        <ele>1696.39</ele>
        <time>2013-02-20T11:36:19+01:00</time>
      </trkpt>
      <trkpt lat="43.04260014138" lon="-5.389553613">
        <ele>1696.29</ele>
        <time>2013-02-20T11:36:21+01:00</time>
      </trkpt>
      <trkpt lat="43.04258846704" lon="-5.38958918628">
        <ele>1696.58</ele>
        <time>2013-02-20T11:36:23+01:00</time>
      </trkpt>
      <trkpt lat="43.04258105826" lon="-5.38963450747">
        <ele>1696.9</ele>
        <time>2013-02-20T11:36:26+01:00</time>
      </trkpt>
      <trkpt lat="43.04257339342" lon="-5.38967275841">
        <ele>1697.09</ele>
        <time>2013-02-20T11:36:27+01:00</time>
      </trkpt>
      <trkpt lat="43.04256333743" lon="-5.38970831241">
        <ele>1697.16</ele>
        <time>2013-02-20T11:36:28+01:00</time>
      </trkpt>
      <trkpt lat="43.04255149915" lon="-5.38974423623">
        <ele>1697.31</ele>
        <time>2013-02-20T11:36:29+01:00</time>
      </trkpt>
      <trkpt lat="43.04253858111" lon="-5.38977925531">
        <ele>1697.51</ele>
        <time>2013-02-20T11:36:30+01:00</time>
      </trkpt>
      <trkpt lat="43.04252996376" lon="-5.38981935408">
        <ele>1697.73</ele>
        <time>2013-02-20T11:36:32+01:00</time>
      </trkpt>
      <trkpt lat="43.04252827442" lon="-5.38985889139">
        <ele>1698.06</ele>
        <time>2013-02-20T11:36:34+01:00</time>
      </trkpt>
      <trkpt lat="43.04252864513" lon="-5.38990460203">
        <ele>1698.41</ele>
        <time>2013-02-20T11:36:36+01:00</time>
      </trkpt>
      <trkpt lat="43.04252763607" lon="-5.38995826085">
        <ele>1698.87</ele>
        <time>2013-02-20T11:36:38+01:00</time>
      </trkpt>
      <trkpt lat="43.04252409309" lon="-5.39001233144">
        <ele>1699.17</ele>
        <time>2013-02-20T11:36:40+01:00</time>
      </trkpt>
      <trkpt lat="43.04252504218" lon="-5.39002082304">
        <ele>1699.6</ele>
        <time>2013-02-20T11:36:43+01:00</time>
      </trkpt>
      <trkpt lat="43.04252636994" lon="-5.39003232116">
        <ele>1700.11</ele>
        <time>2013-02-20T11:36:45+01:00</time>
      </trkpt>
      <trkpt lat="43.04253358118" lon="-5.39011176487">
        <ele>1700.58</ele>
        <time>2013-02-20T11:36:47+01:00</time>
      </trkpt>
      <trkpt lat="43.04253645338" lon="-5.39016720279">
        <ele>1701.02</ele>
        <time>2013-02-20T11:36:48+01:00</time>
      </trkpt>
      <trkpt lat="43.04253688365" lon="-5.3902255157">
        <ele>1703.14</ele>
        <time>2013-02-20T11:36:50+01:00</time>
      </trkpt>
      <trkpt lat="43.04253638633" lon="-5.39027034631">
        <ele>1704.16</ele>
        <time>2013-02-20T11:36:51+01:00</time>
      </trkpt>
      <trkpt lat="43.04253349737" lon="-5.39032234974">
        <ele>1705.23</ele>
        <time>2013-02-20T11:36:53+01:00</time>
      </trkpt>
      <trkpt lat="43.04252877221" lon="-5.39038822647">
        <ele>1706.4</ele>
        <time>2013-02-20T11:36:54+01:00</time>
      </trkpt>
      <trkpt lat="43.04252564788" lon="-5.39042654752">
        <ele>1707.68</ele>
        <time>2013-02-20T11:36:55+01:00</time>
      </trkpt>
      <trkpt lat="43.04252194649" lon="-5.39045815975">
        <ele>1707.12</ele>
        <time>2013-02-20T11:36:57+01:00</time>
      </trkpt>
      <trkpt lat="43.04251567434" lon="-5.39049898584">
        <ele>1707.56</ele>
        <time>2013-02-20T11:36:59+01:00</time>
      </trkpt>
      <trkpt lat="43.04250836827" lon="-5.39054487987">
        <ele>1708.07</ele>
        <time>2013-02-20T11:37:01+01:00</time>
      </trkpt>
      <trkpt lat="43.04250280835" lon="-5.39058333341">
        <ele>1708.49</ele>
        <time>2013-02-20T11:37:02+01:00</time>
      </trkpt>
      <trkpt lat="43.0425018626" lon="-5.39059323888">
        <ele>1708.71</ele>
        <time>2013-02-20T11:37:04+01:00</time>
      </trkpt>
      <trkpt lat="43.04250075997" lon="-5.39060765233">
        <ele>1709.14</ele>
        <time>2013-02-20T11:37:06+01:00</time>
      </trkpt>
      <trkpt lat="43.04249922277" lon="-5.39062608943">
        <ele>1709.67</ele>
        <time>2013-02-20T11:37:08+01:00</time>
      </trkpt>
      <trkpt lat="43.04249742439" lon="-5.39064814783">
        <ele>1710.19</ele>
        <time>2013-02-20T11:37:10+01:00</time>
      </trkpt>
      <trkpt lat="43.04249544962" lon="-5.39067364979">
        <ele>1710.71</ele>
        <time>2013-02-20T11:37:12+01:00</time>
      </trkpt>
      <trkpt lat="43.04249343764" lon="-5.39070229287">
        <ele>1711.3</ele>
        <time>2013-02-20T11:37:14+01:00</time>
      </trkpt>
      <trkpt lat="43.04249128319" lon="-5.39073380486">
        <ele>1711.9</ele>
        <time>2013-02-20T11:37:16+01:00</time>
      </trkpt>
      <trkpt lat="43.04248909692" lon="-5.39076749654">
        <ele>1712.52</ele>
        <time>2013-02-20T11:37:18+01:00</time>
      </trkpt>
      <trkpt lat="43.04248672695" lon="-5.39080308289">
        <ele>1713.1</ele>
        <time>2013-02-20T11:37:20+01:00</time>
      </trkpt>
      <trkpt lat="43.04248414135" lon="-5.3908403912">
        <ele>1713.74</ele>
        <time>2013-02-20T11:37:22+01:00</time>
      </trkpt>
      <trkpt lat="43.04248104737" lon="-5.39087971029">
        <ele>1714.38</ele>
        <time>2013-02-20T11:37:24+01:00</time>
      </trkpt>
      <trkpt lat="43.04247756709" lon="-5.39092076363">
        <ele>1715.05</ele>
        <time>2013-02-20T11:37:26+01:00</time>
      </trkpt>
      <trkpt lat="43.04247383972" lon="-5.39096306767">
        <ele>1715.71</ele>
        <time>2013-02-20T11:37:28+01:00</time>
      </trkpt>
      <trkpt lat="43.04245358807" lon="-5.39117937787">
        <ele>1716.38</ele>
        <time>2013-02-20T11:37:30+01:00</time>
      </trkpt>
      <trkpt lat="43.04243893601" lon="-5.39131598953">
        <ele>1719.29</ele>
        <time>2013-02-20T11:37:32+01:00</time>
      </trkpt>
      <trkpt lat="43.042428362" lon="-5.39141287765">
        <ele>1720.74</ele>
        <time>2013-02-20T11:37:34+01:00</time>
      </trkpt>
      <trkpt lat="43.04241898882" lon="-5.39148709606">
        <ele>1720.04</ele>
        <time>2013-02-20T11:37:36+01:00</time>
      </trkpt>
      <trkpt lat="43.04241197625" lon="-5.39154708786">
        <ele>1720.81</ele>
        <time>2013-02-20T11:37:38+01:00</time>
      </trkpt>
      <trkpt lat="43.04240436283" lon="-5.39160218756">
        <ele>1721.84</ele>
        <time>2013-02-20T11:37:40+01:00</time>
      </trkpt>
      <trkpt lat="43.04239678426" lon="-5.39165379347">
        <ele>1722.52</ele>
        <time>2013-02-20T11:37:42+01:00</time>
      </trkpt>
      <trkpt lat="43.0423913186" lon="-5.39170323339">
        <ele>1722.98</ele>
        <time>2013-02-20T11:37:44+01:00</time>
      </trkpt>
      <trkpt lat="43.04238590356" lon="-5.39174651927">
        <ele>1723.87</ele>
        <time>2013-02-20T11:37:46+01:00</time>
      </trkpt>
      <trkpt lat="43.04238506031" lon="-5.39175479574">
        <ele>1724.69</ele>
        <time>2013-02-20T11:37:48+01:00</time>
      </trkpt>
      <trkpt lat="43.04237858346" lon="-5.39181617971">
        <ele>1725.53</ele>
        <time>2013-02-20T11:37:50+01:00</time>
      </trkpt>
      <trkpt lat="43.04237612948" lon="-5.39182728019">
        <ele>1726.37</ele>
        <time>2013-02-20T11:37:52+01:00</time>
      </trkpt>
      <trkpt lat="43.04235995263" lon="-5.39189173306">
        <ele>1727.16</ele>
        <time>2013-02-20T11:37:53+01:00</time>
      </trkpt>
      <trkpt lat="43.04234432049" lon="-5.39193758009">
        <ele>1727.99</ele>
        <time>2013-02-20T11:37:54+01:00</time>
      </trkpt>
      <trkpt lat="43.04234130302" lon="-5.39194519066">
        <ele>1728.81</ele>
        <time>2013-02-20T11:37:55+01:00</time>
      </trkpt>
      <trkpt lat="43.04233757308" lon="-5.39195543484">
        <ele>1729.61</ele>
        <time>2013-02-20T11:37:56+01:00</time>
      </trkpt>
      <trkpt lat="43.042316325" lon="-5.3920170821">
        <ele>1730.53</ele>
        <time>2013-02-20T11:37:57+01:00</time>
      </trkpt>
      <trkpt lat="43.04230142619" lon="-5.39206374752">
        <ele>1731.41</ele>
        <time>2013-02-20T11:37:58+01:00</time>
      </trkpt>
      <trkpt lat="43.04229127362" lon="-5.3921032154">
        <ele>1732.28</ele>
        <time>2013-02-20T11:37:59+01:00</time>
      </trkpt>
      <trkpt lat="43.04228410186" lon="-5.39213870731">
        <ele>1733.17</ele>
        <time>2013-02-20T11:38:00+01:00</time>
      </trkpt>
      <trkpt lat="43.04227951016" lon="-5.39217170833">
        <ele>1734.07</ele>
        <time>2013-02-20T11:38:01+01:00</time>
      </trkpt>
      <trkpt lat="43.04227671139" lon="-5.39221834179">
        <ele>1735.03</ele>
        <time>2013-02-20T11:38:03+01:00</time>
      </trkpt>
      <trkpt lat="43.04227494176" lon="-5.39230480003">
        <ele>1735.96</ele>
        <time>2013-02-20T11:38:05+01:00</time>
      </trkpt>
      <trkpt lat="43.04227438667" lon="-5.39237003616">
        <ele>1740.05</ele>
        <time>2013-02-20T11:38:07+01:00</time>
      </trkpt>
      <trkpt lat="43.04227390685" lon="-5.39242284714">
        <ele>1741.99</ele>
        <time>2013-02-20T11:38:09+01:00</time>
      </trkpt>
      <trkpt lat="43.04227294581" lon="-5.39244558368">
        <ele>1744.07</ele>
        <time>2013-02-20T11:38:11+01:00</time>
      </trkpt>
      <trkpt lat="43.04227123821" lon="-5.39250219555">
        <ele>1746.19</ele>
        <time>2013-02-20T11:38:13+01:00</time>
      </trkpt>
      <trkpt lat="43.04226861682" lon="-5.39255784143">
        <ele>1748.58</ele>
        <time>2013-02-20T11:38:15+01:00</time>
      </trkpt>
      <trkpt lat="43.04226240694" lon="-5.39262196074">
        <ele>1750.62</ele>
        <time>2013-02-20T11:38:17+01:00</time>
      </trkpt>
      <trkpt lat="43.04225597729" lon="-5.3926804243">
        <ele>1752.64</ele>
        <time>2013-02-20T11:38:19+01:00</time>
      </trkpt>
      <trkpt lat="43.04225289119" lon="-5.39272652474">
        <ele>1758.35</ele>
        <time>2013-02-20T11:38:21+01:00</time>
      </trkpt>
      <trkpt lat="43.04225364861" lon="-5.3927802695">
        <ele>1761.1</ele>
        <time>2013-02-20T11:38:23+01:00</time>
      </trkpt>
      <trkpt lat="43.04225517472" lon="-5.39282541778">
        <ele>1764.05</ele>
        <time>2013-02-20T11:38:25+01:00</time>
      </trkpt>
      <trkpt lat="43.04227009798" lon="-5.39285878849">
        <ele>1763.7</ele>
        <time>2013-02-20T11:38:28+01:00</time>
      </trkpt>
      <trkpt lat="43.04228374442" lon="-5.39289194944">
        <ele>1765.87</ele>
        <time>2013-02-20T11:38:30+01:00</time>
      </trkpt>
      <trkpt lat="43.04228412677" lon="-5.39295054943">
        <ele>1767.61</ele>
        <time>2013-02-20T11:38:32+01:00</time>
      </trkpt>
      <trkpt lat="43.04228289567" lon="-5.39299023146">
        <ele>1769.04</ele>
        <time>2013-02-20T11:38:33+01:00</time>
      </trkpt>
      <trkpt lat="43.04227778794" lon="-5.39304946511">
        <ele>1770.31</ele>
        <time>2013-02-20T11:38:35+01:00</time>
      </trkpt>
      <trkpt lat="43.04227441946" lon="-5.39308692694">
        <ele>1771.79</ele>
        <time>2013-02-20T11:38:36+01:00</time>
      </trkpt>
      <trkpt lat="43.04227136531" lon="-5.39311969913">
        <ele>1773.22</ele>
        <time>2013-02-20T11:38:37+01:00</time>
      </trkpt>
      <trkpt lat="43.04226807227" lon="-5.39315475203">
        <ele>1774.45</ele>
        <time>2013-02-20T11:38:38+01:00</time>
      </trkpt>
      <trkpt lat="43.04225748948" lon="-5.39321305986">
        <ele>1775.77</ele>
        <time>2013-02-20T11:38:40+01:00</time>
      </trkpt>
      <trkpt lat="43.0422479298" lon="-5.39327320236">
        <ele>1777</ele>
        <time>2013-02-20T11:38:42+01:00</time>
      </trkpt>
      <trkpt lat="43.04224178951" lon="-5.39330913482">
        <ele>1778.28</ele>
        <time>2013-02-20T11:38:44+01:00</time>
      </trkpt>
      <trkpt lat="43.04223208284" lon="-5.39336195362">
        <ele>1779.37</ele>
        <time>2013-02-20T11:38:45+01:00</time>
      </trkpt>
      <trkpt lat="43.04222531353" lon="-5.39339940652">
        <ele>1780.52</ele>
        <time>2013-02-20T11:38:46+01:00</time>
      </trkpt>
      <trkpt lat="43.04221118565" lon="-5.39345162294">
        <ele>1781.83</ele>
        <time>2013-02-20T11:38:48+01:00</time>
      </trkpt>
      <trkpt lat="43.0422020904" lon="-5.39350585328">
        <ele>1782.93</ele>
        <time>2013-02-20T11:38:50+01:00</time>
      </trkpt>
      <trkpt lat="43.0421982597" lon="-5.39355431733">
        <ele>1784.38</ele>
        <time>2013-02-20T11:38:52+01:00</time>
      </trkpt>
      <trkpt lat="43.0421919615" lon="-5.39359894592">
        <ele>1785.85</ele>
        <time>2013-02-20T11:38:54+01:00</time>
      </trkpt>
      <trkpt lat="43.04219016542" lon="-5.39364025931">
        <ele>1787.37</ele>
        <time>2013-02-20T11:38:56+01:00</time>
      </trkpt>
      <trkpt lat="43.04218826394" lon="-5.39368687757">
        <ele>1788.72</ele>
        <time>2013-02-20T11:38:58+01:00</time>
      </trkpt>
      <trkpt lat="43.0421841956" lon="-5.39373710491">
        <ele>1790.23</ele>
        <time>2013-02-20T11:39:00+01:00</time>
      </trkpt>
      <trkpt lat="43.04217466475" lon="-5.39378664591">
        <ele>1791.68</ele>
        <time>2013-02-20T11:39:02+01:00</time>
      </trkpt>
      <trkpt lat="43.04216471196" lon="-5.39383457442">
        <ele>1793.27</ele>
        <time>2013-02-20T11:39:04+01:00</time>
      </trkpt>
      <trkpt lat="43.04215899983" lon="-5.39388110755">
        <ele>1794.7</ele>
        <time>2013-02-20T11:39:06+01:00</time>
      </trkpt>
      <trkpt lat="43.04215825974" lon="-5.39392789805">
        <ele>1796.33</ele>
        <time>2013-02-20T11:39:08+01:00</time>
      </trkpt>
      <trkpt lat="43.04215516129" lon="-5.39397802573">
        <ele>1798.2</ele>
        <time>2013-02-20T11:39:10+01:00</time>
      </trkpt>
      <trkpt lat="43.04215049922" lon="-5.39401379599">
        <ele>1799.69</ele>
        <time>2013-02-20T11:39:12+01:00</time>
      </trkpt>
      <trkpt lat="43.04214492019" lon="-5.39404982794">
        <ele>1801.06</ele>
        <time>2013-02-20T11:39:13+01:00</time>
      </trkpt>
      <trkpt lat="43.04213873601" lon="-5.39408733183">
        <ele>1802.54</ele>
        <time>2013-02-20T11:39:14+01:00</time>
      </trkpt>
      <trkpt lat="43.04213346462" lon="-5.3941251107">
        <ele>1803.92</ele>
        <time>2013-02-20T11:39:15+01:00</time>
      </trkpt>
      <trkpt lat="43.04212906873" lon="-5.39416072204">
        <ele>1805.35</ele>
        <time>2013-02-20T11:39:16+01:00</time>
      </trkpt>
      <trkpt lat="43.04212996186" lon="-5.394167418">
        <ele>1806.73</ele>
        <time>2013-02-20T11:39:18+01:00</time>
      </trkpt>
      <trkpt lat="43.04214538035" lon="-5.39420048351">
        <ele>1808.3</ele>
        <time>2013-02-20T11:39:20+01:00</time>
      </trkpt>
      <trkpt lat="43.04216557863" lon="-5.39423034349">
        <ele>1809.62</ele>
        <time>2013-02-20T11:39:22+01:00</time>
      </trkpt>
      <trkpt lat="43.0421691994" lon="-5.39423817423">
        <ele>1809.25</ele>
        <time>2013-02-20T11:39:24+01:00</time>
      </trkpt>
      <trkpt lat="43.0421734723" lon="-5.39424867524">
        <ele>1809.93</ele>
        <time>2013-02-20T11:39:25+01:00</time>
      </trkpt>
      <trkpt lat="43.04217744784" lon="-5.39426178904">
        <ele>1810.67</ele>
        <time>2013-02-20T11:39:26+01:00</time>
      </trkpt>
      <trkpt lat="43.04217903985" lon="-5.39426952588">
        <ele>1811.26</ele>
        <time>2013-02-20T11:39:27+01:00</time>
      </trkpt>
      <trkpt lat="43.04218110495" lon="-5.39428733558">
        <ele>1811.77</ele>
        <time>2013-02-20T11:39:28+01:00</time>
      </trkpt>
      <trkpt lat="43.04218195772" lon="-5.39430614709">
        <ele>1812.4</ele>
        <time>2013-02-20T11:39:29+01:00</time>
      </trkpt>
      <trkpt lat="43.04217563209" lon="-5.39441963267">
        <ele>1813.03</ele>
        <time>2013-02-20T11:39:31+01:00</time>
      </trkpt>
      <trkpt lat="43.04216731441" lon="-5.39449188197">
        <ele>1813.61</ele>
        <time>2013-02-20T11:39:32+01:00</time>
      </trkpt>
      <trkpt lat="43.04215348535" lon="-5.39457408952">
        <ele>1816.18</ele>
        <time>2013-02-20T11:39:33+01:00</time>
      </trkpt>
      <trkpt lat="43.04214351111" lon="-5.39461332981">
        <ele>1817.37</ele>
        <time>2013-02-20T11:39:34+01:00</time>
      </trkpt>
      <trkpt lat="43.04212884282" lon="-5.39466550137">
        <ele>1818.73</ele>
        <time>2013-02-20T11:39:36+01:00</time>
      </trkpt>
      <trkpt lat="43.04212403371" lon="-5.39470173666">
        <ele>1820.02</ele>
        <time>2013-02-20T11:39:38+01:00</time>
      </trkpt>
      <trkpt lat="43.04210992697" lon="-5.39477605423">
        <ele>1821.55</ele>
        <time>2013-02-20T11:39:40+01:00</time>
      </trkpt>
      <trkpt lat="43.04209459982" lon="-5.39483343075">
        <ele>1822.87</ele>
        <time>2013-02-20T11:39:42+01:00</time>
      </trkpt>
      <trkpt lat="43.04208533178" lon="-5.39487843367">
        <ele>1824.05</ele>
        <time>2013-02-20T11:39:44+01:00</time>
      </trkpt>
      <trkpt lat="43.04207781201" lon="-5.39492927671">
        <ele>1825.05</ele>
        <time>2013-02-20T11:39:46+01:00</time>
      </trkpt>
      <trkpt lat="43.04207208358" lon="-5.39496599919">
        <ele>1826.39</ele>
        <time>2013-02-20T11:39:47+01:00</time>
      </trkpt>
      <trkpt lat="43.04206989853" lon="-5.39501988001">
        <ele>1827.47</ele>
        <time>2013-02-20T11:39:49+01:00</time>
      </trkpt>
      <trkpt lat="43.04206815857" lon="-5.39504383993">
        <ele>1828.52</ele>
        <time>2013-02-20T11:39:50+01:00</time>
      </trkpt>
      <trkpt lat="43.04207239924" lon="-5.39511544504">
        <ele>1829.33</ele>
        <time>2013-02-20T11:39:52+01:00</time>
      </trkpt>
      <trkpt lat="43.04208142811" lon="-5.39517073681">
        <ele>1830.74</ele>
        <time>2013-02-20T11:39:54+01:00</time>
      </trkpt>
      <trkpt lat="43.04208299919" lon="-5.39521760265">
        <ele>1832.21</ele>
        <time>2013-02-20T11:39:56+01:00</time>
      </trkpt>
      <trkpt lat="43.04207234988" lon="-5.39526197865">
        <ele>1833.52</ele>
        <time>2013-02-20T11:39:58+01:00</time>
      </trkpt>
      <trkpt lat="43.0420603629" lon="-5.39531101993">
        <ele>1834.8</ele>
        <time>2013-02-20T11:40:00+01:00</time>
      </trkpt>
      <trkpt lat="43.04204988534" lon="-5.39534751617">
        <ele>1836.08</ele>
        <time>2013-02-20T11:40:01+01:00</time>
      </trkpt>
      <trkpt lat="43.04204044729" lon="-5.3953867337">
        <ele>1837.39</ele>
        <time>2013-02-20T11:40:02+01:00</time>
      </trkpt>
      <trkpt lat="43.04203155241" lon="-5.39542461795">
        <ele>1838.45</ele>
        <time>2013-02-20T11:40:03+01:00</time>
      </trkpt>
      <trkpt lat="43.04202353729" lon="-5.39545982155">
        <ele>1839.77</ele>
        <time>2013-02-20T11:40:04+01:00</time>
      </trkpt>
      <trkpt lat="43.04201700571" lon="-5.39549341614">
        <ele>1841.1</ele>
        <time>2013-02-20T11:40:05+01:00</time>
      </trkpt>
      <trkpt lat="43.04201784516" lon="-5.3955256831">
        <ele>1842.14</ele>
        <time>2013-02-20T11:40:06+01:00</time>
      </trkpt>
      <trkpt lat="43.04202310925" lon="-5.39557377779">
        <ele>1843.27</ele>
        <time>2013-02-20T11:40:08+01:00</time>
      </trkpt>
      <trkpt lat="43.04202402796" lon="-5.39561793016">
        <ele>1844.51</ele>
        <time>2013-02-20T11:40:10+01:00</time>
      </trkpt>
      <trkpt lat="43.04201458927" lon="-5.39567101709">
        <ele>1845.53</ele>
        <time>2013-02-20T11:40:12+01:00</time>
      </trkpt>
      <trkpt lat="43.04201065635" lon="-5.3957076519">
        <ele>1846.47</ele>
        <time>2013-02-20T11:40:13+01:00</time>
      </trkpt>
      <trkpt lat="43.04200232605" lon="-5.39574200212">
        <ele>1847.59</ele>
        <time>2013-02-20T11:40:14+01:00</time>
      </trkpt>
      <trkpt lat="43.04199656963" lon="-5.39579822481">
        <ele>1848.64</ele>
        <time>2013-02-20T11:40:16+01:00</time>
      </trkpt>
      <trkpt lat="43.04198639941" lon="-5.39585520101">
        <ele>1850.11</ele>
        <time>2013-02-20T11:40:18+01:00</time>
      </trkpt>
      <trkpt lat="43.04197621816" lon="-5.39590991393">
        <ele>1851.43</ele>
        <time>2013-02-20T11:40:20+01:00</time>
      </trkpt>
      <trkpt lat="43.04197213673" lon="-5.39596491179">
        <ele>1852.67</ele>
        <time>2013-02-20T11:40:22+01:00</time>
      </trkpt>
      <trkpt lat="43.04196987875" lon="-5.3960110483">
        <ele>1854.3</ele>
        <time>2013-02-20T11:40:24+01:00</time>
      </trkpt>
      <trkpt lat="43.04196620851" lon="-5.39605447377">
        <ele>1855.83</ele>
        <time>2013-02-20T11:40:26+01:00</time>
      </trkpt>
      <trkpt lat="43.04195524853" lon="-5.3960963512">
        <ele>1857.44</ele>
        <time>2013-02-20T11:40:28+01:00</time>
      </trkpt>
      <trkpt lat="43.04194598221" lon="-5.3961376508">
        <ele>1859.06</ele>
        <time>2013-02-20T11:40:30+01:00</time>
      </trkpt>
      <trkpt lat="43.04194067561" lon="-5.39617756079">
        <ele>1860.64</ele>
        <time>2013-02-20T11:40:32+01:00</time>
      </trkpt>
      <trkpt lat="43.04193378048" lon="-5.39622228905">
        <ele>1862.24</ele>
        <time>2013-02-20T11:40:34+01:00</time>
      </trkpt>
      <trkpt lat="43.04193065802" lon="-5.39626865152">
        <ele>1864.05</ele>
        <time>2013-02-20T11:40:36+01:00</time>
      </trkpt>
      <trkpt lat="43.04192386445" lon="-5.39631399972">
        <ele>1865.64</ele>
        <time>2013-02-20T11:40:38+01:00</time>
      </trkpt>
      <trkpt lat="43.0419205845" lon="-5.39633651587">
        <ele>1867.26</ele>
        <time>2013-02-20T11:40:40+01:00</time>
      </trkpt>
      <trkpt lat="43.04191665296" lon="-5.39638879401">
        <ele>1868.57</ele>
        <time>2013-02-20T11:40:42+01:00</time>
      </trkpt>
      <trkpt lat="43.04191398911" lon="-5.39644290259">
        <ele>1870.57</ele>
        <time>2013-02-20T11:40:45+01:00</time>
      </trkpt>
      <trkpt lat="43.04190903069" lon="-5.39649107407">
        <ele>1872.24</ele>
        <time>2013-02-20T11:40:47+01:00</time>
      </trkpt>
      <trkpt lat="43.04189878716" lon="-5.39654755212">
        <ele>1874.04</ele>
        <time>2013-02-20T11:40:49+01:00</time>
      </trkpt>
      <trkpt lat="43.04189270852" lon="-5.39660117793">
        <ele>1878.49</ele>
        <time>2013-02-20T11:40:51+01:00</time>
      </trkpt>
      <trkpt lat="43.04189340871" lon="-5.39664067928">
        <ele>1878.24</ele>
        <time>2013-02-20T11:40:53+01:00</time>
      </trkpt>
      <trkpt lat="43.04189240881" lon="-5.39668988557">
        <ele>1879.78</ele>
        <time>2013-02-20T11:40:55+01:00</time>
      </trkpt>
      <trkpt lat="43.04189264469" lon="-5.39673030401">
        <ele>1881.8</ele>
        <time>2013-02-20T11:40:57+01:00</time>
      </trkpt>
      <trkpt lat="43.04188695865" lon="-5.39677271997">
        <ele>1883.42</ele>
        <time>2013-02-20T11:40:59+01:00</time>
      </trkpt>
      <trkpt lat="43.04188042349" lon="-5.39681996109">
        <ele>1884.38</ele>
        <time>2013-02-20T11:41:01+01:00</time>
      </trkpt>
      <trkpt lat="43.04187368499" lon="-5.39686897189">
        <ele>1886.03</ele>
        <time>2013-02-20T11:41:03+01:00</time>
      </trkpt>
      <trkpt lat="43.04186472652" lon="-5.3969101559">
        <ele>1887.49</ele>
        <time>2013-02-20T11:41:05+01:00</time>
      </trkpt>
      <trkpt lat="43.04185190424" lon="-5.39694997571">
        <ele>1889.28</ele>
        <time>2013-02-20T11:41:08+01:00</time>
      </trkpt>
      <trkpt lat="43.04184717102" lon="-5.39698918546">
        <ele>1890.83</ele>
        <time>2013-02-20T11:41:10+01:00</time>
      </trkpt>
      <trkpt lat="43.04184684857" lon="-5.39702690226">
        <ele>1892.5</ele>
        <time>2013-02-20T11:41:12+01:00</time>
      </trkpt>
      <trkpt lat="43.04184560933" lon="-5.39706439434">
        <ele>1893.89</ele>
        <time>2013-02-20T11:41:14+01:00</time>
      </trkpt>
      <trkpt lat="43.04184318577" lon="-5.39709904176">
        <ele>1895.22</ele>
        <time>2013-02-20T11:41:16+01:00</time>
      </trkpt>
      <trkpt lat="43.04184508152" lon="-5.39713768837">
        <ele>1896.7</ele>
        <time>2013-02-20T11:41:18+01:00</time>
      </trkpt>
      <trkpt lat="43.04184334843" lon="-5.39717418438">
        <ele>1898.36</ele>
        <time>2013-02-20T11:41:20+01:00</time>
      </trkpt>
      <trkpt lat="43.04184072193" lon="-5.39721105494">
        <ele>1899.87</ele>
        <time>2013-02-20T11:41:22+01:00</time>
      </trkpt>
      <trkpt lat="43.04183634096" lon="-5.39724612286">
        <ele>1901.36</ele>
        <time>2013-02-20T11:41:24+01:00</time>
      </trkpt>
      <trkpt lat="43.04183127381" lon="-5.39728076319">
        <ele>1902.95</ele>
        <time>2013-02-20T11:41:26+01:00</time>
      </trkpt>
      <trkpt lat="43.04182794698" lon="-5.39731974366">
        <ele>1904.79</ele>
        <time>2013-02-20T11:41:28+01:00</time>
      </trkpt>
      <trkpt lat="43.04182379474" lon="-5.39735798282">
        <ele>1909.34</ele>
        <time>2013-02-20T11:41:30+01:00</time>
      </trkpt>
      <trkpt lat="43.0418143477" lon="-5.3974046568">
        <ele>1911.81</ele>
        <time>2013-02-20T11:41:32+01:00</time>
      </trkpt>
      <trkpt lat="43.04180445209" lon="-5.39746389083">
        <ele>1914.08</ele>
        <time>2013-02-20T11:41:34+01:00</time>
      </trkpt>
      <trkpt lat="43.04179897919" lon="-5.39750643878">
        <ele>1916.4</ele>
        <time>2013-02-20T11:41:36+01:00</time>
      </trkpt>
      <trkpt lat="43.04179224088" lon="-5.39756255678">
        <ele>1919.45</ele>
        <time>2013-02-20T11:41:38+01:00</time>
      </trkpt>
      <trkpt lat="43.04178583383" lon="-5.39761795708">
        <ele>1921.45</ele>
        <time>2013-02-20T11:41:40+01:00</time>
      </trkpt>
      <trkpt lat="43.04178111952" lon="-5.39765125798">
        <ele>1923.44</ele>
        <time>2013-02-20T11:41:41+01:00</time>
      </trkpt>
      <trkpt lat="43.04177604642" lon="-5.3976845366">
        <ele>1925.25</ele>
        <time>2013-02-20T11:41:42+01:00</time>
      </trkpt>
      <trkpt lat="43.04176965502" lon="-5.39771909544">
        <ele>1926.96</ele>
        <time>2013-02-20T11:41:43+01:00</time>
      </trkpt>
      <trkpt lat="43.04176927991" lon="-5.39775672434">
        <ele>1928.24</ele>
        <time>2013-02-20T11:41:44+01:00</time>
      </trkpt>
      <trkpt lat="43.04177184498" lon="-5.39780884243">
        <ele>1930.18</ele>
        <time>2013-02-20T11:41:46+01:00</time>
      </trkpt>
      <trkpt lat="43.0417889994" lon="-5.39784966056">
        <ele>1931.76</ele>
        <time>2013-02-20T11:41:48+01:00</time>
      </trkpt>
      <trkpt lat="43.04181007084" lon="-5.39787092437">
        <ele>1933.39</ele>
        <time>2013-02-20T11:41:50+01:00</time>
      </trkpt>
      <trkpt lat="43.04184479817" lon="-5.39787676484">
        <ele>1934.81</ele>
        <time>2013-02-20T11:41:52+01:00</time>
      </trkpt>
      <trkpt lat="43.04188006765" lon="-5.39786837187">
        <ele>1936.27</ele>
        <time>2013-02-20T11:41:54+01:00</time>
      </trkpt>
      <trkpt lat="43.04191682466" lon="-5.39784527862">
        <ele>1937.55</ele>
        <time>2013-02-20T11:41:56+01:00</time>
      </trkpt>
      <trkpt lat="43.04194528145" lon="-5.39782622225">
        <ele>1938.76</ele>
        <time>2013-02-20T11:41:58+01:00</time>
      </trkpt>
      <trkpt lat="43.04196185902" lon="-5.39784129216">
        <ele>1938.88</ele>
        <time>2013-02-20T11:42:01+01:00</time>
      </trkpt>
      <trkpt lat="43.04199576382" lon="-5.39785448972">
        <ele>1939.85</ele>
        <time>2013-02-20T11:42:04+01:00</time>
      </trkpt>
      <trkpt lat="43.0420373632" lon="-5.39785777084">
        <ele>1940.71</ele>
        <time>2013-02-20T11:42:06+01:00</time>
      </trkpt>
      <trkpt lat="43.04207629966" lon="-5.39786156906">
        <ele>1941.4</ele>
        <time>2013-02-20T11:42:08+01:00</time>
      </trkpt>
      <trkpt lat="43.04210444634" lon="-5.39786805929">
        <ele>1941.87</ele>
        <time>2013-02-20T11:42:10+01:00</time>
      </trkpt>
      <trkpt lat="43.04213011846" lon="-5.39788077825">
        <ele>1942.48</ele>
        <time>2013-02-20T11:42:13+01:00</time>
      </trkpt>
      <trkpt lat="43.04215539225" lon="-5.39790189011">
        <ele>1942.91</ele>
        <time>2013-02-20T11:42:16+01:00</time>
      </trkpt>
      <trkpt lat="43.04216933994" lon="-5.39792542556">
        <ele>1943.45</ele>
        <time>2013-02-20T11:42:18+01:00</time>
      </trkpt>
      <trkpt lat="43.04219154197" lon="-5.39791799565">
        <ele>1943.78</ele>
        <time>2013-02-20T11:46:24+01:00</time>
      </trkpt>
      <trkpt lat="43.04217368651" lon="-5.3979284455">
        <ele>1943.79</ele>
        <time>2013-02-20T11:46:28+01:00</time>
      </trkpt>
      <trkpt lat="43.04218929322" lon="-5.39793784449">
        <ele>1944.37</ele>
        <time>2013-02-20T11:47:05+01:00</time>
      </trkpt>
      <trkpt lat="43.04221393928" lon="-5.39794153478">
        <ele>1944.32</ele>
        <time>2013-02-20T11:47:16+01:00</time>
      </trkpt>
      <trkpt lat="43.04224565706" lon="-5.39794924658">
        <ele>1944.25</ele>
        <time>2013-02-20T11:47:18+01:00</time>
      </trkpt>
      <trkpt lat="43.04228458945" lon="-5.39796218833">
        <ele>1944.34</ele>
        <time>2013-02-20T11:47:19+01:00</time>
      </trkpt>
      <trkpt lat="43.04231634818" lon="-5.39797295742">
        <ele>1944.41</ele>
        <time>2013-02-20T11:47:20+01:00</time>
      </trkpt>
      <trkpt lat="43.04241490086" lon="-5.39803646677">
        <ele>1943.94</ele>
        <time>2013-02-20T11:47:21+01:00</time>
      </trkpt>
      <trkpt lat="43.04247732557" lon="-5.39809650963">
        <ele>1943.5</ele>
        <time>2013-02-20T11:47:22+01:00</time>
      </trkpt>
      <trkpt lat="43.04251599558" lon="-5.39816256471">
        <ele>1942.98</ele>
        <time>2013-02-20T11:47:23+01:00</time>
      </trkpt>
      <trkpt lat="43.04256362744" lon="-5.39822620125">
        <ele>1942.55</ele>
        <time>2013-02-20T11:47:24+01:00</time>
      </trkpt>
      <trkpt lat="43.04259564914" lon="-5.39826801871">
        <ele>1942.01</ele>
        <time>2013-02-20T11:47:25+01:00</time>
      </trkpt>
      <trkpt lat="43.04259933944" lon="-5.39839990975">
        <ele>1941.55</ele>
        <time>2013-02-20T11:47:26+01:00</time>
      </trkpt>
      <trkpt lat="43.04259466682" lon="-5.3984378538">
        <ele>1940.86</ele>
        <time>2013-02-20T11:47:27+01:00</time>
      </trkpt>
      <trkpt lat="43.04259964589" lon="-5.39849865211">
        <ele>1940.22</ele>
        <time>2013-02-20T11:47:28+01:00</time>
      </trkpt>
      <trkpt lat="43.04259403677" lon="-5.39856090203">
        <ele>1939.55</ele>
        <time>2013-02-20T11:47:29+01:00</time>
      </trkpt>
      <trkpt lat="43.04260672832" lon="-5.39860292337">
        <ele>1938.86</ele>
        <time>2013-02-20T11:47:30+01:00</time>
      </trkpt>
      <trkpt lat="43.04261401446" lon="-5.39862866979">
        <ele>1938.16</ele>
        <time>2013-02-20T11:47:31+01:00</time>
      </trkpt>
      <trkpt lat="43.04262476119" lon="-5.39865688188">
        <ele>1937.5</ele>
        <time>2013-02-20T11:47:32+01:00</time>
      </trkpt>
      <trkpt lat="43.04264268646" lon="-5.39868041757">
        <ele>1936.29</ele>
        <time>2013-02-20T11:47:33+01:00</time>
      </trkpt>
      <trkpt lat="43.04266101587" lon="-5.39870878158">
        <ele>1935.16</ele>
        <time>2013-02-20T11:47:34+01:00</time>
      </trkpt>
      <trkpt lat="43.04270477688" lon="-5.39880150202">
        <ele>1934.39</ele>
        <time>2013-02-20T11:47:35+01:00</time>
      </trkpt>
      <trkpt lat="43.04275285083" lon="-5.39890293134">
        <ele>1933.48</ele>
        <time>2013-02-20T11:47:36+01:00</time>
      </trkpt>
      <trkpt lat="43.04276650532" lon="-5.39892712234">
        <ele>1932.53</ele>
        <time>2013-02-20T11:47:37+01:00</time>
      </trkpt>
      <trkpt lat="43.04277615138" lon="-5.39894418157">
        <ele>1931.64</ele>
        <time>2013-02-20T11:47:38+01:00</time>
      </trkpt>
      <trkpt lat="43.04286946536" lon="-5.39921655003">
        <ele>1930.69</ele>
        <time>2013-02-20T11:47:39+01:00</time>
      </trkpt>
      <trkpt lat="43.0429392564" lon="-5.39943919359">
        <ele>1929.77</ele>
        <time>2013-02-20T11:47:40+01:00</time>
      </trkpt>
      <trkpt lat="43.04294030998" lon="-5.39963689088">
        <ele>1928.36</ele>
        <time>2013-02-20T11:47:41+01:00</time>
      </trkpt>
      <trkpt lat="43.04292241754" lon="-5.39980836872">
        <ele>1926.64</ele>
        <time>2013-02-20T11:47:42+01:00</time>
      </trkpt>
      <trkpt lat="43.04291938057" lon="-5.39996899994">
        <ele>1924.9</ele>
        <time>2013-02-20T11:47:43+01:00</time>
      </trkpt>
      <trkpt lat="43.04292926146" lon="-5.40011201219">
        <ele>1923.01</ele>
        <time>2013-02-20T11:47:44+01:00</time>
      </trkpt>
      <trkpt lat="43.0429484721" lon="-5.40024537676">
        <ele>1921.13</ele>
        <time>2013-02-20T11:47:45+01:00</time>
      </trkpt>
      <trkpt lat="43.04299619413" lon="-5.40037513287">
        <ele>1919.36</ele>
        <time>2013-02-20T11:47:46+01:00</time>
      </trkpt>
      <trkpt lat="43.04300679175" lon="-5.40040144408">
        <ele>1917.67</ele>
        <time>2013-02-20T11:47:47+01:00</time>
      </trkpt>
      <trkpt lat="43.04302244002" lon="-5.4004337324">
        <ele>1915.94</ele>
        <time>2013-02-20T11:47:48+01:00</time>
      </trkpt>
      <trkpt lat="43.04303223939" lon="-5.40045324099">
        <ele>1914.34</ele>
        <time>2013-02-20T11:47:49+01:00</time>
      </trkpt>
      <trkpt lat="43.04304718353" lon="-5.40048018958">
        <ele>1914.75</ele>
        <time>2013-02-20T11:47:52+01:00</time>
      </trkpt>
      <trkpt lat="43.04306218302" lon="-5.40050842685">
        <ele>1913.82</ele>
        <time>2013-02-20T11:47:53+01:00</time>
      </trkpt>
      <trkpt lat="43.04307727702" lon="-5.40053743993">
        <ele>1912.86</ele>
        <time>2013-02-20T11:47:54+01:00</time>
      </trkpt>
      <trkpt lat="43.04309165403" lon="-5.40056661169">
        <ele>1911.82</ele>
        <time>2013-02-20T11:47:56+01:00</time>
      </trkpt>
      <trkpt lat="43.0431198798" lon="-5.40062744435">
        <ele>1911.08</ele>
        <time>2013-02-20T11:47:57+01:00</time>
      </trkpt>
      <trkpt lat="43.04314598287" lon="-5.40068721451">
        <ele>1910.15</ele>
        <time>2013-02-20T11:47:58+01:00</time>
      </trkpt>
      <trkpt lat="43.04317112269" lon="-5.40074708453">
        <ele>1909.18</ele>
        <time>2013-02-20T11:47:59+01:00</time>
      </trkpt>
      <trkpt lat="43.04319455737" lon="-5.40080927401">
        <ele>1908.17</ele>
        <time>2013-02-20T11:48:00+01:00</time>
      </trkpt>
      <trkpt lat="43.04321615989" lon="-5.40087329117">
        <ele>1907.23</ele>
        <time>2013-02-20T11:48:01+01:00</time>
      </trkpt>
      <trkpt lat="43.04323441611" lon="-5.40093543285">
        <ele>1906.24</ele>
        <time>2013-02-20T11:48:02+01:00</time>
      </trkpt>
      <trkpt lat="43.04325172681" lon="-5.40099443651">
        <ele>1905.24</ele>
        <time>2013-02-20T11:48:03+01:00</time>
      </trkpt>
      <trkpt lat="43.04333312441" lon="-5.40127604626">
        <ele>1904.27</ele>
        <time>2013-02-20T11:48:04+01:00</time>
      </trkpt>
      <trkpt lat="43.04338084305" lon="-5.40142975927">
        <ele>1903.33</ele>
        <time>2013-02-20T11:48:05+01:00</time>
      </trkpt>
      <trkpt lat="43.04341331477" lon="-5.40152182892">
        <ele>1902.36</ele>
        <time>2013-02-20T11:48:06+01:00</time>
      </trkpt>
      <trkpt lat="43.04344294073" lon="-5.40159083017">
        <ele>1901.4</ele>
        <time>2013-02-20T11:48:07+01:00</time>
      </trkpt>
      <trkpt lat="43.04347380505" lon="-5.40165579901">
        <ele>1900.34</ele>
        <time>2013-02-20T11:48:08+01:00</time>
      </trkpt>
      <trkpt lat="43.0435184691" lon="-5.4017084419">
        <ele>1899.24</ele>
        <time>2013-02-20T11:48:09+01:00</time>
      </trkpt>
      <trkpt lat="43.0435669317" lon="-5.40177390684">
        <ele>1898.08</ele>
        <time>2013-02-20T11:48:10+01:00</time>
      </trkpt>
      <trkpt lat="43.04361574294" lon="-5.40185081194">
        <ele>1897</ele>
        <time>2013-02-20T11:48:11+01:00</time>
      </trkpt>
      <trkpt lat="43.04363478414" lon="-5.40196055257">
        <ele>1895.8</ele>
        <time>2013-02-20T11:48:12+01:00</time>
      </trkpt>
      <trkpt lat="43.0436426074" lon="-5.40207853862">
        <ele>1894.61</ele>
        <time>2013-02-20T11:48:13+01:00</time>
      </trkpt>
      <trkpt lat="43.04364344421" lon="-5.40210276759">
        <ele>1893.41</ele>
        <time>2013-02-20T11:48:14+01:00</time>
      </trkpt>
      <trkpt lat="43.043646209" lon="-5.40213365126">
        <ele>1892.22</ele>
        <time>2013-02-20T11:48:15+01:00</time>
      </trkpt>
      <trkpt lat="43.0436585167" lon="-5.40216427965">
        <ele>1890.89</ele>
        <time>2013-02-20T11:48:16+01:00</time>
      </trkpt>
      <trkpt lat="43.04367412406" lon="-5.40220214656">
        <ele>1889.62</ele>
        <time>2013-02-20T11:48:17+01:00</time>
      </trkpt>
      <trkpt lat="43.04369081517" lon="-5.40224928578">
        <ele>1888.36</ele>
        <time>2013-02-20T11:48:18+01:00</time>
      </trkpt>
      <trkpt lat="43.04370857385" lon="-5.40230513889">
        <ele>1887.11</ele>
        <time>2013-02-20T11:48:19+01:00</time>
      </trkpt>
      <trkpt lat="43.04372877696" lon="-5.40236743472">
        <ele>1885.81</ele>
        <time>2013-02-20T11:48:20+01:00</time>
      </trkpt>
      <trkpt lat="43.04375297378" lon="-5.40242982092">
        <ele>1884.38</ele>
        <time>2013-02-20T11:48:21+01:00</time>
      </trkpt>
      <trkpt lat="43.04389153137" lon="-5.40276491547">
        <ele>1882.98</ele>
        <time>2013-02-20T11:48:22+01:00</time>
      </trkpt>
      <trkpt lat="43.04391052105" lon="-5.40281039428">
        <ele>1881.65</ele>
        <time>2013-02-20T11:48:23+01:00</time>
      </trkpt>
      <trkpt lat="43.043982354" lon="-5.40309379691">
        <ele>1880.11</ele>
        <time>2013-02-20T11:48:24+01:00</time>
      </trkpt>
      <trkpt lat="43.04401137635" lon="-5.40329291427">
        <ele>1878.6</ele>
        <time>2013-02-20T11:48:25+01:00</time>
      </trkpt>
      <trkpt lat="43.04402802492" lon="-5.40342633584">
        <ele>1877.12</ele>
        <time>2013-02-20T11:48:26+01:00</time>
      </trkpt>
      <trkpt lat="43.04403251867" lon="-5.40345299684">
        <ele>1875.73</ele>
        <time>2013-02-20T11:48:28+01:00</time>
      </trkpt>
      <trkpt lat="43.04403795444" lon="-5.40348477852">
        <ele>1874.31</ele>
        <time>2013-02-20T11:48:29+01:00</time>
      </trkpt>
      <trkpt lat="43.04404047388" lon="-5.40350394179">
        <ele>1872.88</ele>
        <time>2013-02-20T11:48:30+01:00</time>
      </trkpt>
      <trkpt lat="43.04404706458" lon="-5.40355450104">
        <ele>1871.12</ele>
        <time>2013-02-20T11:48:35+01:00</time>
      </trkpt>
      <trkpt lat="43.04405206427" lon="-5.40361578411">
        <ele>1869.31</ele>
        <time>2013-02-20T11:48:37+01:00</time>
      </trkpt>
      <trkpt lat="43.04405865381" lon="-5.40367905313">
        <ele>1867.62</ele>
        <time>2013-02-20T11:48:38+01:00</time>
      </trkpt>
      <trkpt lat="43.04407126194" lon="-5.4038134632">
        <ele>1865.96</ele>
        <time>2013-02-20T11:48:39+01:00</time>
      </trkpt>
      <trkpt lat="43.04407908047" lon="-5.40394781817">
        <ele>1864.23</ele>
        <time>2013-02-20T11:48:40+01:00</time>
      </trkpt>
      <trkpt lat="43.04408092456" lon="-5.40408156195">
        <ele>1862.53</ele>
        <time>2013-02-20T11:48:41+01:00</time>
      </trkpt>
      <trkpt lat="43.04407919376" lon="-5.4042147389">
        <ele>1860.84</ele>
        <time>2013-02-20T11:48:42+01:00</time>
      </trkpt>
      <trkpt lat="43.04407666374" lon="-5.4043478248">
        <ele>1859.11</ele>
        <time>2013-02-20T11:48:43+01:00</time>
      </trkpt>
      <trkpt lat="43.04407411851" lon="-5.40448040128">
        <ele>1857.32</ele>
        <time>2013-02-20T11:48:44+01:00</time>
      </trkpt>
      <trkpt lat="43.04407004664" lon="-5.40461363407">
        <ele>1855.56</ele>
        <time>2013-02-20T11:48:45+01:00</time>
      </trkpt>
      <trkpt lat="43.04406402664" lon="-5.40474365215">
        <ele>1853.68</ele>
        <time>2013-02-20T11:48:46+01:00</time>
      </trkpt>
      <trkpt lat="43.04404334881" lon="-5.40538623338">
        <ele>1851.83</ele>
        <time>2013-02-20T11:48:47+01:00</time>
      </trkpt>
      <trkpt lat="43.04405329411" lon="-5.40576556868">
        <ele>1850</ele>
        <time>2013-02-20T11:48:48+01:00</time>
      </trkpt>
      <trkpt lat="43.04407945201" lon="-5.40601877116">
        <ele>1848.16</ele>
        <time>2013-02-20T11:48:49+01:00</time>
      </trkpt>
      <trkpt lat="43.0440988593" lon="-5.40622018088">
        <ele>1840.03</ele>
        <time>2013-02-20T11:48:50+01:00</time>
      </trkpt>
      <trkpt lat="43.04411480747" lon="-5.40639812498">
        <ele>1836.26</ele>
        <time>2013-02-20T11:48:51+01:00</time>
      </trkpt>
      <trkpt lat="43.04414136842" lon="-5.40655960049">
        <ele>1832.52</ele>
        <time>2013-02-20T11:48:52+01:00</time>
      </trkpt>
      <trkpt lat="43.04417671425" lon="-5.40672025969">
        <ele>1828.46</ele>
        <time>2013-02-20T11:48:53+01:00</time>
      </trkpt>
      <trkpt lat="43.04423094129" lon="-5.4069686818">
        <ele>1823.71</ele>
        <time>2013-02-20T11:48:54+01:00</time>
      </trkpt>
      <trkpt lat="43.04425033624" lon="-5.40716662532">
        <ele>1819.92</ele>
        <time>2013-02-20T11:48:55+01:00</time>
      </trkpt>
      <trkpt lat="43.04425670011" lon="-5.40728243764">
        <ele>1816.16</ele>
        <time>2013-02-20T11:48:56+01:00</time>
      </trkpt>
      <trkpt lat="43.0442852373" lon="-5.40743916644">
        <ele>1812.42</ele>
        <time>2013-02-20T11:48:57+01:00</time>
      </trkpt>
      <trkpt lat="43.04432199035" lon="-5.40761673066">
        <ele>1808.76</ele>
        <time>2013-02-20T11:48:58+01:00</time>
      </trkpt>
      <trkpt lat="43.04436364761" lon="-5.40777877061">
        <ele>1804.97</ele>
        <time>2013-02-20T11:48:59+01:00</time>
      </trkpt>
      <trkpt lat="43.04440557768" lon="-5.40793732318">
        <ele>1801.55</ele>
        <time>2013-02-20T11:49:00+01:00</time>
      </trkpt>
      <trkpt lat="43.04447677324" lon="-5.40822563423">
        <ele>1798.15</ele>
        <time>2013-02-20T11:49:01+01:00</time>
      </trkpt>
      <trkpt lat="43.04449933519" lon="-5.40836900338">
        <ele>1794.49</ele>
        <time>2013-02-20T11:49:02+01:00</time>
      </trkpt>
      <trkpt lat="43.04452882585" lon="-5.40854386918">
        <ele>1790.8</ele>
        <time>2013-02-20T11:49:03+01:00</time>
      </trkpt>
      <trkpt lat="43.0445687588" lon="-5.40872911889">
        <ele>1787.28</ele>
        <time>2013-02-20T11:49:04+01:00</time>
      </trkpt>
      <trkpt lat="43.04459534074" lon="-5.40902363316">
        <ele>1783.64</ele>
        <time>2013-02-20T11:49:05+01:00</time>
      </trkpt>
      <trkpt lat="43.044604908" lon="-5.40915608496">
        <ele>1780.21</ele>
        <time>2013-02-20T11:49:06+01:00</time>
      </trkpt>
      <trkpt lat="43.04466040571" lon="-5.40936175752">
        <ele>1776.55</ele>
        <time>2013-02-20T11:49:07+01:00</time>
      </trkpt>
      <trkpt lat="43.04471124314" lon="-5.40952325342">
        <ele>1772.62</ele>
        <time>2013-02-20T11:49:09+01:00</time>
      </trkpt>
      <trkpt lat="43.04478450193" lon="-5.40978495127">
        <ele>1769.07</ele>
        <time>2013-02-20T11:49:10+01:00</time>
      </trkpt>
      <trkpt lat="43.04481222945" lon="-5.40994055589">
        <ele>1765.66</ele>
        <time>2013-02-20T11:49:11+01:00</time>
      </trkpt>
      <trkpt lat="43.04481971956" lon="-5.41006997977">
        <ele>1762.29</ele>
        <time>2013-02-20T11:49:12+01:00</time>
      </trkpt>
      <trkpt lat="43.04482286044" lon="-5.41013147087">
        <ele>1758.88</ele>
        <time>2013-02-20T11:49:13+01:00</time>
      </trkpt>
      <trkpt lat="43.04482258336" lon="-5.4101759556">
        <ele>1755.71</ele>
        <time>2013-02-20T11:49:14+01:00</time>
      </trkpt>
      <trkpt lat="43.04482685301" lon="-5.41020939476">
        <ele>1752.59</ele>
        <time>2013-02-20T11:49:16+01:00</time>
      </trkpt>
      <trkpt lat="43.04480869679" lon="-5.41022902425">
        <ele>1749.73</ele>
        <time>2013-02-20T11:49:19+01:00</time>
      </trkpt>
      <trkpt lat="43.04480606359" lon="-5.41023389034">
        <ele>1746.69</ele>
        <time>2013-02-20T11:49:25+01:00</time>
      </trkpt>
      <trkpt lat="43.04480740579" lon="-5.41023503234">
        <ele>1747.69</ele>
        <time>2013-02-20T11:49:37+01:00</time>
      </trkpt>
      <trkpt lat="43.04480497293" lon="-5.41023483007">
        <ele>1741.83</ele>
        <time>2013-02-20T11:49:52+01:00</time>
      </trkpt>
      <trkpt lat="43.0448039012" lon="-5.41023273158">
        <ele>1739.02</ele>
        <time>2013-02-20T11:50:03+01:00</time>
      </trkpt>
      <trkpt lat="43.04482374789" lon="-5.41023798356">
        <ele>1736.54</ele>
        <time>2013-02-20T11:50:19+01:00</time>
      </trkpt>
      <trkpt lat="43.04482063217" lon="-5.41023763704">
        <ele>1737.81</ele>
        <time>2013-02-20T11:50:27+01:00</time>
      </trkpt>
      <trkpt lat="43.04481533441" lon="-5.41023829747">
        <ele>1736.01</ele>
        <time>2013-02-20T11:50:28+01:00</time>
      </trkpt>
      <trkpt lat="43.04477810439" lon="-5.41024701102">
        <ele>1734.5</ele>
        <time>2013-02-20T11:50:31+01:00</time>
      </trkpt>
      <trkpt lat="43.04476426706" lon="-5.41023556791">
        <ele>1729.65</ele>
        <time>2013-02-20T11:50:39+01:00</time>
      </trkpt>
      <trkpt lat="43.04475271739" lon="-5.41021216053">
        <ele>1727.79</ele>
        <time>2013-02-20T11:50:40+01:00</time>
      </trkpt>
      <trkpt lat="43.04473908453" lon="-5.41017920872">
        <ele>1725.37</ele>
        <time>2013-02-20T11:50:42+01:00</time>
      </trkpt>
      <trkpt lat="43.0447368118" lon="-5.41017215845">
        <ele>1722.87</ele>
        <time>2013-02-20T11:50:45+01:00</time>
      </trkpt>
      <trkpt lat="43.04474010037" lon="-5.41013775001">
        <ele>1720.09</ele>
        <time>2013-02-20T11:50:47+01:00</time>
      </trkpt>
      <trkpt lat="43.04474541343" lon="-5.41007428166">
        <ele>1718.18</ele>
        <time>2013-02-20T11:50:50+01:00</time>
      </trkpt>
      <trkpt lat="43.044742788" lon="-5.41003402829">
        <ele>1716.16</ele>
        <time>2013-02-20T11:50:52+01:00</time>
      </trkpt>
      <trkpt lat="43.04473579209" lon="-5.41000170362">
        <ele>1714.16</ele>
        <time>2013-02-20T11:50:53+01:00</time>
      </trkpt>
      <trkpt lat="43.0447349173" lon="-5.40999657883">
        <ele>1712.3</ele>
        <time>2013-02-20T11:50:55+01:00</time>
      </trkpt>
      <trkpt lat="43.04473342591" lon="-5.40998864728">
        <ele>1710.23</ele>
        <time>2013-02-20T11:50:56+01:00</time>
      </trkpt>
      <trkpt lat="43.04473142149" lon="-5.40997786275">
        <ele>1708.36</ele>
        <time>2013-02-20T11:50:57+01:00</time>
      </trkpt>
      <trkpt lat="43.0447197194" lon="-5.40991407733">
        <ele>1706.98</ele>
        <time>2013-02-20T11:50:58+01:00</time>
      </trkpt>
      <trkpt lat="43.04470909066" lon="-5.40985360233">
        <ele>1705.7</ele>
        <time>2013-02-20T11:51:00+01:00</time>
      </trkpt>
      <trkpt lat="43.04470698424" lon="-5.40984354828">
        <ele>1704.38</ele>
        <time>2013-02-20T11:51:02+01:00</time>
      </trkpt>
      <trkpt lat="43.04470517511" lon="-5.40983800556">
        <ele>1704.8</ele>
        <time>2013-02-20T11:51:03+01:00</time>
      </trkpt>
      <trkpt lat="43.04470241708" lon="-5.40983143659">
        <ele>1704.17</ele>
        <time>2013-02-20T11:51:04+01:00</time>
      </trkpt>
      <trkpt lat="43.04469861092" lon="-5.4098234191">
        <ele>1703.53</ele>
        <time>2013-02-20T11:51:05+01:00</time>
      </trkpt>
      <trkpt lat="43.04469030632" lon="-5.40980476605">
        <ele>1701.43</ele>
        <time>2013-02-20T11:51:06+01:00</time>
      </trkpt>
      <trkpt lat="43.04468114322" lon="-5.40978444953">
        <ele>1700.71</ele>
        <time>2013-02-20T11:51:07+01:00</time>
      </trkpt>
      <trkpt lat="43.04463303614" lon="-5.40967483646">
        <ele>1699.84</ele>
        <time>2013-02-20T11:51:08+01:00</time>
      </trkpt>
      <trkpt lat="43.04460355531" lon="-5.40960041627">
        <ele>1698.94</ele>
        <time>2013-02-20T11:51:09+01:00</time>
      </trkpt>
      <trkpt lat="43.04458328284" lon="-5.40954577182">
        <ele>1697.98</ele>
        <time>2013-02-20T11:51:10+01:00</time>
      </trkpt>
      <trkpt lat="43.04456421988" lon="-5.40949313624">
        <ele>1697.37</ele>
        <time>2013-02-20T11:51:12+01:00</time>
      </trkpt>
      <trkpt lat="43.04454836007" lon="-5.40944251093">
        <ele>1696.56</ele>
        <time>2013-02-20T11:51:14+01:00</time>
      </trkpt>
      <trkpt lat="43.04453334745" lon="-5.40940441588">
        <ele>1695.86</ele>
        <time>2013-02-20T11:51:16+01:00</time>
      </trkpt>
      <trkpt lat="43.04452482423" lon="-5.4093485259">
        <ele>1695.41</ele>
        <time>2013-02-20T11:51:17+01:00</time>
      </trkpt>
      <trkpt lat="43.04452663998" lon="-5.40930791067">
        <ele>1695.02</ele>
        <time>2013-02-20T11:51:19+01:00</time>
      </trkpt>
      <trkpt lat="43.04452322082" lon="-5.40928359729">
        <ele>1694.35</ele>
        <time>2013-02-20T11:51:21+01:00</time>
      </trkpt>
      <trkpt lat="43.04452169984" lon="-5.40925107258">
        <ele>1693.74</ele>
        <time>2013-02-20T11:51:23+01:00</time>
      </trkpt>
      <trkpt lat="43.04450951952" lon="-5.40919239692">
        <ele>1693.16</ele>
        <time>2013-02-20T11:51:25+01:00</time>
      </trkpt>
      <trkpt lat="43.04450148005" lon="-5.40916117404">
        <ele>1692.72</ele>
        <time>2013-02-20T11:51:27+01:00</time>
      </trkpt>
      <trkpt lat="43.04449291313" lon="-5.40912242854">
        <ele>1692.28</ele>
        <time>2013-02-20T11:51:29+01:00</time>
      </trkpt>
      <trkpt lat="43.0444850045" lon="-5.40907652707">
        <ele>1691.73</ele>
        <time>2013-02-20T11:51:31+01:00</time>
      </trkpt>
      <trkpt lat="43.04447541335" lon="-5.4090247845">
        <ele>1691.38</ele>
        <time>2013-02-20T11:51:33+01:00</time>
      </trkpt>
      <trkpt lat="43.04446590296" lon="-5.4089843287">
        <ele>1691.02</ele>
        <time>2013-02-20T11:51:34+01:00</time>
      </trkpt>
      <trkpt lat="43.04444806872" lon="-5.40890737234">
        <ele>1690.97</ele>
        <time>2013-02-20T11:51:36+01:00</time>
      </trkpt>
      <trkpt lat="43.04443246546" lon="-5.4088468529">
        <ele>1690.79</ele>
        <time>2013-02-20T11:51:38+01:00</time>
      </trkpt>
      <trkpt lat="43.04442190168" lon="-5.40880893275">
        <ele>1690.67</ele>
        <time>2013-02-20T11:51:39+01:00</time>
      </trkpt>
      <trkpt lat="43.04441264754" lon="-5.40877580068">
        <ele>1690.47</ele>
        <time>2013-02-20T11:51:40+01:00</time>
      </trkpt>
      <trkpt lat="43.04440231423" lon="-5.40874228512">
        <ele>1690.31</ele>
        <time>2013-02-20T11:51:41+01:00</time>
      </trkpt>
      <trkpt lat="43.04439699539" lon="-5.40870627887">
        <ele>1690.02</ele>
        <time>2013-02-20T11:51:42+01:00</time>
      </trkpt>
      <trkpt lat="43.04439237769" lon="-5.40867212142">
        <ele>1689.86</ele>
        <time>2013-02-20T11:51:43+01:00</time>
      </trkpt>
      <trkpt lat="43.04437395274" lon="-5.40863283521">
        <ele>1689.36</ele>
        <time>2013-02-20T11:51:45+01:00</time>
      </trkpt>
      <trkpt lat="43.04436212054" lon="-5.40860144158">
        <ele>1689.06</ele>
        <time>2013-02-20T11:51:46+01:00</time>
      </trkpt>
      <trkpt lat="43.04434641323" lon="-5.40857937055">
        <ele>1688.75</ele>
        <time>2013-02-20T11:51:48+01:00</time>
      </trkpt>
      <trkpt lat="43.044330492" lon="-5.40854205778">
        <ele>1688.75</ele>
        <time>2013-02-20T11:51:50+01:00</time>
      </trkpt>
      <trkpt lat="43.04430229878" lon="-5.40847566245">
        <ele>1688.59</ele>
        <time>2013-02-20T11:51:52+01:00</time>
      </trkpt>
      <trkpt lat="43.04428901584" lon="-5.40842496657">
        <ele>1688.34</ele>
        <time>2013-02-20T11:51:54+01:00</time>
      </trkpt>
      <trkpt lat="43.04428176597" lon="-5.40837948929">
        <ele>1688.82</ele>
        <time>2013-02-20T11:51:56+01:00</time>
      </trkpt>
      <trkpt lat="43.04427421397" lon="-5.40833009365">
        <ele>1688.98</ele>
        <time>2013-02-20T11:51:58+01:00</time>
      </trkpt>
      <trkpt lat="43.04426123713" lon="-5.40827978022">
        <ele>1688.83</ele>
        <time>2013-02-20T11:52:00+01:00</time>
      </trkpt>
      <trkpt lat="43.04426085458" lon="-5.408231429">
        <ele>1689</ele>
        <time>2013-02-20T11:52:02+01:00</time>
      </trkpt>
      <trkpt lat="43.04425330142" lon="-5.40818233028">
        <ele>1689.06</ele>
        <time>2013-02-20T11:52:04+01:00</time>
      </trkpt>
      <trkpt lat="43.04425051673" lon="-5.40812557188">
        <ele>1689.21</ele>
        <time>2013-02-20T11:52:06+01:00</time>
      </trkpt>
      <trkpt lat="43.04424679493" lon="-5.40810318011">
        <ele>1689.31</ele>
        <time>2013-02-20T11:52:07+01:00</time>
      </trkpt>
      <trkpt lat="43.04424794139" lon="-5.40804322306">
        <ele>1689.79</ele>
        <time>2013-02-20T11:52:09+01:00</time>
      </trkpt>
      <trkpt lat="43.04424330917" lon="-5.40800648828">
        <ele>1690.04</ele>
        <time>2013-02-20T11:52:10+01:00</time>
      </trkpt>
      <trkpt lat="43.04423556362" lon="-5.40798689282">
        <ele>1690.28</ele>
        <time>2013-02-20T11:52:11+01:00</time>
      </trkpt>
      <trkpt lat="43.04423309592" lon="-5.40798167271">
        <ele>1690.5</ele>
        <time>2013-02-20T11:52:12+01:00</time>
      </trkpt>
      <trkpt lat="43.04423119546" lon="-5.40797774787">
        <ele>1690.48</ele>
        <time>2013-02-20T11:52:13+01:00</time>
      </trkpt>
      <trkpt lat="43.04422867966" lon="-5.40797261111">
        <ele>1690.62</ele>
        <time>2013-02-20T11:52:14+01:00</time>
      </trkpt>
      <trkpt lat="43.04419583185" lon="-5.40789686404">
        <ele>1691.44</ele>
        <time>2013-02-20T11:52:16+01:00</time>
      </trkpt>
      <trkpt lat="43.04417134037" lon="-5.40783422198">
        <ele>1691.86</ele>
        <time>2013-02-20T11:52:18+01:00</time>
      </trkpt>
      <trkpt lat="43.04413840319" lon="-5.40774239999">
        <ele>1692.3</ele>
        <time>2013-02-20T11:52:20+01:00</time>
      </trkpt>
      <trkpt lat="43.04411119627" lon="-5.40768668583">
        <ele>1692.62</ele>
        <time>2013-02-20T11:52:22+01:00</time>
      </trkpt>
      <trkpt lat="43.04409920396" lon="-5.40765767715">
        <ele>1693.23</ele>
        <time>2013-02-20T11:52:24+01:00</time>
      </trkpt>
      <trkpt lat="43.04408782243" lon="-5.40761970349">
        <ele>1693.72</ele>
        <time>2013-02-20T11:52:26+01:00</time>
      </trkpt>
      <trkpt lat="43.04407706061" lon="-5.40757288873">
        <ele>1694.26</ele>
        <time>2013-02-20T11:52:28+01:00</time>
      </trkpt>
      <trkpt lat="43.04406702775" lon="-5.40752077334">
        <ele>1694.88</ele>
        <time>2013-02-20T11:52:30+01:00</time>
      </trkpt>
      <trkpt lat="43.04406532038" lon="-5.40751029797">
        <ele>1695.38</ele>
        <time>2013-02-20T11:52:32+01:00</time>
      </trkpt>
      <trkpt lat="43.04404942297" lon="-5.40743554041">
        <ele>1695.32</ele>
        <time>2013-02-20T11:52:34+01:00</time>
      </trkpt>
      <trkpt lat="43.04403629843" lon="-5.4073834933">
        <ele>1695.43</ele>
        <time>2013-02-20T11:52:35+01:00</time>
      </trkpt>
      <trkpt lat="43.04402581763" lon="-5.40733119248">
        <ele>1695.77</ele>
        <time>2013-02-20T11:52:37+01:00</time>
      </trkpt>
      <trkpt lat="43.04401883798" lon="-5.40728178229">
        <ele>1696.05</ele>
        <time>2013-02-20T11:52:39+01:00</time>
      </trkpt>
      <trkpt lat="43.0440100466" lon="-5.40723406887">
        <ele>1696.33</ele>
        <time>2013-02-20T11:52:41+01:00</time>
      </trkpt>
      <trkpt lat="43.04400872484" lon="-5.40722898841">
        <ele>1696.59</ele>
        <time>2013-02-20T11:52:43+01:00</time>
      </trkpt>
      <trkpt lat="43.04400718208" lon="-5.40722229282">
        <ele>1696.53</ele>
        <time>2013-02-20T11:52:45+01:00</time>
      </trkpt>
      <trkpt lat="43.04400341265" lon="-5.40720497791">
        <ele>1697.41</ele>
        <time>2013-02-20T11:52:47+01:00</time>
      </trkpt>
      <trkpt lat="43.04397961898" lon="-5.40710040635">
        <ele>1698.01</ele>
        <time>2013-02-20T11:52:49+01:00</time>
      </trkpt>
      <trkpt lat="43.04395283917" lon="-5.40699260922">
        <ele>1698.49</ele>
        <time>2013-02-20T11:52:50+01:00</time>
      </trkpt>
      <trkpt lat="43.04394151529" lon="-5.40694724519">
        <ele>1699.06</ele>
        <time>2013-02-20T11:52:51+01:00</time>
      </trkpt>
      <trkpt lat="43.04392858873" lon="-5.40691302667">
        <ele>1699.86</ele>
        <time>2013-02-20T11:52:52+01:00</time>
      </trkpt>
      <trkpt lat="43.04390893786" lon="-5.40687956204">
        <ele>1700.49</ele>
        <time>2013-02-20T11:52:53+01:00</time>
      </trkpt>
      <trkpt lat="43.04388391882" lon="-5.40684591292">
        <ele>1701.12</ele>
        <time>2013-02-20T11:52:54+01:00</time>
      </trkpt>
      <trkpt lat="43.04386731446" lon="-5.40681484205">
        <ele>1701.94</ele>
        <time>2013-02-20T11:52:55+01:00</time>
      </trkpt>
      <trkpt lat="43.04385303006" lon="-5.40678368333">
        <ele>1702.79</ele>
        <time>2013-02-20T11:52:56+01:00</time>
      </trkpt>
      <trkpt lat="43.04384443996" lon="-5.40673131759">
        <ele>1703.84</ele>
        <time>2013-02-20T11:52:58+01:00</time>
      </trkpt>
      <trkpt lat="43.04384227655" lon="-5.40669606385">
        <ele>1704.59</ele>
        <time>2013-02-20T11:53:00+01:00</time>
      </trkpt>
      <trkpt lat="43.04384168576" lon="-5.40664284927">
        <ele>1705.95</ele>
        <time>2013-02-20T11:53:01+01:00</time>
      </trkpt>
      <trkpt lat="43.04384033367" lon="-5.40661029736">
        <ele>1707.09</ele>
        <time>2013-02-20T11:53:03+01:00</time>
      </trkpt>
      <trkpt lat="43.04382436574" lon="-5.40654422387">
        <ele>1707.84</ele>
        <time>2013-02-20T11:53:05+01:00</time>
      </trkpt>
      <trkpt lat="43.04381122181" lon="-5.40652083535">
        <ele>1708.64</ele>
        <time>2013-02-20T11:53:06+01:00</time>
      </trkpt>
      <trkpt lat="43.04374773305" lon="-5.40650245981">
        <ele>1709.37</ele>
        <time>2013-02-20T11:53:07+01:00</time>
      </trkpt>
      <trkpt lat="43.04371059367" lon="-5.40647075561">
        <ele>1709.8</ele>
        <time>2013-02-20T11:53:08+01:00</time>
      </trkpt>
      <trkpt lat="43.04371326445" lon="-5.40645199853">
        <ele>1710.1</ele>
        <time>2013-02-20T11:53:11+01:00</time>
      </trkpt>
      <trkpt lat="43.04373257903" lon="-5.40643046623">
        <ele>1710.68</ele>
        <time>2013-02-20T11:53:13+01:00</time>
      </trkpt>
      <trkpt lat="43.0437369119" lon="-5.40642587386">
        <ele>1711.2</ele>
        <time>2013-02-20T11:53:14+01:00</time>
      </trkpt>
      <trkpt lat="43.0437413144" lon="-5.40641630088">
        <ele>1711.6</ele>
        <time>2013-02-20T11:53:15+01:00</time>
      </trkpt>
      <trkpt lat="43.04374142098" lon="-5.40640261415">
        <ele>1711.38</ele>
        <time>2013-02-20T11:53:16+01:00</time>
      </trkpt>
      <trkpt lat="43.04374119" lon="-5.4063864907">
        <ele>1711.69</ele>
        <time>2013-02-20T11:53:17+01:00</time>
      </trkpt>
      <trkpt lat="43.04373799397" lon="-5.4063674869">
        <ele>1712.64</ele>
        <time>2013-02-20T11:53:18+01:00</time>
      </trkpt>
      <trkpt lat="43.04372004954" lon="-5.40626554126">
        <ele>1713.24</ele>
        <time>2013-02-20T11:53:19+01:00</time>
      </trkpt>
      <trkpt lat="43.04370699114" lon="-5.4062002773">
        <ele>1713.61</ele>
        <time>2013-02-20T11:53:20+01:00</time>
      </trkpt>
      <trkpt lat="43.04369773782" lon="-5.40614358925">
        <ele>1714.31</ele>
        <time>2013-02-20T11:53:22+01:00</time>
      </trkpt>
      <trkpt lat="43.04369309021" lon="-5.40609600876">
        <ele>1714.9</ele>
        <time>2013-02-20T11:53:24+01:00</time>
      </trkpt>
      <trkpt lat="43.04368978153" lon="-5.40605344305">
        <ele>1715.63</ele>
        <time>2013-02-20T11:53:26+01:00</time>
      </trkpt>
      <trkpt lat="43.04367912149" lon="-5.40597862091">
        <ele>1716.22</ele>
        <time>2013-02-20T11:53:28+01:00</time>
      </trkpt>
      <trkpt lat="43.04367102156" lon="-5.40592167991">
        <ele>1717.07</ele>
        <time>2013-02-20T11:53:30+01:00</time>
      </trkpt>
      <trkpt lat="43.04366158965" lon="-5.40586710815">
        <ele>1717.82</ele>
        <time>2013-02-20T11:53:32+01:00</time>
      </trkpt>
      <trkpt lat="43.04365065081" lon="-5.40581113268">
        <ele>1718.64</ele>
        <time>2013-02-20T11:53:34+01:00</time>
      </trkpt>
      <trkpt lat="43.04364718798" lon="-5.4057744219">
        <ele>1719.49</ele>
        <time>2013-02-20T11:53:36+01:00</time>
      </trkpt>
      <trkpt lat="43.04364632201" lon="-5.40576773334">
        <ele>1720.25</ele>
        <time>2013-02-20T11:53:37+01:00</time>
      </trkpt>
      <trkpt lat="43.0436450565" lon="-5.40575862071">
        <ele>1719.97</ele>
        <time>2013-02-20T11:53:38+01:00</time>
      </trkpt>
      <trkpt lat="43.04364330566" lon="-5.4057473348">
        <ele>1720.36</ele>
        <time>2013-02-20T11:53:39+01:00</time>
      </trkpt>
      <trkpt lat="43.04363981044" lon="-5.40573100002">
        <ele>1720.46</ele>
        <time>2013-02-20T11:53:41+01:00</time>
      </trkpt>
      <trkpt lat="43.04363542423" lon="-5.40571318066">
        <ele>1720.58</ele>
        <time>2013-02-20T11:53:42+01:00</time>
      </trkpt>
      <trkpt lat="43.04362963262" lon="-5.4056933546">
        <ele>1720.84</ele>
        <time>2013-02-20T11:53:44+01:00</time>
      </trkpt>
      <trkpt lat="43.04359722107" lon="-5.40558720593">
        <ele>1721.81</ele>
        <time>2013-02-20T11:53:46+01:00</time>
      </trkpt>
      <trkpt lat="43.04357604902" lon="-5.40551418266">
        <ele>1721.59</ele>
        <time>2013-02-20T11:53:48+01:00</time>
      </trkpt>
      <trkpt lat="43.04356158637" lon="-5.40545357305">
        <ele>1721.84</ele>
        <time>2013-02-20T11:53:50+01:00</time>
      </trkpt>
      <trkpt lat="43.04354505113" lon="-5.40539921219">
        <ele>1722.09</ele>
        <time>2013-02-20T11:53:52+01:00</time>
      </trkpt>
      <trkpt lat="43.0435285902" lon="-5.40536067427">
        <ele>1722.29</ele>
        <time>2013-02-20T11:53:53+01:00</time>
      </trkpt>
      <trkpt lat="43.04350801738" lon="-5.40532715608">
        <ele>1722.27</ele>
        <time>2013-02-20T11:53:54+01:00</time>
      </trkpt>
      <trkpt lat="43.04348574485" lon="-5.40529715358">
        <ele>1722.39</ele>
        <time>2013-02-20T11:53:55+01:00</time>
      </trkpt>
      <trkpt lat="43.04346494844" lon="-5.40526911847">
        <ele>1722.57</ele>
        <time>2013-02-20T11:53:56+01:00</time>
      </trkpt>
      <trkpt lat="43.04344727893" lon="-5.40524064213">
        <ele>1722.69</ele>
        <time>2013-02-20T11:53:57+01:00</time>
      </trkpt>
      <trkpt lat="43.04343305881" lon="-5.40520884387">
        <ele>1722.77</ele>
        <time>2013-02-20T11:53:58+01:00</time>
      </trkpt>
      <trkpt lat="43.04342041669" lon="-5.40517207381">
        <ele>1722.73</ele>
        <time>2013-02-20T11:53:59+01:00</time>
      </trkpt>
      <trkpt lat="43.0434185406" lon="-5.40516462494">
        <ele>1722.84</ele>
        <time>2013-02-20T11:54:00+01:00</time>
      </trkpt>
      <trkpt lat="43.04340823322" lon="-5.40511329352">
        <ele>1722.88</ele>
        <time>2013-02-20T11:54:01+01:00</time>
      </trkpt>
      <trkpt lat="43.04340203179" lon="-5.40506885234">
        <ele>1722.98</ele>
        <time>2013-02-20T11:54:02+01:00</time>
      </trkpt>
      <trkpt lat="43.04339769474" lon="-5.40502848493">
        <ele>1723.05</ele>
        <time>2013-02-20T11:54:03+01:00</time>
      </trkpt>
      <trkpt lat="43.04339079044" lon="-5.40499266898">
        <ele>1723.11</ele>
        <time>2013-02-20T11:54:04+01:00</time>
      </trkpt>
      <trkpt lat="43.04337522645" lon="-5.40495254896">
        <ele>1723.31</ele>
        <time>2013-02-20T11:54:06+01:00</time>
      </trkpt>
      <trkpt lat="43.04337145722" lon="-5.40494646662">
        <ele>1723.6</ele>
        <time>2013-02-20T11:54:08+01:00</time>
      </trkpt>
      <trkpt lat="43.04336678668" lon="-5.40493625675">
        <ele>1723.71</ele>
        <time>2013-02-20T11:54:10+01:00</time>
      </trkpt>
      <trkpt lat="43.04334250031" lon="-5.40486579525">
        <ele>1724.02</ele>
        <time>2013-02-20T11:54:12+01:00</time>
      </trkpt>
      <trkpt lat="43.04332771682" lon="-5.40480814291">
        <ele>1724.34</ele>
        <time>2013-02-20T11:54:14+01:00</time>
      </trkpt>
      <trkpt lat="43.04332642288" lon="-5.40479926799">
        <ele>1724.78</ele>
        <time>2013-02-20T11:54:16+01:00</time>
      </trkpt>
      <trkpt lat="43.04332568999" lon="-5.40478812896">
        <ele>1725.19</ele>
        <time>2013-02-20T11:54:18+01:00</time>
      </trkpt>
      <trkpt lat="43.04332520642" lon="-5.40477355247">
        <ele>1725.61</ele>
        <time>2013-02-20T11:54:20+01:00</time>
      </trkpt>
      <trkpt lat="43.04332307223" lon="-5.40468147143">
        <ele>1726.1</ele>
        <time>2013-02-20T11:54:22+01:00</time>
      </trkpt>
      <trkpt lat="43.04332037067" lon="-5.40460831545">
        <ele>1726.6</ele>
        <time>2013-02-20T11:54:24+01:00</time>
      </trkpt>
      <trkpt lat="43.04331744829" lon="-5.40454399336">
        <ele>1727.08</ele>
        <time>2013-02-20T11:54:26+01:00</time>
      </trkpt>
      <trkpt lat="43.04331226053" lon="-5.40446873109">
        <ele>1729.04</ele>
        <time>2013-02-20T11:54:27+01:00</time>
      </trkpt>
      <trkpt lat="43.04330766905" lon="-5.40440633764">
        <ele>1730.12</ele>
        <time>2013-02-20T11:54:29+01:00</time>
      </trkpt>
      <trkpt lat="43.043300984" lon="-5.40434785907">
        <ele>1731.19</ele>
        <time>2013-02-20T11:54:31+01:00</time>
      </trkpt>
      <trkpt lat="43.04329522135" lon="-5.4042917728">
        <ele>1732.37</ele>
        <time>2013-02-20T11:54:33+01:00</time>
      </trkpt>
      <trkpt lat="43.0432899114" lon="-5.40423428744">
        <ele>1733.66</ele>
        <time>2013-02-20T11:54:35+01:00</time>
      </trkpt>
      <trkpt lat="43.04328583192" lon="-5.40417578465">
        <ele>1734.82</ele>
        <time>2013-02-20T11:54:37+01:00</time>
      </trkpt>
      <trkpt lat="43.04328400184" lon="-5.40415066026">
        <ele>1735.93</ele>
        <time>2013-02-20T11:54:38+01:00</time>
      </trkpt>
      <trkpt lat="43.04328367214" lon="-5.40414339528">
        <ele>1735.56</ele>
        <time>2013-02-20T11:54:40+01:00</time>
      </trkpt>
      <trkpt lat="43.04328308792" lon="-5.40413719237">
        <ele>1736.2</ele>
        <time>2013-02-20T11:54:42+01:00</time>
      </trkpt>
      <trkpt lat="43.04328107266" lon="-5.4041198748">
        <ele>1736.89</ele>
        <time>2013-02-20T11:54:44+01:00</time>
      </trkpt>
      <trkpt lat="43.04327814832" lon="-5.40409883236">
        <ele>1737.46</ele>
        <time>2013-02-20T11:54:46+01:00</time>
      </trkpt>
      <trkpt lat="43.04327458602" lon="-5.404074689">
        <ele>1737.91</ele>
        <time>2013-02-20T11:54:48+01:00</time>
      </trkpt>
      <trkpt lat="43.04327065492" lon="-5.40404777158">
        <ele>1738.51</ele>
        <time>2013-02-20T11:54:50+01:00</time>
      </trkpt>
      <trkpt lat="43.04324711858" lon="-5.40390078502">
        <ele>1739.1</ele>
        <time>2013-02-20T11:54:52+01:00</time>
      </trkpt>
      <trkpt lat="43.04322952499" lon="-5.40380176884">
        <ele>1739.69</ele>
        <time>2013-02-20T11:54:54+01:00</time>
      </trkpt>
      <trkpt lat="43.04321437891" lon="-5.4037255644">
        <ele>1740.26</ele>
        <time>2013-02-20T11:54:56+01:00</time>
      </trkpt>
      <trkpt lat="43.04320125285" lon="-5.40366055626">
        <ele>1740.87</ele>
        <time>2013-02-20T11:54:58+01:00</time>
      </trkpt>
      <trkpt lat="43.04318966068" lon="-5.40360005664">
        <ele>1741.5</ele>
        <time>2013-02-20T11:55:00+01:00</time>
      </trkpt>
      <trkpt lat="43.04317900309" lon="-5.40354273328">
        <ele>1742.14</ele>
        <time>2013-02-20T11:55:02+01:00</time>
      </trkpt>
      <trkpt lat="43.04316828893" lon="-5.40348745906">
        <ele>1742.79</ele>
        <time>2013-02-20T11:55:04+01:00</time>
      </trkpt>
      <trkpt lat="43.04315798652" lon="-5.40343241312">
        <ele>1743.46</ele>
        <time>2013-02-20T11:55:06+01:00</time>
      </trkpt>
      <trkpt lat="43.04313951867" lon="-5.40334418698">
        <ele>1746.33</ele>
        <time>2013-02-20T11:55:08+01:00</time>
      </trkpt>
      <trkpt lat="43.04312623621" lon="-5.40328624156">
        <ele>1747.81</ele>
        <time>2013-02-20T11:55:10+01:00</time>
      </trkpt>
      <trkpt lat="43.04311365554" lon="-5.40323649806">
        <ele>1749.33</ele>
        <time>2013-02-20T11:55:12+01:00</time>
      </trkpt>
      <trkpt lat="43.04310151698" lon="-5.40318826082">
        <ele>1750.92</ele>
        <time>2013-02-20T11:55:14+01:00</time>
      </trkpt>
      <trkpt lat="43.04309312136" lon="-5.40315474171">
        <ele>1752.57</ele>
        <time>2013-02-20T11:55:15+01:00</time>
      </trkpt>
      <trkpt lat="43.0430859112" lon="-5.40312611858">
        <ele>1754.09</ele>
        <time>2013-02-20T11:55:17+01:00</time>
      </trkpt>
      <trkpt lat="43.04307229762" lon="-5.40306191405">
        <ele>1755.75</ele>
        <time>2013-02-20T11:55:19+01:00</time>
      </trkpt>
      <trkpt lat="43.04306219883" lon="-5.4030119916">
        <ele>1757.4</ele>
        <time>2013-02-20T11:55:21+01:00</time>
      </trkpt>
      <trkpt lat="43.04305655694" lon="-5.40298156951">
        <ele>1759.01</ele>
        <time>2013-02-20T11:55:23+01:00</time>
      </trkpt>
      <trkpt lat="43.04304839253" lon="-5.40294041647">
        <ele>1758.45</ele>
        <time>2013-02-20T11:55:25+01:00</time>
      </trkpt>
      <trkpt lat="43.04303938595" lon="-5.40289352077">
        <ele>1759.28</ele>
        <time>2013-02-20T11:55:27+01:00</time>
      </trkpt>
      <trkpt lat="43.04302239063" lon="-5.40281127838">
        <ele>1762.35</ele>
        <time>2013-02-20T11:55:29+01:00</time>
      </trkpt>
      <trkpt lat="43.04300970442" lon="-5.40275151223">
        <ele>1763.78</ele>
        <time>2013-02-20T11:55:31+01:00</time>
      </trkpt>
      <trkpt lat="43.04299798061" lon="-5.40269785065">
        <ele>1765.02</ele>
        <time>2013-02-20T11:55:33+01:00</time>
      </trkpt>
      <trkpt lat="43.04298839388" lon="-5.40264748869">
        <ele>1766.56</ele>
        <time>2013-02-20T11:55:35+01:00</time>
      </trkpt>
      <trkpt lat="43.04298084625" lon="-5.40261487427">
        <ele>1768.23</ele>
        <time>2013-02-20T11:55:37+01:00</time>
      </trkpt>
      <trkpt lat="43.04296803557" lon="-5.40255237175">
        <ele>1769.87</ele>
        <time>2013-02-20T11:55:39+01:00</time>
      </trkpt>
      <trkpt lat="43.04295407404" lon="-5.40249776056">
        <ele>1771.14</ele>
        <time>2013-02-20T11:55:41+01:00</time>
      </trkpt>
      <trkpt lat="43.04293723367" lon="-5.40244352065">
        <ele>1772.69</ele>
        <time>2013-02-20T11:55:43+01:00</time>
      </trkpt>
      <trkpt lat="43.04292568486" lon="-5.4023939818">
        <ele>1774.33</ele>
        <time>2013-02-20T11:55:45+01:00</time>
      </trkpt>
      <trkpt lat="43.04292336115" lon="-5.40235501621">
        <ele>1773.86</ele>
        <time>2013-02-20T11:55:47+01:00</time>
      </trkpt>
      <trkpt lat="43.04292014574" lon="-5.4023196497">
        <ele>1776.79</ele>
        <time>2013-02-20T11:55:48+01:00</time>
      </trkpt>
      <trkpt lat="43.04291539482" lon="-5.40228654375">
        <ele>1778.29</ele>
        <time>2013-02-20T11:55:49+01:00</time>
      </trkpt>
      <trkpt lat="43.04290514037" lon="-5.40224710817">
        <ele>1777.62</ele>
        <time>2013-02-20T11:55:51+01:00</time>
      </trkpt>
      <trkpt lat="43.04290422741" lon="-5.40224293195">
        <ele>1778.23</ele>
        <time>2013-02-20T11:55:53+01:00</time>
      </trkpt>
      <trkpt lat="43.04290506776" lon="-5.40218544633">
        <ele>1780.66</ele>
        <time>2013-02-20T11:55:54+01:00</time>
      </trkpt>
      <trkpt lat="43.04291072663" lon="-5.40213566494">
        <ele>1781.55</ele>
        <time>2013-02-20T11:55:55+01:00</time>
      </trkpt>
      <trkpt lat="43.0429196539" lon="-5.40208919084">
        <ele>1782.25</ele>
        <time>2013-02-20T11:55:56+01:00</time>
      </trkpt>
      <trkpt lat="43.0429215776" lon="-5.40208000044">
        <ele>1781.94</ele>
        <time>2013-02-20T11:55:57+01:00</time>
      </trkpt>
      <trkpt lat="43.04292826451" lon="-5.40201710215">
        <ele>1782.77</ele>
        <time>2013-02-20T11:55:59+01:00</time>
      </trkpt>
      <trkpt lat="43.04292798185" lon="-5.40200573288">
        <ele>1783.43</ele>
        <time>2013-02-20T11:56:02+01:00</time>
      </trkpt>
      <trkpt lat="43.0429265366" lon="-5.40200092684">
        <ele>1784.05</ele>
        <time>2013-02-20T11:56:04+01:00</time>
      </trkpt>
      <trkpt lat="43.04292103298" lon="-5.40198958255">
        <ele>1784.56</ele>
        <time>2013-02-20T11:56:06+01:00</time>
      </trkpt>
      <trkpt lat="43.04291330531" lon="-5.40197531584">
        <ele>1785.2</ele>
        <time>2013-02-20T11:56:08+01:00</time>
      </trkpt>
      <trkpt lat="43.04290387775" lon="-5.40195746343">
        <ele>1785.9</ele>
        <time>2013-02-20T11:56:10+01:00</time>
      </trkpt>
      <trkpt lat="43.04284785408" lon="-5.40185273623">
        <ele>1786.57</ele>
        <time>2013-02-20T11:56:12+01:00</time>
      </trkpt>
      <trkpt lat="43.04281351391" lon="-5.40178738068">
        <ele>1787.2</ele>
        <time>2013-02-20T11:56:13+01:00</time>
      </trkpt>
      <trkpt lat="43.04278473489" lon="-5.40172951529">
        <ele>1787.87</ele>
        <time>2013-02-20T11:56:15+01:00</time>
      </trkpt>
      <trkpt lat="43.04277983276" lon="-5.40171849006">
        <ele>1788.57</ele>
        <time>2013-02-20T11:56:17+01:00</time>
      </trkpt>
      <trkpt lat="43.04275018754" lon="-5.40164251544">
        <ele>1789.28</ele>
        <time>2013-02-20T11:56:19+01:00</time>
      </trkpt>
      <trkpt lat="43.04272893183" lon="-5.40157783177">
        <ele>1792.39</ele>
        <time>2013-02-20T11:56:21+01:00</time>
      </trkpt>
      <trkpt lat="43.04270401474" lon="-5.40148350477">
        <ele>1793.91</ele>
        <time>2013-02-20T11:56:23+01:00</time>
      </trkpt>
      <trkpt lat="43.04269058236" lon="-5.40142091936">
        <ele>1795.24</ele>
        <time>2013-02-20T11:56:25+01:00</time>
      </trkpt>
      <trkpt lat="43.04268192797" lon="-5.40136360939">
        <ele>1796.79</ele>
        <time>2013-02-20T11:56:27+01:00</time>
      </trkpt>
      <trkpt lat="43.0426793589" lon="-5.40130849444">
        <ele>1798.78</ele>
        <time>2013-02-20T11:56:29+01:00</time>
      </trkpt>
      <trkpt lat="43.04268477947" lon="-5.40126199924">
        <ele>1800.79</ele>
        <time>2013-02-20T11:56:31+01:00</time>
      </trkpt>
      <trkpt lat="43.04269005454" lon="-5.40121655743">
        <ele>1802.49</ele>
        <time>2013-02-20T11:56:33+01:00</time>
      </trkpt>
      <trkpt lat="43.0426879898" lon="-5.40118451612">
        <ele>1804.14</ele>
        <time>2013-02-20T11:56:35+01:00</time>
      </trkpt>
      <trkpt lat="43.04267832408" lon="-5.40114351739">
        <ele>1805.94</ele>
        <time>2013-02-20T11:56:37+01:00</time>
      </trkpt>
      <trkpt lat="43.04267120714" lon="-5.40110738578">
        <ele>1807.66</ele>
        <time>2013-02-20T11:56:38+01:00</time>
      </trkpt>
      <trkpt lat="43.04266238903" lon="-5.4010744421">
        <ele>1809.22</ele>
        <time>2013-02-20T11:56:39+01:00</time>
      </trkpt>
      <trkpt lat="43.04264756546" lon="-5.40103093862">
        <ele>1808.68</ele>
        <time>2013-02-20T11:56:41+01:00</time>
      </trkpt>
      <trkpt lat="43.04263221183" lon="-5.40098219715">
        <ele>1809.61</ele>
        <time>2013-02-20T11:56:43+01:00</time>
      </trkpt>
      <trkpt lat="43.04261646742" lon="-5.40093272261">
        <ele>1810.53</ele>
        <time>2013-02-20T11:56:45+01:00</time>
      </trkpt>
      <trkpt lat="43.04260048573" lon="-5.4008809118">
        <ele>1811.26</ele>
        <time>2013-02-20T11:56:47+01:00</time>
      </trkpt>
      <trkpt lat="43.04258876494" lon="-5.40083929033">
        <ele>1811.77</ele>
        <time>2013-02-20T11:56:48+01:00</time>
      </trkpt>
      <trkpt lat="43.04257485792" lon="-5.40080594864">
        <ele>1812.38</ele>
        <time>2013-02-20T11:56:49+01:00</time>
      </trkpt>
      <trkpt lat="43.04255872622" lon="-5.40077854896">
        <ele>1813.01</ele>
        <time>2013-02-20T11:56:50+01:00</time>
      </trkpt>
      <trkpt lat="43.04254068591" lon="-5.40075470702">
        <ele>1813.58</ele>
        <time>2013-02-20T11:56:51+01:00</time>
      </trkpt>
      <trkpt lat="43.0425228438" lon="-5.40073281159">
        <ele>1814.17</ele>
        <time>2013-02-20T11:56:52+01:00</time>
      </trkpt>
      <trkpt lat="43.04249923346" lon="-5.40070170539">
        <ele>1814.77</ele>
        <time>2013-02-20T11:56:54+01:00</time>
      </trkpt>
      <trkpt lat="43.04247747478" lon="-5.40066142568">
        <ele>1815.25</ele>
        <time>2013-02-20T11:56:56+01:00</time>
      </trkpt>
      <trkpt lat="43.04246395514" lon="-5.40062271991">
        <ele>1815.68</ele>
        <time>2013-02-20T11:56:57+01:00</time>
      </trkpt>
      <trkpt lat="43.04245549798" lon="-5.4005878605">
        <ele>1816.24</ele>
        <time>2013-02-20T11:56:58+01:00</time>
      </trkpt>
      <trkpt lat="43.04245114368" lon="-5.40054318961">
        <ele>1816.88</ele>
        <time>2013-02-20T11:57:00+01:00</time>
      </trkpt>
      <trkpt lat="43.04245096368" lon="-5.40053863847">
        <ele>1817.49</ele>
        <time>2013-02-20T11:57:02+01:00</time>
      </trkpt>
      <trkpt lat="43.04245072982" lon="-5.40053275166">
        <ele>1818.08</ele>
        <time>2013-02-20T11:57:03+01:00</time>
      </trkpt>
      <trkpt lat="43.04244565829" lon="-5.40044757414">
        <ele>1818.8</ele>
        <time>2013-02-20T11:57:05+01:00</time>
      </trkpt>
      <trkpt lat="43.04243847057" lon="-5.40037548108">
        <ele>1821.75</ele>
        <time>2013-02-20T11:57:07+01:00</time>
      </trkpt>
      <trkpt lat="43.04242722187" lon="-5.40027837816">
        <ele>1823.45</ele>
        <time>2013-02-20T11:57:09+01:00</time>
      </trkpt>
      <trkpt lat="43.04241705961" lon="-5.40021838916">
        <ele>1825.1</ele>
        <time>2013-02-20T11:57:11+01:00</time>
      </trkpt>
      <trkpt lat="43.04239648639" lon="-5.4001888229">
        <ele>1826.72</ele>
        <time>2013-02-20T11:57:12+01:00</time>
      </trkpt>
      <trkpt lat="43.04239364232" lon="-5.40015805356">
        <ele>1828.63</ele>
        <time>2013-02-20T11:57:14+01:00</time>
      </trkpt>
      <trkpt lat="43.04237762075" lon="-5.40010789006">
        <ele>1830.22</ele>
        <time>2013-02-20T11:57:15+01:00</time>
      </trkpt>
      <trkpt lat="43.0423553057" lon="-5.40005547846">
        <ele>1831.89</ele>
        <time>2013-02-20T11:57:17+01:00</time>
      </trkpt>
      <trkpt lat="43.04234094929" lon="-5.40002742742">
        <ele>1833.45</ele>
        <time>2013-02-20T11:57:19+01:00</time>
      </trkpt>
      <trkpt lat="43.04233908659" lon="-5.39997756101">
        <ele>1835.25</ele>
        <time>2013-02-20T11:57:21+01:00</time>
      </trkpt>
      <trkpt lat="43.04235313092" lon="-5.39993929042">
        <ele>1836.74</ele>
        <time>2013-02-20T11:57:23+01:00</time>
      </trkpt>
      <trkpt lat="43.04235777822" lon="-5.39990864843">
        <ele>1838.22</ele>
        <time>2013-02-20T11:57:25+01:00</time>
      </trkpt>
      <trkpt lat="43.0423565186" lon="-5.39986608625">
        <ele>1839.94</ele>
        <time>2013-02-20T11:57:27+01:00</time>
      </trkpt>
      <trkpt lat="43.04234610292" lon="-5.39981660005">
        <ele>1841.46</ele>
        <time>2013-02-20T11:57:29+01:00</time>
      </trkpt>
      <trkpt lat="43.04233400097" lon="-5.39977777535">
        <ele>1843.16</ele>
        <time>2013-02-20T11:57:30+01:00</time>
      </trkpt>
      <trkpt lat="43.04232476487" lon="-5.39973627669">
        <ele>1844.88</ele>
        <time>2013-02-20T11:57:32+01:00</time>
      </trkpt>
      <trkpt lat="43.04231439203" lon="-5.39965855309">
        <ele>1847.02</ele>
        <time>2013-02-20T11:57:35+01:00</time>
      </trkpt>
      <trkpt lat="43.04231000406" lon="-5.3996086761">
        <ele>1848.95</ele>
        <time>2013-02-20T11:57:37+01:00</time>
      </trkpt>
      <trkpt lat="43.04230258858" lon="-5.39955726057">
        <ele>1850.62</ele>
        <time>2013-02-20T11:57:39+01:00</time>
      </trkpt>
      <trkpt lat="43.04229642295" lon="-5.39953494992">
        <ele>1852.42</ele>
        <time>2013-02-20T11:57:40+01:00</time>
      </trkpt>
      <trkpt lat="43.04228755663" lon="-5.39950556396">
        <ele>1854.27</ele>
        <time>2013-02-20T11:57:41+01:00</time>
      </trkpt>
      <trkpt lat="43.04228562226" lon="-5.39949911334">
        <ele>1855.94</ele>
        <time>2013-02-20T11:57:42+01:00</time>
      </trkpt>
      <trkpt lat="43.04226910147" lon="-5.39944225766">
        <ele>1858.02</ele>
        <time>2013-02-20T11:57:44+01:00</time>
      </trkpt>
      <trkpt lat="43.04225673394" lon="-5.39939798803">
        <ele>1859.76</ele>
        <time>2013-02-20T11:57:45+01:00</time>
      </trkpt>
      <trkpt lat="43.04224684118" lon="-5.39936072387">
        <ele>1861.54</ele>
        <time>2013-02-20T11:57:46+01:00</time>
      </trkpt>
      <trkpt lat="43.04223279142" lon="-5.39928880187">
        <ele>1863.61</ele>
        <time>2013-02-20T11:57:48+01:00</time>
      </trkpt>
      <trkpt lat="43.04223574822" lon="-5.39924229802">
        <ele>1865.7</ele>
        <time>2013-02-20T11:57:50+01:00</time>
      </trkpt>
      <trkpt lat="43.0422352667" lon="-5.39919370288">
        <ele>1867.37</ele>
        <time>2013-02-20T11:57:53+01:00</time>
      </trkpt>
      <trkpt lat="43.04222568208" lon="-5.39915374195">
        <ele>1869.36</ele>
        <time>2013-02-20T11:57:55+01:00</time>
      </trkpt>
      <trkpt lat="43.04221504798" lon="-5.39910732712">
        <ele>1871.32</ele>
        <time>2013-02-20T11:57:57+01:00</time>
      </trkpt>
      <trkpt lat="43.04220356695" lon="-5.39905895096">
        <ele>1873.33</ele>
        <time>2013-02-20T11:57:59+01:00</time>
      </trkpt>
      <trkpt lat="43.04218896611" lon="-5.3990079697">
        <ele>1875.14</ele>
        <time>2013-02-20T11:58:01+01:00</time>
      </trkpt>
      <trkpt lat="43.04218158677" lon="-5.39896049075">
        <ele>1880.83</ele>
        <time>2013-02-20T11:58:03+01:00</time>
      </trkpt>
      <trkpt lat="43.04218497241" lon="-5.39892001544">
        <ele>1883.61</ele>
        <time>2013-02-20T11:58:05+01:00</time>
      </trkpt>
      <trkpt lat="43.04218628656" lon="-5.39887644817">
        <ele>1886.48</ele>
        <time>2013-02-20T11:58:07+01:00</time>
      </trkpt>
      <trkpt lat="43.04217990606" lon="-5.39881813946">
        <ele>1890.45</ele>
        <time>2013-02-20T11:58:09+01:00</time>
      </trkpt>
      <trkpt lat="43.04217229007" lon="-5.398765613">
        <ele>1893.95</ele>
        <time>2013-02-20T11:58:11+01:00</time>
      </trkpt>
      <trkpt lat="43.04216126903" lon="-5.39871140166">
        <ele>1896.74</ele>
        <time>2013-02-20T11:58:13+01:00</time>
      </trkpt>
      <trkpt lat="43.04215186884" lon="-5.39865966213">
        <ele>1899.63</ele>
        <time>2013-02-20T11:58:15+01:00</time>
      </trkpt>
      <trkpt lat="43.04214912219" lon="-5.39861268416">
        <ele>1902.59</ele>
        <time>2013-02-20T11:58:17+01:00</time>
      </trkpt>
      <trkpt lat="43.04214431485" lon="-5.39856640819">
        <ele>1905.37</ele>
        <time>2013-02-20T11:58:19+01:00</time>
      </trkpt>
      <trkpt lat="43.04213319452" lon="-5.39852074201">
        <ele>1908.08</ele>
        <time>2013-02-20T11:58:21+01:00</time>
      </trkpt>
      <trkpt lat="43.04212178389" lon="-5.39847358846">
        <ele>1910.68</ele>
        <time>2013-02-20T11:58:23+01:00</time>
      </trkpt>
      <trkpt lat="43.04211219274" lon="-5.39842198001">
        <ele>1913.46</ele>
        <time>2013-02-20T11:58:25+01:00</time>
      </trkpt>
      <trkpt lat="43.04212640129" lon="-5.3983586847">
        <ele>1916.7</ele>
        <time>2013-02-20T11:58:27+01:00</time>
      </trkpt>
      <trkpt lat="43.04212629257" lon="-5.39830425023">
        <ele>1918.83</ele>
        <time>2013-02-20T11:58:29+01:00</time>
      </trkpt>
      <trkpt lat="43.04211715132" lon="-5.398249241">
        <ele>1921.07</ele>
        <time>2013-02-20T11:58:31+01:00</time>
      </trkpt>
      <trkpt lat="43.0420967823" lon="-5.39819914595">
        <ele>1923.36</ele>
        <time>2013-02-20T11:58:33+01:00</time>
      </trkpt>
      <trkpt lat="43.04208613708" lon="-5.39815191129">
        <ele>1926.23</ele>
        <time>2013-02-20T11:58:35+01:00</time>
      </trkpt>
      <trkpt lat="43.04207857657" lon="-5.39810544988">
        <ele>1928.16</ele>
        <time>2013-02-20T11:58:37+01:00</time>
      </trkpt>
      <trkpt lat="43.04206814612" lon="-5.39805659501">
        <ele>1929.99</ele>
        <time>2013-02-20T11:58:39+01:00</time>
      </trkpt>
      <trkpt lat="43.04205584157" lon="-5.39799702116">
        <ele>1931.77</ele>
        <time>2013-02-20T11:58:41+01:00</time>
      </trkpt>
      <trkpt lat="43.0420428052" lon="-5.39794248226">
        <ele>1933.41</ele>
        <time>2013-02-20T11:58:43+01:00</time>
      </trkpt>
      <trkpt lat="43.04203872951" lon="-5.39790538079">
        <ele>1934.5</ele>
        <time>2013-02-20T11:58:45+01:00</time>
      </trkpt>
      <trkpt lat="43.04204565794" lon="-5.39786708443">
        <ele>1935.85</ele>
        <time>2013-02-20T11:58:46+01:00</time>
      </trkpt>
      <trkpt lat="43.0420742248" lon="-5.39783700267">
        <ele>1937.03</ele>
        <time>2013-02-20T11:58:48+01:00</time>
      </trkpt>
      <trkpt lat="43.04212317358" lon="-5.39783769091">
        <ele>1938.62</ele>
        <time>2013-02-20T11:58:50+01:00</time>
      </trkpt>
      <trkpt lat="43.04216261866" lon="-5.39784273859">
        <ele>1939.76</ele>
        <time>2013-02-20T11:58:51+01:00</time>
      </trkpt>
      <trkpt lat="43.04219255126" lon="-5.39784807133">
        <ele>1940.61</ele>
        <time>2013-02-20T11:58:52+01:00</time>
      </trkpt>
      <trkpt lat="43.04222293927" lon="-5.39785048995">
        <ele>1941.38</ele>
        <time>2013-02-20T11:58:53+01:00</time>
      </trkpt>
      <trkpt lat="43.04225674534" lon="-5.39783745546">
        <ele>1942.29</ele>
        <time>2013-02-20T11:58:54+01:00</time>
      </trkpt>
      <trkpt lat="43.04228830172" lon="-5.3978221207">
        <ele>1942.97</ele>
        <time>2013-02-20T11:58:56+01:00</time>
      </trkpt>
      <trkpt lat="43.04227093846" lon="-5.39780519805">
        <ele>1943.73</ele>
        <time>2013-02-20T11:59:00+01:00</time>
      </trkpt>
      <trkpt lat="43.04224355351" lon="-5.39780969163">
        <ele>1943.04</ele>
        <time>2013-02-20T11:59:43+01:00</time>
      </trkpt>
      <trkpt lat="43.04224639736" lon="-5.39778305906">
        <ele>1943.33</ele>
        <time>2013-02-20T11:59:50+01:00</time>
      </trkpt>
      <trkpt lat="43.04226623027" lon="-5.39777552847">
        <ele>1943.31</ele>
        <time>2013-02-20T11:59:53+01:00</time>
      </trkpt>
      <trkpt lat="43.04227024005" lon="-5.39781366489">
        <ele>1944.24</ele>
        <time>2013-02-20T12:00:26+01:00</time>
      </trkpt>
      <trkpt lat="43.04228145943" lon="-5.39785453867">
        <ele>1943.84</ele>
        <time>2013-02-20T12:00:27+01:00</time>
      </trkpt>
      <trkpt lat="43.04234210809" lon="-5.39795554225">
        <ele>1943.32</ele>
        <time>2013-02-20T12:00:30+01:00</time>
      </trkpt>
      <trkpt lat="43.04236704568" lon="-5.39802178551">
        <ele>1942.96</ele>
        <time>2013-02-20T12:00:30+01:00</time>
      </trkpt>
      <trkpt lat="43.04239915704" lon="-5.39809444509">
        <ele>1942.91</ele>
        <time>2013-02-20T12:00:32+01:00</time>
      </trkpt>
      <trkpt lat="43.04252696835" lon="-5.39811041631">
        <ele>1941.95</ele>
        <time>2013-02-20T12:00:33+01:00</time>
      </trkpt>
      <trkpt lat="43.04260913967" lon="-5.39813838985">
        <ele>1940.99</ele>
        <time>2013-02-20T12:00:33+01:00</time>
      </trkpt>
      <trkpt lat="43.04260555795" lon="-5.39828848856">
        <ele>1940.3</ele>
        <time>2013-02-20T12:00:34+01:00</time>
      </trkpt>
      <trkpt lat="43.0426154028" lon="-5.39840527777">
        <ele>1939.87</ele>
        <time>2013-02-20T12:00:36+01:00</time>
      </trkpt>
      <trkpt lat="43.04260691116" lon="-5.39850695611">
        <ele>1939.22</ele>
        <time>2013-02-20T12:00:37+01:00</time>
      </trkpt>
      <trkpt lat="43.04261236663" lon="-5.39857041833">
        <ele>1938.62</ele>
        <time>2013-02-20T12:00:37+01:00</time>
      </trkpt>
      <trkpt lat="43.04261929919" lon="-5.39858676416">
        <ele>1938.63</ele>
        <time>2013-02-20T12:00:39+01:00</time>
      </trkpt>
      <trkpt lat="43.04270198154" lon="-5.39866673256">
        <ele>1938.16</ele>
        <time>2013-02-20T12:00:39+01:00</time>
      </trkpt>
      <trkpt lat="43.04277312038" lon="-5.39875746919">
        <ele>1937.37</ele>
        <time>2013-02-20T12:00:40+01:00</time>
      </trkpt>
      <trkpt lat="43.04283649676" lon="-5.39886084027">
        <ele>1936.43</ele>
        <time>2013-02-20T12:00:41+01:00</time>
      </trkpt>
      <trkpt lat="43.0429272969" lon="-5.39906718697">
        <ele>1935.45</ele>
        <time>2013-02-20T12:00:42+01:00</time>
      </trkpt>
      <trkpt lat="43.04296822217" lon="-5.39924598658">
        <ele>1934.22</ele>
        <time>2013-02-20T12:00:43+01:00</time>
      </trkpt>
      <trkpt lat="43.04300396692" lon="-5.39943248664">
        <ele>1932.81</ele>
        <time>2013-02-20T12:00:44+01:00</time>
      </trkpt>
      <trkpt lat="43.04302649802" lon="-5.39955445415">
        <ele>1931.28</ele>
        <time>2013-02-20T12:00:45+01:00</time>
      </trkpt>
      <trkpt lat="43.04301692967" lon="-5.39984085568">
        <ele>1929.52</ele>
        <time>2013-02-20T12:00:46+01:00</time>
      </trkpt>
      <trkpt lat="43.04301137504" lon="-5.3999842795">
        <ele>1927.89</ele>
        <time>2013-02-20T12:00:47+01:00</time>
      </trkpt>
      <trkpt lat="43.0430212963" lon="-5.40017358952">
        <ele>1926.39</ele>
        <time>2013-02-20T12:00:48+01:00</time>
      </trkpt>
      <trkpt lat="43.04302820605" lon="-5.40021728904">
        <ele>1924.66</ele>
        <time>2013-02-20T12:00:50+01:00</time>
      </trkpt>
      <trkpt lat="43.04303356808" lon="-5.4002489651">
        <ele>1923.1</ele>
        <time>2013-02-20T12:00:50+01:00</time>
      </trkpt>
      <trkpt lat="43.04304446856" lon="-5.40029103509">
        <ele>1921.61</ele>
        <time>2013-02-20T12:00:52+01:00</time>
      </trkpt>
      <trkpt lat="43.04306073117" lon="-5.40033419927">
        <ele>1922.12</ele>
        <time>2013-02-20T12:00:52+01:00</time>
      </trkpt>
      <trkpt lat="43.04308210666" lon="-5.40038506656">
        <ele>1921.28</ele>
        <time>2013-02-20T12:00:53+01:00</time>
      </trkpt>
      <trkpt lat="43.04310318031" lon="-5.40043520097">
        <ele>1920.17</ele>
        <time>2013-02-20T12:00:54+01:00</time>
      </trkpt>
      <trkpt lat="43.04314659816" lon="-5.40053873768">
        <ele>1919.27</ele>
        <time>2013-02-20T12:00:55+01:00</time>
      </trkpt>
      <trkpt lat="43.04318894316" lon="-5.4006379976">
        <ele>1918.61</ele>
        <time>2013-02-20T12:00:56+01:00</time>
      </trkpt>
      <trkpt lat="43.04323001667" lon="-5.4007316482">
        <ele>1917.76</ele>
        <time>2013-02-20T12:00:57+01:00</time>
      </trkpt>
      <trkpt lat="43.04324962712" lon="-5.40077785619">
        <ele>1917.75</ele>
        <time>2013-02-20T12:00:58+01:00</time>
      </trkpt>
      <trkpt lat="43.04326971549" lon="-5.40082633031">
        <ele>1917.19</ele>
        <time>2013-02-20T12:00:59+01:00</time>
      </trkpt>
      <trkpt lat="43.04328993519" lon="-5.4008767896">
        <ele>1916.65</ele>
        <time>2013-02-20T12:01:00+01:00</time>
      </trkpt>
      <trkpt lat="43.04331014136" lon="-5.40092912223">
        <ele>1916.15</ele>
        <time>2013-02-20T12:01:01+01:00</time>
      </trkpt>
      <trkpt lat="43.04334667727" lon="-5.40105223437">
        <ele>1915.75</ele>
        <time>2013-02-20T12:01:19+01:00</time>
      </trkpt>
      <trkpt lat="43.04338380248" lon="-5.40117380933">
        <ele>1915.23</ele>
        <time>2013-02-20T12:01:20+01:00</time>
      </trkpt>
      <trkpt lat="43.0434218165" lon="-5.40129086876">
        <ele>1914.72</ele>
        <time>2013-02-20T12:01:21+01:00</time>
      </trkpt>
      <trkpt lat="43.0434597445" lon="-5.401405143">
        <ele>1914.21</ele>
        <time>2013-02-20T12:01:22+01:00</time>
      </trkpt>
      <trkpt lat="43.04349644456" lon="-5.40151794897">
        <ele>1913.7</ele>
        <time>2013-02-20T12:01:23+01:00</time>
      </trkpt>
      <trkpt lat="43.04353313058" lon="-5.40166985304">
        <ele>1912.99</ele>
        <time>2013-02-20T12:01:30+01:00</time>
      </trkpt>
      <trkpt lat="43.04357032714" lon="-5.40182955527">
        <ele>1911.02</ele>
        <time>2013-02-20T12:01:32+01:00</time>
      </trkpt>
      <trkpt lat="43.04364086649" lon="-5.40214985391">
        <ele>1909.87</ele>
        <time>2013-02-20T12:01:33+01:00</time>
      </trkpt>
      <trkpt lat="43.04370140566" lon="-5.40245269042">
        <ele>1906</ele>
        <time>2013-02-20T12:01:34+01:00</time>
      </trkpt>
      <trkpt lat="43.04375164968" lon="-5.40273995353">
        <ele>1903.74</ele>
        <time>2013-02-20T12:01:35+01:00</time>
      </trkpt>
      <trkpt lat="43.0439499827" lon="-5.40409948319">
        <ele>1901.43</ele>
        <time>2013-02-20T12:01:36+01:00</time>
      </trkpt>
      <trkpt lat="43.04403181962" lon="-5.40484362103">
        <ele>1899.04</ele>
        <time>2013-02-20T12:01:37+01:00</time>
      </trkpt>
      <trkpt lat="43.04407135507" lon="-5.40528467301">
        <ele>1896.35</ele>
        <time>2013-02-20T12:01:38+01:00</time>
      </trkpt>
      <trkpt lat="43.0441148522" lon="-5.40574748517">
        <ele>1885.7</ele>
        <time>2013-02-20T12:01:39+01:00</time>
      </trkpt>
      <trkpt lat="43.04412267991" lon="-5.40593995989">
        <ele>1880.89</ele>
        <time>2013-02-20T12:01:40+01:00</time>
      </trkpt>
      <trkpt lat="43.04412326024" lon="-5.40603794762">
        <ele>1883.63</ele>
        <time>2013-02-20T12:01:41+01:00</time>
      </trkpt>
      <trkpt lat="43.04412560396" lon="-5.40616288152">
        <ele>1880.98</ele>
        <time>2013-02-20T12:01:42+01:00</time>
      </trkpt>
      <trkpt lat="43.04412281538" lon="-5.40629449918">
        <ele>1877.44</ele>
        <time>2013-02-20T12:01:44+01:00</time>
      </trkpt>
      <trkpt lat="43.04411961898" lon="-5.40641462273">
        <ele>1868.01</ele>
        <time>2013-02-20T12:01:45+01:00</time>
      </trkpt>
      <trkpt lat="43.04411890539" lon="-5.40643775788">
        <ele>1864.51</ele>
        <time>2013-02-20T12:01:45+01:00</time>
      </trkpt>
      <trkpt lat="43.04411993585" lon="-5.40645184835">
        <ele>1866.74</ele>
        <time>2013-02-20T12:01:46+01:00</time>
      </trkpt>
      <trkpt lat="43.04412586257" lon="-5.40648181374">
        <ele>1864.11</ele>
        <time>2013-02-20T12:01:47+01:00</time>
      </trkpt>
      <trkpt lat="43.0441352325" lon="-5.40651897499">
        <ele>1860.86</ele>
        <time>2013-02-20T12:01:49+01:00</time>
      </trkpt>
      <trkpt lat="43.04414611715" lon="-5.40656241135">
        <ele>1851.88</ele>
        <time>2013-02-20T12:01:50+01:00</time>
      </trkpt>
      <trkpt lat="43.04415245902" lon="-5.40658707486">
        <ele>1848.33</ele>
        <time>2013-02-20T12:01:50+01:00</time>
      </trkpt>
      <trkpt lat="43.04416311299" lon="-5.4066449745">
        <ele>1850.2</ele>
        <time>2013-02-20T12:01:52+01:00</time>
      </trkpt>
      <trkpt lat="43.04417399657" lon="-5.4067092044">
        <ele>1840.75</ele>
        <time>2013-02-20T12:01:52+01:00</time>
      </trkpt>
      <trkpt lat="43.04417955845" lon="-5.40674422665">
        <ele>1835.65</ele>
        <time>2013-02-20T12:01:53+01:00</time>
      </trkpt>
      <trkpt lat="43.04426160721" lon="-5.40716951612">
        <ele>1831.25</ele>
        <time>2013-02-20T12:01:54+01:00</time>
      </trkpt>
      <trkpt lat="43.04431445007" lon="-5.40744582141">
        <ele>1827.12</ele>
        <time>2013-02-20T12:01:55+01:00</time>
      </trkpt>
      <trkpt lat="43.0443214736" lon="-5.4074890339">
        <ele>1822.03</ele>
        <time>2013-02-20T12:01:56+01:00</time>
      </trkpt>
      <trkpt lat="43.0443696128" lon="-5.40776525555">
        <ele>1817.16</ele>
        <time>2013-02-20T12:01:57+01:00</time>
      </trkpt>
      <trkpt lat="43.04442521931" lon="-5.40797000251">
        <ele>1812.63</ele>
        <time>2013-02-20T12:01:58+01:00</time>
      </trkpt>
      <trkpt lat="43.04447494124" lon="-5.40815854195">
        <ele>1808.07</ele>
        <time>2013-02-20T12:01:59+01:00</time>
      </trkpt>
      <trkpt lat="43.04451996068" lon="-5.40833336177">
        <ele>1803.49</ele>
        <time>2013-02-20T12:02:00+01:00</time>
      </trkpt>
      <trkpt lat="43.04454295236" lon="-5.40849021574">
        <ele>1798.77</ele>
        <time>2013-02-20T12:02:01+01:00</time>
      </trkpt>
      <trkpt lat="43.04458439255" lon="-5.40864399604">
        <ele>1800.32</ele>
        <time>2013-02-20T12:02:02+01:00</time>
      </trkpt>
      <trkpt lat="43.04462059821" lon="-5.40880633969">
        <ele>1791.67</ele>
        <time>2013-02-20T12:02:03+01:00</time>
      </trkpt>
      <trkpt lat="43.04465156726" lon="-5.40896676241">
        <ele>1787.39</ele>
        <time>2013-02-20T12:02:04+01:00</time>
      </trkpt>
      <trkpt lat="43.04468069334" lon="-5.40912513501">
        <ele>1783.41</ele>
        <time>2013-02-20T12:02:05+01:00</time>
      </trkpt>
      <trkpt lat="43.04471373847" lon="-5.40928068045">
        <ele>1779.81</ele>
        <time>2013-02-20T12:02:06+01:00</time>
      </trkpt>
      <trkpt lat="43.04472068492" lon="-5.40931140624">
        <ele>1775.3</ele>
        <time>2013-02-20T12:02:07+01:00</time>
      </trkpt>
      <trkpt lat="43.04477952041" lon="-5.40953441333">
        <ele>1771.39</ele>
        <time>2013-02-20T12:02:08+01:00</time>
      </trkpt>
      <trkpt lat="43.04485756831" lon="-5.40981568172">
        <ele>1767.43</ele>
        <time>2013-02-20T12:02:09+01:00</time>
      </trkpt>
      <trkpt lat="43.04489949707" lon="-5.40997660861">
        <ele>1763.69</ele>
        <time>2013-02-20T12:02:10+01:00</time>
      </trkpt>
      <trkpt lat="43.04489889742" lon="-5.4100917413">
        <ele>1759.9</ele>
        <time>2013-02-20T12:02:11+01:00</time>
      </trkpt>
      <trkpt lat="43.04488516528" lon="-5.41019697754">
        <ele>1756.29</ele>
        <time>2013-02-20T12:02:12+01:00</time>
      </trkpt>
      <trkpt lat="43.04485371921" lon="-5.4102040773">
        <ele>1752.87</ele>
        <time>2013-02-20T12:02:13+01:00</time>
      </trkpt>
      <trkpt lat="43.04482949273" lon="-5.41022889953">
        <ele>1749.57</ele>
        <time>2013-02-20T12:02:15+01:00</time>
      </trkpt>
      <trkpt lat="43.04481187341" lon="-5.41019517311">
        <ele>1745.97</ele>
        <time>2013-02-20T12:02:22+01:00</time>
      </trkpt>
      <trkpt lat="43.04478846767" lon="-5.41016717132">
        <ele>1742.53</ele>
        <time>2013-02-20T12:02:38+01:00</time>
      </trkpt>
      <trkpt lat="43.04478489294" lon="-5.41013582176">
        <ele>1738.95</ele>
        <time>2013-02-20T12:02:40+01:00</time>
      </trkpt>
      <trkpt lat="43.04478263572" lon="-5.41015644099">
        <ele>1735.66</ele>
        <time>2013-02-20T12:02:47+01:00</time>
      </trkpt>
      <trkpt lat="43.04478882274" lon="-5.41019167846">
        <ele>1732.85</ele>
        <time>2013-02-20T12:02:52+01:00</time>
      </trkpt>
      <trkpt lat="43.044786238" lon="-5.4102236705">
        <ele>1730.16</ele>
        <time>2013-02-20T12:02:56+01:00</time>
      </trkpt>
      <trkpt lat="43.04475872538" lon="-5.41024037378">
        <ele>1722.51</ele>
        <time>2013-02-20T12:03:19+01:00</time>
      </trkpt>
      <trkpt lat="43.04474907137" lon="-5.41026485846">
        <ele>1723.66</ele>
        <time>2013-02-20T12:03:21+01:00</time>
      </trkpt>
      <trkpt lat="43.04471515523" lon="-5.41027317522">
        <ele>1721.22</ele>
        <time>2013-02-20T12:03:23+01:00</time>
      </trkpt>
      <trkpt lat="43.04467836479" lon="-5.41025338089">
        <ele>1718.39</ele>
        <time>2013-02-20T12:03:26+01:00</time>
      </trkpt>
      <trkpt lat="43.04466387534" lon="-5.41024042922">
        <ele>1715.65</ele>
        <time>2013-02-20T12:03:27+01:00</time>
      </trkpt>
      <trkpt lat="43.0446595928" lon="-5.4102045869">
        <ele>1713.66</ele>
        <time>2013-02-20T12:03:28+01:00</time>
      </trkpt>
      <trkpt lat="43.04466532295" lon="-5.4101837619">
        <ele>1711.41</ele>
        <time>2013-02-20T12:03:31+01:00</time>
      </trkpt>
      <trkpt lat="43.04468011129" lon="-5.41015780097">
        <ele>1709.37</ele>
        <time>2013-02-20T12:03:33+01:00</time>
      </trkpt>
      <trkpt lat="43.04469722846" lon="-5.41013015218">
        <ele>1707.47</ele>
        <time>2013-02-20T12:03:34+01:00</time>
      </trkpt>
      <trkpt lat="43.04470981036" lon="-5.4101335945">
        <ele>1705.92</ele>
        <time>2013-02-20T12:03:37+01:00</time>
      </trkpt>
      <trkpt lat="43.04471524907" lon="-5.41010885571">
        <ele>1704.23</ele>
        <time>2013-02-20T12:03:38+01:00</time>
      </trkpt>
      <trkpt lat="43.04470897193" lon="-5.41008560489">
        <ele>1702.61</ele>
        <time>2013-02-20T12:03:40+01:00</time>
      </trkpt>
      <trkpt lat="43.04468701878" lon="-5.41004340079">
        <ele>1700.98</ele>
        <time>2013-02-20T12:03:41+01:00</time>
      </trkpt>
      <trkpt lat="43.04467749842" lon="-5.41000371223">
        <ele>1699.82</ele>
        <time>2013-02-20T12:03:42+01:00</time>
      </trkpt>
      <trkpt lat="43.04467234217" lon="-5.40995124985">
        <ele>1698.66</ele>
        <time>2013-02-20T12:03:45+01:00</time>
      </trkpt>
      <trkpt lat="43.04465491592" lon="-5.4099070286">
        <ele>1697.44</ele>
        <time>2013-02-20T12:03:48+01:00</time>
      </trkpt>
      <trkpt lat="43.04464616683" lon="-5.40986083459">
        <ele>1696.52</ele>
        <time>2013-02-20T12:03:51+01:00</time>
      </trkpt>
      <trkpt lat="43.04464495346" lon="-5.40982437136">
        <ele>1695.55</ele>
        <time>2013-02-20T12:03:52+01:00</time>
      </trkpt>
      <trkpt lat="43.04464535479" lon="-5.40981579034">
        <ele>1694.63</ele>
        <time>2013-02-20T12:03:53+01:00</time>
      </trkpt>
      <trkpt lat="43.04463718633" lon="-5.40976238168">
        <ele>1693.54</ele>
        <time>2013-02-20T12:03:55+01:00</time>
      </trkpt>
      <trkpt lat="43.04461841281" lon="-5.4097297262">
        <ele>1692.55</ele>
        <time>2013-02-20T12:03:55+01:00</time>
      </trkpt>
      <trkpt lat="43.04460062319" lon="-5.40969160551">
        <ele>1691.56</ele>
        <time>2013-02-20T12:03:57+01:00</time>
      </trkpt>
      <trkpt lat="43.04457840116" lon="-5.40965821212">
        <ele>1690.58</ele>
        <time>2013-02-20T12:03:57+01:00</time>
      </trkpt>
      <trkpt lat="43.04455320854" lon="-5.40961381323">
        <ele>1690.16</ele>
        <time>2013-02-20T12:03:59+01:00</time>
      </trkpt>
      <trkpt lat="43.04454193239" lon="-5.40956567179">
        <ele>1689.88</ele>
        <time>2013-02-20T12:04:01+01:00</time>
      </trkpt>
      <trkpt lat="43.04453440838" lon="-5.40952269988">
        <ele>1689.57</ele>
        <time>2013-02-20T12:04:03+01:00</time>
      </trkpt>
      <trkpt lat="43.04453237774" lon="-5.40951354119">
        <ele>1689.22</ele>
        <time>2013-02-20T12:04:05+01:00</time>
      </trkpt>
      <trkpt lat="43.04452899532" lon="-5.40950034466">
        <ele>1688.88</ele>
        <time>2013-02-20T12:04:07+01:00</time>
      </trkpt>
      <trkpt lat="43.04452525544" lon="-5.40948301954">
        <ele>1688.76</ele>
        <time>2013-02-20T12:04:09+01:00</time>
      </trkpt>
      <trkpt lat="43.04452233799" lon="-5.40946340363">
        <ele>1688.52</ele>
        <time>2013-02-20T12:04:11+01:00</time>
      </trkpt>
      <trkpt lat="43.04451404998" lon="-5.40935392579">
        <ele>1688.21</ele>
        <time>2013-02-20T12:04:14+01:00</time>
      </trkpt>
      <trkpt lat="43.0445154662" lon="-5.40923704039">
        <ele>1687.92</ele>
        <time>2013-02-20T12:04:16+01:00</time>
      </trkpt>
      <trkpt lat="43.04451276549" lon="-5.40918918815">
        <ele>1687.85</ele>
        <time>2013-02-20T12:04:17+01:00</time>
      </trkpt>
      <trkpt lat="43.0445096102" lon="-5.40915467316">
        <ele>1687.64</ele>
        <time>2013-02-20T12:04:20+01:00</time>
      </trkpt>
      <trkpt lat="43.04449898791" lon="-5.40911377316">
        <ele>1687.39</ele>
        <time>2013-02-20T12:04:21+01:00</time>
      </trkpt>
      <trkpt lat="43.04448683869" lon="-5.40906690229">
        <ele>1686.99</ele>
        <time>2013-02-20T12:04:23+01:00</time>
      </trkpt>
      <trkpt lat="43.04447143366" lon="-5.4090226594">
        <ele>1686.71</ele>
        <time>2013-02-20T12:04:26+01:00</time>
      </trkpt>
      <trkpt lat="43.04446789452" lon="-5.40900057478">
        <ele>1686.77</ele>
        <time>2013-02-20T12:04:28+01:00</time>
      </trkpt>
      <trkpt lat="43.04446312842" lon="-5.40897318776">
        <ele>1686.55</ele>
        <time>2013-02-20T12:04:30+01:00</time>
      </trkpt>
      <trkpt lat="43.04446097587" lon="-5.40893615065">
        <ele>1686.66</ele>
        <time>2013-02-20T12:04:32+01:00</time>
      </trkpt>
      <trkpt lat="43.04445809748" lon="-5.4088978508">
        <ele>1686.32</ele>
        <time>2013-02-20T12:04:33+01:00</time>
      </trkpt>
      <trkpt lat="43.04444842307" lon="-5.40886013497">
        <ele>1686.3</ele>
        <time>2013-02-20T12:04:35+01:00</time>
      </trkpt>
      <trkpt lat="43.04443170452" lon="-5.40882116048">
        <ele>1686.28</ele>
        <time>2013-02-20T12:04:38+01:00</time>
      </trkpt>
      <trkpt lat="43.04441427183" lon="-5.40877585697">
        <ele>1686.3</ele>
        <time>2013-02-20T12:04:40+01:00</time>
      </trkpt>
      <trkpt lat="43.04439956243" lon="-5.40873359157">
        <ele>1685.88</ele>
        <time>2013-02-20T12:04:40+01:00</time>
      </trkpt>
      <trkpt lat="43.04437750193" lon="-5.40866625163">
        <ele>1685.58</ele>
        <time>2013-02-20T12:04:42+01:00</time>
      </trkpt>
      <trkpt lat="43.04436296449" lon="-5.40862207235">
        <ele>1685.5</ele>
        <time>2013-02-20T12:04:43+01:00</time>
      </trkpt>
      <trkpt lat="43.04435016635" lon="-5.40858607913">
        <ele>1685.33</ele>
        <time>2013-02-20T12:04:44+01:00</time>
      </trkpt>
      <trkpt lat="43.04433935893" lon="-5.40855467355">
        <ele>1685.13</ele>
        <time>2013-02-20T12:04:45+01:00</time>
      </trkpt>
      <trkpt lat="43.04432989852" lon="-5.40852979309">
        <ele>1685.15</ele>
        <time>2013-02-20T12:04:47+01:00</time>
      </trkpt>
      <trkpt lat="43.04432500067" lon="-5.40849840976">
        <ele>1685.81</ele>
        <time>2013-02-20T12:04:49+01:00</time>
      </trkpt>
      <trkpt lat="43.04432175546" lon="-5.40845832676">
        <ele>1685.93</ele>
        <time>2013-02-20T12:04:51+01:00</time>
      </trkpt>
      <trkpt lat="43.04430844011" lon="-5.40841494166">
        <ele>1686.03</ele>
        <time>2013-02-20T12:04:52+01:00</time>
      </trkpt>
      <trkpt lat="43.04428923053" lon="-5.40838268791">
        <ele>1686.11</ele>
        <time>2013-02-20T12:04:54+01:00</time>
      </trkpt>
      <trkpt lat="43.04426839399" lon="-5.4083580534">
        <ele>1686.38</ele>
        <time>2013-02-20T12:04:55+01:00</time>
      </trkpt>
      <trkpt lat="43.04424714211" lon="-5.40833701897">
        <ele>1686.54</ele>
        <time>2013-02-20T12:04:56+01:00</time>
      </trkpt>
      <trkpt lat="43.04421273977" lon="-5.40828740142">
        <ele>1686.9</ele>
        <time>2013-02-20T12:04:57+01:00</time>
      </trkpt>
      <trkpt lat="43.04420498759" lon="-5.40824093281">
        <ele>1687.28</ele>
        <time>2013-02-20T12:04:59+01:00</time>
      </trkpt>
      <trkpt lat="43.04421265725" lon="-5.40819656921">
        <ele>1687.88</ele>
        <time>2013-02-20T12:05:02+01:00</time>
      </trkpt>
      <trkpt lat="43.04421968971" lon="-5.40815048084">
        <ele>1688.43</ele>
        <time>2013-02-20T12:05:04+01:00</time>
      </trkpt>
      <trkpt lat="43.0442200868" lon="-5.40811861016">
        <ele>1689.03</ele>
        <time>2013-02-20T12:05:06+01:00</time>
      </trkpt>
      <trkpt lat="43.04422114209" lon="-5.40805033239">
        <ele>1689.84</ele>
        <time>2013-02-20T12:05:07+01:00</time>
      </trkpt>
      <trkpt lat="43.04422004557" lon="-5.4080118664">
        <ele>1690.39</ele>
        <time>2013-02-20T12:05:08+01:00</time>
      </trkpt>
      <trkpt lat="43.04421875338" lon="-5.40797902749">
        <ele>1691.08</ele>
        <time>2013-02-20T12:05:09+01:00</time>
      </trkpt>
      <trkpt lat="43.04420776611" lon="-5.4079299467">
        <ele>1691.91</ele>
        <time>2013-02-20T12:05:11+01:00</time>
      </trkpt>
      <trkpt lat="43.04419329755" lon="-5.4078760082">
        <ele>1692.63</ele>
        <time>2013-02-20T12:05:14+01:00</time>
      </trkpt>
      <trkpt lat="43.04418607877" lon="-5.40784114767">
        <ele>1693.24</ele>
        <time>2013-02-20T12:05:15+01:00</time>
      </trkpt>
      <trkpt lat="43.04418161412" lon="-5.40782128359">
        <ele>1693.81</ele>
        <time>2013-02-20T12:05:16+01:00</time>
      </trkpt>
      <trkpt lat="43.04417615476" lon="-5.40779580311">
        <ele>1694.44</ele>
        <time>2013-02-20T12:05:16+01:00</time>
      </trkpt>
      <trkpt lat="43.04417206302" lon="-5.40776445505">
        <ele>1695.07</ele>
        <time>2013-02-20T12:05:18+01:00</time>
      </trkpt>
      <trkpt lat="43.04417063125" lon="-5.40775677725">
        <ele>1695.45</ele>
        <time>2013-02-20T12:05:19+01:00</time>
      </trkpt>
      <trkpt lat="43.04415978781" lon="-5.40770458326">
        <ele>1695.99</ele>
        <time>2013-02-20T12:05:20+01:00</time>
      </trkpt>
      <trkpt lat="43.04414484338" lon="-5.40763379315">
        <ele>1696.49</ele>
        <time>2013-02-20T12:05:21+01:00</time>
      </trkpt>
      <trkpt lat="43.04413823956" lon="-5.40761052751">
        <ele>1697.13</ele>
        <time>2013-02-20T12:05:21+01:00</time>
      </trkpt>
      <trkpt lat="43.04412923795" lon="-5.40757831712">
        <ele>1698.07</ele>
        <time>2013-02-20T12:05:24+01:00</time>
      </trkpt>
      <trkpt lat="43.04412266262" lon="-5.40754519666">
        <ele>1698.94</ele>
        <time>2013-02-20T12:05:26+01:00</time>
      </trkpt>
      <trkpt lat="43.04412247626" lon="-5.40750214962">
        <ele>1699.51</ele>
        <time>2013-02-20T12:05:28+01:00</time>
      </trkpt>
      <trkpt lat="43.0441126377" lon="-5.40742861879">
        <ele>1700.19</ele>
        <time>2013-02-20T12:05:31+01:00</time>
      </trkpt>
      <trkpt lat="43.04410585487" lon="-5.40740501056">
        <ele>1700.8</ele>
        <time>2013-02-20T12:05:32+01:00</time>
      </trkpt>
      <trkpt lat="43.04409330622" lon="-5.40737095249">
        <ele>1701.91</ele>
        <time>2013-02-20T12:05:33+01:00</time>
      </trkpt>
      <trkpt lat="43.04408187703" lon="-5.40733137614">
        <ele>1702.68</ele>
        <time>2013-02-20T12:05:36+01:00</time>
      </trkpt>
      <trkpt lat="43.04407035796" lon="-5.40728648417">
        <ele>1703.71</ele>
        <time>2013-02-20T12:05:38+01:00</time>
      </trkpt>
      <trkpt lat="43.04406882049" lon="-5.40727686524">
        <ele>1703.4</ele>
        <time>2013-02-20T12:05:39+01:00</time>
      </trkpt>
      <trkpt lat="43.04406700929" lon="-5.40726384962">
        <ele>1703.95</ele>
        <time>2013-02-20T12:05:43+01:00</time>
      </trkpt>
      <trkpt lat="43.04406604337" lon="-5.40725578396">
        <ele>1704.5</ele>
        <time>2013-02-20T12:05:44+01:00</time>
      </trkpt>
      <trkpt lat="43.0440631101" lon="-5.40723492715">
        <ele>1705.02</ele>
        <time>2013-02-20T12:05:46+01:00</time>
      </trkpt>
      <trkpt lat="43.04405982894" lon="-5.40721302957">
        <ele>1705.39</ele>
        <time>2013-02-20T12:05:47+01:00</time>
      </trkpt>
      <trkpt lat="43.04403779243" lon="-5.40708754265">
        <ele>1705.96</ele>
        <time>2013-02-20T12:05:49+01:00</time>
      </trkpt>
      <trkpt lat="43.04401853895" lon="-5.40699915056">
        <ele>1708.23</ele>
        <time>2013-02-20T12:05:51+01:00</time>
      </trkpt>
      <trkpt lat="43.04400132659" lon="-5.4069302279">
        <ele>1707.66</ele>
        <time>2013-02-20T12:05:53+01:00</time>
      </trkpt>
      <trkpt lat="43.0439847576" lon="-5.40686869302">
        <ele>1708.11</ele>
        <time>2013-02-20T12:05:55+01:00</time>
      </trkpt>
      <trkpt lat="43.04396953709" lon="-5.40681194169">
        <ele>1708.78</ele>
        <time>2013-02-20T12:05:57+01:00</time>
      </trkpt>
      <trkpt lat="43.04395620618" lon="-5.40675896513">
        <ele>1709.53</ele>
        <time>2013-02-20T12:05:59+01:00</time>
      </trkpt>
      <trkpt lat="43.04394411344" lon="-5.40670775024">
        <ele>1709.98</ele>
        <time>2013-02-20T12:06:01+01:00</time>
      </trkpt>
      <trkpt lat="43.04393219974" lon="-5.40665737427">
        <ele>1710.61</ele>
        <time>2013-02-20T12:06:03+01:00</time>
      </trkpt>
      <trkpt lat="43.04391932782" lon="-5.40660402309">
        <ele>1711.17</ele>
        <time>2013-02-20T12:06:05+01:00</time>
      </trkpt>
      <trkpt lat="43.04390662639" lon="-5.4065491424">
        <ele>1711.74</ele>
        <time>2013-02-20T12:06:07+01:00</time>
      </trkpt>
      <trkpt lat="43.04389325583" lon="-5.40649383222">
        <ele>1712.31</ele>
        <time>2013-02-20T12:06:09+01:00</time>
      </trkpt>
      <trkpt lat="43.04388028412" lon="-5.40643801394">
        <ele>1712.88</ele>
        <time>2013-02-20T12:06:11+01:00</time>
      </trkpt>
      <trkpt lat="43.04386807762" lon="-5.40638189969">
        <ele>1713.43</ele>
        <time>2013-02-20T12:06:13+01:00</time>
      </trkpt>
      <trkpt lat="43.04385497548" lon="-5.40632530219">
        <ele>1713.98</ele>
        <time>2013-02-20T12:06:15+01:00</time>
      </trkpt>
      <trkpt lat="43.04384492496" lon="-5.40628233511">
        <ele>1714.52</ele>
        <time>2013-02-20T12:06:16+01:00</time>
      </trkpt>
      <trkpt lat="43.04383235599" lon="-5.40623201782">
        <ele>1715.07</ele>
        <time>2013-02-20T12:06:18+01:00</time>
      </trkpt>
      <trkpt lat="43.04381940789" lon="-5.40617949226">
        <ele>1715.64</ele>
        <time>2013-02-20T12:06:20+01:00</time>
      </trkpt>
      <trkpt lat="43.04380620737" lon="-5.40612640739">
        <ele>1716.21</ele>
        <time>2013-02-20T12:06:22+01:00</time>
      </trkpt>
      <trkpt lat="43.04379388645" lon="-5.40607383915">
        <ele>1716.81</ele>
        <time>2013-02-20T12:06:24+01:00</time>
      </trkpt>
      <trkpt lat="43.04378219394" lon="-5.40602236741">
        <ele>1717.41</ele>
        <time>2013-02-20T12:06:26+01:00</time>
      </trkpt>
      <trkpt lat="43.04376425686" lon="-5.40593954872">
        <ele>1718.03</ele>
        <time>2013-02-20T12:06:28+01:00</time>
      </trkpt>
      <trkpt lat="43.04375669222" lon="-5.40590438595">
        <ele>1718.69</ele>
        <time>2013-02-20T12:06:30+01:00</time>
      </trkpt>
      <trkpt lat="43.04374750357" lon="-5.40586191031">
        <ele>1719.26</ele>
        <time>2013-02-20T12:06:32+01:00</time>
      </trkpt>
      <trkpt lat="43.04374534838" lon="-5.40585215584">
        <ele>1719.87</ele>
        <time>2013-02-20T12:06:34+01:00</time>
      </trkpt>
      <trkpt lat="43.04374301438" lon="-5.40584307665">
        <ele>1719.86</ele>
        <time>2013-02-20T12:06:38+01:00</time>
      </trkpt>
      <trkpt lat="43.0437400972" lon="-5.40583198295">
        <ele>1720.25</ele>
        <time>2013-02-20T12:06:40+01:00</time>
      </trkpt>
      <trkpt lat="43.04373321345" lon="-5.40580569976">
        <ele>1721.43</ele>
        <time>2013-02-20T12:06:42+01:00</time>
      </trkpt>
      <trkpt lat="43.0437264062" lon="-5.40577911961">
        <ele>1722.05</ele>
        <time>2013-02-20T12:06:43+01:00</time>
      </trkpt>
      <trkpt lat="43.04371916068" lon="-5.40574946425">
        <ele>1722.6</ele>
        <time>2013-02-20T12:06:45+01:00</time>
      </trkpt>
      <trkpt lat="43.04368307739" lon="-5.40558680418">
        <ele>1723.26</ele>
        <time>2013-02-20T12:06:47+01:00</time>
      </trkpt>
      <trkpt lat="43.04366038378" lon="-5.40547664041">
        <ele>1723.99</ele>
        <time>2013-02-20T12:06:49+01:00</time>
      </trkpt>
      <trkpt lat="43.04364620808" lon="-5.40540638727">
        <ele>1724.61</ele>
        <time>2013-02-20T12:06:50+01:00</time>
      </trkpt>
      <trkpt lat="43.04363603989" lon="-5.40535659238">
        <ele>1725.21</ele>
        <time>2013-02-20T12:06:51+01:00</time>
      </trkpt>
      <trkpt lat="43.04362762398" lon="-5.40531706851">
        <ele>1725.83</ele>
        <time>2013-02-20T12:06:52+01:00</time>
      </trkpt>
      <trkpt lat="43.04361756965" lon="-5.40526868237">
        <ele>1726.47</ele>
        <time>2013-02-20T12:06:54+01:00</time>
      </trkpt>
      <trkpt lat="43.04360939927" lon="-5.40522952761">
        <ele>1727.06</ele>
        <time>2013-02-20T12:06:55+01:00</time>
      </trkpt>
      <trkpt lat="43.0435996563" lon="-5.40518182894">
        <ele>1727.66</ele>
        <time>2013-02-20T12:06:57+01:00</time>
      </trkpt>
      <trkpt lat="43.04359159969" lon="-5.40514276645">
        <ele>1728.24</ele>
        <time>2013-02-20T12:06:58+01:00</time>
      </trkpt>
      <trkpt lat="43.0435819136" lon="-5.40509452719">
        <ele>1728.82</ele>
        <time>2013-02-20T12:07:00+01:00</time>
      </trkpt>
      <trkpt lat="43.04357059554" lon="-5.40504266346">
        <ele>1729.42</ele>
        <time>2013-02-20T12:07:02+01:00</time>
      </trkpt>
      <trkpt lat="43.0435596559" lon="-5.40499007714">
        <ele>1730.02</ele>
        <time>2013-02-20T12:07:04+01:00</time>
      </trkpt>
      <trkpt lat="43.04354657951" lon="-5.40493591416">
        <ele>1730.57</ele>
        <time>2013-02-20T12:07:06+01:00</time>
      </trkpt>
      <trkpt lat="43.0435333777" lon="-5.4048816753">
        <ele>1731.15</ele>
        <time>2013-02-20T12:07:08+01:00</time>
      </trkpt>
      <trkpt lat="43.04352246012" lon="-5.40484013899">
        <ele>1731.7</ele>
        <time>2013-02-20T12:07:09+01:00</time>
      </trkpt>
      <trkpt lat="43.04350947857" lon="-5.40479112383">
        <ele>1732.25</ele>
        <time>2013-02-20T12:07:11+01:00</time>
      </trkpt>
      <trkpt lat="43.04349569554" lon="-5.40473916551">
        <ele>1732.79</ele>
        <time>2013-02-20T12:07:13+01:00</time>
      </trkpt>
      <trkpt lat="43.04348178418" lon="-5.40468456216">
        <ele>1733.36</ele>
        <time>2013-02-20T12:07:15+01:00</time>
      </trkpt>
      <trkpt lat="43.04346894021" lon="-5.40463056412">
        <ele>1733.93</ele>
        <time>2013-02-20T12:07:17+01:00</time>
      </trkpt>
      <trkpt lat="43.04345612702" lon="-5.40457674301">
        <ele>1734.51</ele>
        <time>2013-02-20T12:07:19+01:00</time>
      </trkpt>
      <trkpt lat="43.04344433506" lon="-5.40452359709">
        <ele>1735.1</ele>
        <time>2013-02-20T12:07:21+01:00</time>
      </trkpt>
      <trkpt lat="43.04343240411" lon="-5.40446915431">
        <ele>1735.7</ele>
        <time>2013-02-20T12:07:23+01:00</time>
      </trkpt>
      <trkpt lat="43.04342224768" lon="-5.40441565565">
        <ele>1736.31</ele>
        <time>2013-02-20T12:07:25+01:00</time>
      </trkpt>
      <trkpt lat="43.04341348143" lon="-5.4043637187">
        <ele>1736.96</ele>
        <time>2013-02-20T12:07:27+01:00</time>
      </trkpt>
      <trkpt lat="43.04340513785" lon="-5.40431344271">
        <ele>1737.59</ele>
        <time>2013-02-20T12:07:29+01:00</time>
      </trkpt>
      <trkpt lat="43.04339625124" lon="-5.40426156644">
        <ele>1738.26</ele>
        <time>2013-02-20T12:07:31+01:00</time>
      </trkpt>
      <trkpt lat="43.04338577297" lon="-5.40420826139">
        <ele>1738.91</ele>
        <time>2013-02-20T12:07:33+01:00</time>
      </trkpt>
      <trkpt lat="43.04337502273" lon="-5.40415503824">
        <ele>1739.62</ele>
        <time>2013-02-20T12:07:35+01:00</time>
      </trkpt>
      <trkpt lat="43.0433647442" lon="-5.40410420296">
        <ele>1740.37</ele>
        <time>2013-02-20T12:07:37+01:00</time>
      </trkpt>
      <trkpt lat="43.04335476438" lon="-5.40405502262">
        <ele>1743.51</ele>
        <time>2013-02-20T12:07:39+01:00</time>
      </trkpt>
      <trkpt lat="43.04333856627" lon="-5.40397618283">
        <ele>1745.03</ele>
        <time>2013-02-20T12:07:41+01:00</time>
      </trkpt>
      <trkpt lat="43.04333220387" lon="-5.40394222988">
        <ele>1744.26</ele>
        <time>2013-02-20T12:07:44+01:00</time>
      </trkpt>
      <trkpt lat="43.04332296674" lon="-5.40390341855">
        <ele>1745.23</ele>
        <time>2013-02-20T12:07:45+01:00</time>
      </trkpt>
      <trkpt lat="43.0433131514" lon="-5.40386494406">
        <ele>1746.51</ele>
        <time>2013-02-20T12:07:48+01:00</time>
      </trkpt>
      <trkpt lat="43.04330451378" lon="-5.40382714089">
        <ele>1747.4</ele>
        <time>2013-02-20T12:07:50+01:00</time>
      </trkpt>
      <trkpt lat="43.04329753372" lon="-5.40378854184">
        <ele>1748.17</ele>
        <time>2013-02-20T12:07:51+01:00</time>
      </trkpt>
      <trkpt lat="43.04328920314" lon="-5.40374719791">
        <ele>1749.09</ele>
        <time>2013-02-20T12:07:54+01:00</time>
      </trkpt>
      <trkpt lat="43.04328197845" lon="-5.4037038948">
        <ele>1749.93</ele>
        <time>2013-02-20T12:07:55+01:00</time>
      </trkpt>
      <trkpt lat="43.04327381893" lon="-5.40365973784">
        <ele>1750.78</ele>
        <time>2013-02-20T12:07:57+01:00</time>
      </trkpt>
      <trkpt lat="43.04327184627" lon="-5.40365236333">
        <ele>1751.64</ele>
        <time>2013-02-20T12:08:00+01:00</time>
      </trkpt>
      <trkpt lat="43.04326901476" lon="-5.40364229808">
        <ele>1752.54</ele>
        <time>2013-02-20T12:08:01+01:00</time>
      </trkpt>
      <trkpt lat="43.04326381772" lon="-5.40363204073">
        <ele>1753.55</ele>
        <time>2013-02-20T12:08:06+01:00</time>
      </trkpt>
      <trkpt lat="43.0432345218" lon="-5.40357175919">
        <ele>1754.52</ele>
        <time>2013-02-20T12:08:08+01:00</time>
      </trkpt>
      <trkpt lat="43.043217485" lon="-5.40351756235">
        <ele>1755.58</ele>
        <time>2013-02-20T12:08:11+01:00</time>
      </trkpt>
      <trkpt lat="43.04320636821" lon="-5.40347365822">
        <ele>1756.58</ele>
        <time>2013-02-20T12:08:13+01:00</time>
      </trkpt>
      <trkpt lat="43.04319884006" lon="-5.40343443943">
        <ele>1757.63</ele>
        <time>2013-02-20T12:08:15+01:00</time>
      </trkpt>
      <trkpt lat="43.04319373489" lon="-5.40339886251">
        <ele>1758.68</ele>
        <time>2013-02-20T12:08:17+01:00</time>
      </trkpt>
      <trkpt lat="43.04318839532" lon="-5.40335794">
        <ele>1759.73</ele>
        <time>2013-02-20T12:08:19+01:00</time>
      </trkpt>
      <trkpt lat="43.04318033504" lon="-5.40328677934">
        <ele>1764.23</ele>
        <time>2013-02-20T12:08:21+01:00</time>
      </trkpt>
      <trkpt lat="43.04317610783" lon="-5.40322674849">
        <ele>1766.29</ele>
        <time>2013-02-20T12:08:23+01:00</time>
      </trkpt>
      <trkpt lat="43.04316889214" lon="-5.40316874244">
        <ele>1768.22</ele>
        <time>2013-02-20T12:08:26+01:00</time>
      </trkpt>
      <trkpt lat="43.04316375732" lon="-5.40313496296">
        <ele>1770.47</ele>
        <time>2013-02-20T12:08:28+01:00</time>
      </trkpt>
      <trkpt lat="43.04315846579" lon="-5.40309397525">
        <ele>1773.22</ele>
        <time>2013-02-20T12:08:30+01:00</time>
      </trkpt>
      <trkpt lat="43.04315218738" lon="-5.40302531053">
        <ele>1775.64</ele>
        <time>2013-02-20T12:08:31+01:00</time>
      </trkpt>
      <trkpt lat="43.04315358038" lon="-5.40297221617">
        <ele>1777.87</ele>
        <time>2013-02-20T12:08:33+01:00</time>
      </trkpt>
      <trkpt lat="43.04315986043" lon="-5.4029160668">
        <ele>1780.17</ele>
        <time>2013-02-20T12:08:36+01:00</time>
      </trkpt>
      <trkpt lat="43.04315508146" lon="-5.40288042883">
        <ele>1782.05</ele>
        <time>2013-02-20T12:08:37+01:00</time>
      </trkpt>
      <trkpt lat="43.04313223214" lon="-5.40283608558">
        <ele>1784.01</ele>
        <time>2013-02-20T12:08:38+01:00</time>
      </trkpt>
      <trkpt lat="43.04309366528" lon="-5.40279321993">
        <ele>1785.74</ele>
        <time>2013-02-20T12:08:41+01:00</time>
      </trkpt>
      <trkpt lat="43.04307830418" lon="-5.40277411541">
        <ele>1787.43</ele>
        <time>2013-02-20T12:08:42+01:00</time>
      </trkpt>
      <trkpt lat="43.04306335232" lon="-5.4027476317">
        <ele>1789.03</ele>
        <time>2013-02-20T12:08:43+01:00</time>
      </trkpt>
      <trkpt lat="43.04304979952" lon="-5.4027179194">
        <ele>1790.55</ele>
        <time>2013-02-20T12:08:43+01:00</time>
      </trkpt>
      <trkpt lat="43.0430387693" lon="-5.40268852065">
        <ele>1792.06</ele>
        <time>2013-02-20T12:08:45+01:00</time>
      </trkpt>
      <trkpt lat="43.04302742877" lon="-5.4026505615">
        <ele>1793.55</ele>
        <time>2013-02-20T12:08:46+01:00</time>
      </trkpt>
      <trkpt lat="43.04302554453" lon="-5.40264194599">
        <ele>1793.06</ele>
        <time>2013-02-20T12:08:48+01:00</time>
      </trkpt>
      <trkpt lat="43.04302291414" lon="-5.40262895334">
        <ele>1793.87</ele>
        <time>2013-02-20T12:08:50+01:00</time>
      </trkpt>
      <trkpt lat="43.04302030371" lon="-5.40261392396">
        <ele>1794.69</ele>
        <time>2013-02-20T12:08:51+01:00</time>
      </trkpt>
      <trkpt lat="43.0430190934" lon="-5.40260536701">
        <ele>1795.39</ele>
        <time>2013-02-20T12:08:52+01:00</time>
      </trkpt>
      <trkpt lat="43.04300570947" lon="-5.40249888838">
        <ele>1798.26</ele>
        <time>2013-02-20T12:08:54+01:00</time>
      </trkpt>
      <trkpt lat="43.04299417696" lon="-5.40242050335">
        <ele>1799.79</ele>
        <time>2013-02-20T12:08:56+01:00</time>
      </trkpt>
      <trkpt lat="43.04298340251" lon="-5.40235721287">
        <ele>1801.47</ele>
        <time>2013-02-20T12:08:58+01:00</time>
      </trkpt>
      <trkpt lat="43.04297353097" lon="-5.40230100865">
        <ele>1803.24</ele>
        <time>2013-02-20T12:09:00+01:00</time>
      </trkpt>
      <trkpt lat="43.04296614349" lon="-5.40224784465">
        <ele>1805.14</ele>
        <time>2013-02-20T12:09:02+01:00</time>
      </trkpt>
      <trkpt lat="43.04296136011" lon="-5.40220181664">
        <ele>1804.6</ele>
        <time>2013-02-20T12:09:04+01:00</time>
      </trkpt>
      <trkpt lat="43.04296211163" lon="-5.40216174546">
        <ele>1805.67</ele>
        <time>2013-02-20T12:09:06+01:00</time>
      </trkpt>
      <trkpt lat="43.04296197723" lon="-5.40215381561">
        <ele>1806.74</ele>
        <time>2013-02-20T12:09:08+01:00</time>
      </trkpt>
      <trkpt lat="43.04295502316" lon="-5.40210061311">
        <ele>1807.69</ele>
        <time>2013-02-20T12:09:11+01:00</time>
      </trkpt>
      <trkpt lat="43.04295074449" lon="-5.40209127793">
        <ele>1808.34</ele>
        <time>2013-02-20T12:09:12+01:00</time>
      </trkpt>
      <trkpt lat="43.0429316162" lon="-5.40201603537">
        <ele>1811.65</ele>
        <time>2013-02-20T12:09:14+01:00</time>
      </trkpt>
      <trkpt lat="43.04293257135" lon="-5.4019454313">
        <ele>1812.92</ele>
        <time>2013-02-20T12:09:14+01:00</time>
      </trkpt>
      <trkpt lat="43.04291944928" lon="-5.4019014959">
        <ele>1812.18</ele>
        <time>2013-02-20T12:09:15+01:00</time>
      </trkpt>
      <trkpt lat="43.04291024795" lon="-5.40184952099">
        <ele>1812.98</ele>
        <time>2013-02-20T12:09:18+01:00</time>
      </trkpt>
      <trkpt lat="43.04290920959" lon="-5.40179604089">
        <ele>1814.2</ele>
        <time>2013-02-20T12:09:19+01:00</time>
      </trkpt>
      <trkpt lat="43.04290162866" lon="-5.40175614125">
        <ele>1814.93</ele>
        <time>2013-02-20T12:09:21+01:00</time>
      </trkpt>
      <trkpt lat="43.0428908393" lon="-5.40171808653">
        <ele>1815.44</ele>
        <time>2013-02-20T12:09:21+01:00</time>
      </trkpt>
      <trkpt lat="43.04288249" lon="-5.40167403918">
        <ele>1818.79</ele>
        <time>2013-02-20T12:09:23+01:00</time>
      </trkpt>
      <trkpt lat="43.04287173556" lon="-5.40162783372">
        <ele>1820.34</ele>
        <time>2013-02-20T12:09:25+01:00</time>
      </trkpt>
      <trkpt lat="43.04286009287" lon="-5.40158092638">
        <ele>1821.82</ele>
        <time>2013-02-20T12:09:27+01:00</time>
      </trkpt>
      <trkpt lat="43.04284145803" lon="-5.40150336854">
        <ele>1823.51</ele>
        <time>2013-02-20T12:09:30+01:00</time>
      </trkpt>
      <trkpt lat="43.04282780689" lon="-5.40144366758">
        <ele>1825.41</ele>
        <time>2013-02-20T12:09:31+01:00</time>
      </trkpt>
      <trkpt lat="43.0428229992" lon="-5.4014108497">
        <ele>1824.81</ele>
        <time>2013-02-20T12:09:33+01:00</time>
      </trkpt>
      <trkpt lat="43.04281789219" lon="-5.40137113907">
        <ele>1825.65</ele>
        <time>2013-02-20T12:09:36+01:00</time>
      </trkpt>
      <trkpt lat="43.0428094923" lon="-5.4013289879">
        <ele>1828.92</ele>
        <time>2013-02-20T12:09:38+01:00</time>
      </trkpt>
      <trkpt lat="43.04279615609" lon="-5.40128733473">
        <ele>1830.45</ele>
        <time>2013-02-20T12:09:40+01:00</time>
      </trkpt>
      <trkpt lat="43.04277844482" lon="-5.40124769078">
        <ele>1831.75</ele>
        <time>2013-02-20T12:09:42+01:00</time>
      </trkpt>
      <trkpt lat="43.04276225502" lon="-5.40120720741">
        <ele>1833.56</ele>
        <time>2013-02-20T12:09:43+01:00</time>
      </trkpt>
      <trkpt lat="43.04275504022" lon="-5.40116307731">
        <ele>1835.59</ele>
        <time>2013-02-20T12:09:45+01:00</time>
      </trkpt>
      <trkpt lat="43.04275447126" lon="-5.40111540554">
        <ele>1837.49</ele>
        <time>2013-02-20T12:09:48+01:00</time>
      </trkpt>
      <trkpt lat="43.04275545778" lon="-5.40104642272">
        <ele>1839.29</ele>
        <time>2013-02-20T12:09:50+01:00</time>
      </trkpt>
      <trkpt lat="43.04275635917" lon="-5.40100687695">
        <ele>1841.17</ele>
        <time>2013-02-20T12:09:53+01:00</time>
      </trkpt>
      <trkpt lat="43.04273779751" lon="-5.40097321859">
        <ele>1842.88</ele>
        <time>2013-02-20T12:09:55+01:00</time>
      </trkpt>
      <trkpt lat="43.04271698609" lon="-5.40094382225">
        <ele>1844.64</ele>
        <time>2013-02-20T12:09:59+01:00</time>
      </trkpt>
      <trkpt lat="43.04271694115" lon="-5.40092258762">
        <ele>1846.82</ele>
        <time>2013-02-20T12:10:02+01:00</time>
      </trkpt>
      <trkpt lat="43.04273071857" lon="-5.40087857666">
        <ele>1848.89</ele>
        <time>2013-02-20T12:10:04+01:00</time>
      </trkpt>
      <trkpt lat="43.04273943963" lon="-5.4008506537">
        <ele>1850.68</ele>
        <time>2013-02-20T12:10:06+01:00</time>
      </trkpt>
      <trkpt lat="43.04274319248" lon="-5.40080743938">
        <ele>1852.5</ele>
        <time>2013-02-20T12:10:07+01:00</time>
      </trkpt>
      <trkpt lat="43.04274238669" lon="-5.4007694456">
        <ele>1854.3</ele>
        <time>2013-02-20T12:10:09+01:00</time>
      </trkpt>
      <trkpt lat="43.04273473479" lon="-5.40069519645">
        <ele>1856.14</ele>
        <time>2013-02-20T12:10:11+01:00</time>
      </trkpt>
      <trkpt lat="43.04272485604" lon="-5.40065459742">
        <ele>1858.79</ele>
        <time>2013-02-20T12:10:14+01:00</time>
      </trkpt>
      <trkpt lat="43.04273298797" lon="-5.40063024416">
        <ele>1860.69</ele>
        <time>2013-02-20T12:10:18+01:00</time>
      </trkpt>
      <trkpt lat="43.0427344979" lon="-5.4005747529">
        <ele>1862.84</ele>
        <time>2013-02-20T12:10:21+01:00</time>
      </trkpt>
      <trkpt lat="43.04273577219" lon="-5.40052496378">
        <ele>1864.85</ele>
        <time>2013-02-20T12:10:23+01:00</time>
      </trkpt>
      <trkpt lat="43.04272791336" lon="-5.4004860381">
        <ele>1866.89</ele>
        <time>2013-02-20T12:10:25+01:00</time>
      </trkpt>
      <trkpt lat="43.04271205884" lon="-5.40044439008">
        <ele>1868.58</ele>
        <time>2013-02-20T12:10:26+01:00</time>
      </trkpt>
      <trkpt lat="43.04269021305" lon="-5.40039126758">
        <ele>1870.34</ele>
        <time>2013-02-20T12:10:28+01:00</time>
      </trkpt>
      <trkpt lat="43.04265667487" lon="-5.40030614473">
        <ele>1872.15</ele>
        <time>2013-02-20T12:10:31+01:00</time>
      </trkpt>
      <trkpt lat="43.04264094831" lon="-5.40026558377">
        <ele>1873.75</ele>
        <time>2013-02-20T12:10:32+01:00</time>
      </trkpt>
      <trkpt lat="43.04262952167" lon="-5.40023420342">
        <ele>1875.29</ele>
        <time>2013-02-20T12:10:33+01:00</time>
      </trkpt>
      <trkpt lat="43.0426192903" lon="-5.40020439096">
        <ele>1876.87</ele>
        <time>2013-02-20T12:10:35+01:00</time>
      </trkpt>
      <trkpt lat="43.04261734461" lon="-5.40015578135">
        <ele>1878.71</ele>
        <time>2013-02-20T12:10:36+01:00</time>
      </trkpt>
      <trkpt lat="43.04261507793" lon="-5.40010347936">
        <ele>1880.27</ele>
        <time>2013-02-20T12:10:38+01:00</time>
      </trkpt>
      <trkpt lat="43.04261110419" lon="-5.4000454768">
        <ele>1881.75</ele>
        <time>2013-02-20T12:10:41+01:00</time>
      </trkpt>
      <trkpt lat="43.0426058838" lon="-5.40000759065">
        <ele>1883.26</ele>
        <time>2013-02-20T12:10:42+01:00</time>
      </trkpt>
      <trkpt lat="43.04259732953" lon="-5.39995448292">
        <ele>1884.79</ele>
        <time>2013-02-20T12:10:43+01:00</time>
      </trkpt>
      <trkpt lat="43.04257771494" lon="-5.39990664572">
        <ele>1886.3</ele>
        <time>2013-02-20T12:10:46+01:00</time>
      </trkpt>
      <trkpt lat="43.04256449237" lon="-5.39987933413">
        <ele>1887.78</ele>
        <time>2013-02-20T12:10:48+01:00</time>
      </trkpt>
      <trkpt lat="43.04254723606" lon="-5.39984300528">
        <ele>1889.14</ele>
        <time>2013-02-20T12:10:50+01:00</time>
      </trkpt>
      <trkpt lat="43.04252718757" lon="-5.39980686168">
        <ele>1890.53</ele>
        <time>2013-02-20T12:10:52+01:00</time>
      </trkpt>
      <trkpt lat="43.04251186177" lon="-5.39977340908">
        <ele>1891.5</ele>
        <time>2013-02-20T12:10:53+01:00</time>
      </trkpt>
      <trkpt lat="43.04250055274" lon="-5.39973828451">
        <ele>1892.51</ele>
        <time>2013-02-20T12:10:54+01:00</time>
      </trkpt>
      <trkpt lat="43.04248134665" lon="-5.39966545901">
        <ele>1893.94</ele>
        <time>2013-02-20T12:10:55+01:00</time>
      </trkpt>
      <trkpt lat="43.04246895589" lon="-5.39960858207">
        <ele>1895.2</ele>
        <time>2013-02-20T12:10:58+01:00</time>
      </trkpt>
      <trkpt lat="43.04245896755" lon="-5.39955978986">
        <ele>1896.44</ele>
        <time>2013-02-20T12:11:00+01:00</time>
      </trkpt>
      <trkpt lat="43.04244540286" lon="-5.39953051835">
        <ele>1897.54</ele>
        <time>2013-02-20T12:11:01+01:00</time>
      </trkpt>
      <trkpt lat="43.04242146694" lon="-5.39948436386">
        <ele>1898.57</ele>
        <time>2013-02-20T12:11:02+01:00</time>
      </trkpt>
      <trkpt lat="43.0424043416" lon="-5.39945622339">
        <ele>1899.78</ele>
        <time>2013-02-20T12:11:04+01:00</time>
      </trkpt>
      <trkpt lat="43.04238737137" lon="-5.39942980817">
        <ele>1900.81</ele>
        <time>2013-02-20T12:11:05+01:00</time>
      </trkpt>
      <trkpt lat="43.04237438843" lon="-5.39940333568">
        <ele>1901.62</ele>
        <time>2013-02-20T12:11:06+01:00</time>
      </trkpt>
      <trkpt lat="43.04236146534" lon="-5.39937665056">
        <ele>1902.57</ele>
        <time>2013-02-20T12:11:07+01:00</time>
      </trkpt>
      <trkpt lat="43.04235663437" lon="-5.39932886758">
        <ele>1904.07</ele>
        <time>2013-02-20T12:11:09+01:00</time>
      </trkpt>
      <trkpt lat="43.0423627425" lon="-5.39928249767">
        <ele>1905.31</ele>
        <time>2013-02-20T12:11:11+01:00</time>
      </trkpt>
      <trkpt lat="43.04236376296" lon="-5.39923178355">
        <ele>1906.44</ele>
        <time>2013-02-20T12:11:12+01:00</time>
      </trkpt>
      <trkpt lat="43.04235310411" lon="-5.39919783613">
        <ele>1907.28</ele>
        <time>2013-02-20T12:11:14+01:00</time>
      </trkpt>
      <trkpt lat="43.04234081347" lon="-5.39916630326">
        <ele>1908.12</ele>
        <time>2013-02-20T12:11:14+01:00</time>
      </trkpt>
      <trkpt lat="43.04232776062" lon="-5.39913726497">
        <ele>1909.14</ele>
        <time>2013-02-20T12:11:16+01:00</time>
      </trkpt>
      <trkpt lat="43.04231522587" lon="-5.39911093841">
        <ele>1910.08</ele>
        <time>2013-02-20T12:11:17+01:00</time>
      </trkpt>
      <trkpt lat="43.04229810089" lon="-5.39906617757">
        <ele>1911.1</ele>
        <time>2013-02-20T12:11:19+01:00</time>
      </trkpt>
      <trkpt lat="43.04227761033" lon="-5.39901585233">
        <ele>1911.95</ele>
        <time>2013-02-20T12:11:21+01:00</time>
      </trkpt>
      <trkpt lat="43.04226160992" lon="-5.39897272905">
        <ele>1912.23</ele>
        <time>2013-02-20T12:11:22+01:00</time>
      </trkpt>
      <trkpt lat="43.04224530054" lon="-5.39892809574">
        <ele>1912.71</ele>
        <time>2013-02-20T12:11:23+01:00</time>
      </trkpt>
      <trkpt lat="43.04223271799" lon="-5.39888765313">
        <ele>1914.62</ele>
        <time>2013-02-20T12:11:24+01:00</time>
      </trkpt>
      <trkpt lat="43.04222312715" lon="-5.39885026147">
        <ele>1915.85</ele>
        <time>2013-02-20T12:11:24+01:00</time>
      </trkpt>
      <trkpt lat="43.04221611279" lon="-5.39881743626">
        <ele>1915.82</ele>
        <time>2013-02-20T12:11:25+01:00</time>
      </trkpt>
      <trkpt lat="43.04221346939" lon="-5.39877714244">
        <ele>1918.2</ele>
        <time>2013-02-20T12:11:28+01:00</time>
      </trkpt>
      <trkpt lat="43.0422124378" lon="-5.39873113042">
        <ele>1919.49</ele>
        <time>2013-02-20T12:11:30+01:00</time>
      </trkpt>
      <trkpt lat="43.04221424314" lon="-5.39868732752">
        <ele>1921.03</ele>
        <time>2013-02-20T12:11:31+01:00</time>
      </trkpt>
      <trkpt lat="43.04220934037" lon="-5.39864141835">
        <ele>1922.21</ele>
        <time>2013-02-20T12:11:33+01:00</time>
      </trkpt>
      <trkpt lat="43.04219927383" lon="-5.39859193632">
        <ele>1923.79</ele>
        <time>2013-02-20T12:11:35+01:00</time>
      </trkpt>
      <trkpt lat="43.04218418476" lon="-5.39854053273">
        <ele>1925.7</ele>
        <time>2013-02-20T12:11:37+01:00</time>
      </trkpt>
      <trkpt lat="43.04216717331" lon="-5.39848113978">
        <ele>1927.31</ele>
        <time>2013-02-20T12:11:39+01:00</time>
      </trkpt>
      <trkpt lat="43.04215087551" lon="-5.3984327439">
        <ele>1928.92</ele>
        <time>2013-02-20T12:11:41+01:00</time>
      </trkpt>
      <trkpt lat="43.04213340351" lon="-5.39837742236">
        <ele>1930.57</ele>
        <time>2013-02-20T12:11:43+01:00</time>
      </trkpt>
      <trkpt lat="43.04211841709" lon="-5.39832308238">
        <ele>1932.22</ele>
        <time>2013-02-20T12:11:45+01:00</time>
      </trkpt>
      <trkpt lat="43.04210639497" lon="-5.39826846338">
        <ele>1933.52</ele>
        <time>2013-02-20T12:11:47+01:00</time>
      </trkpt>
      <trkpt lat="43.04209531049" lon="-5.39821177966">
        <ele>1935.05</ele>
        <time>2013-02-20T12:11:49+01:00</time>
      </trkpt>
      <trkpt lat="43.04208488556" lon="-5.39815843503">
        <ele>1936.45</ele>
        <time>2013-02-20T12:11:51+01:00</time>
      </trkpt>
      <trkpt lat="43.04207290468" lon="-5.39810708392">
        <ele>1937.81</ele>
        <time>2013-02-20T12:11:53+01:00</time>
      </trkpt>
      <trkpt lat="43.04206035331" lon="-5.39805321642">
        <ele>1938.99</ele>
        <time>2013-02-20T12:11:55+01:00</time>
      </trkpt>
      <trkpt lat="43.04205068693" lon="-5.39800120953">
        <ele>1939.98</ele>
        <time>2013-02-20T12:11:57+01:00</time>
      </trkpt>
      <trkpt lat="43.04203848016" lon="-5.397949615">
        <ele>1941.04</ele>
        <time>2013-02-20T12:11:59+01:00</time>
      </trkpt>
      <trkpt lat="43.04202805616" lon="-5.39789572316">
        <ele>1941.9</ele>
        <time>2013-02-20T12:12:01+01:00</time>
      </trkpt>
      <trkpt lat="43.04202131825" lon="-5.39785578378">
        <ele>1942.66</ele>
        <time>2013-02-20T12:12:02+01:00</time>
      </trkpt>
      <trkpt lat="43.04201253497" lon="-5.3978206343">
        <ele>1943.34</ele>
        <time>2013-02-20T12:12:03+01:00</time>
      </trkpt>
      <trkpt lat="43.04200249103" lon="-5.39778558664">
        <ele>1943.91</ele>
        <time>2013-02-20T12:12:04+01:00</time>
      </trkpt>
      <trkpt lat="43.0419882097" lon="-5.39775764024">
        <ele>1944.36</ele>
        <time>2013-02-20T12:12:05+01:00</time>
      </trkpt>
      <trkpt lat="43.04196456533" lon="-5.39772738648">
        <ele>1944.85</ele>
        <time>2013-02-20T12:12:07+01:00</time>
      </trkpt>
      <trkpt lat="43.04193923029" lon="-5.39772111731">
        <ele>1945.23</ele>
        <time>2013-02-20T12:12:09+01:00</time>
      </trkpt>
      <trkpt lat="43.04190829471" lon="-5.39772939198">
        <ele>1945.57</ele>
        <time>2013-02-20T12:12:11+01:00</time>
      </trkpt>
      <trkpt lat="43.04187121672" lon="-5.39773089838">
        <ele>1945.72</ele>
        <time>2013-02-20T12:12:13+01:00</time>
      </trkpt>
      <trkpt lat="43.04184676372" lon="-5.39773632962">
        <ele>1946</ele>
        <time>2013-02-20T12:12:14+01:00</time>
      </trkpt>
      <trkpt lat="43.04182432758" lon="-5.39774426558">
        <ele>1946.23</ele>
        <time>2013-02-20T12:12:15+01:00</time>
      </trkpt>
      <trkpt lat="43.04180194225" lon="-5.39775124502">
        <ele>1946.4</ele>
        <time>2013-02-20T12:12:16+01:00</time>
      </trkpt>
      <trkpt lat="43.04175889223" lon="-5.3977678602">
        <ele>1946.55</ele>
        <time>2013-02-20T12:12:18+01:00</time>
      </trkpt>
      <trkpt lat="43.04173470954" lon="-5.39777646193">
        <ele>1946.66</ele>
        <time>2013-02-20T12:12:19+01:00</time>
      </trkpt>
      <trkpt lat="43.04169385606" lon="-5.39777204151">
        <ele>1946.65</ele>
        <time>2013-02-20T12:12:21+01:00</time>
      </trkpt>
      <trkpt lat="43.04165725731" lon="-5.39774670521">
        <ele>1946.59</ele>
        <time>2013-02-20T12:12:23+01:00</time>
      </trkpt>
      <trkpt lat="43.04164049246" lon="-5.39772882923">
        <ele>1946.63</ele>
        <time>2013-02-20T12:12:24+01:00</time>
      </trkpt>
      <trkpt lat="43.0416164655" lon="-5.39770308124">
        <ele>1946.64</ele>
        <time>2013-02-20T12:12:26+01:00</time>
      </trkpt>
      <trkpt lat="43.04161809869" lon="-5.39772834274">
        <ele>1946.94</ele>
        <time>2013-02-20T12:12:46+01:00</time>
      </trkpt>
      <trkpt lat="43.04159688677" lon="-5.39772260864">
        <ele>1947.02</ele>
        <time>2013-02-20T12:13:00+01:00</time>
      </trkpt>
      <trkpt lat="43.04160769829" lon="-5.39770764844">
        <ele>1947.05</ele>
        <time>2013-02-20T12:13:05+01:00</time>
      </trkpt>
      <trkpt lat="43.04163064771" lon="-5.39770941732">
        <ele>1947.54</ele>
        <time>2013-02-20T12:13:13+01:00</time>
      </trkpt>
      <trkpt lat="43.04163895916" lon="-5.39768294901">
        <ele>1947.75</ele>
        <time>2013-02-20T12:13:19+01:00</time>
      </trkpt>
      <trkpt lat="43.04162457253" lon="-5.3976584361">
        <ele>1947.93</ele>
        <time>2013-02-20T12:13:20+01:00</time>
      </trkpt>
      <trkpt lat="43.04160336934" lon="-5.39764165176">
        <ele>1948.04</ele>
        <time>2013-02-20T12:13:21+01:00</time>
      </trkpt>
      <trkpt lat="43.04157593987" lon="-5.39762790338">
        <ele>1948.15</ele>
        <time>2013-02-20T12:13:22+01:00</time>
      </trkpt>
      <trkpt lat="43.04154385188" lon="-5.39761679715">
        <ele>1948.29</ele>
        <time>2013-02-20T12:13:23+01:00</time>
      </trkpt>
      <trkpt lat="43.04150552709" lon="-5.39761025506">
        <ele>1948.34</ele>
        <time>2013-02-20T12:13:24+01:00</time>
      </trkpt>
      <trkpt lat="43.04146284449" lon="-5.39761420251">
        <ele>1948.31</ele>
        <time>2013-02-20T12:13:25+01:00</time>
      </trkpt>
      <trkpt lat="43.04142127257" lon="-5.39762877944">
        <ele>1948.3</ele>
        <time>2013-02-20T12:13:26+01:00</time>
      </trkpt>
      <trkpt lat="43.04138124503" lon="-5.39764668243">
        <ele>1948.29</ele>
        <time>2013-02-20T12:13:27+01:00</time>
      </trkpt>
      <trkpt lat="43.04133835443" lon="-5.39766801094">
        <ele>1948.27</ele>
        <time>2013-02-20T12:13:28+01:00</time>
      </trkpt>
      <trkpt lat="43.04129910026" lon="-5.39769805553">
        <ele>1948.25</ele>
        <time>2013-02-20T12:13:29+01:00</time>
      </trkpt>
      <trkpt lat="43.04125530633" lon="-5.39772022102">
        <ele>1948.2</ele>
        <time>2013-02-20T12:13:30+01:00</time>
      </trkpt>
      <trkpt lat="43.0412008744" lon="-5.39774997212">
        <ele>1947.98</ele>
        <time>2013-02-20T12:13:31+01:00</time>
      </trkpt>
      <trkpt lat="43.04115243204" lon="-5.39777037321">
        <ele>1947.88</ele>
        <time>2013-02-20T12:13:32+01:00</time>
      </trkpt>
      <trkpt lat="43.04110790788" lon="-5.39781005644">
        <ele>1947.74</ele>
        <time>2013-02-20T12:13:33+01:00</time>
      </trkpt>
      <trkpt lat="43.04106603864" lon="-5.39784910303">
        <ele>1947.64</ele>
        <time>2013-02-20T12:13:34+01:00</time>
      </trkpt>
      <trkpt lat="43.04103066687" lon="-5.39787161752">
        <ele>1947.01</ele>
        <time>2013-02-20T12:13:36+01:00</time>
      </trkpt>
      <trkpt lat="43.04097591625" lon="-5.39787772975">
        <ele>1946.67</ele>
        <time>2013-02-20T12:13:37+01:00</time>
      </trkpt>
      <trkpt lat="43.04090793565" lon="-5.3978765382">
        <ele>1946.43</ele>
        <time>2013-02-20T12:13:38+01:00</time>
      </trkpt>
      <trkpt lat="43.04086836217" lon="-5.39787970011">
        <ele>1946.13</ele>
        <time>2013-02-20T12:13:38+01:00</time>
      </trkpt>
      <trkpt lat="43.04076720065" lon="-5.39795887376">
        <ele>1945.66</ele>
        <time>2013-02-20T12:13:39+01:00</time>
      </trkpt>
      <trkpt lat="43.04067448164" lon="-5.39800327402">
        <ele>1945.69</ele>
        <time>2013-02-20T12:13:41+01:00</time>
      </trkpt>
      <trkpt lat="43.04058324998" lon="-5.39801248935">
        <ele>1945.47</ele>
        <time>2013-02-20T12:13:42+01:00</time>
      </trkpt>
      <trkpt lat="43.04049405922" lon="-5.39802291548">
        <ele>1945.59</ele>
        <time>2013-02-20T12:13:43+01:00</time>
      </trkpt>
      <trkpt lat="43.04040896467" lon="-5.39803512605">
        <ele>1945.56</ele>
        <time>2013-02-20T12:13:43+01:00</time>
      </trkpt>
      <trkpt lat="43.04035478387" lon="-5.39804436372">
        <ele>1945.62</ele>
        <time>2013-02-20T12:13:44+01:00</time>
      </trkpt>
      <trkpt lat="43.04022379805" lon="-5.39805973343">
        <ele>1945.7</ele>
        <time>2013-02-20T12:13:45+01:00</time>
      </trkpt>
      <trkpt lat="43.04013540716" lon="-5.398092714">
        <ele>1945.81</ele>
        <time>2013-02-20T12:13:46+01:00</time>
      </trkpt>
      <trkpt lat="43.04008523577" lon="-5.39811188209">
        <ele>1945.94</ele>
        <time>2013-02-20T12:13:47+01:00</time>
      </trkpt>
      <trkpt lat="43.04002236864" lon="-5.39813672119">
        <ele>1945.78</ele>
        <time>2013-02-20T12:13:48+01:00</time>
      </trkpt>
      <trkpt lat="43.0399582247" lon="-5.39817344827">
        <ele>1945.59</ele>
        <time>2013-02-20T12:13:50+01:00</time>
      </trkpt>
      <trkpt lat="43.03990790114" lon="-5.39820136717">
        <ele>1945.63</ele>
        <time>2013-02-20T12:13:51+01:00</time>
      </trkpt>
      <trkpt lat="43.03987148665" lon="-5.39822450481">
        <ele>1945.47</ele>
        <time>2013-02-20T12:13:53+01:00</time>
      </trkpt>
      <trkpt lat="43.03984428982" lon="-5.39821377777">
        <ele>1945.38</ele>
        <time>2013-02-20T12:13:57+01:00</time>
      </trkpt>
      <trkpt lat="43.03983369704" lon="-5.39817716705">
        <ele>1944.34</ele>
        <time>2013-02-20T12:14:02+01:00</time>
      </trkpt>
      <trkpt lat="43.03982128551" lon="-5.39810319201">
        <ele>1943.87</ele>
        <time>2013-02-20T12:14:03+01:00</time>
      </trkpt>
      <trkpt lat="43.03981119244" lon="-5.3980274438">
        <ele>1943.27</ele>
        <time>2013-02-20T12:14:04+01:00</time>
      </trkpt>
      <trkpt lat="43.03978785026" lon="-5.39794054507">
        <ele>1942.54</ele>
        <time>2013-02-20T12:14:05+01:00</time>
      </trkpt>
      <trkpt lat="43.03975106237" lon="-5.39788541323">
        <ele>1941.52</ele>
        <time>2013-02-20T12:14:06+01:00</time>
      </trkpt>
      <trkpt lat="43.03969445273" lon="-5.39783127035">
        <ele>1940.61</ele>
        <time>2013-02-20T12:14:07+01:00</time>
      </trkpt>
      <trkpt lat="43.03962438334" lon="-5.39776356648">
        <ele>1939.67</ele>
        <time>2013-02-20T12:14:08+01:00</time>
      </trkpt>
      <trkpt lat="43.03957456583" lon="-5.39768007653">
        <ele>1936.85</ele>
        <time>2013-02-20T12:14:09+01:00</time>
      </trkpt>
      <trkpt lat="43.0395560054" lon="-5.39757946793">
        <ele>1935.53</ele>
        <time>2013-02-20T12:14:10+01:00</time>
      </trkpt>
      <trkpt lat="43.03957165077" lon="-5.39747669484">
        <ele>1935.6</ele>
        <time>2013-02-20T12:14:11+01:00</time>
      </trkpt>
      <trkpt lat="43.03958619049" lon="-5.39736608615">
        <ele>1932.8</ele>
        <time>2013-02-20T12:14:12+01:00</time>
      </trkpt>
      <trkpt lat="43.03959418844" lon="-5.39726184051">
        <ele>1931.13</ele>
        <time>2013-02-20T12:14:13+01:00</time>
      </trkpt>
      <trkpt lat="43.03953892519" lon="-5.3971752102">
        <ele>1931.34</ele>
        <time>2013-02-20T12:14:15+01:00</time>
      </trkpt>
      <trkpt lat="43.03949937407" lon="-5.3970829164">
        <ele>1930.28</ele>
        <time>2013-02-20T12:14:16+01:00</time>
      </trkpt>
      <trkpt lat="43.0394593444" lon="-5.39699230622">
        <ele>1928.88</ele>
        <time>2013-02-20T12:14:16+01:00</time>
      </trkpt>
      <trkpt lat="43.03946585592" lon="-5.39687675294">
        <ele>1927.99</ele>
        <time>2013-02-20T12:14:17+01:00</time>
      </trkpt>
      <trkpt lat="43.03945585942" lon="-5.39676767748">
        <ele>1927.24</ele>
        <time>2013-02-20T12:14:19+01:00</time>
      </trkpt>
      <trkpt lat="43.03943719689" lon="-5.39664507839">
        <ele>1926.37</ele>
        <time>2013-02-20T12:14:19+01:00</time>
      </trkpt>
      <trkpt lat="43.03944697602" lon="-5.39655571617">
        <ele>1925.23</ele>
        <time>2013-02-20T12:14:21+01:00</time>
      </trkpt>
      <trkpt lat="43.03944816071" lon="-5.3964670334">
        <ele>1924.22</ele>
        <time>2013-02-20T12:14:22+01:00</time>
      </trkpt>
      <trkpt lat="43.03942700703" lon="-5.39635863819">
        <ele>1923.34</ele>
        <time>2013-02-20T12:14:23+01:00</time>
      </trkpt>
      <trkpt lat="43.03940638129" lon="-5.39626011386">
        <ele>1922.36</ele>
        <time>2013-02-20T12:14:23+01:00</time>
      </trkpt>
      <trkpt lat="43.03938565997" lon="-5.39616235671">
        <ele>1921.43</ele>
        <time>2013-02-20T12:14:24+01:00</time>
      </trkpt>
      <trkpt lat="43.03936139914" lon="-5.39606408244">
        <ele>1920.46</ele>
        <time>2013-02-20T12:14:25+01:00</time>
      </trkpt>
      <trkpt lat="43.03934910385" lon="-5.3959541042">
        <ele>1919.6</ele>
        <time>2013-02-20T12:14:26+01:00</time>
      </trkpt>
      <trkpt lat="43.0393346419" lon="-5.39584869185">
        <ele>1918.64</ele>
        <time>2013-02-20T12:14:27+01:00</time>
      </trkpt>
      <trkpt lat="43.03930204405" lon="-5.39574305274">
        <ele>1917.68</ele>
        <time>2013-02-20T12:14:28+01:00</time>
      </trkpt>
      <trkpt lat="43.03925842427" lon="-5.39563381368">
        <ele>1916.66</ele>
        <time>2013-02-20T12:14:30+01:00</time>
      </trkpt>
      <trkpt lat="43.03922260501" lon="-5.39553643882">
        <ele>1913.86</ele>
        <time>2013-02-20T12:14:31+01:00</time>
      </trkpt>
      <trkpt lat="43.03919256546" lon="-5.39544228787">
        <ele>1912.37</ele>
        <time>2013-02-20T12:14:31+01:00</time>
      </trkpt>
      <trkpt lat="43.03919568882" lon="-5.395299801">
        <ele>1910.47</ele>
        <time>2013-02-20T12:14:32+01:00</time>
      </trkpt>
      <trkpt lat="43.03919087144" lon="-5.39519253833">
        <ele>1908.63</ele>
        <time>2013-02-20T12:14:33+01:00</time>
      </trkpt>
      <trkpt lat="43.03918561525" lon="-5.39508584085">
        <ele>1906.79</ele>
        <time>2013-02-20T12:14:34+01:00</time>
      </trkpt>
      <trkpt lat="43.03916461508" lon="-5.39495204974">
        <ele>1905.29</ele>
        <time>2013-02-20T12:14:35+01:00</time>
      </trkpt>
      <trkpt lat="43.03915144982" lon="-5.39486420541">
        <ele>1903.77</ele>
        <time>2013-02-20T12:14:36+01:00</time>
      </trkpt>
      <trkpt lat="43.03915798316" lon="-5.39465438801">
        <ele>1901.75</ele>
        <time>2013-02-20T12:14:37+01:00</time>
      </trkpt>
      <trkpt lat="43.03919157692" lon="-5.39449045108">
        <ele>1899.58</ele>
        <time>2013-02-20T12:14:38+01:00</time>
      </trkpt>
      <trkpt lat="43.03925639902" lon="-5.39436874846">
        <ele>1897.71</ele>
        <time>2013-02-20T12:14:39+01:00</time>
      </trkpt>
      <trkpt lat="43.03930785314" lon="-5.39425864431">
        <ele>1895.98</ele>
        <time>2013-02-20T12:14:40+01:00</time>
      </trkpt>
      <trkpt lat="43.03939203883" lon="-5.39420732034">
        <ele>1893.9</ele>
        <time>2013-02-20T12:14:41+01:00</time>
      </trkpt>
      <trkpt lat="43.03947757404" lon="-5.39417539671">
        <ele>1892</ele>
        <time>2013-02-20T12:14:42+01:00</time>
      </trkpt>
      <trkpt lat="43.03953053169" lon="-5.39416025833">
        <ele>1890.27</ele>
        <time>2013-02-20T12:14:43+01:00</time>
      </trkpt>
      <trkpt lat="43.03953708034" lon="-5.39418918032">
        <ele>1888.8</ele>
        <time>2013-02-20T12:14:44+01:00</time>
      </trkpt>
      <trkpt lat="43.03955757517" lon="-5.39419969167">
        <ele>1886.99</ele>
        <time>2013-02-20T12:14:47+01:00</time>
      </trkpt>
      <trkpt lat="43.03956854155" lon="-5.39419004971">
        <ele>1885.12</ele>
        <time>2013-02-20T12:14:57+01:00</time>
      </trkpt>
      <trkpt lat="43.03959334503" lon="-5.39419667003">
        <ele>1883.3</ele>
        <time>2013-02-20T12:14:58+01:00</time>
      </trkpt>
      <trkpt lat="43.03963367318" lon="-5.39421101874">
        <ele>1881.67</ele>
        <time>2013-02-20T12:14:59+01:00</time>
      </trkpt>
      <trkpt lat="43.03965649096" lon="-5.39422790302">
        <ele>1879.76</ele>
        <time>2013-02-20T12:15:01+01:00</time>
      </trkpt>
      <trkpt lat="43.03967455634" lon="-5.39422992974">
        <ele>1878.98</ele>
        <time>2013-02-20T12:15:03+01:00</time>
      </trkpt>
      <trkpt lat="43.03967369095" lon="-5.39425423405">
        <ele>1878.18</ele>
        <time>2013-02-20T12:15:21+01:00</time>
      </trkpt>
      <trkpt lat="43.03969929076" lon="-5.39424912077">
        <ele>1876.66</ele>
        <time>2013-02-20T12:15:59+01:00</time>
      </trkpt>
      <trkpt lat="43.03972455731" lon="-5.3942365395">
        <ele>1875.73</ele>
        <time>2013-02-20T12:16:02+01:00</time>
      </trkpt>
      <trkpt lat="43.03974738918" lon="-5.39422958736">
        <ele>1874.89</ele>
        <time>2013-02-20T12:16:04+01:00</time>
      </trkpt>
      <trkpt lat="43.03976461813" lon="-5.39423056236">
        <ele>1874.91</ele>
        <time>2013-02-20T12:16:05+01:00</time>
      </trkpt>
      <trkpt lat="43.03981115777" lon="-5.39421893715">
        <ele>1872.07</ele>
        <time>2013-02-20T12:16:06+01:00</time>
      </trkpt>
      <trkpt lat="43.03984302978" lon="-5.39419247222">
        <ele>1872.32</ele>
        <time>2013-02-20T12:16:08+01:00</time>
      </trkpt>
      <trkpt lat="43.03990579762" lon="-5.39418510052">
        <ele>1871.69</ele>
        <time>2013-02-20T12:16:09+01:00</time>
      </trkpt>
      <trkpt lat="43.03994936423" lon="-5.39419643373">
        <ele>1870.73</ele>
        <time>2013-02-20T12:16:10+01:00</time>
      </trkpt>
      <trkpt lat="43.03999569554" lon="-5.39419628639">
        <ele>1869.81</ele>
        <time>2013-02-20T12:16:10+01:00</time>
      </trkpt>
      <trkpt lat="43.04005173282" lon="-5.39417111121">
        <ele>1867.81</ele>
        <time>2013-02-20T12:16:11+01:00</time>
      </trkpt>
      <trkpt lat="43.04006656126" lon="-5.3940913096">
        <ele>1866.65</ele>
        <time>2013-02-20T12:16:12+01:00</time>
      </trkpt>
      <trkpt lat="43.04007314793" lon="-5.39400098503">
        <ele>1864.96</ele>
        <time>2013-02-20T12:16:13+01:00</time>
      </trkpt>
      <trkpt lat="43.04009857161" lon="-5.39390533722">
        <ele>1863.43</ele>
        <time>2013-02-20T12:16:14+01:00</time>
      </trkpt>
      <trkpt lat="43.04017842293" lon="-5.39387152256">
        <ele>1861.43</ele>
        <time>2013-02-20T12:16:15+01:00</time>
      </trkpt>
      <trkpt lat="43.04025360295" lon="-5.39384283257">
        <ele>1859.58</ele>
        <time>2013-02-20T12:16:16+01:00</time>
      </trkpt>
      <trkpt lat="43.04032731228" lon="-5.3938881236">
        <ele>1857.89</ele>
        <time>2013-02-20T12:16:17+01:00</time>
      </trkpt>
      <trkpt lat="43.04040511959" lon="-5.39393272108">
        <ele>1856.14</ele>
        <time>2013-02-20T12:16:18+01:00</time>
      </trkpt>
      <trkpt lat="43.04047191124" lon="-5.39396591456">
        <ele>1856.15</ele>
        <time>2013-02-20T12:16:19+01:00</time>
      </trkpt>
      <trkpt lat="43.04051739203" lon="-5.39398854585">
        <ele>1855.05</ele>
        <time>2013-02-20T12:16:20+01:00</time>
      </trkpt>
      <trkpt lat="43.04062123421" lon="-5.39402535928">
        <ele>1853.86</ele>
        <time>2013-02-20T12:16:22+01:00</time>
      </trkpt>
      <trkpt lat="43.04068488447" lon="-5.39403044209">
        <ele>1851.56</ele>
        <time>2013-02-20T12:16:23+01:00</time>
      </trkpt>
      <trkpt lat="43.04072983455" lon="-5.39401777938">
        <ele>1850.44</ele>
        <time>2013-02-20T12:16:24+01:00</time>
      </trkpt>
      <trkpt lat="43.04077117872" lon="-5.39400129936">
        <ele>1848.86</ele>
        <time>2013-02-20T12:16:24+01:00</time>
      </trkpt>
      <trkpt lat="43.04082802906" lon="-5.39391277616">
        <ele>1846.8</ele>
        <time>2013-02-20T12:16:25+01:00</time>
      </trkpt>
      <trkpt lat="43.04089089754" lon="-5.39385282673">
        <ele>1846.85</ele>
        <time>2013-02-20T12:16:26+01:00</time>
      </trkpt>
      <trkpt lat="43.04093647467" lon="-5.3938235401">
        <ele>1845.93</ele>
        <time>2013-02-20T12:16:27+01:00</time>
      </trkpt>
      <trkpt lat="43.04099587119" lon="-5.39379284544">
        <ele>1844.98</ele>
        <time>2013-02-20T12:16:29+01:00</time>
      </trkpt>
      <trkpt lat="43.04100743091" lon="-5.39378877015">
        <ele>1844.09</ele>
        <time>2013-02-20T12:16:30+01:00</time>
      </trkpt>
      <trkpt lat="43.04102454856" lon="-5.39378607468">
        <ele>1843.41</ele>
        <time>2013-02-20T12:16:31+01:00</time>
      </trkpt>
      <trkpt lat="43.04103597097" lon="-5.3937868189">
        <ele>1842.76</ele>
        <time>2013-02-20T12:16:31+01:00</time>
      </trkpt>
      <trkpt lat="43.041051996" lon="-5.39378913942">
        <ele>1841.91</ele>
        <time>2013-02-20T12:16:33+01:00</time>
      </trkpt>
      <trkpt lat="43.04123686026" lon="-5.39380460458">
        <ele>1841.15</ele>
        <time>2013-02-20T12:16:35+01:00</time>
      </trkpt>
      <trkpt lat="43.04133344143" lon="-5.39379574099">
        <ele>1840.38</ele>
        <time>2013-02-20T12:16:37+01:00</time>
      </trkpt>
      <trkpt lat="43.04139040729" lon="-5.39376704358">
        <ele>1839.59</ele>
        <time>2013-02-20T12:16:40+01:00</time>
      </trkpt>
      <trkpt lat="43.0414561636" lon="-5.39374294572">
        <ele>1838.53</ele>
        <time>2013-02-20T12:16:50+01:00</time>
      </trkpt>
      <trkpt lat="43.0414598936" lon="-5.39376669167">
        <ele>1835.39</ele>
        <time>2013-02-20T12:17:27+01:00</time>
      </trkpt>
      <trkpt lat="43.0414555434" lon="-5.3937468316">
        <ele>1835.83</ele>
        <time>2013-02-20T12:20:11+01:00</time>
      </trkpt>
      <trkpt lat="43.04142952766" lon="-5.39370852731">
        <ele>1834.9</ele>
        <time>2013-02-20T12:20:13+01:00</time>
      </trkpt>
      <trkpt lat="43.04140900239" lon="-5.39367585485">
        <ele>1833.85</ele>
        <time>2013-02-20T12:20:15+01:00</time>
      </trkpt>
      <trkpt lat="43.04138243383" lon="-5.39360105814">
        <ele>1832.61</ele>
        <time>2013-02-20T12:20:15+01:00</time>
      </trkpt>
      <trkpt lat="43.04137856181" lon="-5.39351455087">
        <ele>1831.83</ele>
        <time>2013-02-20T12:20:16+01:00</time>
      </trkpt>
      <trkpt lat="43.04138657164" lon="-5.39341825836">
        <ele>1830.85</ele>
        <time>2013-02-20T12:20:17+01:00</time>
      </trkpt>
      <trkpt lat="43.04135712704" lon="-5.39327662407">
        <ele>1830.22</ele>
        <time>2013-02-20T12:20:18+01:00</time>
      </trkpt>
      <trkpt lat="43.0413395325" lon="-5.39319295421">
        <ele>1829.4</ele>
        <time>2013-02-20T12:20:20+01:00</time>
      </trkpt>
      <trkpt lat="43.04133416883" lon="-5.3931688963">
        <ele>1828.57</ele>
        <time>2013-02-20T12:20:20+01:00</time>
      </trkpt>
      <trkpt lat="43.04133010185" lon="-5.393150493">
        <ele>1827.81</ele>
        <time>2013-02-20T12:20:21+01:00</time>
      </trkpt>
      <trkpt lat="43.0413257814" lon="-5.39311414639">
        <ele>1826.37</ele>
        <time>2013-02-20T12:20:23+01:00</time>
      </trkpt>
      <trkpt lat="43.04137042612" lon="-5.3928029263">
        <ele>1822.94</ele>
        <time>2013-02-20T12:21:04+01:00</time>
      </trkpt>
      <trkpt lat="43.04141210729" lon="-5.39250563693">
        <ele>1821.01</ele>
        <time>2013-02-20T12:21:06+01:00</time>
      </trkpt>
      <trkpt lat="43.04149029987" lon="-5.39193724997">
        <ele>1812.14</ele>
        <time>2013-02-20T12:21:08+01:00</time>
      </trkpt>
      <trkpt lat="43.04156227832" lon="-5.39142301112">
        <ele>1807.99</ele>
        <time>2013-02-20T12:21:11+01:00</time>
      </trkpt>
      <trkpt lat="43.04162872274" lon="-5.39095763967">
        <ele>1803.85</ele>
        <time>2013-02-20T12:21:14+01:00</time>
      </trkpt>
      <trkpt lat="43.04193872387" lon="-5.38885982201">
        <ele>1799.58</ele>
        <time>2013-02-20T12:21:18+01:00</time>
      </trkpt>
      <trkpt lat="43.04196831163" lon="-5.38864656175">
        <ele>1795.23</ele>
        <time>2013-02-20T12:21:19+01:00</time>
      </trkpt>
      <trkpt lat="43.04211419706" lon="-5.3876820291">
        <ele>1791.24</ele>
        <time>2013-02-20T12:21:24+01:00</time>
      </trkpt>
      <trkpt lat="43.04212859701" lon="-5.38758239071">
        <ele>1787.54</ele>
        <time>2013-02-20T12:21:26+01:00</time>
      </trkpt>
      <trkpt lat="43.04221074732" lon="-5.38714072348">
        <ele>1783.75</ele>
        <time>2013-02-20T12:21:29+01:00</time>
      </trkpt>
      <trkpt lat="43.04221651064" lon="-5.38709597003">
        <ele>1779.94</ele>
        <time>2013-02-20T12:21:35+01:00</time>
      </trkpt>
      <trkpt lat="43.04223136054" lon="-5.38689696832">
        <ele>1775.72</ele>
        <time>2013-02-20T12:21:38+01:00</time>
      </trkpt>
      <trkpt lat="43.04227351588" lon="-5.38673763284">
        <ele>1772.14</ele>
        <time>2013-02-20T12:21:43+01:00</time>
      </trkpt>
      <trkpt lat="43.0422906457" lon="-5.38672064957">
        <ele>1768.72</ele>
        <time>2013-02-20T12:21:47+01:00</time>
      </trkpt>
      <trkpt lat="43.04229288939" lon="-5.38671941484">
        <ele>1765.52</ele>
        <time>2013-02-20T12:21:48+01:00</time>
      </trkpt>
      <trkpt lat="43.04229927303" lon="-5.38671979297">
        <ele>1766.9</ele>
        <time>2013-02-20T12:21:52+01:00</time>
      </trkpt>
      <trkpt lat="43.04230756222" lon="-5.38672243831">
        <ele>1765.29</ele>
        <time>2013-02-20T12:21:55+01:00</time>
      </trkpt>
      <trkpt lat="43.04231127578" lon="-5.38672600935">
        <ele>1763.89</ele>
        <time>2013-02-20T12:21:58+01:00</time>
      </trkpt>
      <trkpt lat="43.04231171365" lon="-5.38673063982">
        <ele>1762.73</ele>
        <time>2013-02-20T12:22:00+01:00</time>
      </trkpt>
      <trkpt lat="43.04232499964" lon="-5.3867507645">
        <ele>1758.39</ele>
        <time>2013-02-20T12:22:06+01:00</time>
      </trkpt>
      <trkpt lat="43.04232266954" lon="-5.38674782326">
        <ele>1759.17</ele>
        <time>2013-02-20T12:22:43+01:00</time>
      </trkpt>
      <trkpt lat="43.04232284266" lon="-5.38674542263">
        <ele>1759.37</ele>
        <time>2013-02-20T12:22:45+01:00</time>
      </trkpt>
      <trkpt lat="43.04230663381" lon="-5.3867383327">
        <ele>1753.42</ele>
        <time>2013-02-20T12:26:23+01:00</time>
      </trkpt>
      <trkpt lat="43.04227190732" lon="-5.38675331376">
        <ele>1751.03</ele>
        <time>2013-02-20T12:26:55+01:00</time>
      </trkpt>
      <trkpt lat="43.04226868803" lon="-5.38675408224">
        <ele>1752.39</ele>
        <time>2013-02-20T12:27:09+01:00</time>
      </trkpt>
      <trkpt lat="43.04226537996" lon="-5.38675784164">
        <ele>1752.52</ele>
        <time>2013-02-20T12:27:16+01:00</time>
      </trkpt>
      <trkpt lat="43.04226160222" lon="-5.38676505564">
        <ele>1751.12</ele>
        <time>2013-02-20T12:27:20+01:00</time>
      </trkpt>
      <trkpt lat="43.04225699527" lon="-5.38677417177">
        <ele>1749.17</ele>
        <time>2013-02-20T12:27:21+01:00</time>
      </trkpt>
      <trkpt lat="43.04225149952" lon="-5.38678562846">
        <ele>1748.51</ele>
        <time>2013-02-20T12:27:22+01:00</time>
      </trkpt>
      <trkpt lat="43.04221673133" lon="-5.38685553996">
        <ele>1747.7</ele>
        <time>2013-02-20T12:27:23+01:00</time>
      </trkpt>
      <trkpt lat="43.04219303985" lon="-5.38691010937">
        <ele>1746.67</ele>
        <time>2013-02-20T12:27:24+01:00</time>
      </trkpt>
      <trkpt lat="43.04216158087" lon="-5.38698642078">
        <ele>1742.56</ele>
        <time>2013-02-20T12:27:25+01:00</time>
      </trkpt>
      <trkpt lat="43.04214274975" lon="-5.38703185792">
        <ele>1740.87</ele>
        <time>2013-02-20T12:27:26+01:00</time>
      </trkpt>
      <trkpt lat="43.04212691358" lon="-5.38707507646">
        <ele>1739.26</ele>
        <time>2013-02-20T12:27:27+01:00</time>
      </trkpt>
      <trkpt lat="43.04211067058" lon="-5.38711141397">
        <ele>1737.48</ele>
        <time>2013-02-20T12:27:28+01:00</time>
      </trkpt>
      <trkpt lat="43.04208445557" lon="-5.38716468136">
        <ele>1735.45</ele>
        <time>2013-02-20T12:27:30+01:00</time>
      </trkpt>
      <trkpt lat="43.04206459452" lon="-5.38720141932">
        <ele>1733.78</ele>
        <time>2013-02-20T12:27:31+01:00</time>
      </trkpt>
      <trkpt lat="43.04203319474" lon="-5.38725962474">
        <ele>1732.18</ele>
        <time>2013-02-20T12:27:33+01:00</time>
      </trkpt>
      <trkpt lat="43.04201232703" lon="-5.38729531838">
        <ele>1727.9</ele>
        <time>2013-02-20T12:27:35+01:00</time>
      </trkpt>
      <trkpt lat="43.04198836349" lon="-5.38732423462">
        <ele>1726.08</ele>
        <time>2013-02-20T12:27:36+01:00</time>
      </trkpt>
      <trkpt lat="43.04196648564" lon="-5.38734712269">
        <ele>1724.35</ele>
        <time>2013-02-20T12:27:36+01:00</time>
      </trkpt>
      <trkpt lat="43.04195409484" lon="-5.38738644552">
        <ele>1722.34</ele>
        <time>2013-02-20T12:27:37+01:00</time>
      </trkpt>
      <trkpt lat="43.04193525733" lon="-5.38741743353">
        <ele>1720.38</ele>
        <time>2013-02-20T12:27:38+01:00</time>
      </trkpt>
      <trkpt lat="43.04191636888" lon="-5.38745025205">
        <ele>1720.65</ele>
        <time>2013-02-20T12:27:40+01:00</time>
      </trkpt>
      <trkpt lat="43.0419002195" lon="-5.38748162619">
        <ele>1719.52</ele>
        <time>2013-02-20T12:27:41+01:00</time>
      </trkpt>
      <trkpt lat="43.04188230453" lon="-5.38750942575">
        <ele>1718.35</ele>
        <time>2013-02-20T12:27:42+01:00</time>
      </trkpt>
      <trkpt lat="43.04186474052" lon="-5.38753724799">
        <ele>1717.41</ele>
        <time>2013-02-20T12:27:43+01:00</time>
      </trkpt>
      <trkpt lat="43.04184624087" lon="-5.38756359956">
        <ele>1716.73</ele>
        <time>2013-02-20T12:27:44+01:00</time>
      </trkpt>
      <trkpt lat="43.04182845935" lon="-5.38759005933">
        <ele>1715.87</ele>
        <time>2013-02-20T12:27:44+01:00</time>
      </trkpt>
      <trkpt lat="43.04181881867" lon="-5.3876083704">
        <ele>1713.77</ele>
        <time>2013-02-20T12:27:47+01:00</time>
      </trkpt>
      <trkpt lat="43.0418166057" lon="-5.3876134034">
        <ele>1714.22</ele>
        <time>2013-02-20T12:27:50+01:00</time>
      </trkpt>
      <trkpt lat="43.04181276163" lon="-5.38762275269">
        <ele>1713.68</ele>
        <time>2013-02-20T12:27:51+01:00</time>
      </trkpt>
      <trkpt lat="43.04181046811" lon="-5.38762839737">
        <ele>1712.96</ele>
        <time>2013-02-20T12:27:52+01:00</time>
      </trkpt>
      <trkpt lat="43.04180345756" lon="-5.38764218165">
        <ele>1712.39</ele>
        <time>2013-02-20T12:27:53+01:00</time>
      </trkpt>
      <trkpt lat="43.04179414315" lon="-5.3876585689">
        <ele>1712.08</ele>
        <time>2013-02-20T12:27:54+01:00</time>
      </trkpt>
      <trkpt lat="43.0417423167" lon="-5.38774932682">
        <ele>1711.64</ele>
        <time>2013-02-20T12:27:55+01:00</time>
      </trkpt>
      <trkpt lat="43.04170546509" lon="-5.38781201441">
        <ele>1711.24</ele>
        <time>2013-02-20T12:27:56+01:00</time>
      </trkpt>
      <trkpt lat="43.04167683432" lon="-5.38786104402">
        <ele>1710.91</ele>
        <time>2013-02-20T12:27:57+01:00</time>
      </trkpt>
      <trkpt lat="43.04165359221" lon="-5.38790433429">
        <ele>1710.64</ele>
        <time>2013-02-20T12:27:58+01:00</time>
      </trkpt>
      <trkpt lat="43.0416329606" lon="-5.3879439586">
        <ele>1709.33</ele>
        <time>2013-02-20T12:27:59+01:00</time>
      </trkpt>
      <trkpt lat="43.04160042912" lon="-5.38800482708">
        <ele>1708.84</ele>
        <time>2013-02-20T12:28:00+01:00</time>
      </trkpt>
      <trkpt lat="43.04158021003" lon="-5.38804637096">
        <ele>1708.52</ele>
        <time>2013-02-20T12:28:01+01:00</time>
      </trkpt>
      <trkpt lat="43.04156057588" lon="-5.38808941435">
        <ele>1708.29</ele>
        <time>2013-02-20T12:28:03+01:00</time>
      </trkpt>
      <trkpt lat="43.04154330505" lon="-5.38812404045">
        <ele>1707.8</ele>
        <time>2013-02-20T12:28:04+01:00</time>
      </trkpt>
      <trkpt lat="43.04153349771" lon="-5.38814286941">
        <ele>1707.49</ele>
        <time>2013-02-20T12:28:04+01:00</time>
      </trkpt>
      <trkpt lat="43.0415110338" lon="-5.38818374883">
        <ele>1707.28</ele>
        <time>2013-02-20T12:28:05+01:00</time>
      </trkpt>
      <trkpt lat="43.04149850281" lon="-5.38820830478">
        <ele>1707.1</ele>
        <time>2013-02-20T12:28:06+01:00</time>
      </trkpt>
      <trkpt lat="43.04148142465" lon="-5.3882384362">
        <ele>1706.93</ele>
        <time>2013-02-20T12:28:07+01:00</time>
      </trkpt>
      <trkpt lat="43.04146330925" lon="-5.3882693018">
        <ele>1707.01</ele>
        <time>2013-02-20T12:28:09+01:00</time>
      </trkpt>
      <trkpt lat="43.04144503146" lon="-5.38830225278">
        <ele>1706.95</ele>
        <time>2013-02-20T12:28:10+01:00</time>
      </trkpt>
      <trkpt lat="43.04144145186" lon="-5.3883088252">
        <ele>1706.89</ele>
        <time>2013-02-20T12:28:10+01:00</time>
      </trkpt>
      <trkpt lat="43.04143544743" lon="-5.38831827754">
        <ele>1706.82</ele>
        <time>2013-02-20T12:28:11+01:00</time>
      </trkpt>
      <trkpt lat="43.04139859972" lon="-5.3883767387">
        <ele>1706.75</ele>
        <time>2013-02-20T12:28:13+01:00</time>
      </trkpt>
      <trkpt lat="43.0413922034" lon="-5.38838612198">
        <ele>1706.69</ele>
        <time>2013-02-20T12:28:14+01:00</time>
      </trkpt>
      <trkpt lat="43.04138374774" lon="-5.38839792808">
        <ele>1706.59</ele>
        <time>2013-02-20T12:28:15+01:00</time>
      </trkpt>
      <trkpt lat="43.04137415533" lon="-5.38841147885">
        <ele>1706.53</ele>
        <time>2013-02-20T12:28:15+01:00</time>
      </trkpt>
      <trkpt lat="43.04136873862" lon="-5.38841937461">
        <ele>1706.5</ele>
        <time>2013-02-20T12:28:16+01:00</time>
      </trkpt>
      <trkpt lat="43.04136271474" lon="-5.38842869865">
        <ele>1706.42</ele>
        <time>2013-02-20T12:28:18+01:00</time>
      </trkpt>
      <trkpt lat="43.04134920323" lon="-5.38844985929">
        <ele>1706.36</ele>
        <time>2013-02-20T12:28:19+01:00</time>
      </trkpt>
      <trkpt lat="43.04128075295" lon="-5.38856251652">
        <ele>1706.38</ele>
        <time>2013-02-20T12:28:20+01:00</time>
      </trkpt>
      <trkpt lat="43.04127227345" lon="-5.38857683325">
        <ele>1706.35</ele>
        <time>2013-02-20T12:28:20+01:00</time>
      </trkpt>
      <trkpt lat="43.04122713777" lon="-5.3886576871">
        <ele>1706.36</ele>
        <time>2013-02-20T12:28:22+01:00</time>
      </trkpt>
      <trkpt lat="43.04119811587" lon="-5.38871512928">
        <ele>1706.47</ele>
        <time>2013-02-20T12:28:23+01:00</time>
      </trkpt>
      <trkpt lat="43.04119367979" lon="-5.38872394128">
        <ele>1706.52</ele>
        <time>2013-02-20T12:28:23+01:00</time>
      </trkpt>
      <trkpt lat="43.04118865215" lon="-5.38873486441">
        <ele>1706.61</ele>
        <time>2013-02-20T12:28:24+01:00</time>
      </trkpt>
      <trkpt lat="43.04116420473" lon="-5.38880271016">
        <ele>1706.88</ele>
        <time>2013-02-20T12:28:25+01:00</time>
      </trkpt>
      <trkpt lat="43.04114426966" lon="-5.38885348066">
        <ele>1707.21</ele>
        <time>2013-02-20T12:28:26+01:00</time>
      </trkpt>
      <trkpt lat="43.04111752572" lon="-5.3889202486">
        <ele>1707.46</ele>
        <time>2013-02-20T12:28:27+01:00</time>
      </trkpt>
      <trkpt lat="43.0410982965" lon="-5.38895961962">
        <ele>1707.82</ele>
        <time>2013-02-20T12:28:28+01:00</time>
      </trkpt>
      <trkpt lat="43.04107983262" lon="-5.38899243836">
        <ele>1708.24</ele>
        <time>2013-02-20T12:28:29+01:00</time>
      </trkpt>
      <trkpt lat="43.041069478" lon="-5.38901120904">
        <ele>1708.6</ele>
        <time>2013-02-20T12:28:30+01:00</time>
      </trkpt>
      <trkpt lat="43.04106583158" lon="-5.38901881094">
        <ele>1708.95</ele>
        <time>2013-02-20T12:28:33+01:00</time>
      </trkpt>
      <trkpt lat="43.04105999332" lon="-5.38902953348">
        <ele>1708.83</ele>
        <time>2013-02-20T12:28:34+01:00</time>
      </trkpt>
      <trkpt lat="43.0410273928" lon="-5.38909572217">
        <ele>1709.04</ele>
        <time>2013-02-20T12:28:36+01:00</time>
      </trkpt>
      <trkpt lat="43.04100294114" lon="-5.3891415151">
        <ele>1709.49</ele>
        <time>2013-02-20T12:28:37+01:00</time>
      </trkpt>
      <trkpt lat="43.04097904351" lon="-5.38918565969">
        <ele>1710.03</ele>
        <time>2013-02-20T12:28:40+01:00</time>
      </trkpt>
      <trkpt lat="43.04096080827" lon="-5.38922038866">
        <ele>1710.49</ele>
        <time>2013-02-20T12:28:40+01:00</time>
      </trkpt>
      <trkpt lat="43.04094408407" lon="-5.38925288248">
        <ele>1710.97</ele>
        <time>2013-02-20T12:28:41+01:00</time>
      </trkpt>
      <trkpt lat="43.04092868117" lon="-5.38928777913">
        <ele>1711.36</ele>
        <time>2013-02-20T12:28:42+01:00</time>
      </trkpt>
      <trkpt lat="43.04091134054" lon="-5.38932563738">
        <ele>1711.62</ele>
        <time>2013-02-20T12:28:43+01:00</time>
      </trkpt>
      <trkpt lat="43.04088241413" lon="-5.3893919997">
        <ele>1712.09</ele>
        <time>2013-02-20T12:28:44+01:00</time>
      </trkpt>
      <trkpt lat="43.04086201081" lon="-5.38943504468">
        <ele>1712.42</ele>
        <time>2013-02-20T12:28:45+01:00</time>
      </trkpt>
      <trkpt lat="43.04085009362" lon="-5.38945744057">
        <ele>1712.79</ele>
        <time>2013-02-20T12:28:46+01:00</time>
      </trkpt>
      <trkpt lat="43.04083399292" lon="-5.38948464795">
        <ele>1713.16</ele>
        <time>2013-02-20T12:28:48+01:00</time>
      </trkpt>
      <trkpt lat="43.04083052626" lon="-5.38948990002">
        <ele>1713.5</ele>
        <time>2013-02-20T12:28:48+01:00</time>
      </trkpt>
      <trkpt lat="43.04080606242" lon="-5.38953251936">
        <ele>1714.02</ele>
        <time>2013-02-20T12:28:49+01:00</time>
      </trkpt>
      <trkpt lat="43.0407823892" lon="-5.38957164057">
        <ele>1714.53</ele>
        <time>2013-02-20T12:28:50+01:00</time>
      </trkpt>
      <trkpt lat="43.04074330053" lon="-5.38963237478">
        <ele>1715.11</ele>
        <time>2013-02-20T12:28:51+01:00</time>
      </trkpt>
      <trkpt lat="43.04071959071" lon="-5.38967134372">
        <ele>1715.8</ele>
        <time>2013-02-20T12:28:53+01:00</time>
      </trkpt>
      <trkpt lat="43.04070029776" lon="-5.38970522199">
        <ele>1716.37</ele>
        <time>2013-02-20T12:28:54+01:00</time>
      </trkpt>
      <trkpt lat="43.04069048911" lon="-5.38972349646">
        <ele>1716.93</ele>
        <time>2013-02-20T12:28:54+01:00</time>
      </trkpt>
      <trkpt lat="43.04067278508" lon="-5.38975903726">
        <ele>1717.64</ele>
        <time>2013-02-20T12:28:56+01:00</time>
      </trkpt>
      <trkpt lat="43.04065690611" lon="-5.38978847482">
        <ele>1718.37</ele>
        <time>2013-02-20T12:28:56+01:00</time>
      </trkpt>
      <trkpt lat="43.04064370556" lon="-5.38981548472">
        <ele>1719.1</ele>
        <time>2013-02-20T12:28:57+01:00</time>
      </trkpt>
      <trkpt lat="43.04063114127" lon="-5.38984227732">
        <ele>1719.83</ele>
        <time>2013-02-20T12:28:59+01:00</time>
      </trkpt>
      <trkpt lat="43.04061859044" lon="-5.38987064638">
        <ele>1720.56</ele>
        <time>2013-02-20T12:29:00+01:00</time>
      </trkpt>
      <trkpt lat="43.0405975192" lon="-5.38991372641">
        <ele>1721.43</ele>
        <time>2013-02-20T12:29:01+01:00</time>
      </trkpt>
      <trkpt lat="43.04057791577" lon="-5.38996150267">
        <ele>1722.29</ele>
        <time>2013-02-20T12:29:03+01:00</time>
      </trkpt>
      <trkpt lat="43.04055672837" lon="-5.39000753596">
        <ele>1723.03</ele>
        <time>2013-02-20T12:29:05+01:00</time>
      </trkpt>
      <trkpt lat="43.04053234079" lon="-5.3900530195">
        <ele>1723.82</ele>
        <time>2013-02-20T12:29:08+01:00</time>
      </trkpt>
      <trkpt lat="43.04050637441" lon="-5.39009618026">
        <ele>1724.83</ele>
        <time>2013-02-20T12:29:10+01:00</time>
      </trkpt>
      <trkpt lat="43.04048284153" lon="-5.39014055285">
        <ele>1725.64</ele>
        <time>2013-02-20T12:29:11+01:00</time>
      </trkpt>
      <trkpt lat="43.04045559443" lon="-5.39019006573">
        <ele>1726.58</ele>
        <time>2013-02-20T12:29:13+01:00</time>
      </trkpt>
      <trkpt lat="43.04043409525" lon="-5.39023141431">
        <ele>1727.56</ele>
        <time>2013-02-20T12:29:16+01:00</time>
      </trkpt>
      <trkpt lat="43.04042034374" lon="-5.39026235723">
        <ele>1728.5</ele>
        <time>2013-02-20T12:29:17+01:00</time>
      </trkpt>
      <trkpt lat="43.04039348397" lon="-5.39031198906">
        <ele>1729.48</ele>
        <time>2013-02-20T12:29:19+01:00</time>
      </trkpt>
      <trkpt lat="43.04036913539" lon="-5.39035510776">
        <ele>1730.32</ele>
        <time>2013-02-20T12:29:21+01:00</time>
      </trkpt>
      <trkpt lat="43.04035132401" lon="-5.39039390635">
        <ele>1731.18</ele>
        <time>2013-02-20T12:29:22+01:00</time>
      </trkpt>
      <trkpt lat="43.04032781596" lon="-5.39044080722">
        <ele>1733.93</ele>
        <time>2013-02-20T12:29:24+01:00</time>
      </trkpt>
      <trkpt lat="43.0403144946" lon="-5.39046415399">
        <ele>1735.31</ele>
        <time>2013-02-20T12:29:26+01:00</time>
      </trkpt>
      <trkpt lat="43.04029915689" lon="-5.3904882023">
        <ele>1736.65</ele>
        <time>2013-02-20T12:29:26+01:00</time>
      </trkpt>
      <trkpt lat="43.04028103545" lon="-5.39050722767">
        <ele>1736.52</ele>
        <time>2013-02-20T12:29:27+01:00</time>
      </trkpt>
      <trkpt lat="43.04026202199" lon="-5.39052444379">
        <ele>1737.58</ele>
        <time>2013-02-20T12:29:29+01:00</time>
      </trkpt>
      <trkpt lat="43.04023179954" lon="-5.39055973824">
        <ele>1738.47</ele>
        <time>2013-02-20T12:29:30+01:00</time>
      </trkpt>
      <trkpt lat="43.04020583965" lon="-5.39060475039">
        <ele>1739.16</ele>
        <time>2013-02-20T12:29:33+01:00</time>
      </trkpt>
      <trkpt lat="43.04018438678" lon="-5.3906494262">
        <ele>1739.52</ele>
        <time>2013-02-20T12:29:34+01:00</time>
      </trkpt>
      <trkpt lat="43.04017288777" lon="-5.3906812272">
        <ele>1739.78</ele>
        <time>2013-02-20T12:29:36+01:00</time>
      </trkpt>
      <trkpt lat="43.04015110842" lon="-5.39071447654">
        <ele>1740.21</ele>
        <time>2013-02-20T12:29:38+01:00</time>
      </trkpt>
      <trkpt lat="43.04013421322" lon="-5.3907492896">
        <ele>1740.49</ele>
        <time>2013-02-20T12:29:41+01:00</time>
      </trkpt>
      <trkpt lat="43.0401108182" lon="-5.39079796057">
        <ele>1741.11</ele>
        <time>2013-02-20T12:29:43+01:00</time>
      </trkpt>
      <trkpt lat="43.0400949745" lon="-5.39083257225">
        <ele>1741.59</ele>
        <time>2013-02-20T12:29:44+01:00</time>
      </trkpt>
      <trkpt lat="43.04007879705" lon="-5.39085981232">
        <ele>1741.9</ele>
        <time>2013-02-20T12:29:44+01:00</time>
      </trkpt>
      <trkpt lat="43.04006789005" lon="-5.3908780952">
        <ele>1742.36</ele>
        <time>2013-02-20T12:29:45+01:00</time>
      </trkpt>
      <trkpt lat="43.04004873214" lon="-5.3909125919">
        <ele>1742.74</ele>
        <time>2013-02-20T12:29:48+01:00</time>
      </trkpt>
      <trkpt lat="43.04001114347" lon="-5.39096989473">
        <ele>1743.01</ele>
        <time>2013-02-20T12:29:49+01:00</time>
      </trkpt>
      <trkpt lat="43.03998374387" lon="-5.39101199953">
        <ele>1743.58</ele>
        <time>2013-02-20T12:29:51+01:00</time>
      </trkpt>
      <trkpt lat="43.03996766922" lon="-5.39104295105">
        <ele>1744.41</ele>
        <time>2013-02-20T12:29:53+01:00</time>
      </trkpt>
      <trkpt lat="43.03995339018" lon="-5.3910689897">
        <ele>1744.75</ele>
        <time>2013-02-20T12:29:54+01:00</time>
      </trkpt>
      <trkpt lat="43.0399390344" lon="-5.39109317406">
        <ele>1744.97</ele>
        <time>2013-02-20T12:29:54+01:00</time>
      </trkpt>
      <trkpt lat="43.03991430324" lon="-5.39113247731">
        <ele>1745.45</ele>
        <time>2013-02-20T12:29:56+01:00</time>
      </trkpt>
      <trkpt lat="43.03988893869" lon="-5.39117648073">
        <ele>1745.99</ele>
        <time>2013-02-20T12:29:59+01:00</time>
      </trkpt>
      <trkpt lat="43.03987895783" lon="-5.3911958113">
        <ele>1746.36</ele>
        <time>2013-02-20T12:29:59+01:00</time>
      </trkpt>
      <trkpt lat="43.03984864374" lon="-5.39125211239">
        <ele>1747.16</ele>
        <time>2013-02-20T12:30:02+01:00</time>
      </trkpt>
      <trkpt lat="43.0398300416" lon="-5.39128415972">
        <ele>1747.74</ele>
        <time>2013-02-20T12:30:03+01:00</time>
      </trkpt>
      <trkpt lat="43.03980358945" lon="-5.39130699772">
        <ele>1748.09</ele>
        <time>2013-02-20T12:30:04+01:00</time>
      </trkpt>
      <trkpt lat="43.03977845067" lon="-5.39133811919">
        <ele>1748.48</ele>
        <time>2013-02-20T12:30:06+01:00</time>
      </trkpt>
      <trkpt lat="43.0397596766" lon="-5.39138504601">
        <ele>1749.12</ele>
        <time>2013-02-20T12:30:09+01:00</time>
      </trkpt>
      <trkpt lat="43.0397423431" lon="-5.39143184818">
        <ele>1749.69</ele>
        <time>2013-02-20T12:30:11+01:00</time>
      </trkpt>
      <trkpt lat="43.03972241434" lon="-5.39146890243">
        <ele>1750.28</ele>
        <time>2013-02-20T12:30:13+01:00</time>
      </trkpt>
      <trkpt lat="43.03970707798" lon="-5.39149096857">
        <ele>1751</ele>
        <time>2013-02-20T12:30:15+01:00</time>
      </trkpt>
      <trkpt lat="43.03967355238" lon="-5.39153235903">
        <ele>1751.6</ele>
        <time>2013-02-20T12:30:16+01:00</time>
      </trkpt>
      <trkpt lat="43.03965662119" lon="-5.39153979595">
        <ele>1752.05</ele>
        <time>2013-02-20T12:30:18+01:00</time>
      </trkpt>
      <trkpt lat="43.03963331963" lon="-5.39155147722">
        <ele>1752.53</ele>
        <time>2013-02-20T12:30:20+01:00</time>
      </trkpt>
      <trkpt lat="43.03961058378" lon="-5.39157144136">
        <ele>1753.55</ele>
        <time>2013-02-20T12:30:23+01:00</time>
      </trkpt>
      <trkpt lat="43.03959007958" lon="-5.39160791024">
        <ele>1754.51</ele>
        <time>2013-02-20T12:30:24+01:00</time>
      </trkpt>
      <trkpt lat="43.0395759718" lon="-5.39164236367">
        <ele>1755.47</ele>
        <time>2013-02-20T12:30:26+01:00</time>
      </trkpt>
      <trkpt lat="43.03955684012" lon="-5.39169668144">
        <ele>1756.49</ele>
        <time>2013-02-20T12:30:26+01:00</time>
      </trkpt>
      <trkpt lat="43.03954973384" lon="-5.39171876814">
        <ele>1757.57</ele>
        <time>2013-02-20T12:30:28+01:00</time>
      </trkpt>
      <trkpt lat="43.03954115156" lon="-5.39174435409">
        <ele>1758.6</ele>
        <time>2013-02-20T12:30:29+01:00</time>
      </trkpt>
      <trkpt lat="43.03953118168" lon="-5.3917705162">
        <ele>1759.53</ele>
        <time>2013-02-20T12:30:29+01:00</time>
      </trkpt>
      <trkpt lat="43.03951460876" lon="-5.39181012598">
        <ele>1761</ele>
        <time>2013-02-20T12:30:32+01:00</time>
      </trkpt>
      <trkpt lat="43.03950072738" lon="-5.39184489256">
        <ele>1762.26</ele>
        <time>2013-02-20T12:30:32+01:00</time>
      </trkpt>
      <trkpt lat="43.03948720689" lon="-5.39187614791">
        <ele>1763.48</ele>
        <time>2013-02-20T12:30:34+01:00</time>
      </trkpt>
      <trkpt lat="43.03946592989" lon="-5.39192274396">
        <ele>1764.81</ele>
        <time>2013-02-20T12:30:35+01:00</time>
      </trkpt>
      <trkpt lat="43.03945109555" lon="-5.39195765368">
        <ele>1766.15</ele>
        <time>2013-02-20T12:30:36+01:00</time>
      </trkpt>
      <trkpt lat="43.03943835587" lon="-5.39199057314">
        <ele>1767.3</ele>
        <time>2013-02-20T12:30:37+01:00</time>
      </trkpt>
      <trkpt lat="43.03942603488" lon="-5.39202149166">
        <ele>1768.52</ele>
        <time>2013-02-20T12:30:39+01:00</time>
      </trkpt>
      <trkpt lat="43.03941360891" lon="-5.39205254126">
        <ele>1770.05</ele>
        <time>2013-02-20T12:30:40+01:00</time>
      </trkpt>
      <trkpt lat="43.03940113046" lon="-5.39208265057">
        <ele>1771.36</ele>
        <time>2013-02-20T12:30:41+01:00</time>
      </trkpt>
      <trkpt lat="43.03938799711" lon="-5.39211228973">
        <ele>1772.51</ele>
        <time>2013-02-20T12:30:42+01:00</time>
      </trkpt>
      <trkpt lat="43.03936619163" lon="-5.39216128089">
        <ele>1773.7</ele>
        <time>2013-02-20T12:30:42+01:00</time>
      </trkpt>
      <trkpt lat="43.03934929121" lon="-5.39219729771">
        <ele>1774.97</ele>
        <time>2013-02-20T12:30:43+01:00</time>
      </trkpt>
      <trkpt lat="43.03934043122" lon="-5.39221667769">
        <ele>1776.17</ele>
        <time>2013-02-20T12:30:44+01:00</time>
      </trkpt>
      <trkpt lat="43.03932173104" lon="-5.39225922474">
        <ele>1777.5</ele>
        <time>2013-02-20T12:30:46+01:00</time>
      </trkpt>
      <trkpt lat="43.03930611548" lon="-5.39229701062">
        <ele>1778.76</ele>
        <time>2013-02-20T12:30:48+01:00</time>
      </trkpt>
      <trkpt lat="43.03928356474" lon="-5.39234809349">
        <ele>1780.08</ele>
        <time>2013-02-20T12:30:49+01:00</time>
      </trkpt>
      <trkpt lat="43.03927334887" lon="-5.39236575251">
        <ele>1781.31</ele>
        <time>2013-02-20T12:30:49+01:00</time>
      </trkpt>
      <trkpt lat="43.03924053338" lon="-5.39241629072">
        <ele>1782.65</ele>
        <time>2013-02-20T12:30:52+01:00</time>
      </trkpt>
      <trkpt lat="43.03921700531" lon="-5.39245254989">
        <ele>1784.27</ele>
        <time>2013-02-20T12:30:53+01:00</time>
      </trkpt>
      <trkpt lat="43.03919295426" lon="-5.3924799183">
        <ele>1785.84</ele>
        <time>2013-02-20T12:30:54+01:00</time>
      </trkpt>
      <trkpt lat="43.03916863098" lon="-5.3925061791">
        <ele>1787.4</ele>
        <time>2013-02-20T12:30:55+01:00</time>
      </trkpt>
      <trkpt lat="43.03914643255" lon="-5.3925344312">
        <ele>1788.87</ele>
        <time>2013-02-20T12:30:56+01:00</time>
      </trkpt>
      <trkpt lat="43.03912569844" lon="-5.39256261218">
        <ele>1790.64</ele>
        <time>2013-02-20T12:30:56+01:00</time>
      </trkpt>
      <trkpt lat="43.03910770472" lon="-5.3925930588">
        <ele>1792.51</ele>
        <time>2013-02-20T12:30:57+01:00</time>
      </trkpt>
      <trkpt lat="43.03909139901" lon="-5.39262650666">
        <ele>1794.19</ele>
        <time>2013-02-20T12:30:59+01:00</time>
      </trkpt>
      <trkpt lat="43.03907633615" lon="-5.39265713495">
        <ele>1795.96</ele>
        <time>2013-02-20T12:31:00+01:00</time>
      </trkpt>
      <trkpt lat="43.03906138774" lon="-5.39268445006">
        <ele>1797.79</ele>
        <time>2013-02-20T12:31:01+01:00</time>
      </trkpt>
      <trkpt lat="43.03903797975" lon="-5.3927235748">
        <ele>1799.97</ele>
        <time>2013-02-20T12:31:02+01:00</time>
      </trkpt>
      <trkpt lat="43.03901884775" lon="-5.39274903528">
        <ele>1801.88</ele>
        <time>2013-02-20T12:31:03+01:00</time>
      </trkpt>
      <trkpt lat="43.03899859282" lon="-5.39276639848">
        <ele>1803.68</ele>
        <time>2013-02-20T12:31:03+01:00</time>
      </trkpt>
      <trkpt lat="43.03897925324" lon="-5.39280004597">
        <ele>1805.65</ele>
        <time>2013-02-20T12:31:06+01:00</time>
      </trkpt>
      <trkpt lat="43.03895694514" lon="-5.39284539928">
        <ele>1807.44</ele>
        <time>2013-02-20T12:31:08+01:00</time>
      </trkpt>
      <trkpt lat="43.03893940775" lon="-5.39288001798">
        <ele>1809.26</ele>
        <time>2013-02-20T12:31:09+01:00</time>
      </trkpt>
      <trkpt lat="43.03892262333" lon="-5.39291094749">
        <ele>1810.87</ele>
        <time>2013-02-20T12:31:10+01:00</time>
      </trkpt>
      <trkpt lat="43.03890552013" lon="-5.39294040156">
        <ele>1812.32</ele>
        <time>2013-02-20T12:31:10+01:00</time>
      </trkpt>
      <trkpt lat="43.0388919071" lon="-5.39296929231">
        <ele>1813.9</ele>
        <time>2013-02-20T12:31:12+01:00</time>
      </trkpt>
      <trkpt lat="43.03888213789" lon="-5.39298593752">
        <ele>1815.28</ele>
        <time>2013-02-20T12:31:12+01:00</time>
      </trkpt>
      <trkpt lat="43.0388490427" lon="-5.39303418945">
        <ele>1817.01</ele>
        <time>2013-02-20T12:31:15+01:00</time>
      </trkpt>
      <trkpt lat="43.0388175797" lon="-5.39307535579">
        <ele>1818.96</ele>
        <time>2013-02-20T12:31:16+01:00</time>
      </trkpt>
      <trkpt lat="43.03878892418" lon="-5.3931148368">
        <ele>1820.5</ele>
        <time>2013-02-20T12:31:19+01:00</time>
      </trkpt>
      <trkpt lat="43.0387857938" lon="-5.39312011536">
        <ele>1821.97</ele>
        <time>2013-02-20T12:31:20+01:00</time>
      </trkpt>
      <trkpt lat="43.03876347189" lon="-5.39316591328">
        <ele>1821.49</ele>
        <time>2013-02-20T12:31:23+01:00</time>
      </trkpt>
      <trkpt lat="43.03874770089" lon="-5.39321194629">
        <ele>1824.53</ele>
        <time>2013-02-20T12:31:25+01:00</time>
      </trkpt>
      <trkpt lat="43.0387292961" lon="-5.39325704912">
        <ele>1826.07</ele>
        <time>2013-02-20T12:31:26+01:00</time>
      </trkpt>
      <trkpt lat="43.03870456623" lon="-5.39330835046">
        <ele>1827.22</ele>
        <time>2013-02-20T12:31:29+01:00</time>
      </trkpt>
      <trkpt lat="43.03868293929" lon="-5.39335160312">
        <ele>1828.42</ele>
        <time>2013-02-20T12:31:30+01:00</time>
      </trkpt>
      <trkpt lat="43.0386496786" lon="-5.39341208857">
        <ele>1829.8</ele>
        <time>2013-02-20T12:31:30+01:00</time>
      </trkpt>
      <trkpt lat="43.03863609137" lon="-5.3934365807">
        <ele>1831.02</ele>
        <time>2013-02-20T12:31:32+01:00</time>
      </trkpt>
      <trkpt lat="43.03861942806" lon="-5.393463998">
        <ele>1832.2</ele>
        <time>2013-02-20T12:31:33+01:00</time>
      </trkpt>
      <trkpt lat="43.03861582132" lon="-5.39346886874">
        <ele>1833.25</ele>
        <time>2013-02-20T12:31:33+01:00</time>
      </trkpt>
      <trkpt lat="43.03861091983" lon="-5.39347660516">
        <ele>1832.9</ele>
        <time>2013-02-20T12:31:34+01:00</time>
      </trkpt>
      <trkpt lat="43.03854713061" lon="-5.39356201286">
        <ele>1835.47</ele>
        <time>2013-02-20T12:31:36+01:00</time>
      </trkpt>
      <trkpt lat="43.03852937109" lon="-5.3935844654">
        <ele>1835.19</ele>
        <time>2013-02-20T12:31:37+01:00</time>
      </trkpt>
      <trkpt lat="43.03851208847" lon="-5.39360658814">
        <ele>1835.81</ele>
        <time>2013-02-20T12:31:39+01:00</time>
      </trkpt>
      <trkpt lat="43.03848993134" lon="-5.39363701171">
        <ele>1836.35</ele>
        <time>2013-02-20T12:31:41+01:00</time>
      </trkpt>
      <trkpt lat="43.03847225202" lon="-5.3936654669">
        <ele>1837.14</ele>
        <time>2013-02-20T12:31:42+01:00</time>
      </trkpt>
      <trkpt lat="43.03845595247" lon="-5.39369348273">
        <ele>1837.62</ele>
        <time>2013-02-20T12:31:42+01:00</time>
      </trkpt>
      <trkpt lat="43.03845279701" lon="-5.39369866477">
        <ele>1838.22</ele>
        <time>2013-02-20T12:31:44+01:00</time>
      </trkpt>
      <trkpt lat="43.03843101181" lon="-5.39373837059">
        <ele>1838.86</ele>
        <time>2013-02-20T12:31:45+01:00</time>
      </trkpt>
      <trkpt lat="43.03842726169" lon="-5.3937459873">
        <ele>1839.47</ele>
        <time>2013-02-20T12:31:46+01:00</time>
      </trkpt>
      <trkpt lat="43.03842475061" lon="-5.39375094451">
        <ele>1840.04</ele>
        <time>2013-02-20T12:31:46+01:00</time>
      </trkpt>
      <trkpt lat="43.03841692854" lon="-5.39376615512">
        <ele>1840.46</ele>
        <time>2013-02-20T12:31:48+01:00</time>
      </trkpt>
      <trkpt lat="43.03841254109" lon="-5.39377451702">
        <ele>1840.99</ele>
        <time>2013-02-20T12:31:49+01:00</time>
      </trkpt>
      <trkpt lat="43.03840253693" lon="-5.39379383282">
        <ele>1841.6</ele>
        <time>2013-02-20T12:31:50+01:00</time>
      </trkpt>
      <trkpt lat="43.03839178974" lon="-5.39381452789">
        <ele>1842.15</ele>
        <time>2013-02-20T12:31:51+01:00</time>
      </trkpt>
      <trkpt lat="43.03838041994" lon="-5.39383680797">
        <ele>1842.67</ele>
        <time>2013-02-20T12:31:52+01:00</time>
      </trkpt>
      <trkpt lat="43.03836849817" lon="-5.39386047264">
        <ele>1843.25</ele>
        <time>2013-02-20T12:31:53+01:00</time>
      </trkpt>
      <trkpt lat="43.03830619587" lon="-5.39398691258">
        <ele>1843.85</ele>
        <time>2013-02-20T12:31:54+01:00</time>
      </trkpt>
      <trkpt lat="43.03826812965" lon="-5.39406702209">
        <ele>1844.42</ele>
        <time>2013-02-20T12:31:55+01:00</time>
      </trkpt>
      <trkpt lat="43.0382434178" lon="-5.39412212236">
        <ele>1845.01</ele>
        <time>2013-02-20T12:31:56+01:00</time>
      </trkpt>
      <trkpt lat="43.03822481736" lon="-5.394163796">
        <ele>1847.53</ele>
        <time>2013-02-20T12:31:57+01:00</time>
      </trkpt>
      <trkpt lat="43.03820816202" lon="-5.39420160618">
        <ele>1848.68</ele>
        <time>2013-02-20T12:31:58+01:00</time>
      </trkpt>
      <trkpt lat="43.03818427655" lon="-5.39425317788">
        <ele>1849.77</ele>
        <time>2013-02-20T12:31:59+01:00</time>
      </trkpt>
      <trkpt lat="43.03817458534" lon="-5.39427425076">
        <ele>1851.04</ele>
        <time>2013-02-20T12:32:00+01:00</time>
      </trkpt>
      <trkpt lat="43.03815555337" lon="-5.39431303422">
        <ele>1850.75</ele>
        <time>2013-02-20T12:32:02+01:00</time>
      </trkpt>
      <trkpt lat="43.03813838889" lon="-5.39434722">
        <ele>1853.11</ele>
        <time>2013-02-20T12:32:03+01:00</time>
      </trkpt>
      <trkpt lat="43.03811748526" lon="-5.39438799177">
        <ele>1854.38</ele>
        <time>2013-02-20T12:32:05+01:00</time>
      </trkpt>
      <trkpt lat="43.03808845772" lon="-5.39444414557">
        <ele>1855.47</ele>
        <time>2013-02-20T12:32:06+01:00</time>
      </trkpt>
      <trkpt lat="43.03807131988" lon="-5.39447797394">
        <ele>1856.49</ele>
        <time>2013-02-20T12:32:07+01:00</time>
      </trkpt>
      <trkpt lat="43.0380482116" lon="-5.39452410104">
        <ele>1857.79</ele>
        <time>2013-02-20T12:32:09+01:00</time>
      </trkpt>
      <trkpt lat="43.03803225761" lon="-5.39455806983">
        <ele>1858.95</ele>
        <time>2013-02-20T12:32:10+01:00</time>
      </trkpt>
      <trkpt lat="43.03801756684" lon="-5.39458893642">
        <ele>1860.01</ele>
        <time>2013-02-20T12:32:11+01:00</time>
      </trkpt>
      <trkpt lat="43.03800473804" lon="-5.39461690268">
        <ele>1861.08</ele>
        <time>2013-02-20T12:32:12+01:00</time>
      </trkpt>
      <trkpt lat="43.03799221458" lon="-5.39464435594">
        <ele>1862.27</ele>
        <time>2013-02-20T12:32:13+01:00</time>
      </trkpt>
      <trkpt lat="43.03797888047" lon="-5.39467351709">
        <ele>1863.32</ele>
        <time>2013-02-20T12:32:14+01:00</time>
      </trkpt>
      <trkpt lat="43.03796582009" lon="-5.3947003376">
        <ele>1864.33</ele>
        <time>2013-02-20T12:32:15+01:00</time>
      </trkpt>
      <trkpt lat="43.03795301562" lon="-5.39472870165">
        <ele>1865.44</ele>
        <time>2013-02-20T12:32:16+01:00</time>
      </trkpt>
      <trkpt lat="43.03794063113" lon="-5.39475784378">
        <ele>1866.68</ele>
        <time>2013-02-20T12:32:17+01:00</time>
      </trkpt>
      <trkpt lat="43.03792789479" lon="-5.39478526399">
        <ele>1867.8</ele>
        <time>2013-02-20T12:32:18+01:00</time>
      </trkpt>
      <trkpt lat="43.03791458515" lon="-5.39481354681">
        <ele>1868.7</ele>
        <time>2013-02-20T12:32:20+01:00</time>
      </trkpt>
      <trkpt lat="43.0378992799" lon="-5.39484055149">
        <ele>1869.72</ele>
        <time>2013-02-20T12:32:21+01:00</time>
      </trkpt>
      <trkpt lat="43.03786584625" lon="-5.39489896856">
        <ele>1870.89</ele>
        <time>2013-02-20T12:32:23+01:00</time>
      </trkpt>
      <trkpt lat="43.03784920182" lon="-5.39493257903">
        <ele>1872.02</ele>
        <time>2013-02-20T12:32:24+01:00</time>
      </trkpt>
      <trkpt lat="43.03783621698" lon="-5.394964648">
        <ele>1875.02</ele>
        <time>2013-02-20T12:32:25+01:00</time>
      </trkpt>
      <trkpt lat="43.03782148948" lon="-5.39499675777">
        <ele>1876.42</ele>
        <time>2013-02-20T12:32:26+01:00</time>
      </trkpt>
      <trkpt lat="43.0378083617" lon="-5.39502561737">
        <ele>1878.13</ele>
        <time>2013-02-20T12:32:27+01:00</time>
      </trkpt>
      <trkpt lat="43.03778585108" lon="-5.39507361473">
        <ele>1879.77</ele>
        <time>2013-02-20T12:32:29+01:00</time>
      </trkpt>
      <trkpt lat="43.03776195661" lon="-5.39511308516">
        <ele>1881.99</ele>
        <time>2013-02-20T12:32:32+01:00</time>
      </trkpt>
      <trkpt lat="43.03773670267" lon="-5.39515727058">
        <ele>1883.33</ele>
        <time>2013-02-20T12:32:34+01:00</time>
      </trkpt>
      <trkpt lat="43.03771514597" lon="-5.39519532928">
        <ele>1885.03</ele>
        <time>2013-02-20T12:32:36+01:00</time>
      </trkpt>
      <trkpt lat="43.03769360144" lon="-5.39523700508">
        <ele>1885.03</ele>
        <time>2013-02-20T12:32:37+01:00</time>
      </trkpt>
      <trkpt lat="43.03768141586" lon="-5.39526082238">
        <ele>1886.1</ele>
        <time>2013-02-20T12:32:40+01:00</time>
      </trkpt>
      <trkpt lat="43.03765195317" lon="-5.39531635426">
        <ele>1887.41</ele>
        <time>2013-02-20T12:32:42+01:00</time>
      </trkpt>
      <trkpt lat="43.03763389011" lon="-5.39534730898">
        <ele>1888.4</ele>
        <time>2013-02-20T12:32:43+01:00</time>
      </trkpt>
      <trkpt lat="43.03761887811" lon="-5.3953724095">
        <ele>1889.33</ele>
        <time>2013-02-20T12:32:44+01:00</time>
      </trkpt>
      <trkpt lat="43.03759247343" lon="-5.39541585225">
        <ele>1890.52</ele>
        <time>2013-02-20T12:32:46+01:00</time>
      </trkpt>
      <trkpt lat="43.03757391556" lon="-5.39544519381">
        <ele>1891.76</ele>
        <time>2013-02-20T12:32:46+01:00</time>
      </trkpt>
      <trkpt lat="43.03755608887" lon="-5.39547017286">
        <ele>1892.86</ele>
        <time>2013-02-20T12:32:48+01:00</time>
      </trkpt>
      <trkpt lat="43.03753844193" lon="-5.39549702867">
        <ele>1893.92</ele>
        <time>2013-02-20T12:32:49+01:00</time>
      </trkpt>
      <trkpt lat="43.03752116622" lon="-5.39552325401">
        <ele>1894.96</ele>
        <time>2013-02-20T12:32:50+01:00</time>
      </trkpt>
      <trkpt lat="43.03751087631" lon="-5.39554543337">
        <ele>1895.94</ele>
        <time>2013-02-20T12:32:50+01:00</time>
      </trkpt>
      <trkpt lat="43.03749369251" lon="-5.39558456747">
        <ele>1896.56</ele>
        <time>2013-02-20T12:32:52+01:00</time>
      </trkpt>
      <trkpt lat="43.03748043216" lon="-5.39563155455">
        <ele>1897.28</ele>
        <time>2013-02-20T12:32:54+01:00</time>
      </trkpt>
      <trkpt lat="43.03746493901" lon="-5.39566951749">
        <ele>1898.1</ele>
        <time>2013-02-20T12:32:55+01:00</time>
      </trkpt>
      <trkpt lat="43.03744651827" lon="-5.39570346278">
        <ele>1900.85</ele>
        <time>2013-02-20T12:32:57+01:00</time>
      </trkpt>
      <trkpt lat="43.03742238276" lon="-5.39574421737">
        <ele>1901.96</ele>
        <time>2013-02-20T12:33:00+01:00</time>
      </trkpt>
      <trkpt lat="43.03739458461" lon="-5.39579596909">
        <ele>1903.62</ele>
        <time>2013-02-20T12:33:02+01:00</time>
      </trkpt>
      <trkpt lat="43.0373755481" lon="-5.39582913144">
        <ele>1905.1</ele>
        <time>2013-02-20T12:33:03+01:00</time>
      </trkpt>
      <trkpt lat="43.03735776493" lon="-5.39586171728">
        <ele>1906.75</ele>
        <time>2013-02-20T12:33:03+01:00</time>
      </trkpt>
      <trkpt lat="43.03733867379" lon="-5.39589764014">
        <ele>1908.19</ele>
        <time>2013-02-20T12:33:05+01:00</time>
      </trkpt>
      <trkpt lat="43.0373211853" lon="-5.39593094108">
        <ele>1909.79</ele>
        <time>2013-02-20T12:33:06+01:00</time>
      </trkpt>
      <trkpt lat="43.03730223137" lon="-5.39596730673">
        <ele>1909.76</ele>
        <time>2013-02-20T12:33:06+01:00</time>
      </trkpt>
      <trkpt lat="43.03728667239" lon="-5.39600254189">
        <ele>1910.67</ele>
        <time>2013-02-20T12:33:08+01:00</time>
      </trkpt>
      <trkpt lat="43.03726786967" lon="-5.39603694746">
        <ele>1911.82</ele>
        <time>2013-02-20T12:33:09+01:00</time>
      </trkpt>
      <trkpt lat="43.03725110042" lon="-5.39606642618">
        <ele>1914.22</ele>
        <time>2013-02-20T12:33:10+01:00</time>
      </trkpt>
      <trkpt lat="43.03723554251" lon="-5.39609371254">
        <ele>1913.6</ele>
        <time>2013-02-20T12:33:10+01:00</time>
      </trkpt>
      <trkpt lat="43.03721006802" lon="-5.39613719013">
        <ele>1914.38</ele>
        <time>2013-02-20T12:33:13+01:00</time>
      </trkpt>
      <trkpt lat="43.03719283612" lon="-5.39617062902">
        <ele>1915.45</ele>
        <time>2013-02-20T12:33:14+01:00</time>
      </trkpt>
      <trkpt lat="43.03717428642" lon="-5.39620885568">
        <ele>1918.07</ele>
        <time>2013-02-20T12:33:15+01:00</time>
      </trkpt>
      <trkpt lat="43.0371587236" lon="-5.39624135558">
        <ele>1919.14</ele>
        <time>2013-02-20T12:33:16+01:00</time>
      </trkpt>
      <trkpt lat="43.03714058716" lon="-5.39627997446">
        <ele>1920.31</ele>
        <time>2013-02-20T12:33:16+01:00</time>
      </trkpt>
      <trkpt lat="43.03712462906" lon="-5.39631272877">
        <ele>1921.75</ele>
        <time>2013-02-20T12:33:17+01:00</time>
      </trkpt>
      <trkpt lat="43.03710707829" lon="-5.39634142651">
        <ele>1923.07</ele>
        <time>2013-02-20T12:33:19+01:00</time>
      </trkpt>
      <trkpt lat="43.03708855325" lon="-5.39636590448">
        <ele>1924.19</ele>
        <time>2013-02-20T12:33:19+01:00</time>
      </trkpt>
      <trkpt lat="43.03705952859" lon="-5.39641003584">
        <ele>1925.75</ele>
        <time>2013-02-20T12:33:21+01:00</time>
      </trkpt>
      <trkpt lat="43.03704558276" lon="-5.3964342093">
        <ele>1926.97</ele>
        <time>2013-02-20T12:33:22+01:00</time>
      </trkpt>
      <trkpt lat="43.03702852679" lon="-5.39646386365">
        <ele>1928.31</ele>
        <time>2013-02-20T12:33:23+01:00</time>
      </trkpt>
      <trkpt lat="43.03701248814" lon="-5.39649413732">
        <ele>1929.71</ele>
        <time>2013-02-20T12:33:24+01:00</time>
      </trkpt>
      <trkpt lat="43.03699734331" lon="-5.39652424662">
        <ele>1931.04</ele>
        <time>2013-02-20T12:33:26+01:00</time>
      </trkpt>
      <trkpt lat="43.03697524351" lon="-5.39655468387">
        <ele>1932.02</ele>
        <time>2013-02-20T12:33:27+01:00</time>
      </trkpt>
      <trkpt lat="43.03695751309" lon="-5.39658665463">
        <ele>1933.48</ele>
        <time>2013-02-20T12:33:28+01:00</time>
      </trkpt>
      <trkpt lat="43.0369268767" lon="-5.39662952683">
        <ele>1934.83</ele>
        <time>2013-02-20T12:33:30+01:00</time>
      </trkpt>
      <trkpt lat="43.03689590546" lon="-5.39667692624">
        <ele>1935.97</ele>
        <time>2013-02-20T12:33:32+01:00</time>
      </trkpt>
      <trkpt lat="43.03687619958" lon="-5.39670766263">
        <ele>1937.12</ele>
        <time>2013-02-20T12:33:34+01:00</time>
      </trkpt>
      <trkpt lat="43.03685824386" lon="-5.39673996145">
        <ele>1938.15</ele>
        <time>2013-02-20T12:33:34+01:00</time>
      </trkpt>
      <trkpt lat="43.03684204634" lon="-5.39676908588">
        <ele>1939.28</ele>
        <time>2013-02-20T12:33:35+01:00</time>
      </trkpt>
      <trkpt lat="43.03682388704" lon="-5.39681045003">
        <ele>1940.57</ele>
        <time>2013-02-20T12:33:36+01:00</time>
      </trkpt>
      <trkpt lat="43.03680858758" lon="-5.39684735544">
        <ele>1941.49</ele>
        <time>2013-02-20T12:33:37+01:00</time>
      </trkpt>
      <trkpt lat="43.0367894009" lon="-5.39688719126">
        <ele>1943.28</ele>
        <time>2013-02-20T12:33:39+01:00</time>
      </trkpt>
      <trkpt lat="43.03677933312" lon="-5.39690641997">
        <ele>1944.63</ele>
        <time>2013-02-20T12:33:41+01:00</time>
      </trkpt>
      <trkpt lat="43.03676671915" lon="-5.39695707399">
        <ele>1944.79</ele>
        <time>2013-02-20T12:33:45+01:00</time>
      </trkpt>
      <trkpt lat="43.03676278819" lon="-5.39699650792">
        <ele>1945.48</ele>
        <time>2013-02-20T12:33:47+01:00</time>
      </trkpt>
      <trkpt lat="43.03676505302" lon="-5.39702940631">
        <ele>1946.31</ele>
        <time>2013-02-20T12:33:50+01:00</time>
      </trkpt>
      <trkpt lat="43.03679484264" lon="-5.39704691599">
        <ele>1946.82</ele>
        <time>2013-02-20T12:33:51+01:00</time>
      </trkpt>
      <trkpt lat="43.03682128594" lon="-5.39705732461">
        <ele>1947.77</ele>
        <time>2013-02-20T12:33:55+01:00</time>
      </trkpt>
      <trkpt lat="43.03684398272" lon="-5.39708523974">
        <ele>1949.36</ele>
        <time>2013-02-20T12:33:59+01:00</time>
      </trkpt>
      <trkpt lat="43.03687288171" lon="-5.39709844158">
        <ele>1950.31</ele>
        <time>2013-02-20T12:34:01+01:00</time>
      </trkpt>
      <trkpt lat="43.03691269808" lon="-5.39710790897">
        <ele>1951.03</ele>
        <time>2013-02-20T12:34:03+01:00</time>
      </trkpt>
      <trkpt lat="43.03691117281" lon="-5.39713661657">
        <ele>1951.86</ele>
        <time>2013-02-20T12:34:07+01:00</time>
      </trkpt>
      <trkpt lat="43.03689249646" lon="-5.39713822959">
        <ele>1953.23</ele>
        <time>2013-02-20T12:34:33+01:00</time>
      </trkpt>
      <trkpt lat="43.03688599345" lon="-5.39710773873">
        <ele>1954.47</ele>
        <time>2013-02-20T12:34:46+01:00</time>
      </trkpt>
      <trkpt lat="43.0368664723" lon="-5.39709497015">
        <ele>1954.45</ele>
        <time>2013-02-20T12:34:59+01:00</time>
      </trkpt>
      <trkpt lat="43.03687403451" lon="-5.39706706955">
        <ele>1955.25</ele>
        <time>2013-02-20T12:35:04+01:00</time>
      </trkpt>
      <trkpt lat="43.03685683855" lon="-5.39705766729">
        <ele>1955.93</ele>
        <time>2013-02-20T12:35:06+01:00</time>
      </trkpt>
      <trkpt lat="43.03682436444" lon="-5.39707248359">
        <ele>1956.37</ele>
        <time>2013-02-20T12:35:09+01:00</time>
      </trkpt>
      <trkpt lat="43.03679463499" lon="-5.39708872378">
        <ele>1956.03</ele>
        <time>2013-02-20T12:35:10+01:00</time>
      </trkpt>
      <trkpt lat="43.03676800256" lon="-5.39710249949">
        <ele>1956.13</ele>
        <time>2013-02-20T12:35:10+01:00</time>
      </trkpt>
      <trkpt lat="43.03675335793" lon="-5.39710564638">
        <ele>1956.14</ele>
        <time>2013-02-20T12:35:11+01:00</time>
      </trkpt>
      <trkpt lat="43.03688212293" lon="-5.39695112055">
        <ele>1956.53</ele>
        <time>2013-02-20T12:35:13+01:00</time>
      </trkpt>
      <trkpt lat="43.03691464851" lon="-5.39685443421">
        <ele>1956.53</ele>
        <time>2013-02-20T12:35:14+01:00</time>
      </trkpt>
      <trkpt lat="43.03691438105" lon="-5.3967698522">
        <ele>1956.36</ele>
        <time>2013-02-20T12:35:15+01:00</time>
      </trkpt>
      <trkpt lat="43.0369158363" lon="-5.39668004677">
        <ele>1955.92</ele>
        <time>2013-02-20T12:35:16+01:00</time>
      </trkpt>
      <trkpt lat="43.03693624392" lon="-5.39659623746">
        <ele>1955.55</ele>
        <time>2013-02-20T12:35:16+01:00</time>
      </trkpt>
      <trkpt lat="43.03694675768" lon="-5.39653970273">
        <ele>1955.16</ele>
        <time>2013-02-20T12:35:17+01:00</time>
      </trkpt>
      <trkpt lat="43.03698736523" lon="-5.39647459691">
        <ele>1954.99</ele>
        <time>2013-02-20T12:35:19+01:00</time>
      </trkpt>
      <trkpt lat="43.03704532471" lon="-5.3963817362">
        <ele>1954.56</ele>
        <time>2013-02-20T12:35:20+01:00</time>
      </trkpt>
      <trkpt lat="43.03709182263" lon="-5.39627835082">
        <ele>1954.21</ele>
        <time>2013-02-20T12:35:21+01:00</time>
      </trkpt>
      <trkpt lat="43.03714629418" lon="-5.39617930037">
        <ele>1953.74</ele>
        <time>2013-02-20T12:35:22+01:00</time>
      </trkpt>
      <trkpt lat="43.03726205636" lon="-5.39601329055">
        <ele>1952.91</ele>
        <time>2013-02-20T12:35:23+01:00</time>
      </trkpt>
      <trkpt lat="43.03735782961" lon="-5.39591296631">
        <ele>1952.01</ele>
        <time>2013-02-20T12:35:23+01:00</time>
      </trkpt>
      <trkpt lat="43.03743532231" lon="-5.39583349053">
        <ele>1951.31</ele>
        <time>2013-02-20T12:35:25+01:00</time>
      </trkpt>
      <trkpt lat="43.0374451931" lon="-5.3958235995">
        <ele>1950.59</ele>
        <time>2013-02-20T12:35:25+01:00</time>
      </trkpt>
      <trkpt lat="43.03746224916" lon="-5.39580100993">
        <ele>1949.88</ele>
        <time>2013-02-20T12:35:26+01:00</time>
      </trkpt>
      <trkpt lat="43.03747257726" lon="-5.39578283152">
        <ele>1949.16</ele>
        <time>2013-02-20T12:35:28+01:00</time>
      </trkpt>
      <trkpt lat="43.03748536873" lon="-5.39575649281">
        <ele>1948.29</ele>
        <time>2013-02-20T12:35:28+01:00</time>
      </trkpt>
      <trkpt lat="43.03750140563" lon="-5.39572279996">
        <ele>1947.52</ele>
        <time>2013-02-20T12:35:29+01:00</time>
      </trkpt>
      <trkpt lat="43.03753804063" lon="-5.39564126537">
        <ele>1946.48</ele>
        <time>2013-02-20T12:35:30+01:00</time>
      </trkpt>
      <trkpt lat="43.03757981313" lon="-5.39555370206">
        <ele>1945.59</ele>
        <time>2013-02-20T12:35:31+01:00</time>
      </trkpt>
      <trkpt lat="43.03763621319" lon="-5.39546280837">
        <ele>1944.12</ele>
        <time>2013-02-20T12:35:32+01:00</time>
      </trkpt>
      <trkpt lat="43.0376959293" lon="-5.39536813783">
        <ele>1942.59</ele>
        <time>2013-02-20T12:35:33+01:00</time>
      </trkpt>
      <trkpt lat="43.03801483844" lon="-5.39486731192">
        <ele>1941.19</ele>
        <time>2013-02-20T12:35:34+01:00</time>
      </trkpt>
      <trkpt lat="43.03818894038" lon="-5.39453722897">
        <ele>1939.65</ele>
        <time>2013-02-20T12:35:35+01:00</time>
      </trkpt>
      <trkpt lat="43.03831557489" lon="-5.39430626383">
        <ele>1937.85</ele>
        <time>2013-02-20T12:35:36+01:00</time>
      </trkpt>
      <trkpt lat="43.03842947693" lon="-5.39413625698">
        <ele>1936.06</ele>
        <time>2013-02-20T12:35:37+01:00</time>
      </trkpt>
      <trkpt lat="43.03854832831" lon="-5.39400012394">
        <ele>1934.14</ele>
        <time>2013-02-20T12:35:38+01:00</time>
      </trkpt>
      <trkpt lat="43.03872400979" lon="-5.39384568702">
        <ele>1932.15</ele>
        <time>2013-02-20T12:35:39+01:00</time>
      </trkpt>
      <trkpt lat="43.03880289962" lon="-5.39377771809">
        <ele>1930.16</ele>
        <time>2013-02-20T12:35:40+01:00</time>
      </trkpt>
      <trkpt lat="43.03883695014" lon="-5.39373113314">
        <ele>1927.94</ele>
        <time>2013-02-20T12:35:42+01:00</time>
      </trkpt>
      <trkpt lat="43.03884352555" lon="-5.39368962964">
        <ele>1925.85</ele>
        <time>2013-02-20T12:35:43+01:00</time>
      </trkpt>
      <trkpt lat="43.03884671536" lon="-5.39366436704">
        <ele>1923.84</ele>
        <time>2013-02-20T12:35:43+01:00</time>
      </trkpt>
      <trkpt lat="43.03886265402" lon="-5.39366559587">
        <ele>1924.46</ele>
        <time>2013-02-20T12:35:55+01:00</time>
      </trkpt>
      <trkpt lat="43.03888443775" lon="-5.39366350832">
        <ele>1923.45</ele>
        <time>2013-02-20T12:35:56+01:00</time>
      </trkpt>
      <trkpt lat="43.03890047661" lon="-5.39366452966">
        <ele>1922.24</ele>
        <time>2013-02-20T12:35:56+01:00</time>
      </trkpt>
      <trkpt lat="43.03890960726" lon="-5.39366328773">
        <ele>1921.3</ele>
        <time>2013-02-20T12:35:57+01:00</time>
      </trkpt>
      <trkpt lat="43.03892151565" lon="-5.39366236138">
        <ele>1920.7</ele>
        <time>2013-02-20T12:35:59+01:00</time>
      </trkpt>
      <trkpt lat="43.03896058176" lon="-5.39366033019">
        <ele>1919.78</ele>
        <time>2013-02-20T12:36:01+01:00</time>
      </trkpt>
      <trkpt lat="43.03898078537" lon="-5.39361975202">
        <ele>1918.7</ele>
        <time>2013-02-20T12:36:05+01:00</time>
      </trkpt>
      <trkpt lat="43.03899216541" lon="-5.39356308547">
        <ele>1917.76</ele>
        <time>2013-02-20T12:36:06+01:00</time>
      </trkpt>
      <trkpt lat="43.03903124314" lon="-5.39348388934">
        <ele>1913.38</ele>
        <time>2013-02-20T12:36:07+01:00</time>
      </trkpt>
      <trkpt lat="43.03907339096" lon="-5.39344484901">
        <ele>1911.25</ele>
        <time>2013-02-20T12:36:08+01:00</time>
      </trkpt>
      <trkpt lat="43.03909332049" lon="-5.39337541719">
        <ele>1909.1</ele>
        <time>2013-02-20T12:36:09+01:00</time>
      </trkpt>
      <trkpt lat="43.03910884554" lon="-5.39332801382">
        <ele>1906.87</ele>
        <time>2013-02-20T12:36:10+01:00</time>
      </trkpt>
      <trkpt lat="43.03919056716" lon="-5.39325005915">
        <ele>1904.03</ele>
        <time>2013-02-20T12:36:12+01:00</time>
      </trkpt>
      <trkpt lat="43.03925482244" lon="-5.3931925587">
        <ele>1901.61</ele>
        <time>2013-02-20T12:36:12+01:00</time>
      </trkpt>
      <trkpt lat="43.03928988599" lon="-5.39315201117">
        <ele>1899.42</ele>
        <time>2013-02-20T12:36:13+01:00</time>
      </trkpt>
      <trkpt lat="43.03931716172" lon="-5.3930788476">
        <ele>1897.23</ele>
        <time>2013-02-20T12:36:15+01:00</time>
      </trkpt>
      <trkpt lat="43.03932279363" lon="-5.39305890809">
        <ele>1895.02</ele>
        <time>2013-02-20T12:36:16+01:00</time>
      </trkpt>
      <trkpt lat="43.03934616744" lon="-5.39290116118">
        <ele>1892.72</ele>
        <time>2013-02-20T12:36:16+01:00</time>
      </trkpt>
      <trkpt lat="43.03937954253" lon="-5.39277727691">
        <ele>1890.59</ele>
        <time>2013-02-20T12:36:17+01:00</time>
      </trkpt>
      <trkpt lat="43.03944270772" lon="-5.39269190735">
        <ele>1888.07</ele>
        <time>2013-02-20T12:36:19+01:00</time>
      </trkpt>
      <trkpt lat="43.03951502637" lon="-5.39263509907">
        <ele>1885.57</ele>
        <time>2013-02-20T12:36:20+01:00</time>
      </trkpt>
      <trkpt lat="43.03956807523" lon="-5.39259596609">
        <ele>1882.98</ele>
        <time>2013-02-20T12:36:21+01:00</time>
      </trkpt>
      <trkpt lat="43.03960926799" lon="-5.3925565764">
        <ele>1880.46</ele>
        <time>2013-02-20T12:36:21+01:00</time>
      </trkpt>
      <trkpt lat="43.0396154995" lon="-5.39254984625">
        <ele>1878.13</ele>
        <time>2013-02-20T12:36:22+01:00</time>
      </trkpt>
      <trkpt lat="43.03962395352" lon="-5.39253349615">
        <ele>1875.79</ele>
        <time>2013-02-20T12:36:23+01:00</time>
      </trkpt>
      <trkpt lat="43.03966930982" lon="-5.39238360344">
        <ele>1873.23</ele>
        <time>2013-02-20T12:36:25+01:00</time>
      </trkpt>
      <trkpt lat="43.03969768767" lon="-5.39224805593">
        <ele>1870.97</ele>
        <time>2013-02-20T12:36:26+01:00</time>
      </trkpt>
      <trkpt lat="43.03970591502" lon="-5.39222176069">
        <ele>1868.53</ele>
        <time>2013-02-20T12:36:26+01:00</time>
      </trkpt>
      <trkpt lat="43.03971132933" lon="-5.39220413174">
        <ele>1866.31</ele>
        <time>2013-02-20T12:36:27+01:00</time>
      </trkpt>
      <trkpt lat="43.03972081475" lon="-5.39218074159">
        <ele>1863.99</ele>
        <time>2013-02-20T12:36:28+01:00</time>
      </trkpt>
      <trkpt lat="43.03975828874" lon="-5.39211211453">
        <ele>1863.82</ele>
        <time>2013-02-20T12:36:33+01:00</time>
      </trkpt>
      <trkpt lat="43.0397943228" lon="-5.39203892249">
        <ele>1862.2</ele>
        <time>2013-02-20T12:36:34+01:00</time>
      </trkpt>
      <trkpt lat="43.04015732873" lon="-5.39125533668">
        <ele>1860.45</ele>
        <time>2013-02-20T12:36:35+01:00</time>
      </trkpt>
      <trkpt lat="43.04038101362" lon="-5.39078546635">
        <ele>1858.81</ele>
        <time>2013-02-20T12:36:36+01:00</time>
      </trkpt>
      <trkpt lat="43.04053616955" lon="-5.3904603">
        <ele>1857.32</ele>
        <time>2013-02-20T12:36:37+01:00</time>
      </trkpt>
      <trkpt lat="43.04064855337" lon="-5.39020174403">
        <ele>1855.58</ele>
        <time>2013-02-20T12:36:38+01:00</time>
      </trkpt>
      <trkpt lat="43.04074235907" lon="-5.38998018129">
        <ele>1853.76</ele>
        <time>2013-02-20T12:36:39+01:00</time>
      </trkpt>
      <trkpt lat="43.04083863133" lon="-5.38977879155">
        <ele>1851.91</ele>
        <time>2013-02-20T12:36:40+01:00</time>
      </trkpt>
      <trkpt lat="43.04094104028" lon="-5.38959976779">
        <ele>1850.09</ele>
        <time>2013-02-20T12:36:41+01:00</time>
      </trkpt>
      <trkpt lat="43.04104622421" lon="-5.38941994091">
        <ele>1841.98</ele>
        <time>2013-02-20T12:36:42+01:00</time>
      </trkpt>
      <trkpt lat="43.04117452572" lon="-5.38914030309">
        <ele>1837.72</ele>
        <time>2013-02-20T12:36:44+01:00</time>
      </trkpt>
      <trkpt lat="43.04126354977" lon="-5.3889027931">
        <ele>1833.72</ele>
        <time>2013-02-20T12:36:45+01:00</time>
      </trkpt>
      <trkpt lat="43.04133829951" lon="-5.38869259154">
        <ele>1829.6</ele>
        <time>2013-02-20T12:36:46+01:00</time>
      </trkpt>
      <trkpt lat="43.04148798684" lon="-5.3884155326">
        <ele>1824.7</ele>
        <time>2013-02-20T12:36:48+01:00</time>
      </trkpt>
      <trkpt lat="43.04155539661" lon="-5.38830596602">
        <ele>1820.56</ele>
        <time>2013-02-20T12:36:48+01:00</time>
      </trkpt>
      <trkpt lat="43.04162355112" lon="-5.38817960128">
        <ele>1816.65</ele>
        <time>2013-02-20T12:36:50+01:00</time>
      </trkpt>
      <trkpt lat="43.04163861436" lon="-5.38814882637">
        <ele>1812.75</ele>
        <time>2013-02-20T12:36:51+01:00</time>
      </trkpt>
      <trkpt lat="43.04165611916" lon="-5.3881094781">
        <ele>1808.83</ele>
        <time>2013-02-20T12:36:51+01:00</time>
      </trkpt>
      <trkpt lat="43.04167483228" lon="-5.38806582525">
        <ele>1805.16</ele>
        <time>2013-02-20T12:36:52+01:00</time>
      </trkpt>
      <trkpt lat="43.04170015239" lon="-5.38802098886">
        <ele>1801.49</ele>
        <time>2013-02-20T12:36:53+01:00</time>
      </trkpt>
      <trkpt lat="43.04173090749" lon="-5.38797226259">
        <ele>1797.86</ele>
        <time>2013-02-20T12:36:54+01:00</time>
      </trkpt>
      <trkpt lat="43.04176244695" lon="-5.38791886196">
        <ele>1794.43</ele>
        <time>2013-02-20T12:36:55+01:00</time>
      </trkpt>
      <trkpt lat="43.04178035288" lon="-5.387891349">
        <ele>1795.61</ele>
        <time>2013-02-20T12:36:56+01:00</time>
      </trkpt>
      <trkpt lat="43.0418302453" lon="-5.38782654342">
        <ele>1793.49</ele>
        <time>2013-02-20T12:37:03+01:00</time>
      </trkpt>
      <trkpt lat="43.04187764628" lon="-5.38776616484">
        <ele>1791.49</ele>
        <time>2013-02-20T12:37:05+01:00</time>
      </trkpt>
      <trkpt lat="43.04192224338" lon="-5.38770871442">
        <ele>1789.83</ele>
        <time>2013-02-20T12:37:07+01:00</time>
      </trkpt>
      <trkpt lat="43.04196184852" lon="-5.38765368982">
        <ele>1788.59</ele>
        <time>2013-02-20T12:37:09+01:00</time>
      </trkpt>
      <trkpt lat="43.04215019281" lon="-5.38739233277">
        <ele>1786.71</ele>
        <time>2013-02-20T12:37:11+01:00</time>
      </trkpt>
      <trkpt lat="43.04217088802" lon="-5.38736234139">
        <ele>1784.94</ele>
        <time>2013-02-20T12:37:13+01:00</time>
      </trkpt>
      <trkpt lat="43.04218096362" lon="-5.38734647319">
        <ele>1783.27</ele>
        <time>2013-02-20T12:37:15+01:00</time>
      </trkpt>
      <trkpt lat="43.04219870748" lon="-5.38731138667">
        <ele>1781.64</ele>
        <time>2013-02-20T12:37:17+01:00</time>
      </trkpt>
      <trkpt lat="43.04226598198" lon="-5.38713363222">
        <ele>1774.36</ele>
        <time>2013-02-20T12:37:19+01:00</time>
      </trkpt>
      <trkpt lat="43.04229211744" lon="-5.38703343943">
        <ele>1776.31</ele>
        <time>2013-02-20T12:37:25+01:00</time>
      </trkpt>
      <trkpt lat="43.04229529452" lon="-5.38696762696">
        <ele>1770.07</ele>
        <time>2013-02-20T12:37:42+01:00</time>
      </trkpt>
      <trkpt lat="43.04230159127" lon="-5.38688996539">
        <ele>1766.24</ele>
        <time>2013-02-20T12:37:45+01:00</time>
      </trkpt>
      <trkpt lat="43.04230720921" lon="-5.38684734276">
        <ele>1762.35</ele>
        <time>2013-02-20T12:37:54+01:00</time>
      </trkpt>
      <trkpt lat="43.04231212142" lon="-5.38680750345">
        <ele>1759.56</ele>
        <time>2013-02-20T12:37:56+01:00</time>
      </trkpt>
      <trkpt lat="43.04233586911" lon="-5.38676211877">
        <ele>1755.79</ele>
        <time>2013-02-20T12:37:58+01:00</time>
      </trkpt>
      <trkpt lat="43.04234935686" lon="-5.38674408238">
        <ele>1752.4</ele>
        <time>2013-02-20T12:38:01+01:00</time>
      </trkpt>
      <trkpt lat="43.04234086868" lon="-5.38670926848">
        <ele>1748.8</ele>
        <time>2013-02-20T12:38:05+01:00</time>
      </trkpt>
      <trkpt lat="43.04232740286" lon="-5.38667776348">
        <ele>1745.85</ele>
        <time>2013-02-20T12:38:07+01:00</time>
      </trkpt>
      <trkpt lat="43.04230868349" lon="-5.38665255291">
        <ele>1742.1</ele>
        <time>2013-02-20T12:38:10+01:00</time>
      </trkpt>
      <trkpt lat="43.04229205243" lon="-5.38665329917">
        <ele>1743.11</ele>
        <time>2013-02-20T12:38:15+01:00</time>
      </trkpt>
      <trkpt lat="43.04227279851" lon="-5.38666046165">
        <ele>1741.57</ele>
        <time>2013-02-20T12:38:16+01:00</time>
      </trkpt>
      <trkpt lat="43.04225529256" lon="-5.38667560991">
        <ele>1739.54</ele>
        <time>2013-02-20T12:38:19+01:00</time>
      </trkpt>
      <trkpt lat="43.04225218829" lon="-5.38668003326">
        <ele>1737.88</ele>
        <time>2013-02-20T12:38:21+01:00</time>
      </trkpt>
      <trkpt lat="43.04225203894" lon="-5.38668553978">
        <ele>1736.84</ele>
        <time>2013-02-20T12:38:23+01:00</time>
      </trkpt>
      <trkpt lat="43.04225309909" lon="-5.38668759023">
        <ele>1735.51</ele>
        <time>2013-02-20T12:38:38+01:00</time>
      </trkpt>
      <trkpt lat="43.0422533029" lon="-5.38669483886">
        <ele>1734.19</ele>
        <time>2013-02-20T12:38:42+01:00</time>
      </trkpt>
      <trkpt lat="43.04225175965" lon="-5.3867044304">
        <ele>1733.03</ele>
        <time>2013-02-20T12:38:43+01:00</time>
      </trkpt>
      <trkpt lat="43.04222897325" lon="-5.38677068448">
        <ele>1728.23</ele>
        <time>2013-02-20T12:38:45+01:00</time>
      </trkpt>
      <trkpt lat="43.04220877905" lon="-5.38682153925">
        <ele>1726.22</ele>
        <time>2013-02-20T12:38:46+01:00</time>
      </trkpt>
      <trkpt lat="43.04218797406" lon="-5.3868666222">
        <ele>1724.3</ele>
        <time>2013-02-20T12:38:47+01:00</time>
      </trkpt>
      <trkpt lat="43.04216958781" lon="-5.38690575984">
        <ele>1722.5</ele>
        <time>2013-02-20T12:38:48+01:00</time>
      </trkpt>
      <trkpt lat="43.04214398233" lon="-5.3869684518">
        <ele>1720.44</ele>
        <time>2013-02-20T12:38:49+01:00</time>
      </trkpt>
      <trkpt lat="43.04213516577" lon="-5.38699133381">
        <ele>1718.8</ele>
        <time>2013-02-20T12:38:50+01:00</time>
      </trkpt>
      <trkpt lat="43.04211845657" lon="-5.38704242942">
        <ele>1717.17</ele>
        <time>2013-02-20T12:38:51+01:00</time>
      </trkpt>
      <trkpt lat="43.04208584513" lon="-5.38709382045">
        <ele>1715.04</ele>
        <time>2013-02-20T12:38:53+01:00</time>
      </trkpt>
      <trkpt lat="43.04207298612" lon="-5.38713460879">
        <ele>1713.29</ele>
        <time>2013-02-20T12:38:55+01:00</time>
      </trkpt>
      <trkpt lat="43.04205462281" lon="-5.38716630284">
        <ele>1711.67</ele>
        <time>2013-02-20T12:38:56+01:00</time>
      </trkpt>
      <trkpt lat="43.04204390359" lon="-5.38718489101">
        <ele>1710.04</ele>
        <time>2013-02-20T12:38:56+01:00</time>
      </trkpt>
      <trkpt lat="43.04201641863" lon="-5.38722497432">
        <ele>1708.65</ele>
        <time>2013-02-20T12:38:58+01:00</time>
      </trkpt>
      <trkpt lat="43.04200363719" lon="-5.38724578462">
        <ele>1707.3</ele>
        <time>2013-02-20T12:38:58+01:00</time>
      </trkpt>
      <trkpt lat="43.04197822403" lon="-5.38729240655">
        <ele>1706.09</ele>
        <time>2013-02-20T12:39:00+01:00</time>
      </trkpt>
      <trkpt lat="43.04196133968" lon="-5.38732721192">
        <ele>1704.87</ele>
        <time>2013-02-20T12:39:00+01:00</time>
      </trkpt>
      <trkpt lat="43.04194076314" lon="-5.38736361024">
        <ele>1704.2</ele>
        <time>2013-02-20T12:39:02+01:00</time>
      </trkpt>
      <trkpt lat="43.04192162746" lon="-5.38740032714">
        <ele>1703.4</ele>
        <time>2013-02-20T12:39:02+01:00</time>
      </trkpt>
      <trkpt lat="43.04190485867" lon="-5.387436169">
        <ele>1702.64</ele>
        <time>2013-02-20T12:39:03+01:00</time>
      </trkpt>
      <trkpt lat="43.04188782564" lon="-5.38747223817">
        <ele>1701.94</ele>
        <time>2013-02-20T12:39:05+01:00</time>
      </trkpt>
      <trkpt lat="43.04187057214" lon="-5.38750399422">
        <ele>1701.34</ele>
        <time>2013-02-20T12:39:05+01:00</time>
      </trkpt>
      <trkpt lat="43.04185397861" lon="-5.38754038617">
        <ele>1700.75</ele>
        <time>2013-02-20T12:39:07+01:00</time>
      </trkpt>
      <trkpt lat="43.0418389923" lon="-5.38757488898">
        <ele>1700.18</ele>
        <time>2013-02-20T12:39:08+01:00</time>
      </trkpt>
      <trkpt lat="43.04182995248" lon="-5.38759374443">
        <ele>1699.65</ele>
        <time>2013-02-20T12:39:08+01:00</time>
      </trkpt>
      <trkpt lat="43.04180602387" lon="-5.3876332369">
        <ele>1699.15</ele>
        <time>2013-02-20T12:39:09+01:00</time>
      </trkpt>
      <trkpt lat="43.04178732419" lon="-5.38766561055">
        <ele>1698.68</ele>
        <time>2013-02-20T12:39:11+01:00</time>
      </trkpt>
      <trkpt lat="43.04177168196" lon="-5.38769588988">
        <ele>1698.32</ele>
        <time>2013-02-20T12:39:12+01:00</time>
      </trkpt>
      <trkpt lat="43.04175004627" lon="-5.38772601857">
        <ele>1697.93</ele>
        <time>2013-02-20T12:39:13+01:00</time>
      </trkpt>
      <trkpt lat="43.04173130225" lon="-5.38775578186">
        <ele>1697.58</ele>
        <time>2013-02-20T12:39:13+01:00</time>
      </trkpt>
      <trkpt lat="43.04171239897" lon="-5.38778788606">
        <ele>1697.43</ele>
        <time>2013-02-20T12:39:15+01:00</time>
      </trkpt>
      <trkpt lat="43.04169517374" lon="-5.38781603279">
        <ele>1697.25</ele>
        <time>2013-02-20T12:39:16+01:00</time>
      </trkpt>
      <trkpt lat="43.04168170394" lon="-5.38784392447">
        <ele>1697.06</ele>
        <time>2013-02-20T12:39:16+01:00</time>
      </trkpt>
      <trkpt lat="43.04167411097" lon="-5.3878613668">
        <ele>1696.91</ele>
        <time>2013-02-20T12:39:17+01:00</time>
      </trkpt>
      <trkpt lat="43.04166633309" lon="-5.38788840242">
        <ele>1696.95</ele>
        <time>2013-02-20T12:39:19+01:00</time>
      </trkpt>
      <trkpt lat="43.04164663267" lon="-5.38792981221">
        <ele>1697.15</ele>
        <time>2013-02-20T12:39:20+01:00</time>
      </trkpt>
      <trkpt lat="43.04163353955" lon="-5.38796619031">
        <ele>1697.19</ele>
        <time>2013-02-20T12:39:21+01:00</time>
      </trkpt>
      <trkpt lat="43.04161750989" lon="-5.38799639882">
        <ele>1697.28</ele>
        <time>2013-02-20T12:39:21+01:00</time>
      </trkpt>
      <trkpt lat="43.04159968591" lon="-5.38802651334">
        <ele>1697.46</ele>
        <time>2013-02-20T12:39:22+01:00</time>
      </trkpt>
      <trkpt lat="43.04158277713" lon="-5.38805996184">
        <ele>1697.7</ele>
        <time>2013-02-20T12:39:23+01:00</time>
      </trkpt>
      <trkpt lat="43.04156605138" lon="-5.38808951737">
        <ele>1698.07</ele>
        <time>2013-02-20T12:39:25+01:00</time>
      </trkpt>
      <trkpt lat="43.04155506194" lon="-5.38811956835">
        <ele>1698.37</ele>
        <time>2013-02-20T12:39:25+01:00</time>
      </trkpt>
      <trkpt lat="43.04153821248" lon="-5.38815213242">
        <ele>1698.6</ele>
        <time>2013-02-20T12:39:27+01:00</time>
      </trkpt>
      <trkpt lat="43.04152723182" lon="-5.38818405916">
        <ele>1698.61</ele>
        <time>2013-02-20T12:39:28+01:00</time>
      </trkpt>
      <trkpt lat="43.04152231788" lon="-5.38820473">
        <ele>1698.58</ele>
        <time>2013-02-20T12:39:28+01:00</time>
      </trkpt>
      <trkpt lat="43.04149713023" lon="-5.38826163391">
        <ele>1698.4</ele>
        <time>2013-02-20T12:39:31+01:00</time>
      </trkpt>
      <trkpt lat="43.04148273849" lon="-5.38829541113">
        <ele>1698.39</ele>
        <time>2013-02-20T12:39:31+01:00</time>
      </trkpt>
      <trkpt lat="43.04147387777" lon="-5.388315978">
        <ele>1698.25</ele>
        <time>2013-02-20T12:39:32+01:00</time>
      </trkpt>
      <trkpt lat="43.04146276285" lon="-5.38834139076">
        <ele>1698.19</ele>
        <time>2013-02-20T12:39:34+01:00</time>
      </trkpt>
      <trkpt lat="43.04144444964" lon="-5.38838405037">
        <ele>1698.01</ele>
        <time>2013-02-20T12:39:35+01:00</time>
      </trkpt>
      <trkpt lat="43.04141560777" lon="-5.38844569003">
        <ele>1697.91</ele>
        <time>2013-02-20T12:39:36+01:00</time>
      </trkpt>
      <trkpt lat="43.04139740065" lon="-5.38848349895">
        <ele>1698.03</ele>
        <time>2013-02-20T12:39:37+01:00</time>
      </trkpt>
      <trkpt lat="43.04138165575" lon="-5.3885201627">
        <ele>1698.17</ele>
        <time>2013-02-20T12:39:38+01:00</time>
      </trkpt>
      <trkpt lat="43.04136831438" lon="-5.3885557257">
        <ele>1698.21</ele>
        <time>2013-02-20T12:39:39+01:00</time>
      </trkpt>
      <trkpt lat="43.04134646831" lon="-5.38859274493">
        <ele>1698.59</ele>
        <time>2013-02-20T12:39:41+01:00</time>
      </trkpt>
      <trkpt lat="43.04132744753" lon="-5.3886242216">
        <ele>1698.87</ele>
        <time>2013-02-20T12:39:41+01:00</time>
      </trkpt>
      <trkpt lat="43.04130738248" lon="-5.38866230111">
        <ele>1699.25</ele>
        <time>2013-02-20T12:39:42+01:00</time>
      </trkpt>
      <trkpt lat="43.04128710858" lon="-5.38869506272">
        <ele>1699.57</ele>
        <time>2013-02-20T12:39:44+01:00</time>
      </trkpt>
      <trkpt lat="43.04127512375" lon="-5.3887140358">
        <ele>1699.96</ele>
        <time>2013-02-20T12:39:44+01:00</time>
      </trkpt>
      <trkpt lat="43.0412570534" lon="-5.38875771274">
        <ele>1700.09</ele>
        <time>2013-02-20T12:39:46+01:00</time>
      </trkpt>
      <trkpt lat="43.04123942478" lon="-5.38879461132">
        <ele>1700.4</ele>
        <time>2013-02-20T12:39:47+01:00</time>
      </trkpt>
      <trkpt lat="43.04122024167" lon="-5.3888291484">
        <ele>1700.88</ele>
        <time>2013-02-20T12:39:48+01:00</time>
      </trkpt>
      <trkpt lat="43.04120776454" lon="-5.38884922351">
        <ele>1701.32</ele>
        <time>2013-02-20T12:39:48+01:00</time>
      </trkpt>
      <trkpt lat="43.04119419181" lon="-5.38887686307">
        <ele>1701.69</ele>
        <time>2013-02-20T12:39:49+01:00</time>
      </trkpt>
      <trkpt lat="43.04118005032" lon="-5.38891038032">
        <ele>1702.16</ele>
        <time>2013-02-20T12:39:51+01:00</time>
      </trkpt>
      <trkpt lat="43.04116141255" lon="-5.38894277119">
        <ele>1702.54</ele>
        <time>2013-02-20T12:39:52+01:00</time>
      </trkpt>
      <trkpt lat="43.04115751617" lon="-5.38894896909">
        <ele>1702.95</ele>
        <time>2013-02-20T12:39:52+01:00</time>
      </trkpt>
      <trkpt lat="43.04113457609" lon="-5.38899513218">
        <ele>1702.76</ele>
        <time>2013-02-20T12:39:53+01:00</time>
      </trkpt>
      <trkpt lat="43.04111489179" lon="-5.38903468417">
        <ele>1702.96</ele>
        <time>2013-02-20T12:39:54+01:00</time>
      </trkpt>
      <trkpt lat="43.04109819743" lon="-5.38907097252">
        <ele>1703.67</ele>
        <time>2013-02-20T12:39:55+01:00</time>
      </trkpt>
      <trkpt lat="43.04108293518" lon="-5.38910474894">
        <ele>1703.54</ele>
        <time>2013-02-20T12:39:56+01:00</time>
      </trkpt>
      <trkpt lat="43.04106681738" lon="-5.38913651502">
        <ele>1703.71</ele>
        <time>2013-02-20T12:39:57+01:00</time>
      </trkpt>
      <trkpt lat="43.0410493917" lon="-5.38916723404">
        <ele>1704.02</ele>
        <time>2013-02-20T12:39:58+01:00</time>
      </trkpt>
      <trkpt lat="43.04103279988" lon="-5.38919935735">
        <ele>1704.32</ele>
        <time>2013-02-20T12:39:59+01:00</time>
      </trkpt>
      <trkpt lat="43.04102924219" lon="-5.38920557878">
        <ele>1704.54</ele>
        <time>2013-02-20T12:40:00+01:00</time>
      </trkpt>
      <trkpt lat="43.04102397833" lon="-5.38921389381">
        <ele>1704.53</ele>
        <time>2013-02-20T12:40:01+01:00</time>
      </trkpt>
      <trkpt lat="43.04101738845" lon="-5.38922455408">
        <ele>1704.72</ele>
        <time>2013-02-20T12:40:02+01:00</time>
      </trkpt>
      <trkpt lat="43.04100963031" lon="-5.38923723286">
        <ele>1704.92</ele>
        <time>2013-02-20T12:40:03+01:00</time>
      </trkpt>
      <trkpt lat="43.04100111828" lon="-5.3892515439">
        <ele>1705.49</ele>
        <time>2013-02-20T12:40:04+01:00</time>
      </trkpt>
      <trkpt lat="43.0409539922" lon="-5.38932981563">
        <ele>1705.81</ele>
        <time>2013-02-20T12:40:05+01:00</time>
      </trkpt>
      <trkpt lat="43.04092070615" lon="-5.38938475138">
        <ele>1706.13</ele>
        <time>2013-02-20T12:40:06+01:00</time>
      </trkpt>
      <trkpt lat="43.0408966661" lon="-5.38942676186">
        <ele>1707.64</ele>
        <time>2013-02-20T12:40:07+01:00</time>
      </trkpt>
      <trkpt lat="43.04086221252" lon="-5.38948377252">
        <ele>1708.43</ele>
        <time>2013-02-20T12:40:08+01:00</time>
      </trkpt>
      <trkpt lat="43.04084214545" lon="-5.38951931453">
        <ele>1709.16</ele>
        <time>2013-02-20T12:40:09+01:00</time>
      </trkpt>
      <trkpt lat="43.04081677495" lon="-5.38955176981">
        <ele>1709.77</ele>
        <time>2013-02-20T12:40:11+01:00</time>
      </trkpt>
      <trkpt lat="43.04079461863" lon="-5.38956798048">
        <ele>1710.56</ele>
        <time>2013-02-20T12:40:11+01:00</time>
      </trkpt>
      <trkpt lat="43.04073179893" lon="-5.38961320258">
        <ele>1711.06</ele>
        <time>2013-02-20T12:40:13+01:00</time>
      </trkpt>
      <trkpt lat="43.04070370417" lon="-5.3896345295">
        <ele>1711.62</ele>
        <time>2013-02-20T12:40:14+01:00</time>
      </trkpt>
      <trkpt lat="43.04069669955" lon="-5.38964005686">
        <ele>1712.13</ele>
        <time>2013-02-20T12:40:14+01:00</time>
      </trkpt>
      <trkpt lat="43.04066869917" lon="-5.38968689058">
        <ele>1712.9</ele>
        <time>2013-02-20T12:40:16+01:00</time>
      </trkpt>
      <trkpt lat="43.0406453322" lon="-5.38973063356">
        <ele>1713.64</ele>
        <time>2013-02-20T12:40:17+01:00</time>
      </trkpt>
      <trkpt lat="43.0406258745" lon="-5.38977010704">
        <ele>1714.37</ele>
        <time>2013-02-20T12:40:18+01:00</time>
      </trkpt>
      <trkpt lat="43.04061090696" lon="-5.3898040092">
        <ele>1715.03</ele>
        <time>2013-02-20T12:40:19+01:00</time>
      </trkpt>
      <trkpt lat="43.04059738822" lon="-5.38983520951">
        <ele>1715.79</ele>
        <time>2013-02-20T12:40:20+01:00</time>
      </trkpt>
      <trkpt lat="43.04058048675" lon="-5.38986380162">
        <ele>1716.54</ele>
        <time>2013-02-20T12:40:21+01:00</time>
      </trkpt>
      <trkpt lat="43.04056333979" lon="-5.38989255646">
        <ele>1717.28</ele>
        <time>2013-02-20T12:40:22+01:00</time>
      </trkpt>
      <trkpt lat="43.04054885707" lon="-5.3899198001">
        <ele>1718.02</ele>
        <time>2013-02-20T12:40:23+01:00</time>
      </trkpt>
      <trkpt lat="43.04053488923" lon="-5.38994729397">
        <ele>1718.84</ele>
        <time>2013-02-20T12:40:24+01:00</time>
      </trkpt>
      <trkpt lat="43.04051866426" lon="-5.38997273366">
        <ele>1719.79</ele>
        <time>2013-02-20T12:40:25+01:00</time>
      </trkpt>
      <trkpt lat="43.04050279852" lon="-5.38999987037">
        <ele>1720.6</ele>
        <time>2013-02-20T12:40:26+01:00</time>
      </trkpt>
      <trkpt lat="43.04048014822" lon="-5.39004189748">
        <ele>1721.42</ele>
        <time>2013-02-20T12:40:27+01:00</time>
      </trkpt>
      <trkpt lat="43.04046964749" lon="-5.39006215448">
        <ele>1722.26</ele>
        <time>2013-02-20T12:40:28+01:00</time>
      </trkpt>
      <trkpt lat="43.04044880816" lon="-5.39010062241">
        <ele>1723.09</ele>
        <time>2013-02-20T12:40:29+01:00</time>
      </trkpt>
      <trkpt lat="43.04043568843" lon="-5.3901315171">
        <ele>1723.91</ele>
        <time>2013-02-20T12:40:30+01:00</time>
      </trkpt>
      <trkpt lat="43.04042451494" lon="-5.39016056187">
        <ele>1724.69</ele>
        <time>2013-02-20T12:40:31+01:00</time>
      </trkpt>
      <trkpt lat="43.04041299309" lon="-5.39018896844">
        <ele>1725.44</ele>
        <time>2013-02-20T12:40:32+01:00</time>
      </trkpt>
      <trkpt lat="43.04040126746" lon="-5.3902177838">
        <ele>1726.2</ele>
        <time>2013-02-20T12:40:33+01:00</time>
      </trkpt>
      <trkpt lat="43.04039054043" lon="-5.39024701621">
        <ele>1726.93</ele>
        <time>2013-02-20T12:40:34+01:00</time>
      </trkpt>
      <trkpt lat="43.04037676095" lon="-5.39027693551">
        <ele>1727.67</ele>
        <time>2013-02-20T12:40:35+01:00</time>
      </trkpt>
      <trkpt lat="43.0403631421" lon="-5.39030544993">
        <ele>1728.51</ele>
        <time>2013-02-20T12:40:36+01:00</time>
      </trkpt>
      <trkpt lat="43.04035535566" lon="-5.39033596325">
        <ele>1729.2</ele>
        <time>2013-02-20T12:40:37+01:00</time>
      </trkpt>
      <trkpt lat="43.04034286837" lon="-5.39036540113">
        <ele>1729.95</ele>
        <time>2013-02-20T12:40:38+01:00</time>
      </trkpt>
      <trkpt lat="43.0403279657" lon="-5.39039415454">
        <ele>1730.71</ele>
        <time>2013-02-20T12:40:39+01:00</time>
      </trkpt>
      <trkpt lat="43.04031345167" lon="-5.39042290516">
        <ele>1731.44</ele>
        <time>2013-02-20T12:40:40+01:00</time>
      </trkpt>
      <trkpt lat="43.04029774131" lon="-5.39045313044">
        <ele>1732.15</ele>
        <time>2013-02-20T12:40:42+01:00</time>
      </trkpt>
      <trkpt lat="43.04028065175" lon="-5.39048599759">
        <ele>1732.94</ele>
        <time>2013-02-20T12:40:42+01:00</time>
      </trkpt>
      <trkpt lat="43.04026080531" lon="-5.39051872256">
        <ele>1733.66</ele>
        <time>2013-02-20T12:40:44+01:00</time>
      </trkpt>
      <trkpt lat="43.04024897869" lon="-5.39053911598">
        <ele>1734.34</ele>
        <time>2013-02-20T12:40:44+01:00</time>
      </trkpt>
      <trkpt lat="43.04022389352" lon="-5.39058278925">
        <ele>1734.9</ele>
        <time>2013-02-20T12:40:46+01:00</time>
      </trkpt>
      <trkpt lat="43.04020231384" lon="-5.39061888243">
        <ele>1735.45</ele>
        <time>2013-02-20T12:40:46+01:00</time>
      </trkpt>
      <trkpt lat="43.04018451981" lon="-5.39065010684">
        <ele>1736.02</ele>
        <time>2013-02-20T12:40:48+01:00</time>
      </trkpt>
      <trkpt lat="43.04016811992" lon="-5.390678547">
        <ele>1736.47</ele>
        <time>2013-02-20T12:40:48+01:00</time>
      </trkpt>
      <trkpt lat="43.04014884728" lon="-5.39071105713">
        <ele>1737.27</ele>
        <time>2013-02-20T12:40:49+01:00</time>
      </trkpt>
      <trkpt lat="43.04013148112" lon="-5.39074364363">
        <ele>1738.09</ele>
        <time>2013-02-20T12:40:50+01:00</time>
      </trkpt>
      <trkpt lat="43.04011446273" lon="-5.39077443493">
        <ele>1738.76</ele>
        <time>2013-02-20T12:40:51+01:00</time>
      </trkpt>
      <trkpt lat="43.04009872089" lon="-5.39080553773">
        <ele>1739.46</ele>
        <time>2013-02-20T12:40:52+01:00</time>
      </trkpt>
      <trkpt lat="43.04008283203" lon="-5.39083676989">
        <ele>1740.2</ele>
        <time>2013-02-20T12:40:53+01:00</time>
      </trkpt>
      <trkpt lat="43.04006426509" lon="-5.3908671562">
        <ele>1740.96</ele>
        <time>2013-02-20T12:40:54+01:00</time>
      </trkpt>
      <trkpt lat="43.04004928642" lon="-5.39090072611">
        <ele>1741.8</ele>
        <time>2013-02-20T12:40:56+01:00</time>
      </trkpt>
      <trkpt lat="43.04003344961" lon="-5.39093218347">
        <ele>1742.58</ele>
        <time>2013-02-20T12:40:56+01:00</time>
      </trkpt>
      <trkpt lat="43.04001090329" lon="-5.39096046905">
        <ele>1743.79</ele>
        <time>2013-02-20T12:40:57+01:00</time>
      </trkpt>
      <trkpt lat="43.04000092902" lon="-5.39099227771">
        <ele>1744.66</ele>
        <time>2013-02-20T12:40:58+01:00</time>
      </trkpt>
      <trkpt lat="43.03998703187" lon="-5.39102016416">
        <ele>1745.52</ele>
        <time>2013-02-20T12:40:59+01:00</time>
      </trkpt>
      <trkpt lat="43.03997154547" lon="-5.39104907668">
        <ele>1746.46</ele>
        <time>2013-02-20T12:41:00+01:00</time>
      </trkpt>
      <trkpt lat="43.03995542531" lon="-5.39108334285">
        <ele>1747.43</ele>
        <time>2013-02-20T12:41:01+01:00</time>
      </trkpt>
      <trkpt lat="43.03993929165" lon="-5.39111536014">
        <ele>1748.33</ele>
        <time>2013-02-20T12:41:02+01:00</time>
      </trkpt>
      <trkpt lat="43.03992545233" lon="-5.39114180956">
        <ele>1749.24</ele>
        <time>2013-02-20T12:41:03+01:00</time>
      </trkpt>
      <trkpt lat="43.03990902383" lon="-5.39117363562">
        <ele>1751.81</ele>
        <time>2013-02-20T12:41:04+01:00</time>
      </trkpt>
      <trkpt lat="43.03989225583" lon="-5.39119756343">
        <ele>1753.12</ele>
        <time>2013-02-20T12:41:05+01:00</time>
      </trkpt>
      <trkpt lat="43.0398773021" lon="-5.39122960301">
        <ele>1754.47</ele>
        <time>2013-02-20T12:41:07+01:00</time>
      </trkpt>
      <trkpt lat="43.03986207717" lon="-5.3912566451">
        <ele>1755.83</ele>
        <time>2013-02-20T12:41:08+01:00</time>
      </trkpt>
      <trkpt lat="43.03984862037" lon="-5.3912817135">
        <ele>1757.34</ele>
        <time>2013-02-20T12:41:08+01:00</time>
      </trkpt>
      <trkpt lat="43.03981994511" lon="-5.39132997781">
        <ele>1757.35</ele>
        <time>2013-02-20T12:41:11+01:00</time>
      </trkpt>
      <trkpt lat="43.03980096666" lon="-5.39136276472">
        <ele>1758.25</ele>
        <time>2013-02-20T12:41:11+01:00</time>
      </trkpt>
      <trkpt lat="43.03979119732" lon="-5.39137985503">
        <ele>1759.14</ele>
        <time>2013-02-20T12:41:12+01:00</time>
      </trkpt>
      <trkpt lat="43.0397788318" lon="-5.39140256561">
        <ele>1759.92</ele>
        <time>2013-02-20T12:41:13+01:00</time>
      </trkpt>
      <trkpt lat="43.03975529365" lon="-5.39144467278">
        <ele>1760.69</ele>
        <time>2013-02-20T12:41:14+01:00</time>
      </trkpt>
      <trkpt lat="43.03973858313" lon="-5.39147636238">
        <ele>1761.57</ele>
        <time>2013-02-20T12:41:15+01:00</time>
      </trkpt>
      <trkpt lat="43.03972394223" lon="-5.39150717546">
        <ele>1762.43</ele>
        <time>2013-02-20T12:41:16+01:00</time>
      </trkpt>
      <trkpt lat="43.03970867588" lon="-5.391538752">
        <ele>1763.3</ele>
        <time>2013-02-20T12:41:17+01:00</time>
      </trkpt>
      <trkpt lat="43.03969663721" lon="-5.39157323051">
        <ele>1764.06</ele>
        <time>2013-02-20T12:41:19+01:00</time>
      </trkpt>
      <trkpt lat="43.03968286362" lon="-5.39160688124">
        <ele>1764.83</ele>
        <time>2013-02-20T12:41:19+01:00</time>
      </trkpt>
      <trkpt lat="43.03967556795" lon="-5.39162684556">
        <ele>1765.55</ele>
        <time>2013-02-20T12:41:20+01:00</time>
      </trkpt>
      <trkpt lat="43.03966645093" lon="-5.39165296288">
        <ele>1767.51</ele>
        <time>2013-02-20T12:41:21+01:00</time>
      </trkpt>
      <trkpt lat="43.0396525859" lon="-5.39169860012">
        <ele>1768.62</ele>
        <time>2013-02-20T12:41:22+01:00</time>
      </trkpt>
      <trkpt lat="43.03964385388" lon="-5.39171830255">
        <ele>1769.74</ele>
        <time>2013-02-20T12:41:23+01:00</time>
      </trkpt>
      <trkpt lat="43.03963051924" lon="-5.39173951125">
        <ele>1770.74</ele>
        <time>2013-02-20T12:41:25+01:00</time>
      </trkpt>
      <trkpt lat="43.03960536759" lon="-5.39178236152">
        <ele>1772.25</ele>
        <time>2013-02-20T12:41:26+01:00</time>
      </trkpt>
      <trkpt lat="43.03958719444" lon="-5.39181346213">
        <ele>1773.58</ele>
        <time>2013-02-20T12:41:27+01:00</time>
      </trkpt>
      <trkpt lat="43.03955516192" lon="-5.39186413987">
        <ele>1773.59</ele>
        <time>2013-02-20T12:41:29+01:00</time>
      </trkpt>
      <trkpt lat="43.03954327886" lon="-5.39188480764">
        <ele>1774.44</ele>
        <time>2013-02-20T12:41:29+01:00</time>
      </trkpt>
      <trkpt lat="43.03951415877" lon="-5.39194600064">
        <ele>1777.23</ele>
        <time>2013-02-20T12:41:31+01:00</time>
      </trkpt>
      <trkpt lat="43.03949562778" lon="-5.39198043452">
        <ele>1778.56</ele>
        <time>2013-02-20T12:41:32+01:00</time>
      </trkpt>
      <trkpt lat="43.03948139392" lon="-5.39201105884">
        <ele>1779.89</ele>
        <time>2013-02-20T12:41:33+01:00</time>
      </trkpt>
      <trkpt lat="43.03947236434" lon="-5.39202871702">
        <ele>1781.42</ele>
        <time>2013-02-20T12:41:34+01:00</time>
      </trkpt>
      <trkpt lat="43.0394592581" lon="-5.39205095716">
        <ele>1782.92</ele>
        <time>2013-02-20T12:41:35+01:00</time>
      </trkpt>
      <trkpt lat="43.0394329816" lon="-5.39209208449">
        <ele>1785.22</ele>
        <time>2013-02-20T12:41:37+01:00</time>
      </trkpt>
      <trkpt lat="43.03942146182" lon="-5.3921108879">
        <ele>1786.79</ele>
        <time>2013-02-20T12:41:37+01:00</time>
      </trkpt>
      <trkpt lat="43.03939715856" lon="-5.39214323089">
        <ele>1788.07</ele>
        <time>2013-02-20T12:41:38+01:00</time>
      </trkpt>
      <trkpt lat="43.039379658" lon="-5.39217028544">
        <ele>1790.18</ele>
        <time>2013-02-20T12:41:39+01:00</time>
      </trkpt>
      <trkpt lat="43.03936405442" lon="-5.39219668463">
        <ele>1792.03</ele>
        <time>2013-02-20T12:41:40+01:00</time>
      </trkpt>
      <trkpt lat="43.03934966843" lon="-5.39222301981">
        <ele>1793.65</ele>
        <time>2013-02-20T12:41:41+01:00</time>
      </trkpt>
      <trkpt lat="43.0393342519" lon="-5.39224880575">
        <ele>1795.45</ele>
        <time>2013-02-20T12:41:42+01:00</time>
      </trkpt>
      <trkpt lat="43.03931765713" lon="-5.39227844572">
        <ele>1797.16</ele>
        <time>2013-02-20T12:41:44+01:00</time>
      </trkpt>
      <trkpt lat="43.03930219265" lon="-5.39230456891">
        <ele>1798.76</ele>
        <time>2013-02-20T12:41:45+01:00</time>
      </trkpt>
      <trkpt lat="43.0392866149" lon="-5.39233101936">
        <ele>1800.54</ele>
        <time>2013-02-20T12:41:46+01:00</time>
      </trkpt>
      <trkpt lat="43.03927433374" lon="-5.39235516346">
        <ele>1802.32</ele>
        <time>2013-02-20T12:41:46+01:00</time>
      </trkpt>
      <trkpt lat="43.03925874616" lon="-5.39238428314">
        <ele>1804.08</ele>
        <time>2013-02-20T12:41:48+01:00</time>
      </trkpt>
      <trkpt lat="43.03924149648" lon="-5.39241193849">
        <ele>1805.5</ele>
        <time>2013-02-20T12:41:49+01:00</time>
      </trkpt>
      <trkpt lat="43.03922030874" lon="-5.39244337013">
        <ele>1807.01</ele>
        <time>2013-02-20T12:41:49+01:00</time>
      </trkpt>
      <trkpt lat="43.03919706829" lon="-5.39247238265">
        <ele>1808.44</ele>
        <time>2013-02-20T12:41:50+01:00</time>
      </trkpt>
      <trkpt lat="43.03917424824" lon="-5.39252016173">
        <ele>1810.53</ele>
        <time>2013-02-20T12:41:53+01:00</time>
      </trkpt>
      <trkpt lat="43.03915741312" lon="-5.39255090699">
        <ele>1812.32</ele>
        <time>2013-02-20T12:41:54+01:00</time>
      </trkpt>
      <trkpt lat="43.0391426114" lon="-5.39258188912">
        <ele>1813.92</ele>
        <time>2013-02-20T12:41:54+01:00</time>
      </trkpt>
      <trkpt lat="43.03912778406" lon="-5.39262789371">
        <ele>1815.7</ele>
        <time>2013-02-20T12:41:56+01:00</time>
      </trkpt>
      <trkpt lat="43.03911441477" lon="-5.39266427055">
        <ele>1817.49</ele>
        <time>2013-02-20T12:41:57+01:00</time>
      </trkpt>
      <trkpt lat="43.03910402539" lon="-5.39269287792">
        <ele>1819.29</ele>
        <time>2013-02-20T12:41:58+01:00</time>
      </trkpt>
      <trkpt lat="43.03909076563" lon="-5.39272010485">
        <ele>1820.65</ele>
        <time>2013-02-20T12:41:59+01:00</time>
      </trkpt>
      <trkpt lat="43.03907642675" lon="-5.39274628849">
        <ele>1822.77</ele>
        <time>2013-02-20T12:42:00+01:00</time>
      </trkpt>
      <trkpt lat="43.03906284749" lon="-5.39277289586">
        <ele>1824.09</ele>
        <time>2013-02-20T12:42:01+01:00</time>
      </trkpt>
      <trkpt lat="43.0390493819" lon="-5.39279947017">
        <ele>1825.81</ele>
        <time>2013-02-20T12:42:02+01:00</time>
      </trkpt>
      <trkpt lat="43.0390333251" lon="-5.39282551311">
        <ele>1827.66</ele>
        <time>2013-02-20T12:42:04+01:00</time>
      </trkpt>
      <trkpt lat="43.03899969636" lon="-5.39286628859">
        <ele>1829.55</ele>
        <time>2013-02-20T12:42:05+01:00</time>
      </trkpt>
      <trkpt lat="43.0389644613" lon="-5.39290672684">
        <ele>1831.3</ele>
        <time>2013-02-20T12:42:06+01:00</time>
      </trkpt>
      <trkpt lat="43.03894037454" lon="-5.39292996853">
        <ele>1832.81</ele>
        <time>2013-02-20T12:42:07+01:00</time>
      </trkpt>
      <trkpt lat="43.03892244789" lon="-5.39297706282">
        <ele>1832.86</ele>
        <time>2013-02-20T12:42:09+01:00</time>
      </trkpt>
      <trkpt lat="43.03891400106" lon="-5.39301839997">
        <ele>1834.02</ele>
        <time>2013-02-20T12:42:09+01:00</time>
      </trkpt>
      <trkpt lat="43.0388842826" lon="-5.39304571108">
        <ele>1835.3</ele>
        <time>2013-02-20T12:42:11+01:00</time>
      </trkpt>
      <trkpt lat="43.03886546431" lon="-5.39306968055">
        <ele>1836.46</ele>
        <time>2013-02-20T12:42:12+01:00</time>
      </trkpt>
      <trkpt lat="43.03885318464" lon="-5.39310364346">
        <ele>1837.52</ele>
        <time>2013-02-20T12:42:13+01:00</time>
      </trkpt>
      <trkpt lat="43.03883959754" lon="-5.39313363716">
        <ele>1838.54</ele>
        <time>2013-02-20T12:42:15+01:00</time>
      </trkpt>
      <trkpt lat="43.03882467607" lon="-5.39316156295">
        <ele>1841.67</ele>
        <time>2013-02-20T12:42:16+01:00</time>
      </trkpt>
      <trkpt lat="43.03880713655" lon="-5.39319357032">
        <ele>1843.37</ele>
        <time>2013-02-20T12:42:16+01:00</time>
      </trkpt>
      <trkpt lat="43.03879150217" lon="-5.39322068462">
        <ele>1845.08</ele>
        <time>2013-02-20T12:42:18+01:00</time>
      </trkpt>
      <trkpt lat="43.03877696355" lon="-5.3932448202">
        <ele>1846.8</ele>
        <time>2013-02-20T12:42:19+01:00</time>
      </trkpt>
      <trkpt lat="43.03875304009" lon="-5.39328471768">
        <ele>1848.67</ele>
        <time>2013-02-20T12:42:21+01:00</time>
      </trkpt>
      <trkpt lat="43.03873355056" lon="-5.393316024">
        <ele>1849.69</ele>
        <time>2013-02-20T12:42:22+01:00</time>
      </trkpt>
      <trkpt lat="43.03871983342" lon="-5.39334095596">
        <ele>1850.65</ele>
        <time>2013-02-20T12:42:22+01:00</time>
      </trkpt>
      <trkpt lat="43.0387054488" lon="-5.39336879603">
        <ele>1851.77</ele>
        <time>2013-02-20T12:42:24+01:00</time>
      </trkpt>
      <trkpt lat="43.03869488245" lon="-5.39340039702">
        <ele>1852.46</ele>
        <time>2013-02-20T12:42:25+01:00</time>
      </trkpt>
      <trkpt lat="43.03868767769" lon="-5.39343403372">
        <ele>1853.09</ele>
        <time>2013-02-20T12:42:26+01:00</time>
      </trkpt>
      <trkpt lat="43.03867907403" lon="-5.39346847749">
        <ele>1854.05</ele>
        <time>2013-02-20T12:42:26+01:00</time>
      </trkpt>
      <trkpt lat="43.0386646727" lon="-5.39351122461">
        <ele>1854.86</ele>
        <time>2013-02-20T12:42:28+01:00</time>
      </trkpt>
      <trkpt lat="43.03863535855" lon="-5.39354197775">
        <ele>1855.81</ele>
        <time>2013-02-20T12:42:29+01:00</time>
      </trkpt>
      <trkpt lat="43.03861930827" lon="-5.39357776959">
        <ele>1856.58</ele>
        <time>2013-02-20T12:42:29+01:00</time>
      </trkpt>
      <trkpt lat="43.03859664909" lon="-5.39361350818">
        <ele>1857.41</ele>
        <time>2013-02-20T12:42:31+01:00</time>
      </trkpt>
      <trkpt lat="43.03858005011" lon="-5.39364861476">
        <ele>1858.3</ele>
        <time>2013-02-20T12:42:32+01:00</time>
      </trkpt>
      <trkpt lat="43.03856043618" lon="-5.39368305464">
        <ele>1859.15</ele>
        <time>2013-02-20T12:42:32+01:00</time>
      </trkpt>
      <trkpt lat="43.03854189538" lon="-5.39371126167">
        <ele>1859.91</ele>
        <time>2013-02-20T12:42:33+01:00</time>
      </trkpt>
      <trkpt lat="43.03855267115" lon="-5.39374613916">
        <ele>1860.39</ele>
        <time>2013-02-20T12:42:36+01:00</time>
      </trkpt>
      <trkpt lat="43.03854748376" lon="-5.39378114374">
        <ele>1860.82</ele>
        <time>2013-02-20T12:42:37+01:00</time>
      </trkpt>
      <trkpt lat="43.03851802767" lon="-5.39382364541">
        <ele>1861.75</ele>
        <time>2013-02-20T12:42:39+01:00</time>
      </trkpt>
      <trkpt lat="43.03849204061" lon="-5.39386041451">
        <ele>1862.32</ele>
        <time>2013-02-20T12:42:41+01:00</time>
      </trkpt>
      <trkpt lat="43.03847349921" lon="-5.39388513563">
        <ele>1863.05</ele>
        <time>2013-02-20T12:42:42+01:00</time>
      </trkpt>
      <trkpt lat="43.03845295753" lon="-5.39390804842">
        <ele>1863.63</ele>
        <time>2013-02-20T12:42:42+01:00</time>
      </trkpt>
      <trkpt lat="43.03841978555" lon="-5.39394119349">
        <ele>1864.31</ele>
        <time>2013-02-20T12:42:45+01:00</time>
      </trkpt>
      <trkpt lat="43.0383972696" lon="-5.3939591428">
        <ele>1864.96</ele>
        <time>2013-02-20T12:42:46+01:00</time>
      </trkpt>
      <trkpt lat="43.03837759913" lon="-5.39397542339">
        <ele>1865.65</ele>
        <time>2013-02-20T12:42:47+01:00</time>
      </trkpt>
      <trkpt lat="43.03834949163" lon="-5.39401140245">
        <ele>1865.89</ele>
        <time>2013-02-20T12:42:49+01:00</time>
      </trkpt>
      <trkpt lat="43.03833337599" lon="-5.39403965361">
        <ele>1866.42</ele>
        <time>2013-02-20T12:42:49+01:00</time>
      </trkpt>
      <trkpt lat="43.03831912227" lon="-5.39406689562">
        <ele>1867.08</ele>
        <time>2013-02-20T12:42:51+01:00</time>
      </trkpt>
      <trkpt lat="43.0382937745" lon="-5.39410714569">
        <ele>1867.7</ele>
        <time>2013-02-20T12:42:53+01:00</time>
      </trkpt>
      <trkpt lat="43.03826949363" lon="-5.39415093613">
        <ele>1868.42</ele>
        <time>2013-02-20T12:42:54+01:00</time>
      </trkpt>
      <trkpt lat="43.03825300337" lon="-5.39419530055">
        <ele>1868.69</ele>
        <time>2013-02-20T12:42:57+01:00</time>
      </trkpt>
      <trkpt lat="43.03824014995" lon="-5.39424802755">
        <ele>1869.02</ele>
        <time>2013-02-20T12:42:59+01:00</time>
      </trkpt>
      <trkpt lat="43.03822959969" lon="-5.39428351749">
        <ele>1869.5</ele>
        <time>2013-02-20T12:43:00+01:00</time>
      </trkpt>
      <trkpt lat="43.0382074066" lon="-5.39433473782">
        <ele>1870.09</ele>
        <time>2013-02-20T12:43:02+01:00</time>
      </trkpt>
      <trkpt lat="43.03819297676" lon="-5.39436429379">
        <ele>1870.59</ele>
        <time>2013-02-20T12:43:02+01:00</time>
      </trkpt>
      <trkpt lat="43.03817584155" lon="-5.39441218156">
        <ele>1870.89</ele>
        <time>2013-02-20T12:43:05+01:00</time>
      </trkpt>
      <trkpt lat="43.03816431192" lon="-5.39444389997">
        <ele>1871.37</ele>
        <time>2013-02-20T12:43:06+01:00</time>
      </trkpt>
      <trkpt lat="43.03815602699" lon="-5.3944993825">
        <ele>1871.96</ele>
        <time>2013-02-20T12:43:08+01:00</time>
      </trkpt>
      <trkpt lat="43.03814920675" lon="-5.39453696582">
        <ele>1872.45</ele>
        <time>2013-02-20T12:43:08+01:00</time>
      </trkpt>
      <trkpt lat="43.03814130482" lon="-5.39456996346">
        <ele>1873.04</ele>
        <time>2013-02-20T12:43:10+01:00</time>
      </trkpt>
      <trkpt lat="43.03812279298" lon="-5.39461317515">
        <ele>1873.58</ele>
        <time>2013-02-20T12:43:12+01:00</time>
      </trkpt>
      <trkpt lat="43.03809692887" lon="-5.39464937718">
        <ele>1874.35</ele>
        <time>2013-02-20T12:43:14+01:00</time>
      </trkpt>
      <trkpt lat="43.0380681526" lon="-5.39468397612">
        <ele>1875.14</ele>
        <time>2013-02-20T12:43:15+01:00</time>
      </trkpt>
      <trkpt lat="43.03805485352" lon="-5.39469756299">
        <ele>1875.88</ele>
        <time>2013-02-20T12:43:17+01:00</time>
      </trkpt>
      <trkpt lat="43.03802040964" lon="-5.39473632746">
        <ele>1876.5</ele>
        <time>2013-02-20T12:43:18+01:00</time>
      </trkpt>
      <trkpt lat="43.03799675706" lon="-5.39477660214">
        <ele>1877.13</ele>
        <time>2013-02-20T12:43:21+01:00</time>
      </trkpt>
      <trkpt lat="43.03797526274" lon="-5.39481556953">
        <ele>1877.84</ele>
        <time>2013-02-20T12:43:22+01:00</time>
      </trkpt>
      <trkpt lat="43.03794997559" lon="-5.39486131627">
        <ele>1878.49</ele>
        <time>2013-02-20T12:43:25+01:00</time>
      </trkpt>
      <trkpt lat="43.03793700787" lon="-5.39488120003">
        <ele>1879.22</ele>
        <time>2013-02-20T12:43:25+01:00</time>
      </trkpt>
      <trkpt lat="43.03791996281" lon="-5.39490589406">
        <ele>1879.94</ele>
        <time>2013-02-20T12:43:27+01:00</time>
      </trkpt>
      <trkpt lat="43.03790012471" lon="-5.39493064629">
        <ele>1881</ele>
        <time>2013-02-20T12:43:27+01:00</time>
      </trkpt>
      <trkpt lat="43.03787840813" lon="-5.39495303878">
        <ele>1881.89</ele>
        <time>2013-02-20T12:43:30+01:00</time>
      </trkpt>
      <trkpt lat="43.0378430976" lon="-5.39500307222">
        <ele>1882.87</ele>
        <time>2013-02-20T12:43:32+01:00</time>
      </trkpt>
      <trkpt lat="43.03782393202" lon="-5.39503876106">
        <ele>1883.91</ele>
        <time>2013-02-20T12:43:32+01:00</time>
      </trkpt>
      <trkpt lat="43.03780323452" lon="-5.39507661013">
        <ele>1884.9</ele>
        <time>2013-02-20T12:43:34+01:00</time>
      </trkpt>
      <trkpt lat="43.03776784728" lon="-5.39513346553">
        <ele>1885.49</ele>
        <time>2013-02-20T12:43:35+01:00</time>
      </trkpt>
      <trkpt lat="43.03774796229" lon="-5.39516274035">
        <ele>1885.87</ele>
        <time>2013-02-20T12:43:37+01:00</time>
      </trkpt>
      <trkpt lat="43.03772782498" lon="-5.39519622207">
        <ele>1886.92</ele>
        <time>2013-02-20T12:43:41+01:00</time>
      </trkpt>
      <trkpt lat="43.03770710077" lon="-5.39524476088">
        <ele>1887.51</ele>
        <time>2013-02-20T12:43:44+01:00</time>
      </trkpt>
      <trkpt lat="43.03769544574" lon="-5.39527934613">
        <ele>1888.12</ele>
        <time>2013-02-20T12:43:44+01:00</time>
      </trkpt>
      <trkpt lat="43.03768657685" lon="-5.39531362171">
        <ele>1888.6</ele>
        <time>2013-02-20T12:43:46+01:00</time>
      </trkpt>
      <trkpt lat="43.03767417482" lon="-5.39534931057">
        <ele>1889.18</ele>
        <time>2013-02-20T12:43:46+01:00</time>
      </trkpt>
      <trkpt lat="43.03765992622" lon="-5.39537830835">
        <ele>1889.93</ele>
        <time>2013-02-20T12:43:48+01:00</time>
      </trkpt>
      <trkpt lat="43.03764101677" lon="-5.39540630318">
        <ele>1890.51</ele>
        <time>2013-02-20T12:43:48+01:00</time>
      </trkpt>
      <trkpt lat="43.03762120869" lon="-5.39543228694">
        <ele>1891.15</ele>
        <time>2013-02-20T12:43:50+01:00</time>
      </trkpt>
      <trkpt lat="43.0376028302" lon="-5.39545572271">
        <ele>1892</ele>
        <time>2013-02-20T12:43:51+01:00</time>
      </trkpt>
      <trkpt lat="43.03758467057" lon="-5.39547844772">
        <ele>1892.86</ele>
        <time>2013-02-20T12:43:52+01:00</time>
      </trkpt>
      <trkpt lat="43.03756766113" lon="-5.39550123174">
        <ele>1893.68</ele>
        <time>2013-02-20T12:43:52+01:00</time>
      </trkpt>
      <trkpt lat="43.03753921411" lon="-5.39554280303">
        <ele>1894.81</ele>
        <time>2013-02-20T12:43:55+01:00</time>
      </trkpt>
      <trkpt lat="43.03750948541" lon="-5.3955865895">
        <ele>1896.12</ele>
        <time>2013-02-20T12:43:57+01:00</time>
      </trkpt>
      <trkpt lat="43.03748811697" lon="-5.39561519514">
        <ele>1897.16</ele>
        <time>2013-02-20T12:43:57+01:00</time>
      </trkpt>
      <trkpt lat="43.03747029812" lon="-5.39565303573">
        <ele>1897.35</ele>
        <time>2013-02-20T12:43:59+01:00</time>
      </trkpt>
      <trkpt lat="43.03745553613" lon="-5.39569037636">
        <ele>1898.65</ele>
        <time>2013-02-20T12:44:02+01:00</time>
      </trkpt>
      <trkpt lat="43.03744058085" lon="-5.39572138087">
        <ele>1900.1</ele>
        <time>2013-02-20T12:44:03+01:00</time>
      </trkpt>
      <trkpt lat="43.03741656798" lon="-5.39575487325">
        <ele>1901.34</ele>
        <time>2013-02-20T12:44:05+01:00</time>
      </trkpt>
      <trkpt lat="43.03738554681" lon="-5.39578718682">
        <ele>1902.6</ele>
        <time>2013-02-20T12:44:07+01:00</time>
      </trkpt>
      <trkpt lat="43.03736469101" lon="-5.39581215678">
        <ele>1903.73</ele>
        <time>2013-02-20T12:44:09+01:00</time>
      </trkpt>
      <trkpt lat="43.03734570065" lon="-5.39584155887">
        <ele>1905.13</ele>
        <time>2013-02-20T12:44:10+01:00</time>
      </trkpt>
      <trkpt lat="43.03732671456" lon="-5.39587030513">
        <ele>1906.31</ele>
        <time>2013-02-20T12:44:11+01:00</time>
      </trkpt>
      <trkpt lat="43.03731121621" lon="-5.39589932254">
        <ele>1907.4</ele>
        <time>2013-02-20T12:44:12+01:00</time>
      </trkpt>
      <trkpt lat="43.03729758887" lon="-5.39592564492">
        <ele>1908.54</ele>
        <time>2013-02-20T12:44:13+01:00</time>
      </trkpt>
      <trkpt lat="43.03728564331" lon="-5.39595243412">
        <ele>1909.67</ele>
        <time>2013-02-20T12:44:14+01:00</time>
      </trkpt>
      <trkpt lat="43.0372740341" lon="-5.39597904847">
        <ele>1910.73</ele>
        <time>2013-02-20T12:44:15+01:00</time>
      </trkpt>
      <trkpt lat="43.03725146158" lon="-5.39602708552">
        <ele>1911.66</ele>
        <time>2013-02-20T12:44:17+01:00</time>
      </trkpt>
      <trkpt lat="43.03723494419" lon="-5.39605835177">
        <ele>1912.57</ele>
        <time>2013-02-20T12:44:18+01:00</time>
      </trkpt>
      <trkpt lat="43.03721836378" lon="-5.39608914723">
        <ele>1913.49</ele>
        <time>2013-02-20T12:44:18+01:00</time>
      </trkpt>
      <trkpt lat="43.03720131854" lon="-5.39612149852">
        <ele>1914.36</ele>
        <time>2013-02-20T12:44:19+01:00</time>
      </trkpt>
      <trkpt lat="43.03718701601" lon="-5.39614932615">
        <ele>1915.32</ele>
        <time>2013-02-20T12:44:20+01:00</time>
      </trkpt>
      <trkpt lat="43.03717377985" lon="-5.39617549443">
        <ele>1917.99</ele>
        <time>2013-02-20T12:44:21+01:00</time>
      </trkpt>
      <trkpt lat="43.03715374782" lon="-5.39622186479">
        <ele>1919.56</ele>
        <time>2013-02-20T12:44:23+01:00</time>
      </trkpt>
      <trkpt lat="43.03714084396" lon="-5.39624928384">
        <ele>1920.77</ele>
        <time>2013-02-20T12:44:24+01:00</time>
      </trkpt>
      <trkpt lat="43.03711816714" lon="-5.39630000376">
        <ele>1922.22</ele>
        <time>2013-02-20T12:44:26+01:00</time>
      </trkpt>
      <trkpt lat="43.03710597948" lon="-5.39632906475">
        <ele>1922.38</ele>
        <time>2013-02-20T12:44:27+01:00</time>
      </trkpt>
      <trkpt lat="43.03708476987" lon="-5.3963779875">
        <ele>1925.19</ele>
        <time>2013-02-20T12:44:29+01:00</time>
      </trkpt>
      <trkpt lat="43.03707261578" lon="-5.3964064916">
        <ele>1926.59</ele>
        <time>2013-02-20T12:44:30+01:00</time>
      </trkpt>
      <trkpt lat="43.03704835432" lon="-5.39645769721">
        <ele>1928.18</ele>
        <time>2013-02-20T12:44:32+01:00</time>
      </trkpt>
      <trkpt lat="43.03703374508" lon="-5.39648982426">
        <ele>1929.69</ele>
        <time>2013-02-20T12:44:33+01:00</time>
      </trkpt>
      <trkpt lat="43.03701968616" lon="-5.39651966627">
        <ele>1931.32</ele>
        <time>2013-02-20T12:44:34+01:00</time>
      </trkpt>
      <trkpt lat="43.03700489017" lon="-5.39654943065">
        <ele>1932.76</ele>
        <time>2013-02-20T12:44:35+01:00</time>
      </trkpt>
      <trkpt lat="43.03699150504" lon="-5.39657386932">
        <ele>1934.17</ele>
        <time>2013-02-20T12:44:36+01:00</time>
      </trkpt>
      <trkpt lat="43.0369747261" lon="-5.39661052356">
        <ele>1935.58</ele>
        <time>2013-02-20T12:44:37+01:00</time>
      </trkpt>
      <trkpt lat="43.03695913006" lon="-5.39664066742">
        <ele>1936.98</ele>
        <time>2013-02-20T12:44:39+01:00</time>
      </trkpt>
      <trkpt lat="43.03694353915" lon="-5.39667031111">
        <ele>1938.29</ele>
        <time>2013-02-20T12:44:40+01:00</time>
      </trkpt>
      <trkpt lat="43.03693070221" lon="-5.39669658555">
        <ele>1939.6</ele>
        <time>2013-02-20T12:44:40+01:00</time>
      </trkpt>
      <trkpt lat="43.03691514427" lon="-5.39673311922">
        <ele>1941.03</ele>
        <time>2013-02-20T12:44:42+01:00</time>
      </trkpt>
      <trkpt lat="43.03689178201" lon="-5.39677214308">
        <ele>1941.77</ele>
        <time>2013-02-20T12:44:45+01:00</time>
      </trkpt>
      <trkpt lat="43.03687712706" lon="-5.39679537743">
        <ele>1941.7</ele>
        <time>2013-02-20T12:44:47+01:00</time>
      </trkpt>
      <trkpt lat="43.03685626281" lon="-5.39682204012">
        <ele>1942.38</ele>
        <time>2013-02-20T12:44:48+01:00</time>
      </trkpt>
      <trkpt lat="43.03683755356" lon="-5.39685192572">
        <ele>1942.99</ele>
        <time>2013-02-20T12:44:50+01:00</time>
      </trkpt>
      <trkpt lat="43.03682262497" lon="-5.39688576972">
        <ele>1943.38</ele>
        <time>2013-02-20T12:44:52+01:00</time>
      </trkpt>
      <trkpt lat="43.03681281374" lon="-5.39692243109">
        <ele>1943.63</ele>
        <time>2013-02-20T12:44:53+01:00</time>
      </trkpt>
      <trkpt lat="43.03680462948" lon="-5.39697931989">
        <ele>1944.01</ele>
        <time>2013-02-20T12:44:54+01:00</time>
      </trkpt>
      <trkpt lat="43.0368007798" lon="-5.39703575877">
        <ele>1944.27</ele>
        <time>2013-02-20T12:44:57+01:00</time>
      </trkpt>
      <trkpt lat="43.03680135412" lon="-5.39704145289">
        <ele>1944.44</ele>
        <time>2013-02-20T12:44:58+01:00</time>
      </trkpt>
      <trkpt lat="43.03682506928" lon="-5.39710243304">
        <ele>1944.63</ele>
        <time>2013-02-20T12:45:00+01:00</time>
      </trkpt>
      <trkpt lat="43.03684416213" lon="-5.39713018589">
        <ele>1945.15</ele>
        <time>2013-02-20T12:45:02+01:00</time>
      </trkpt>
      <trkpt lat="43.03686201334" lon="-5.39714052815">
        <ele>1945.52</ele>
        <time>2013-02-20T12:45:03+01:00</time>
      </trkpt>
      <trkpt lat="43.03690368638" lon="-5.3971595308">
        <ele>1945.96</ele>
        <time>2013-02-20T12:45:06+01:00</time>
      </trkpt>
      <trkpt lat="43.03691674838" lon="-5.39719283563">
        <ele>1946.12</ele>
        <time>2013-02-20T12:45:08+01:00</time>
      </trkpt>
      <trkpt lat="43.03695510121" lon="-5.39719849077">
        <ele>1946.01</ele>
        <time>2013-02-20T12:45:10+01:00</time>
      </trkpt>
      <trkpt lat="43.03694183232" lon="-5.39721466227">
        <ele>1946.23</ele>
        <time>2013-02-20T12:45:13+01:00</time>
      </trkpt>
      <trkpt lat="43.03693111662" lon="-5.39719856456">
        <ele>1946.25</ele>
        <time>2013-02-20T12:45:22+01:00</time>
      </trkpt>
      <trkpt lat="43.0369491571" lon="-5.39719849661">
        <ele>1946.22</ele>
        <time>2013-02-20T12:45:29+01:00</time>
      </trkpt>
      <trkpt lat="43.03693980322" lon="-5.39719425526">
        <ele>1946.41</ele>
        <time>2013-02-20T12:45:45+01:00</time>
      </trkpt>
      <trkpt lat="43.03694749056" lon="-5.39717361556">
        <ele>1947.83</ele>
        <time>2013-02-20T12:46:16+01:00</time>
      </trkpt>
      <trkpt lat="43.03693013602" lon="-5.39718150393">
        <ele>1947.44</ele>
        <time>2013-02-20T12:46:28+01:00</time>
      </trkpt>
      <trkpt lat="43.03691342171" lon="-5.39719991246">
        <ele>1947.39</ele>
        <time>2013-02-20T12:46:37+01:00</time>
      </trkpt>
      <trkpt lat="43.03693207296" lon="-5.39718964668">
        <ele>1947.22</ele>
        <time>2013-02-20T12:46:51+01:00</time>
      </trkpt>
      <trkpt lat="43.03690881348" lon="-5.39717854107">
        <ele>1947.17</ele>
        <time>2013-02-20T12:47:23+01:00</time>
      </trkpt>
      <trkpt lat="43.036927128" lon="-5.39716492056">
        <ele>1947.52</ele>
        <time>2013-02-20T12:47:33+01:00</time>
      </trkpt>
      <trkpt lat="43.03693669177" lon="-5.39713705075">
        <ele>1947.76</ele>
        <time>2013-02-20T12:47:48+01:00</time>
      </trkpt>
      <trkpt lat="43.0368949851" lon="-5.39718465158">
        <ele>1947.7</ele>
        <time>2013-02-20T12:48:45+01:00</time>
      </trkpt>
      <trkpt lat="43.03688245281" lon="-5.39722079267">
        <ele>1947.85</ele>
        <time>2013-02-20T12:48:54+01:00</time>
      </trkpt>
      <trkpt lat="43.03689067519" lon="-5.39717940585">
        <ele>1948.53</ele>
        <time>2013-02-20T12:49:35+01:00</time>
      </trkpt>
      <trkpt lat="43.03689986338" lon="-5.39719580481">
        <ele>1948.54</ele>
        <time>2013-02-20T12:50:00+01:00</time>
      </trkpt>
      <trkpt lat="43.03690609313" lon="-5.39717165902">
        <ele>1948.33</ele>
        <time>2013-02-20T12:50:09+01:00</time>
      </trkpt>
      <trkpt lat="43.0368915811" lon="-5.39715301648">
        <ele>1948.53</ele>
        <time>2013-02-20T12:50:20+01:00</time>
      </trkpt>
      <trkpt lat="43.0368900155" lon="-5.3971551069">
        <ele>1948.74</ele>
        <time>2013-02-20T12:50:32+01:00</time>
      </trkpt>
      <trkpt lat="43.03689638133" lon="-5.39716438805">
        <ele>1948.74</ele>
        <time>2013-02-20T12:50:37+01:00</time>
      </trkpt>
      <trkpt lat="43.03689255565" lon="-5.39711360903">
        <ele>1948.89</ele>
        <time>2013-02-20T12:50:42+01:00</time>
      </trkpt>
      <trkpt lat="43.03687393062" lon="-5.3970951498">
        <ele>1948.9</ele>
        <time>2013-02-20T12:50:43+01:00</time>
      </trkpt>
      <trkpt lat="43.03684816764" lon="-5.39704350205">
        <ele>1948.94</ele>
        <time>2013-02-20T12:50:45+01:00</time>
      </trkpt>
      <trkpt lat="43.03682868638" lon="-5.39702024036">
        <ele>1948.95</ele>
        <time>2013-02-20T12:50:46+01:00</time>
      </trkpt>
      <trkpt lat="43.03682404347" lon="-5.39701379868">
        <ele>1948.94</ele>
        <time>2013-02-20T12:50:47+01:00</time>
      </trkpt>
      <trkpt lat="43.03682121865" lon="-5.39700849431">
        <ele>1948.94</ele>
        <time>2013-02-20T12:50:47+01:00</time>
      </trkpt>
      <trkpt lat="43.03682081495" lon="-5.39699476314">
        <ele>1948.98</ele>
        <time>2013-02-20T12:50:48+01:00</time>
      </trkpt>
      <trkpt lat="43.03682312202" lon="-5.39697742698">
        <ele>1948.98</ele>
        <time>2013-02-20T12:50:49+01:00</time>
      </trkpt>
      <trkpt lat="43.03683284069" lon="-5.39695755877">
        <ele>1948.81</ele>
        <time>2013-02-20T12:50:50+01:00</time>
      </trkpt>
      <trkpt lat="43.0368608322" lon="-5.39691346408">
        <ele>1948.68</ele>
        <time>2013-02-20T12:50:51+01:00</time>
      </trkpt>
      <trkpt lat="43.03689436455" lon="-5.39686052706">
        <ele>1948.28</ele>
        <time>2013-02-20T12:50:52+01:00</time>
      </trkpt>
      <trkpt lat="43.03706411939" lon="-5.3965638048">
        <ele>1947.98</ele>
        <time>2013-02-20T12:50:53+01:00</time>
      </trkpt>
      <trkpt lat="43.03717690856" lon="-5.39636737346">
        <ele>1947.68</ele>
        <time>2013-02-20T12:50:54+01:00</time>
      </trkpt>
      <trkpt lat="43.03726456764" lon="-5.3962203332">
        <ele>1947.34</ele>
        <time>2013-02-20T12:50:55+01:00</time>
      </trkpt>
      <trkpt lat="43.03733905399" lon="-5.39608269152">
        <ele>1946.97</ele>
        <time>2013-02-20T12:50:56+01:00</time>
      </trkpt>
      <trkpt lat="43.03738897479" lon="-5.39592925536">
        <ele>1946.54</ele>
        <time>2013-02-20T12:50:57+01:00</time>
      </trkpt>
      <trkpt lat="43.03744654079" lon="-5.39577860889">
        <ele>1944.54</ele>
        <time>2013-02-20T12:50:58+01:00</time>
      </trkpt>
      <trkpt lat="43.03752215768" lon="-5.39563023738">
        <ele>1943.11</ele>
        <time>2013-02-20T12:50:59+01:00</time>
      </trkpt>
      <trkpt lat="43.03759952871" lon="-5.3954749567">
        <ele>1941.91</ele>
        <time>2013-02-20T12:51:00+01:00</time>
      </trkpt>
      <trkpt lat="43.03771047643" lon="-5.39519543226">
        <ele>1940.13</ele>
        <time>2013-02-20T12:51:01+01:00</time>
      </trkpt>
      <trkpt lat="43.03778439908" lon="-5.3949948222">
        <ele>1938.13</ele>
        <time>2013-02-20T12:51:02+01:00</time>
      </trkpt>
      <trkpt lat="43.03782992843" lon="-5.39479678513">
        <ele>1936.57</ele>
        <time>2013-02-20T12:51:04+01:00</time>
      </trkpt>
      <trkpt lat="43.03787635053" lon="-5.39459383119">
        <ele>1934.94</ele>
        <time>2013-02-20T12:51:05+01:00</time>
      </trkpt>
      <trkpt lat="43.03792570045" lon="-5.39439713584">
        <ele>1933.25</ele>
        <time>2013-02-20T12:51:05+01:00</time>
      </trkpt>
      <trkpt lat="43.03795678439" lon="-5.39427121171">
        <ele>1931.63</ele>
        <time>2013-02-20T12:51:06+01:00</time>
      </trkpt>
      <trkpt lat="43.03800155826" lon="-5.39416353219">
        <ele>1930.24</ele>
        <time>2013-02-20T12:51:07+01:00</time>
      </trkpt>
      <trkpt lat="43.03808619355" lon="-5.39404915833">
        <ele>1928.56</ele>
        <time>2013-02-20T12:51:09+01:00</time>
      </trkpt>
      <trkpt lat="43.03815015985" lon="-5.3939550709">
        <ele>1927.01</ele>
        <time>2013-02-20T12:51:09+01:00</time>
      </trkpt>
      <trkpt lat="43.03818474722" lon="-5.39389867634">
        <ele>1925.56</ele>
        <time>2013-02-20T12:51:10+01:00</time>
      </trkpt>
      <trkpt lat="43.03825167796" lon="-5.39377644718">
        <ele>1924.13</ele>
        <time>2013-02-20T12:51:11+01:00</time>
      </trkpt>
      <trkpt lat="43.03829255675" lon="-5.39368749422">
        <ele>1922.35</ele>
        <time>2013-02-20T12:51:12+01:00</time>
      </trkpt>
      <trkpt lat="43.03831752984" lon="-5.39358742687">
        <ele>1920.75</ele>
        <time>2013-02-20T12:51:13+01:00</time>
      </trkpt>
      <trkpt lat="43.03834498796" lon="-5.39347930283">
        <ele>1919.21</ele>
        <time>2013-02-20T12:51:14+01:00</time>
      </trkpt>
      <trkpt lat="43.03839892698" lon="-5.39334911562">
        <ele>1917.32</ele>
        <time>2013-02-20T12:51:15+01:00</time>
      </trkpt>
      <trkpt lat="43.03842882553" lon="-5.3932086149">
        <ele>1915.57</ele>
        <time>2013-02-20T12:51:16+01:00</time>
      </trkpt>
      <trkpt lat="43.03845317837" lon="-5.39306417394">
        <ele>1913.59</ele>
        <time>2013-02-20T12:51:17+01:00</time>
      </trkpt>
      <trkpt lat="43.03847829961" lon="-5.39293141721">
        <ele>1911.79</ele>
        <time>2013-02-20T12:51:18+01:00</time>
      </trkpt>
      <trkpt lat="43.03848778303" lon="-5.39276458633">
        <ele>1909.66</ele>
        <time>2013-02-20T12:51:20+01:00</time>
      </trkpt>
      <trkpt lat="43.03850235316" lon="-5.3926201767">
        <ele>1907.75</ele>
        <time>2013-02-20T12:51:21+01:00</time>
      </trkpt>
      <trkpt lat="43.03853245807" lon="-5.39252464188">
        <ele>1905.92</ele>
        <time>2013-02-20T12:51:21+01:00</time>
      </trkpt>
      <trkpt lat="43.0385421671" lon="-5.39241011533">
        <ele>1903.98</ele>
        <time>2013-02-20T12:51:23+01:00</time>
      </trkpt>
      <trkpt lat="43.03854526665" lon="-5.39234437654">
        <ele>1902.08</ele>
        <time>2013-02-20T12:51:23+01:00</time>
      </trkpt>
      <trkpt lat="43.03849668374" lon="-5.39220903935">
        <ele>1900.59</ele>
        <time>2013-02-20T12:51:25+01:00</time>
      </trkpt>
      <trkpt lat="43.03852481983" lon="-5.39214408571">
        <ele>1898.62</ele>
        <time>2013-02-20T12:51:26+01:00</time>
      </trkpt>
      <trkpt lat="43.03854654653" lon="-5.39210474392">
        <ele>1896.69</ele>
        <time>2013-02-20T12:51:27+01:00</time>
      </trkpt>
      <trkpt lat="43.03855099772" lon="-5.39205770611">
        <ele>1894.76</ele>
        <time>2013-02-20T12:51:28+01:00</time>
      </trkpt>
      <trkpt lat="43.03856632687" lon="-5.39198969984">
        <ele>1892.79</ele>
        <time>2013-02-20T12:51:31+01:00</time>
      </trkpt>
      <trkpt lat="43.03856386064" lon="-5.39190911042">
        <ele>1890.76</ele>
        <time>2013-02-20T12:51:33+01:00</time>
      </trkpt>
      <trkpt lat="43.03856232804" lon="-5.39183391688">
        <ele>1888.96</ele>
        <time>2013-02-20T12:51:34+01:00</time>
      </trkpt>
      <trkpt lat="43.03857954987" lon="-5.39179325319">
        <ele>1887.17</ele>
        <time>2013-02-20T12:51:34+01:00</time>
      </trkpt>
      <trkpt lat="43.0386470721" lon="-5.39167435511">
        <ele>1884.95</ele>
        <time>2013-02-20T12:51:36+01:00</time>
      </trkpt>
      <trkpt lat="43.03869336655" lon="-5.39158264855">
        <ele>1882.81</ele>
        <time>2013-02-20T12:51:36+01:00</time>
      </trkpt>
      <trkpt lat="43.03870832513" lon="-5.39142738046">
        <ele>1880.32</ele>
        <time>2013-02-20T12:51:38+01:00</time>
      </trkpt>
      <trkpt lat="43.03874060031" lon="-5.39134582014">
        <ele>1878.26</ele>
        <time>2013-02-20T12:51:39+01:00</time>
      </trkpt>
      <trkpt lat="43.0387471722" lon="-5.39132648265">
        <ele>1876.13</ele>
        <time>2013-02-20T12:51:39+01:00</time>
      </trkpt>
      <trkpt lat="43.03881844571" lon="-5.39114273678">
        <ele>1873.74</ele>
        <time>2013-02-20T12:51:41+01:00</time>
      </trkpt>
      <trkpt lat="43.03891586529" lon="-5.39087825933">
        <ele>1871.04</ele>
        <time>2013-02-20T12:51:41+01:00</time>
      </trkpt>
      <trkpt lat="43.03895293699" lon="-5.39076347609">
        <ele>1868.69</ele>
        <time>2013-02-20T12:51:42+01:00</time>
      </trkpt>
      <trkpt lat="43.03896078901" lon="-5.39073563629">
        <ele>1866.34</ele>
        <time>2013-02-20T12:51:43+01:00</time>
      </trkpt>
      <trkpt lat="43.03915052876" lon="-5.39044902377">
        <ele>1863.4</ele>
        <time>2013-02-20T12:51:45+01:00</time>
      </trkpt>
      <trkpt lat="43.03927263102" lon="-5.39024974536">
        <ele>1860.75</ele>
        <time>2013-02-20T12:51:46+01:00</time>
      </trkpt>
      <trkpt lat="43.03933965206" lon="-5.39014181281">
        <ele>1858.22</ele>
        <time>2013-02-20T12:51:46+01:00</time>
      </trkpt>
      <trkpt lat="43.03941276707" lon="-5.38999732198">
        <ele>1855.81</ele>
        <time>2013-02-20T12:51:47+01:00</time>
      </trkpt>
      <trkpt lat="43.03950512709" lon="-5.38988677126">
        <ele>1853.32</ele>
        <time>2013-02-20T12:51:49+01:00</time>
      </trkpt>
      <trkpt lat="43.03957974271" lon="-5.38975278984">
        <ele>1851.21</ele>
        <time>2013-02-20T12:51:50+01:00</time>
      </trkpt>
      <trkpt lat="43.03965665501" lon="-5.38962352158">
        <ele>1848.34</ele>
        <time>2013-02-20T12:51:51+01:00</time>
      </trkpt>
      <trkpt lat="43.03973735596" lon="-5.3894850848">
        <ele>1845.47</ele>
        <time>2013-02-20T12:51:51+01:00</time>
      </trkpt>
      <trkpt lat="43.03978558542" lon="-5.38935296022">
        <ele>1846.35</ele>
        <time>2013-02-20T12:51:53+01:00</time>
      </trkpt>
      <trkpt lat="43.03983327425" lon="-5.38921770532">
        <ele>1845.01</ele>
        <time>2013-02-20T12:51:53+01:00</time>
      </trkpt>
      <trkpt lat="43.03992367098" lon="-5.38907732295">
        <ele>1843.27</ele>
        <time>2013-02-20T12:51:54+01:00</time>
      </trkpt>
      <trkpt lat="43.0399435736" lon="-5.38905341084">
        <ele>1841.87</ele>
        <time>2013-02-20T12:51:55+01:00</time>
      </trkpt>
      <trkpt lat="43.03997331282" lon="-5.38902454738">
        <ele>1840.83</ele>
        <time>2013-02-20T12:51:56+01:00</time>
      </trkpt>
      <trkpt lat="43.03999375513" lon="-5.38900867545">
        <ele>1839.44</ele>
        <time>2013-02-20T12:51:57+01:00</time>
      </trkpt>
      <trkpt lat="43.04004818863" lon="-5.38896278943">
        <ele>1837.41</ele>
        <time>2013-02-20T12:52:02+01:00</time>
      </trkpt>
      <trkpt lat="43.04010461317" lon="-5.38891297415">
        <ele>1835.74</ele>
        <time>2013-02-20T12:52:03+01:00</time>
      </trkpt>
      <trkpt lat="43.0402179386" lon="-5.38880678324">
        <ele>1834.04</ele>
        <time>2013-02-20T12:52:04+01:00</time>
      </trkpt>
      <trkpt lat="43.04032570662" lon="-5.38869775847">
        <ele>1832.31</ele>
        <time>2013-02-20T12:52:05+01:00</time>
      </trkpt>
      <trkpt lat="43.04042828019" lon="-5.38858724772">
        <ele>1830.53</ele>
        <time>2013-02-20T12:52:06+01:00</time>
      </trkpt>
      <trkpt lat="43.04093948209" lon="-5.38804879419">
        <ele>1828.67</ele>
        <time>2013-02-20T12:52:07+01:00</time>
      </trkpt>
      <trkpt lat="43.04125149325" lon="-5.38774687801">
        <ele>1820.7</ele>
        <time>2013-02-20T12:52:08+01:00</time>
      </trkpt>
      <trkpt lat="43.04147289863" lon="-5.38757613862">
        <ele>1816.76</ele>
        <time>2013-02-20T12:52:09+01:00</time>
      </trkpt>
      <trkpt lat="43.04164573218" lon="-5.3874862427">
        <ele>1812.91</ele>
        <time>2013-02-20T12:52:10+01:00</time>
      </trkpt>
      <trkpt lat="43.04179392358" lon="-5.38743203274">
        <ele>1808.8</ele>
        <time>2013-02-20T12:52:11+01:00</time>
      </trkpt>
      <trkpt lat="43.04191470648" lon="-5.38735442679">
        <ele>1804.25</ele>
        <time>2013-02-20T12:52:12+01:00</time>
      </trkpt>
      <trkpt lat="43.04201910292" lon="-5.38727756998">
        <ele>1800.31</ele>
        <time>2013-02-20T12:52:13+01:00</time>
      </trkpt>
      <trkpt lat="43.04217631377" lon="-5.38717477851">
        <ele>1796.44</ele>
        <time>2013-02-20T12:52:14+01:00</time>
      </trkpt>
      <trkpt lat="43.04224296665" lon="-5.38713544276">
        <ele>1792.66</ele>
        <time>2013-02-20T12:52:16+01:00</time>
      </trkpt>
      <trkpt lat="43.04230680322" lon="-5.38707499693">
        <ele>1788.9</ele>
        <time>2013-02-20T12:52:17+01:00</time>
      </trkpt>
      <trkpt lat="43.04232010613" lon="-5.38706185287">
        <ele>1785.42</ele>
        <time>2013-02-20T12:52:17+01:00</time>
      </trkpt>
      <trkpt lat="43.04233131181" lon="-5.38704594123">
        <ele>1782.04</ele>
        <time>2013-02-20T12:52:18+01:00</time>
      </trkpt>
      <trkpt lat="43.04233978341" lon="-5.38703525851">
        <ele>1778.63</ele>
        <time>2013-02-20T12:52:21+01:00</time>
      </trkpt>
      <trkpt lat="43.04235017807" lon="-5.38702475557">
        <ele>1775.53</ele>
        <time>2013-02-20T12:52:23+01:00</time>
      </trkpt>
      <trkpt lat="43.04235390062" lon="-5.38702039074">
        <ele>1772.66</ele>
        <time>2013-02-20T12:52:25+01:00</time>
      </trkpt>
      <trkpt lat="43.04237054733" lon="-5.38702493081">
        <ele>1769.95</ele>
        <time>2013-02-20T12:52:31+01:00</time>
      </trkpt>
      <trkpt lat="43.04237059848" lon="-5.3870348899">
        <ele>1766.99</ele>
        <time>2013-02-20T12:52:34+01:00</time>
      </trkpt>
      <trkpt lat="43.04238757153" lon="-5.38704085566">
        <ele>1764.41</ele>
        <time>2013-02-20T12:52:34+01:00</time>
      </trkpt>
      <trkpt lat="43.04239290239" lon="-5.38703796536">
        <ele>1761.06</ele>
        <time>2013-02-20T12:52:36+01:00</time>
      </trkpt>
      <trkpt lat="43.04240953614" lon="-5.38704042364">
        <ele>1758.07</ele>
        <time>2013-02-20T12:52:43+01:00</time>
      </trkpt>
      <trkpt lat="43.04242156201" lon="-5.38701579461">
        <ele>1755.2</ele>
        <time>2013-02-20T12:52:45+01:00</time>
      </trkpt>
      <trkpt lat="43.0424240596" lon="-5.3870097694">
        <ele>1752.27</ele>
        <time>2013-02-20T12:52:48+01:00</time>
      </trkpt>
      <trkpt lat="43.04244596473" lon="-5.38696673033">
        <ele>1748.97</ele>
        <time>2013-02-20T12:52:53+01:00</time>
      </trkpt>
      <trkpt lat="43.04245438177" lon="-5.38692517805">
        <ele>1745.75</ele>
        <time>2013-02-20T12:53:05+01:00</time>
      </trkpt>
      <trkpt lat="43.04244672989" lon="-5.38691169416">
        <ele>1747.17</ele>
        <time>2013-02-20T12:53:07+01:00</time>
      </trkpt>
      <trkpt lat="43.04244438053" lon="-5.38691309504">
        <ele>1745.95</ele>
        <time>2013-02-20T12:53:12+01:00</time>
      </trkpt>
      <trkpt lat="43.04242341482" lon="-5.3869133221">
        <ele>1744.67</ele>
        <time>2013-02-20T12:53:14+01:00</time>
      </trkpt>
      <trkpt lat="43.04237911608" lon="-5.38689298485">
        <ele>1740.9</ele>
        <time>2013-02-20T12:53:16+01:00</time>
      </trkpt>
      <trkpt lat="43.04237016311" lon="-5.38687522954">
        <ele>1742.32</ele>
        <time>2013-02-20T12:53:17+01:00</time>
      </trkpt>
      <trkpt lat="43.04236646195" lon="-5.38685059391">
        <ele>1739.18</ele>
        <time>2013-02-20T12:53:18+01:00</time>
      </trkpt>
      <trkpt lat="43.04237073016" lon="-5.386820255">
        <ele>1737.7</ele>
        <time>2013-02-20T12:53:18+01:00</time>
      </trkpt>
      <trkpt lat="43.04237990506" lon="-5.38678274777">
        <ele>1736.1</ele>
        <time>2013-02-20T12:53:21+01:00</time>
      </trkpt>
      <trkpt lat="43.04239675105" lon="-5.38674660171">
        <ele>1736.94</ele>
        <time>2013-02-20T12:53:23+01:00</time>
      </trkpt>
      <trkpt lat="43.04241462464" lon="-5.38671549482">
        <ele>1733.65</ele>
        <time>2013-02-20T12:53:24+01:00</time>
      </trkpt>
      <trkpt lat="43.04241894752" lon="-5.3867098947">
        <ele>1734.26</ele>
        <time>2013-02-20T12:53:27+01:00</time>
      </trkpt>
      <trkpt lat="43.04242255244" lon="-5.38670566474">
        <ele>1733.67</ele>
        <time>2013-02-20T12:53:28+01:00</time>
      </trkpt>
      <trkpt lat="43.04242902459" lon="-5.38669435888">
        <ele>1733.01</ele>
        <time>2013-02-20T12:53:31+01:00</time>
      </trkpt>
      <trkpt lat="43.04246615399" lon="-5.3866290237">
        <ele>1732.1</ele>
        <time>2013-02-20T12:53:32+01:00</time>
      </trkpt>
      <trkpt lat="43.04249477698" lon="-5.38657100085">
        <ele>1731.56</ele>
        <time>2013-02-20T12:53:34+01:00</time>
      </trkpt>
      <trkpt lat="43.04251952394" lon="-5.38653507436">
        <ele>1730.79</ele>
        <time>2013-02-20T12:53:34+01:00</time>
      </trkpt>
      <trkpt lat="43.04254151566" lon="-5.38650675946">
        <ele>1730.06</ele>
        <time>2013-02-20T12:53:36+01:00</time>
      </trkpt>
      <trkpt lat="43.04257317291" lon="-5.38647432947">
        <ele>1729.22</ele>
        <time>2013-02-20T12:53:38+01:00</time>
      </trkpt>
      <trkpt lat="43.042598976" lon="-5.38644847528">
        <ele>1728.37</ele>
        <time>2013-02-20T12:53:38+01:00</time>
      </trkpt>
      <trkpt lat="43.04262782411" lon="-5.38640340359">
        <ele>1727.39</ele>
        <time>2013-02-20T12:53:41+01:00</time>
      </trkpt>
      <trkpt lat="43.04263191173" lon="-5.38639563586">
        <ele>1726.44</ele>
        <time>2013-02-20T12:53:41+01:00</time>
      </trkpt>
      <trkpt lat="43.04263751423" lon="-5.38638504068">
        <ele>1725.58</ele>
        <time>2013-02-20T12:53:42+01:00</time>
      </trkpt>
      <trkpt lat="43.04264060113" lon="-5.38637869706">
        <ele>1724.73</ele>
        <time>2013-02-20T12:53:43+01:00</time>
      </trkpt>
      <trkpt lat="43.04264427549" lon="-5.3863712373">
        <ele>1723.86</ele>
        <time>2013-02-20T12:53:44+01:00</time>
      </trkpt>
      <trkpt lat="43.04271501197" lon="-5.38623981124">
        <ele>1720.35</ele>
        <time>2013-02-20T12:53:47+01:00</time>
      </trkpt>
      <trkpt lat="43.04273583126" lon="-5.38623739769">
        <ele>1718.87</ele>
        <time>2013-02-20T12:53:54+01:00</time>
      </trkpt>
      <trkpt lat="43.04275816708" lon="-5.38623758553">
        <ele>1717.58</ele>
        <time>2013-02-20T12:54:00+01:00</time>
      </trkpt>
      <trkpt lat="43.04278077269" lon="-5.38622152984">
        <ele>1715.88</ele>
        <time>2013-02-20T12:54:07+01:00</time>
      </trkpt>
      <trkpt lat="43.04279109409" lon="-5.38618532753">
        <ele>1714.39</ele>
        <time>2013-02-20T12:54:13+01:00</time>
      </trkpt>
      <trkpt lat="43.04280003153" lon="-5.38614985682">
        <ele>1712.49</ele>
        <time>2013-02-20T12:54:14+01:00</time>
      </trkpt>
      <trkpt lat="43.04280336128" lon="-5.38611681231">
        <ele>1710.63</ele>
        <time>2013-02-20T12:54:17+01:00</time>
      </trkpt>
      <trkpt lat="43.04281911466" lon="-5.38608572825">
        <ele>1709.07</ele>
        <time>2013-02-20T12:54:20+01:00</time>
      </trkpt>
      <trkpt lat="43.04284627111" lon="-5.38606831321">
        <ele>1707.38</ele>
        <time>2013-02-20T12:54:23+01:00</time>
      </trkpt>
      <trkpt lat="43.0428774516" lon="-5.38604887106">
        <ele>1705.95</ele>
        <time>2013-02-20T12:54:25+01:00</time>
      </trkpt>
      <trkpt lat="43.04291104623" lon="-5.38603485729">
        <ele>1704.34</ele>
        <time>2013-02-20T12:54:27+01:00</time>
      </trkpt>
      <trkpt lat="43.04290686869" lon="-5.38600798171">
        <ele>1704.01</ele>
        <time>2013-02-20T12:54:33+01:00</time>
      </trkpt>
      <trkpt lat="43.04289097928" lon="-5.38598275825">
        <ele>1703.45</ele>
        <time>2013-02-20T12:54:37+01:00</time>
      </trkpt>
      <trkpt lat="43.04287675552" lon="-5.38597344462">
        <ele>1702.9</ele>
        <time>2013-02-20T12:54:39+01:00</time>
      </trkpt>
      <trkpt lat="43.04290031229" lon="-5.38595901997">
        <ele>1702.14</ele>
        <time>2013-02-20T12:54:40+01:00</time>
      </trkpt>
      <trkpt lat="43.04291201598" lon="-5.38594560795">
        <ele>1701.42</ele>
        <time>2013-02-20T12:54:43+01:00</time>
      </trkpt>
      <trkpt lat="43.04294816749" lon="-5.38591174429">
        <ele>1700.32</ele>
        <time>2013-02-20T12:54:45+01:00</time>
      </trkpt>
      <trkpt lat="43.04297524614" lon="-5.38588217278">
        <ele>1699.76</ele>
        <time>2013-02-20T12:54:47+01:00</time>
      </trkpt>
      <trkpt lat="43.0429974592" lon="-5.38585714774">
        <ele>1699.27</ele>
        <time>2013-02-20T12:54:49+01:00</time>
      </trkpt>
      <trkpt lat="43.04302584053" lon="-5.38583631769">
        <ele>1698.34</ele>
        <time>2013-02-20T12:54:51+01:00</time>
      </trkpt>
      <trkpt lat="43.04305009109" lon="-5.38582115463">
        <ele>1697.38</ele>
        <time>2013-02-20T12:54:52+01:00</time>
      </trkpt>
      <trkpt lat="43.04306525522" lon="-5.38581297282">
        <ele>1696.57</ele>
        <time>2013-02-20T12:54:52+01:00</time>
      </trkpt>
      <trkpt lat="43.04310159345" lon="-5.38578704841">
        <ele>1695.95</ele>
        <time>2013-02-20T12:54:54+01:00</time>
      </trkpt>
      <trkpt lat="43.04312275286" lon="-5.38576608013">
        <ele>1695.28</ele>
        <time>2013-02-20T12:54:56+01:00</time>
      </trkpt>
      <trkpt lat="43.0431407715" lon="-5.3857410953">
        <ele>1693.58</ele>
        <time>2013-02-20T12:54:58+01:00</time>
      </trkpt>
      <trkpt lat="43.04315476805" lon="-5.38570991124">
        <ele>1692.97</ele>
        <time>2013-02-20T12:55:02+01:00</time>
      </trkpt>
      <trkpt lat="43.04315778122" lon="-5.38570277791">
        <ele>1693.49</ele>
        <time>2013-02-20T12:55:06+01:00</time>
      </trkpt>
      <trkpt lat="43.04316283582" lon="-5.38569446359">
        <ele>1693.02</ele>
        <time>2013-02-20T12:55:07+01:00</time>
      </trkpt>
      <trkpt lat="43.04322139066" lon="-5.38562253059">
        <ele>1691.52</ele>
        <time>2013-02-20T12:55:09+01:00</time>
      </trkpt>
      <trkpt lat="43.04325546455" lon="-5.3855973481">
        <ele>1691.03</ele>
        <time>2013-02-20T12:55:11+01:00</time>
      </trkpt>
      <trkpt lat="43.04328266412" lon="-5.38557608424">
        <ele>1690.76</ele>
        <time>2013-02-20T12:55:14+01:00</time>
      </trkpt>
      <trkpt lat="43.04329306295" lon="-5.38556072767">
        <ele>1690.21</ele>
        <time>2013-02-20T12:55:16+01:00</time>
      </trkpt>
      <trkpt lat="43.04331321727" lon="-5.38551940751">
        <ele>1689.34</ele>
        <time>2013-02-20T12:55:19+01:00</time>
      </trkpt>
      <trkpt lat="43.04333297258" lon="-5.38549665954">
        <ele>1688.74</ele>
        <time>2013-02-20T12:55:21+01:00</time>
      </trkpt>
      <trkpt lat="43.04335365392" lon="-5.38547192633">
        <ele>1688.16</ele>
        <time>2013-02-20T12:55:23+01:00</time>
      </trkpt>
      <trkpt lat="43.04337260939" lon="-5.38544565612">
        <ele>1687.58</ele>
        <time>2013-02-20T12:55:25+01:00</time>
      </trkpt>
      <trkpt lat="43.04339363368" lon="-5.38541378116">
        <ele>1686.93</ele>
        <time>2013-02-20T12:55:28+01:00</time>
      </trkpt>
      <trkpt lat="43.04341728455" lon="-5.38538628377">
        <ele>1686.26</ele>
        <time>2013-02-20T12:55:31+01:00</time>
      </trkpt>
      <trkpt lat="43.04343710215" lon="-5.38535932662">
        <ele>1685.79</ele>
        <time>2013-02-20T12:55:35+01:00</time>
      </trkpt>
      <trkpt lat="43.04346292568" lon="-5.38534696145">
        <ele>1685.16</ele>
        <time>2013-02-20T12:55:40+01:00</time>
      </trkpt>
      <trkpt lat="43.0434788522" lon="-5.38533518988">
        <ele>1684.54</ele>
        <time>2013-02-20T12:55:42+01:00</time>
      </trkpt>
      <trkpt lat="43.04352126536" lon="-5.38530760066">
        <ele>1684.05</ele>
        <time>2013-02-20T12:55:43+01:00</time>
      </trkpt>
      <trkpt lat="43.04356129747" lon="-5.38529276214">
        <ele>1683.7</ele>
        <time>2013-02-20T12:55:45+01:00</time>
      </trkpt>
      <trkpt lat="43.0435911639" lon="-5.38528302185">
        <ele>1683.32</ele>
        <time>2013-02-20T12:55:47+01:00</time>
      </trkpt>
      <trkpt lat="43.0436067576" lon="-5.38527111739">
        <ele>1682.72</ele>
        <time>2013-02-20T12:55:50+01:00</time>
      </trkpt>
      <trkpt lat="43.0436384774" lon="-5.38523383296">
        <ele>1681.74</ele>
        <time>2013-02-20T12:55:52+01:00</time>
      </trkpt>
      <trkpt lat="43.04366031112" lon="-5.38520418079">
        <ele>1681.07</ele>
        <time>2013-02-20T12:55:53+01:00</time>
      </trkpt>
      <trkpt lat="43.04368127403" lon="-5.38517484809">
        <ele>1680.08</ele>
        <time>2013-02-20T12:55:56+01:00</time>
      </trkpt>
      <trkpt lat="43.04370964002" lon="-5.38513780087">
        <ele>1678.71</ele>
        <time>2013-02-20T12:55:58+01:00</time>
      </trkpt>
      <trkpt lat="43.04373824611" lon="-5.38507057816">
        <ele>1678.07</ele>
        <time>2013-02-20T12:56:00+01:00</time>
      </trkpt>
      <trkpt lat="43.04374245858" lon="-5.38502058852">
        <ele>1677.24</ele>
        <time>2013-02-20T12:56:03+01:00</time>
      </trkpt>
      <trkpt lat="43.04374541332" lon="-5.38498571311">
        <ele>1676.34</ele>
        <time>2013-02-20T12:56:05+01:00</time>
      </trkpt>
      <trkpt lat="43.04375514944" lon="-5.38497301368">
        <ele>1675.63</ele>
        <time>2013-02-20T12:56:06+01:00</time>
      </trkpt>
      <trkpt lat="43.04377753567" lon="-5.38496733453">
        <ele>1675.04</ele>
        <time>2013-02-20T12:56:08+01:00</time>
      </trkpt>
      <trkpt lat="43.04380434009" lon="-5.38496055545">
        <ele>1674.44</ele>
        <time>2013-02-20T12:56:12+01:00</time>
      </trkpt>
      <trkpt lat="43.04382840826" lon="-5.38495029276">
        <ele>1673.87</ele>
        <time>2013-02-20T12:56:15+01:00</time>
      </trkpt>
      <trkpt lat="43.04385446109" lon="-5.38493958744">
        <ele>1673.56</ele>
        <time>2013-02-20T12:56:18+01:00</time>
      </trkpt>
      <trkpt lat="43.04389411234" lon="-5.38491600282">
        <ele>1673.04</ele>
        <time>2013-02-20T12:56:20+01:00</time>
      </trkpt>
      <trkpt lat="43.04392172329" lon="-5.38488801773">
        <ele>1672.66</ele>
        <time>2013-02-20T12:56:21+01:00</time>
      </trkpt>
      <trkpt lat="43.04394799908" lon="-5.38488423121">
        <ele>1671.88</ele>
        <time>2013-02-20T12:56:24+01:00</time>
      </trkpt>
      <trkpt lat="43.04392961633" lon="-5.38488635628">
        <ele>1671.83</ele>
        <time>2013-02-20T12:56:34+01:00</time>
      </trkpt>
      <trkpt lat="43.043925209" lon="-5.38488619998">
        <ele>1671.46</ele>
        <time>2013-02-20T12:56:35+01:00</time>
      </trkpt>
      <trkpt lat="43.04391460813" lon="-5.38488517922">
        <ele>1670.92</ele>
        <time>2013-02-20T12:56:36+01:00</time>
      </trkpt>
      <trkpt lat="43.04390827871" lon="-5.38488407027">
        <ele>1670.48</ele>
        <time>2013-02-20T12:56:38+01:00</time>
      </trkpt>
      <trkpt lat="43.0439011321" lon="-5.384882451">
        <ele>1670.14</ele>
        <time>2013-02-20T12:56:38+01:00</time>
      </trkpt>
      <trkpt lat="43.04389392582" lon="-5.38487912735">
        <ele>1669.85</ele>
        <time>2013-02-20T12:56:39+01:00</time>
      </trkpt>
      <trkpt lat="43.04388766659" lon="-5.38487396241">
        <ele>1669.5</ele>
        <time>2013-02-20T12:56:41+01:00</time>
      </trkpt>
      <trkpt lat="43.04387875382" lon="-5.38485993293">
        <ele>1669.18</ele>
        <time>2013-02-20T12:56:43+01:00</time>
      </trkpt>
      <trkpt lat="43.04387265179" lon="-5.38484535341">
        <ele>1668.92</ele>
        <time>2013-02-20T12:56:44+01:00</time>
      </trkpt>
      <trkpt lat="43.0438692219" lon="-5.38483011122">
        <ele>1668.66</ele>
        <time>2013-02-20T12:56:45+01:00</time>
      </trkpt>
      <trkpt lat="43.04386790359" lon="-5.3848143816">
        <ele>1668.42</ele>
        <time>2013-02-20T12:56:46+01:00</time>
      </trkpt>
      <trkpt lat="43.04386857369" lon="-5.38479834739">
        <ele>1668.19</ele>
        <time>2013-02-20T12:56:47+01:00</time>
      </trkpt>
      <trkpt lat="43.04387135609" lon="-5.38478165349">
        <ele>1667.97</ele>
        <time>2013-02-20T12:56:48+01:00</time>
      </trkpt>
      <trkpt lat="43.04387379839" lon="-5.38477294262">
        <ele>1667.77</ele>
        <time>2013-02-20T12:56:49+01:00</time>
      </trkpt>
      <trkpt lat="43.04387746178" lon="-5.38476356508">
        <ele>1667.54</ele>
        <time>2013-02-20T12:56:50+01:00</time>
      </trkpt>
      <trkpt lat="43.04388694099" lon="-5.38474304877">
        <ele>1667.36</ele>
        <time>2013-02-20T12:56:51+01:00</time>
      </trkpt>
      <trkpt lat="43.04394160449" lon="-5.38463953555">
        <ele>1667.24</ele>
        <time>2013-02-20T12:56:52+01:00</time>
      </trkpt>
      <trkpt lat="43.04397985367" lon="-5.38457566709">
        <ele>1666.59</ele>
        <time>2013-02-20T12:56:53+01:00</time>
      </trkpt>
      <trkpt lat="43.04401075483" lon="-5.3845329202">
        <ele>1666.26</ele>
        <time>2013-02-20T12:56:54+01:00</time>
      </trkpt>
      <trkpt lat="43.0440349226" lon="-5.38449926727">
        <ele>1666.02</ele>
        <time>2013-02-20T12:56:55+01:00</time>
      </trkpt>
      <trkpt lat="43.04405551411" lon="-5.38447238252">
        <ele>1665.79</ele>
        <time>2013-02-20T12:56:56+01:00</time>
      </trkpt>
      <trkpt lat="43.04408198694" lon="-5.38443941031">
        <ele>1665.43</ele>
        <time>2013-02-20T12:56:58+01:00</time>
      </trkpt>
      <trkpt lat="43.0441031652" lon="-5.38440683095">
        <ele>1665.12</ele>
        <time>2013-02-20T12:57:00+01:00</time>
      </trkpt>
      <trkpt lat="43.04413610049" lon="-5.38436205906">
        <ele>1664.71</ele>
        <time>2013-02-20T12:57:02+01:00</time>
      </trkpt>
      <trkpt lat="43.04415381871" lon="-5.38433305517">
        <ele>1664.24</ele>
        <time>2013-02-20T12:57:03+01:00</time>
      </trkpt>
      <trkpt lat="43.04418502264" lon="-5.38429768303">
        <ele>1663.94</ele>
        <time>2013-02-20T12:57:05+01:00</time>
      </trkpt>
      <trkpt lat="43.04421815257" lon="-5.38427793517">
        <ele>1663.49</ele>
        <time>2013-02-20T12:57:06+01:00</time>
      </trkpt>
      <trkpt lat="43.04425414875" lon="-5.38426654247">
        <ele>1662.8</ele>
        <time>2013-02-20T12:57:08+01:00</time>
      </trkpt>
      <trkpt lat="43.04428320798" lon="-5.38425775957">
        <ele>1662.24</ele>
        <time>2013-02-20T12:57:09+01:00</time>
      </trkpt>
      <trkpt lat="43.04430169731" lon="-5.38425058483">
        <ele>1661.76</ele>
        <time>2013-02-20T12:57:10+01:00</time>
      </trkpt>
      <trkpt lat="43.04432368247" lon="-5.3842454049">
        <ele>1660.92</ele>
        <time>2013-02-20T12:57:11+01:00</time>
      </trkpt>
      <trkpt lat="43.04434584393" lon="-5.38423367865">
        <ele>1660.29</ele>
        <time>2013-02-20T12:57:14+01:00</time>
      </trkpt>
      <trkpt lat="43.04434833321" lon="-5.38420815997">
        <ele>1660.07</ele>
        <time>2013-02-20T12:57:17+01:00</time>
      </trkpt>
      <trkpt lat="43.04434728714" lon="-5.38420109026">
        <ele>1659.68</ele>
        <time>2013-02-20T12:57:19+01:00</time>
      </trkpt>
      <trkpt lat="43.04434598944" lon="-5.38419114844">
        <ele>1659.26</ele>
        <time>2013-02-20T12:57:20+01:00</time>
      </trkpt>
      <trkpt lat="43.04434140708" lon="-5.38413014938">
        <ele>1658.93</ele>
        <time>2013-02-20T12:57:20+01:00</time>
      </trkpt>
      <trkpt lat="43.04438590787" lon="-5.38405468094">
        <ele>1658.57</ele>
        <time>2013-02-20T12:57:22+01:00</time>
      </trkpt>
      <trkpt lat="43.04442770906" lon="-5.38401216903">
        <ele>1658.19</ele>
        <time>2013-02-20T12:57:22+01:00</time>
      </trkpt>
      <trkpt lat="43.04446440954" lon="-5.38398240545">
        <ele>1657.79</ele>
        <time>2013-02-20T12:57:23+01:00</time>
      </trkpt>
      <trkpt lat="43.04447242908" lon="-5.38393894137">
        <ele>1657.39</ele>
        <time>2013-02-20T12:57:26+01:00</time>
      </trkpt>
      <trkpt lat="43.04447633408" lon="-5.38390044552">
        <ele>1656.79</ele>
        <time>2013-02-20T12:57:28+01:00</time>
      </trkpt>
      <trkpt lat="43.04453370576" lon="-5.3838685089">
        <ele>1656.13</ele>
        <time>2013-02-20T12:57:30+01:00</time>
      </trkpt>
      <trkpt lat="43.04456207801" lon="-5.38385253268">
        <ele>1655.56</ele>
        <time>2013-02-20T12:57:30+01:00</time>
      </trkpt>
      <trkpt lat="43.04454746826" lon="-5.38384229664">
        <ele>1655.08</ele>
        <time>2013-02-20T12:57:32+01:00</time>
      </trkpt>
      <trkpt lat="43.04453914836" lon="-5.38380571599">
        <ele>1655.08</ele>
        <time>2013-02-20T12:57:35+01:00</time>
      </trkpt>
      <trkpt lat="43.04454667095" lon="-5.38376674979">
        <ele>1654.79</ele>
        <time>2013-02-20T12:57:37+01:00</time>
      </trkpt>
      <trkpt lat="43.04454887954" lon="-5.38373106158">
        <ele>1654.57</ele>
        <time>2013-02-20T12:57:41+01:00</time>
      </trkpt>
      <trkpt lat="43.04456688973" lon="-5.38371299394">
        <ele>1654.36</ele>
        <time>2013-02-20T12:57:43+01:00</time>
      </trkpt>
      <trkpt lat="43.04454350204" lon="-5.38372084685">
        <ele>1654.63</ele>
        <time>2013-02-20T12:57:49+01:00</time>
      </trkpt>
      <trkpt lat="43.0445189091" lon="-5.38371939995">
        <ele>1654.7</ele>
        <time>2013-02-20T12:57:52+01:00</time>
      </trkpt>
      <trkpt lat="43.04451409574" lon="-5.38370270674">
        <ele>1654.67</ele>
        <time>2013-02-20T12:58:00+01:00</time>
      </trkpt>
      <trkpt lat="43.04452724355" lon="-5.38368318309">
        <ele>1654.77</ele>
        <time>2013-02-20T12:58:05+01:00</time>
      </trkpt>
      <trkpt lat="43.04451649559" lon="-5.38366278277">
        <ele>1654.88</ele>
        <time>2013-02-20T12:58:15+01:00</time>
      </trkpt>
      <trkpt lat="43.04448490876" lon="-5.38365950737">
        <ele>1654.7</ele>
        <time>2013-02-20T12:58:23+01:00</time>
      </trkpt>
      <trkpt lat="43.04446873427" lon="-5.3836814499">
        <ele>1654.39</ele>
        <time>2013-02-20T12:58:31+01:00</time>
      </trkpt>
      <trkpt lat="43.0444660207" lon="-5.38368099264">
        <ele>1654.81</ele>
        <time>2013-02-20T12:59:02+01:00</time>
      </trkpt>
      <trkpt lat="43.04443886886" lon="-5.38367486972">
        <ele>1654.89</ele>
        <time>2013-02-20T12:59:09+01:00</time>
      </trkpt>
      <trkpt lat="43.04439739963" lon="-5.38366983728">
        <ele>1655.4</ele>
        <time>2013-02-20T12:59:12+01:00</time>
      </trkpt>
      <trkpt lat="43.04442323689" lon="-5.38367533515">
        <ele>1655.67</ele>
        <time>2013-02-20T12:59:24+01:00</time>
      </trkpt>
      <trkpt lat="43.04446012146" lon="-5.38365718987">
        <ele>1655.82</ele>
        <time>2013-02-20T12:59:32+01:00</time>
      </trkpt>
      <trkpt lat="43.04443889932" lon="-5.38366408848">
        <ele>1656.2</ele>
        <time>2013-02-20T12:59:45+01:00</time>
      </trkpt>
      <trkpt lat="43.04441430364" lon="-5.38366325538">
        <ele>1656.64</ele>
        <time>2013-02-20T12:59:49+01:00</time>
      </trkpt>
      <trkpt lat="43.04444579549" lon="-5.38366945901">
        <ele>1656.58</ele>
        <time>2013-02-20T12:59:56+01:00</time>
      </trkpt>
      <trkpt lat="43.04447874831" lon="-5.38365755691">
        <ele>1656.89</ele>
        <time>2013-02-20T13:00:07+01:00</time>
      </trkpt>
      <trkpt lat="43.04446099783" lon="-5.38365289662">
        <ele>1657.5</ele>
        <time>2013-02-20T13:00:29+01:00</time>
      </trkpt>
      <trkpt lat="43.0444390746" lon="-5.38365565259">
        <ele>1657.74</ele>
        <time>2013-02-20T13:00:38+01:00</time>
      </trkpt>
      <trkpt lat="43.0444334159" lon="-5.38368450109">
        <ele>1657.86</ele>
        <time>2013-02-20T13:00:55+01:00</time>
      </trkpt>
      <trkpt lat="43.04441495039" lon="-5.38370964975">
        <ele>1657.9</ele>
        <time>2013-02-20T13:00:59+01:00</time>
      </trkpt>
      <trkpt lat="43.04439981789" lon="-5.38371002731">
        <ele>1658.05</ele>
        <time>2013-02-20T13:01:01+01:00</time>
      </trkpt>
      <trkpt lat="43.04441570744" lon="-5.38367814284">
        <ele>1657.83</ele>
        <time>2013-02-20T13:01:24+01:00</time>
      </trkpt>
      <trkpt lat="43.0444349394" lon="-5.38367218754">
        <ele>1658.35</ele>
        <time>2013-02-20T13:01:59+01:00</time>
      </trkpt>
      <trkpt lat="43.04444447156" lon="-5.38368609942">
        <ele>1658.12</ele>
        <time>2013-02-20T13:02:21+01:00</time>
      </trkpt>
      <trkpt lat="43.04444303175" lon="-5.38368883171">
        <ele>1658.22</ele>
        <time>2013-02-20T13:02:23+01:00</time>
      </trkpt>
      <trkpt lat="43.04441499601" lon="-5.38372251876">
        <ele>1658.31</ele>
        <time>2013-02-20T13:02:25+01:00</time>
      </trkpt>
      <trkpt lat="43.04443081301" lon="-5.38373294421">
        <ele>1658.45</ele>
        <time>2013-02-20T13:02:39+01:00</time>
      </trkpt>
      <trkpt lat="43.04441248521" lon="-5.38373274942">
        <ele>1658.51</ele>
        <time>2013-02-20T13:02:46+01:00</time>
      </trkpt>
      <trkpt lat="43.04439669937" lon="-5.38373356326">
        <ele>1658.49</ele>
        <time>2013-02-20T13:02:47+01:00</time>
      </trkpt>
      <trkpt lat="43.04439281576" lon="-5.38373496899">
        <ele>1658.58</ele>
        <time>2013-02-20T13:02:51+01:00</time>
      </trkpt>
      <trkpt lat="43.04439151238" lon="-5.38373796081">
        <ele>1658.48</ele>
        <time>2013-02-20T13:02:53+01:00</time>
      </trkpt>
      <trkpt lat="43.04438962457" lon="-5.383739831">
        <ele>1658.5</ele>
        <time>2013-02-20T13:02:54+01:00</time>
      </trkpt>
      <trkpt lat="43.04439484537" lon="-5.38375252676">
        <ele>1658.56</ele>
        <time>2013-02-20T13:02:57+01:00</time>
      </trkpt>
      <trkpt lat="43.04440898089" lon="-5.38375556378">
        <ele>1658.59</ele>
        <time>2013-02-20T13:02:58+01:00</time>
      </trkpt>
      <trkpt lat="43.04443708723" lon="-5.38375150833">
        <ele>1658.56</ele>
        <time>2013-02-20T13:02:59+01:00</time>
      </trkpt>
      <trkpt lat="43.04446566204" lon="-5.38374189498">
        <ele>1658.23</ele>
        <time>2013-02-20T13:03:01+01:00</time>
      </trkpt>
      <trkpt lat="43.04449231276" lon="-5.38373457373">
        <ele>1657.99</ele>
        <time>2013-02-20T13:03:04+01:00</time>
      </trkpt>
    </trkseg>
  </trk>
</gpx>